
Distance (Route):
Temperature : 8.6°C
Humidity : 93.1%
Pressure : 891.1hPa| Receiver | Frames | First received | Last received |
|---|---|---|---|
| AA1-15 | 1144 | 2026-09-01 22:48:07 | 2026-09-02 02:05:48 |
| DO2SHX-10 | 258 | 2026-09-01 23:17:30 | 2026-09-02 01:13:33 |
| DL1XH-15 | 252 | 2026-09-01 22:54:49 | 2026-09-02 01:24:41 |
| DL1XH-west | 136 | 2026-09-01 23:14:02 | 2026-09-02 01:23:41 |
| SP3WXH-11 | 103 | 2026-09-01 23:17:34 | 2026-09-02 02:23:14 |
| DB0DAN | 94 | 2026-09-01 22:50:25 | 2026-09-02 02:03:25 |
| DL1XH1-15 | 79 | 2026-09-02 01:02:02 | 2026-09-02 01:23:33 |
| MECKS9 | 67 | 2026-09-01 22:48:40 | 2026-09-02 02:03:01 |
| KRY50SP | 57 | 2026-09-01 23:18:46 | 2026-09-02 02:09:19 |
| AM1SDL-15 | 54 | 2026-09-01 22:55:03 | 2026-09-02 01:54:10 |
| SP3BTT-10 | 47 | 2026-09-01 23:13:12 | 2026-09-02 02:26:42 |
| S3001 | 44 | 2026-09-01 23:06:58 | 2026-09-02 01:21:31 |
| DG6HD-11 | 41 | 2026-09-01 22:58:02 | 2026-09-02 01:02:54 |
| EDDB2-11 | 30 | 2026-09-02 01:10:48 | 2026-09-02 02:11:20 |
| DJ2DS-15 | 29 | 2026-09-01 23:42:02 | 2026-09-02 01:18:49 |
| SONDE2-11 | 25 | 2026-09-01 23:06:55 | 2026-09-02 02:08:02 |
| DK1YY | 23 | 2026-09-01 23:21:29 | 2026-09-02 01:14:48 |
| KRY50SP-1 | 15 | 2026-09-02 01:52:16 | 2026-09-02 02:08:31 |
| D01LWL | 5 | 2026-09-02 00:54:48 | 2026-09-02 01:03:36 |
| DM0DOS-11 | 4 | 2026-09-02 01:08:14 | 2026-09-02 01:09:04 |
| JOZKA6-1 | 4 | 2026-09-02 01:59:37 | 2026-09-02 02:10:21 |
| DG6HD-15 | 1 | 2026-09-01 23:12:26 | 2026-09-01 23:12:26 |
| Receiver | Date | Latitude | Longitude | Direction | Speed | Altitude | Climb | Temperature | Humidity | Pressure | Voltage | Killtimer | Uptime | BKT | XDATA |
|---|---|---|---|---|---|---|---|---|---|---|---|---|---|---|---|
| SP3BTT-10 | 2026-09-02 02:26:42 | 53.82899 | 15.67016 | 87° | 29km/h | 1141m | -1.4m/s | 8.6°C | 93.1% | 891.1hPa | 2.7V | 00:00:00 | 00:00:00 | 00:00:00 | |
| SP3BTT-10 | 2026-09-02 02:24:53 | 53.82921 | 15.65785 | 79° | 27km/h | 1347m | -2.0m/s | 7.3°C | 79.5% | 869.1hPa | 2.7V | 00:00:00 | 00:00:00 | 00:00:00 | |
| SP3BTT-10 | 2026-09-02 02:24:12 | 53.82941 | 15.65323 | 104° | 37km/h | 1435m | -2.0m/s | 6.5°C | 77.1% | 860.0hPa | 2.7V | 06:48:00 | 00:00:00 | 00:00:00 | |
| SP3WXH-11 | 2026-09-02 02:23:14 | 53.82980 | 15.64501 | 109° | 29km/h | 1585m | -2.7m/s | 6.0°C | 43.4% | 844.1hPa | 2.7V | 00:00:00 | 00:00:00 | 00:00:00 | |
| SP3WXH-11 | 2026-09-02 02:22:43 | 53.83021 | 15.64009 | 97° | 38km/h | 1678m | -2.3m/s | 5.4°C | 54.4% | 834.6hPa | 2.7V | 00:00:00 | 00:00:00 | 00:00:00 | |
| SP3BTT-10 | 2026-09-02 02:22:23 | 53.83023 | 15.63910 | 87° | 35km/h | 1694m | -2.5m/s | 5.2°C | 55.6% | 833.0hPa | 2.7V | 00:00:00 | 00:00:00 | 00:00:00 | |
| SP3WXH-11 | 2026-09-02 02:22:12 | 53.83019 | 15.63772 | 101° | 26km/h | 1723m | -2.4m/s | 5.0°C | 58.4% | 830.2hPa | 2.7V | 00:00:00 | 00:00:00 | 00:00:00 | |
| SP3WXH-11 | 2026-09-02 02:21:41 | 53.83043 | 15.63353 | 108° | 33km/h | 1804m | -2.5m/s | 4.5°C | 59.4% | 822.0hPa | 2.7V | 00:00:00 | 00:00:00 | 00:00:00 | |
| SP3WXH-11 | 2026-09-02 02:21:10 | 53.83057 | 15.62925 | 100° | 38km/h | 1880m | -2.0m/s | 4.0°C | 71.3% | 814.5hPa | 2.7V | 00:00:00 | 00:00:00 | 00:00:00 | |
| SP3BTT-10 | 2026-09-02 02:21:08 | 53.83060 | 15.62892 | 96° | 44km/h | 1885m | -2.5m/s | 3.9°C | 72.1% | 813.9hPa | 2.7V | 00:00:00 | 00:00:00 | 00:00:00 | |
| SP3WXH-11 | 2026-09-02 02:20:39 | 53.83093 | 15.62473 | 103° | 40km/h | 1953m | -2.4m/s | 4.0°C | 65.5% | 806.9hPa | 2.7V | 00:00:00 | 00:00:00 | 00:00:00 | |
| SP3BTT-10 | 2026-09-02 02:20:08 | 53.83151 | 15.61954 | 99° | 38km/h | 2024m | -1.9m/s | 3.7°C | 72.7% | 800.0hPa | 2.7V | 00:00:00 | 00:00:00 | 00:00:00 | |
| SP3WXH-11 | 2026-09-02 02:19:37 | 53.83184 | 15.61470 | 87° | 37km/h | 2086m | -2.2m/s | 3.8°C | 72.2% | 793.8hPa | 2.7V | 00:00:00 | 00:00:00 | 00:00:00 | |
| SP3WXH-11 | 2026-09-02 02:19:06 | 53.83217 | 15.60985 | 80° | 38km/h | 2151m | -1.4m/s | 3.9°C | 60.7% | 787.8hPa | 2.7V | 00:00:00 | 00:00:00 | 00:00:00 | |
| SP3BTT-10 | 2026-09-02 02:18:53 | 53.83228 | 15.60791 | 103° | 42km/h | 2174m | -1.9m/s | 3.7°C | 60.5% | 785.2hPa | 2.7V | 00:00:00 | 00:00:00 | 00:00:00 | |
| SP3WXH-11 | 2026-09-02 02:18:35 | 53.83231 | 15.60455 | 91° | 33km/h | 2211m | -1.8m/s | 3.8°C | 47.1% | 781.8hPa | 2.7V | 00:00:00 | 00:00:00 | 00:00:00 | |
| SP3BTT-10 | 2026-09-02 02:18:06 | 53.83262 | 15.59925 | 98° | 42km/h | 2269m | -2.2m/s | 3.5°C | 48.0% | 776.1hPa | 2.7V | 00:00:00 | 00:00:00 | 00:00:00 | |
| SP3WXH-11 | 2026-09-02 02:18:04 | 53.83266 | 15.59883 | 95° | 49km/h | 2274m | -2.1m/s | 3.7°C | 37.9% | 775.7hPa | 2.7V | 00:00:00 | 00:00:00 | 00:00:00 | |
| SP3BTT-10 | 2026-09-02 02:17:37 | 53.83274 | 15.59370 | 94° | 42km/h | 2333m | -2.0m/s | 3.3°C | 33.6% | 770.2hPa | 2.7V | 00:00:00 | 00:00:00 | 00:00:00 | |
| SP3WXH-11 | 2026-09-02 02:17:33 | 53.83271 | 15.59284 | 86° | 47km/h | 2341m | -2.0m/s | 3.3°C | 0% | 769.4hPa | 2.7V | 00:00:00 | 00:00:00 | 00:00:00 | |
| SP3WXH-11 | 2026-09-02 02:17:02 | 53.83279 | 15.58701 | 87° | 37km/h | 2408m | -2.3m/s | 3.2°C | 33.7% | 763.2hPa | 2.7V | 00:00:00 | 00:00:00 | 00:00:00 | |
| SP3BTT-10 | 2026-09-02 02:16:49 | 53.83297 | 15.58482 | 94° | 46km/h | 2437m | -2.0m/s | 2.9°C | 35.3% | 760.3hPa | 2.7V | 06:55:00 | 00:00:00 | 00:00:00 | |
| SP3WXH-11 | 2026-09-02 02:16:31 | 53.83300 | 15.58177 | 103° | 42km/h | 2475m | -1.9m/s | 2.6°C | 38.1% | 756.7hPa | 2.7V | 00:00:00 | 00:00:00 | 00:00:00 | |
| SP3BTT-10 | 2026-09-02 02:16:27 | 53.83308 | 15.58097 | 96° | 40km/h | 2484m | -2.3m/s | 2.5°C | 41.9% | 756.0hPa | 2.7V | 00:00:00 | 00:00:00 | 00:00:00 | |
| SP3BTT-10 | 2026-09-02 02:16:07 | 53.83317 | 15.57758 | 106° | 46km/h | 2526m | -2.4m/s | 2.0°C | 62.3% | 751.8hPa | 2.7V | 00:00:00 | 00:00:00 | 00:00:00 | |
| SP3WXH-11 | 2026-09-02 02:16:00 | 53.83330 | 15.57617 | 92° | 51km/h | 2542m | -2.4m/s | 2.0°C | 61.7% | 750.5hPa | 2.7V | 00:00:00 | 00:00:00 | 00:00:00 | |
| SP3BTT-10 | 2026-09-02 02:15:30 | 53.83346 | 15.57091 | 81° | 40km/h | 2608m | -2.1m/s | 1.7°C | 60.6% | 744.5hPa | 2.7V | 00:00:00 | 00:00:00 | 00:00:00 | |
| SP3WXH-11 | 2026-09-02 02:15:29 | 53.83344 | 15.57073 | 80° | 44km/h | 2610m | -2.3m/s | 1.7°C | 59.7% | 744.2hPa | 2.7V | 00:00:00 | 00:00:00 | 00:00:00 | |
| SP3BTT-10 | 2026-09-02 02:15:10 | 53.83347 | 15.56753 | 83° | 40km/h | 2649m | -2.1m/s | 1.3°C | 61.1% | 740.5hPa | 2.7V | 00:00:00 | 00:00:00 | 00:00:00 | |
| SP3WXH-11 | 2026-09-02 02:14:58 | 53.83344 | 15.56564 | 105° | 37km/h | 2675m | -2.2m/s | 1.1°C | 61.3% | 738.2hPa | 2.7V | 00:00:00 | 00:00:00 | 00:00:00 | |
| SP3BTT-10 | 2026-09-02 02:14:50 | 53.83360 | 15.56414 | 92° | 46km/h | 2693m | -2.2m/s | 0.9°C | 63.1% | 736.5hPa | 2.7V | 00:00:00 | 00:00:00 | 00:00:00 | |
| SP3WXH-11 | 2026-09-02 02:14:27 | 53.83376 | 15.55998 | 80° | 38km/h | 2745m | -2.0m/s | 0.7°C | 60.8% | 732.0hPa | 2.7V | 00:00:00 | 00:00:00 | 00:00:00 | |
| SP3BTT-10 | 2026-09-02 02:14:24 | 53.83374 | 15.55966 | 88° | 38km/h | 2749m | -2.2m/s | 0.6°C | 61.8% | 731.5hPa | 2.7V | 00:00:00 | 00:00:00 | 00:00:00 | |
| SP3BTT-10 | 2026-09-02 02:14:04 | 53.83409 | 15.55635 | 87° | 42km/h | 2793m | -1.9m/s | 0.2°C | 63.3% | 727.6hPa | 2.7V | 06:58:00 | 00:00:00 | 00:00:00 | |
| SP3WXH-11 | 2026-09-02 02:13:56 | 53.83413 | 15.55525 | 108° | 29km/h | 2810m | -2.2m/s | 0.1°C | 62.9% | 725.9hPa | 2.6V | 00:00:00 | 00:00:00 | 00:00:00 | |
| SP3BTT-10 | 2026-09-02 02:13:39 | 53.83433 | 15.55229 | 92° | 38km/h | 2848m | -2.2m/s | -0.0°C | 63.6% | 722.5hPa | 2.6V | 00:00:00 | 00:00:00 | 00:00:00 | |
| SP3WXH-11 | 2026-09-02 02:13:25 | 53.83465 | 15.54985 | 89° | 42km/h | 2882m | -1.9m/s | -0.2°C | 61.4% | 719.6hPa | 2.6V | 00:00:00 | 00:00:00 | 00:00:00 | |
| SP3BTT-10 | 2026-09-02 02:13:19 | 53.83461 | 15.54905 | 84° | 40km/h | 2892m | -2.1m/s | -0.3°C | 63.0% | 718.4hPa | 2.6V | 00:00:00 | 00:00:00 | 00:00:00 | |
| SP3WXH-11 | 2026-09-02 02:12:54 | 53.83484 | 15.54487 | 85° | 31km/h | 2954m | -2.2m/s | -0.8°C | 63.0% | 713.1hPa | 2.6V | 00:00:00 | 00:00:00 | 00:00:00 | |
| SP3BTT-10 | 2026-09-02 02:12:35 | 53.83511 | 15.54176 | 82° | 46km/h | 2998m | -2.1m/s | -1.1°C | 65.5% | 709.3hPa | 2.6V | 00:00:00 | 00:00:00 | 00:00:00 | |
| SP3WXH-11 | 2026-09-02 02:12:23 | 53.83519 | 15.53968 | 108° | 44km/h | 3026m | -2.3m/s | -1.3°C | 64.1% | 706.6hPa | 2.6V | 00:00:00 | 00:00:00 | 00:00:00 | |
| SP3BTT-10 | 2026-09-02 02:12:10 | 53.83523 | 15.53734 | 89° | 42km/h | 3053m | -2.2m/s | -1.3°C | 63.9% | 704.1hPa | 2.6V | 07:00:00 | 00:00:00 | 00:00:00 | |
| SP3WXH-11 | 2026-09-02 02:11:52 | 53.83554 | 15.53400 | 85° | 44km/h | 3098m | -2.4m/s | -1.6°C | 61.1% | 700.3hPa | 2.6V | 00:00:00 | 00:00:00 | 00:00:00 | |
| SP3BTT-10 | 2026-09-02 02:11:50 | 53.83553 | 15.53383 | 86° | 42km/h | 3100m | -1.8m/s | -1.5°C | 62.2% | 700.1hPa | 2.6V | 00:00:00 | 00:00:00 | 00:00:00 | |
| SP3WXH-11 | 2026-09-02 02:11:21 | 53.83588 | 15.52893 | 108° | 37km/h | 3168m | -1.9m/s | -2.0°C | 58.6% | 694.0hPa | 2.7V | 00:00:00 | 00:00:00 | 00:00:00 | |
| EDDB2-11 | 2026-09-02 02:11:20 | 53.83592 | 15.52878 | 111° | 38km/h | 3170m | -2.2m/s | -2.0°C | 58.1% | 693.9hPa | 2.7V | 00:00:00 | 00:00:00 | 00:00:00 | |
| SP3BTT-10 | 2026-09-02 02:11:04 | 53.83612 | 15.52591 | 86° | 42km/h | 3207m | -1.9m/s | -2.2°C | 60.1% | 690.8hPa | 2.7V | 00:00:00 | 00:00:00 | 00:00:00 | |
| EDDB2-11 | 2026-09-02 02:10:49 | 53.83640 | 15.52066 | 97° | 47km/h | 3280m | -2.0m/s | -2.8°C | 59.0% | 684.6hPa | 2.7V | 00:00:00 | 00:00:00 | 00:00:00 | |
| JOZKA6-1 | 2026-09-02 02:10:21 | 53.83634 | 15.51837 | 86° | 33km/h | 3306m | -2.2m/s | 0°C | 0% | 0hPa | 2.7V | 00:00:00 | 00:00:00 | 00:00:00 | |
| SP3WXH-11 | 2026-09-02 02:10:19 | 53.83636 | 15.51797 | 100° | 29km/h | 3313m | -2.5m/s | -3.0°C | 59.7% | 681.6hPa | 2.7V | 00:00:00 | 00:00:00 | 00:00:00 | |
| EDDB2-11 | 2026-09-02 02:10:18 | 53.83638 | 15.51783 | 104° | 35km/h | 3315m | -2.5m/s | -3.0°C | 59.6% | 681.4hPa | 2.7V | 00:00:00 | 00:00:00 | 00:00:00 | |
| SP3WXH-11 | 2026-09-02 02:09:48 | 53.83672 | 15.51241 | 83° | 46km/h | 3383m | -2.0m/s | -3.3°C | 59.3% | 675.5hPa | 2.7V | 00:00:00 | 00:00:00 | 00:00:00 | |
| SP3BTT-10 | 2026-09-02 02:09:34 | 53.83681 | 15.51030 | 104° | 44km/h | 3408m | -2.0m/s | -3.5°C | 67.7% | 673.0hPa | 2.7V | 00:00:00 | 00:00:00 | 00:00:00 | |
| KRY50SP | 2026-09-02 02:09:19 | 53.83685 | 15.50776 | 99° | 33km/h | 3438m | -2.0m/s | -3.8°C | 69.9% | 670.5hPa | 2.7V | 07:03:00 | 00:00:00 | 00:00:00 | |
| EDDB2-11 | 2026-09-02 02:09:16 | 53.83699 | 15.50692 | 99° | 46km/h | 3447m | -2.2m/s | -3.9°C | 70.9% | 669.6hPa | 2.7V | 00:00:00 | 00:00:00 | 00:00:00 | |
| KRY50SP | 2026-09-02 02:09:13 | 53.83701 | 15.50672 | 102° | 47km/h | 3450m | -2.4m/s | -3.9°C | 71.1% | 669.6hPa | 2.7V | 07:03:00 | 00:00:00 | 00:00:00 | |
| KRY50SP | 2026-09-02 02:09:07 | 53.83704 | 15.50542 | 89° | 51km/h | 3466m | -2.3m/s | -4.0°C | 70.0% | 668.4hPa | 2.7V | 07:03:00 | 00:00:00 | 00:00:00 | |
| KRY50SP | 2026-09-02 02:09:01 | 53.83695 | 15.50427 | 83° | 40km/h | 3480m | -2.3m/s | -4.0°C | 72.4% | 667.2hPa | 2.7V | 07:03:00 | 00:00:00 | 00:00:00 | |
| KRY50SP | 2026-09-02 02:08:55 | 53.83698 | 15.50321 | 107° | 40km/h | 3494m | -2.2m/s | -4.1°C | 73.0% | 666.0hPa | 2.7V | 07:04:00 | 00:00:00 | 00:00:00 | |
| SP3BTT-10 | 2026-09-02 02:08:49 | 53.83718 | 15.50211 | 105° | 47km/h | 3509m | -1.9m/s | -4.1°C | 75.9% | 664.8hPa | 2.7V | 00:00:00 | 00:00:00 | 00:00:00 | |
| KRY50SP | 2026-09-02 02:08:48 | 53.83718 | 15.50211 | 105° | 51km/h | 3509m | -2.0m/s | -4.1°C | 74.4% | 664.9hPa | 2.7V | 07:04:00 | 00:00:00 | 00:00:00 | |
| EDDB2-11 | 2026-09-02 02:08:45 | 53.83729 | 15.50098 | 93° | 53km/h | 3521m | -2.0m/s | -4.2°C | 74.6% | 663.8hPa | 2.7V | 00:00:00 | 00:00:00 | 00:00:00 | |
| KRY50SP | 2026-09-02 02:08:42 | 53.83729 | 15.50075 | 93° | 53km/h | 3523m | -2.0m/s | -4.2°C | 74.2% | 663.6hPa | 2.7V | 07:04:00 | 00:00:00 | 00:00:00 | |
| KRY50SP | 2026-09-02 02:08:37 | 53.83726 | 15.49967 | 85° | 42km/h | 3533m | -1.8m/s | -4.3°C | 74.5% | 662.9hPa | 2.7V | 07:04:00 | 00:00:00 | 00:00:00 | |
| KRY50SP-1 | 2026-09-02 02:08:31 | 53.83727 | 15.49872 | 108° | 40km/h | 3543m | -2.5m/s | -4.4°C | 74.3% | 661.9hPa | 2.7V | 00:00:00 | 00:00:00 | 00:00:00 | |
| KRY50SP | 2026-09-02 02:08:26 | 53.83745 | 15.49775 | 106° | 55km/h | 3555m | -2.3m/s | -4.3°C | 72.4% | 661.0hPa | 2.7V | 07:04:00 | 00:00:00 | 00:00:00 | |
| KRY50SP-1 | 2026-09-02 02:08:24 | 53.83751 | 15.49727 | 98° | 57km/h | 3560m | -1.9m/s | -4.3°C | 72.0% | 660.6hPa | 2.7V | 00:00:00 | 00:00:00 | 00:00:00 | |
| KRY50SP | 2026-09-02 02:08:21 | 53.83754 | 15.49655 | 92° | 57km/h | 3566m | -2.1m/s | -4.3°C | 71.2% | 660.1hPa | 2.7V | 07:04:00 | 00:00:00 | 00:00:00 | |
| KRY50SP | 2026-09-02 02:08:16 | 53.83749 | 15.49548 | 83° | 44km/h | 3575m | -1.9m/s | -4.3°C | 63.0% | 659.3hPa | 2.7V | 07:04:00 | 00:00:00 | 00:00:00 | |
| KRY50SP-1 | 2026-09-02 02:08:15 | 53.83749 | 15.49530 | 91° | 40km/h | 3576m | -2.0m/s | -4.3°C | 63.0% | 659.1hPa | 2.7V | 00:00:00 | 00:00:00 | 00:00:00 | |
| SP3WXH-11 | 2026-09-02 02:08:14 | 53.83749 | 15.49498 | 97° | 37km/h | 3579m | -1.9m/s | -4.3°C | 62.8% | 658.9hPa | 2.7V | 00:00:00 | 00:00:00 | 00:00:00 | |
| EDDB2-11 | 2026-09-02 02:08:13 | 53.83751 | 15.49482 | 103° | 40km/h | 3580m | -2.0m/s | -4.3°C | 62.7% | 658.8hPa | 2.7V | 00:00:00 | 00:00:00 | 00:00:00 | |
| KRY50SP | 2026-09-02 02:08:10 | 53.83758 | 15.49447 | 107° | 42km/h | 3583m | -2.0m/s | -4.3°C | 63.0% | 658.4hPa | 2.7V | 07:04:00 | 00:00:00 | 00:00:00 | |
| SP3BTT-10 | 2026-09-02 02:08:05 | 53.83777 | 15.49328 | 104° | 49km/h | 3596m | -2.1m/s | -4.3°C | 63.3% | 657.2hPa | 2.7V | 00:00:00 | 00:00:00 | 00:00:00 | |
| SONDE2-11 | 2026-09-02 02:08:02 | 53.83811 | 15.48965 | 104° | 57km/h | 3630m | -1.9m/s | 0°C | -1.0% | -1.0hPa | 2.7V | 00:00:00 | 00:00:00 | 00:00:00 | |
| KRY50SP | 2026-09-02 02:08:00 | 53.83783 | 15.49233 | 93° | 55km/h | 3605m | -2.0m/s | -4.2°C | 61.5% | 656.7hPa | 2.7V | 07:04:00 | 00:00:00 | 00:00:00 | |
| KRY50SP | 2026-09-02 02:07:54 | 53.83784 | 15.49119 | 102° | 40km/h | 3616m | -1.9m/s | -4.2°C | 60.9% | 655.6hPa | 2.7V | 07:04:00 | 00:00:00 | 00:00:00 | |
| KRY50SP | 2026-09-02 02:07:49 | 53.83799 | 15.49030 | 110° | 47km/h | 3624m | -2.1m/s | -4.2°C | 60.7% | 654.8hPa | 2.7V | 07:04:00 | 00:00:00 | 00:00:00 | |
| SP3WXH-11 | 2026-09-02 02:07:43 | 53.83817 | 15.48869 | 91° | 55km/h | 3639m | -2.1m/s | -4.3°C | 61.1% | 653.8hPa | 2.7V | 00:00:00 | 00:00:00 | 00:00:00 | |
| KRY50SP | 2026-09-02 02:07:42 | 53.83817 | 15.48869 | 92° | 55km/h | 3639m | -2.1m/s | -4.3°C | 61.1% | 653.8hPa | 2.7V | 07:04:00 | 00:00:00 | 00:00:00 | |
| KRY50SP | 2026-09-02 02:07:37 | 53.83814 | 15.48773 | 94° | 38km/h | 3649m | -2.0m/s | -4.3°C | 61.2% | 652.9hPa | 2.7V | 07:04:00 | 00:00:00 | 00:00:00 | |
| KRY50SP | 2026-09-02 02:07:31 | 53.83827 | 15.48675 | 110° | 44km/h | 3662m | -2.0m/s | -4.4°C | 61.4% | 651.8hPa | 2.7V | 07:04:00 | 00:00:00 | 00:00:00 | |
| KRY50SP | 2026-09-02 02:07:25 | 53.83850 | 15.48553 | 104° | 58km/h | 3674m | -1.9m/s | -4.5°C | 60.9% | 650.9hPa | 2.7V | 07:04:00 | 00:00:00 | 00:00:00 | |
| SP3BTT-10 | 2026-09-02 02:07:19 | 53.83853 | 15.48399 | 90° | 46km/h | 3688m | -2.1m/s | -4.5°C | 61.8% | 649.8hPa | 2.7V | 00:00:00 | 00:00:00 | 00:00:00 | |
| SP3WXH-11 | 2026-09-02 02:07:12 | 53.83866 | 15.48283 | 108° | 44km/h | 3702m | -1.9m/s | -4.6°C | 60.5% | 648.6hPa | 2.7V | 00:00:00 | 00:00:00 | 00:00:00 | |
| EDDB2-11 | 2026-09-02 02:07:11 | 53.83870 | 15.48264 | 108° | 46km/h | 3704m | -1.8m/s | -4.7°C | 60.6% | 648.4hPa | 2.7V | 00:00:00 | 00:00:00 | 00:00:00 | |
| KRY50SP | 2026-09-02 02:07:05 | 53.83888 | 15.48156 | 103° | 55km/h | 3713m | -2.1m/s | -4.8°C | 61.0% | 647.6hPa | 2.7V | 00:00:00 | 00:00:00 | 00:00:00 | |
| KRY50SP | 2026-09-02 02:06:56 | 53.83891 | 15.47955 | 86° | 42km/h | 3733m | -1.8m/s | -4.9°C | 61.3% | 646.2hPa | 2.7V | 00:00:00 | 00:00:00 | 00:00:00 | |
| KRY50SP | 2026-09-02 02:06:51 | 53.83895 | 15.47875 | 103° | 37km/h | 3743m | -1.9m/s | -5.0°C | 61.5% | 645.4hPa | 2.7V | 00:00:00 | 00:00:00 | 00:00:00 | |
| KRY50SP | 2026-09-02 02:06:46 | 53.83911 | 15.47793 | 110° | 44km/h | 3751m | -1.7m/s | -5.0°C | 60.8% | 644.5hPa | 2.7V | 00:00:00 | 00:00:00 | 00:00:00 | |
| SP3WXH-11 | 2026-09-02 02:06:41 | 53.83930 | 15.47665 | 100° | 53km/h | 3763m | -2.2m/s | -5.1°C | 60.3% | 643.6hPa | 2.7V | 00:00:00 | 00:00:00 | 00:00:00 | |
| EDDB2-11 | 2026-09-02 02:06:40 | 53.83932 | 15.47642 | 98° | 57km/h | 3765m | -2.2m/s | -5.1°C | 60.4% | 643.4hPa | 2.7V | 00:00:00 | 00:00:00 | 00:00:00 | |
| KRY50SP-1 | 2026-09-02 02:06:36 | 53.83934 | 15.47575 | 89° | 47km/h | 3773m | -1.8m/s | -5.1°C | 60.5% | 642.9hPa | 2.7V | 00:00:00 | 00:00:00 | 00:00:00 | |
| SP3BTT-10 | 2026-09-02 02:06:35 | 53.83934 | 15.47538 | 95° | 46km/h | 3776m | -2.0m/s | -5.1°C | 61.8% | 642.5hPa | 2.7V | 07:05:00 | 00:00:00 | 00:00:00 | |
| KRY50SP-1 | 2026-09-02 02:06:29 | 53.83949 | 15.47458 | 112° | 42km/h | 3787m | -1.8m/s | -5.2°C | 60.2% | 641.7hPa | 2.7V | 00:00:00 | 00:00:00 | 00:00:00 | |
| KRY50SP | 2026-09-02 02:06:20 | 53.83980 | 15.47266 | 95° | 51km/h | 3805m | -2.0m/s | -5.3°C | 60.6% | 640.2hPa | 2.7V | 07:06:00 | 00:00:00 | 00:00:00 | |
| KRY50SP-1 | 2026-09-02 02:06:19 | 53.83981 | 15.47246 | 97° | 46km/h | 3807m | -1.8m/s | -5.4°C | 60.6% | 640.0hPa | 2.7V | 00:00:00 | 00:00:00 | 00:00:00 | |
| KRY50SP | 2026-09-02 02:06:14 | 53.83988 | 15.47163 | 108° | 38km/h | 3817m | -2.4m/s | -5.3°C | 59.5% | 639.3hPa | 2.7V | 07:06:00 | 00:00:00 | 00:00:00 | |
| KRY50SP-1 | 2026-09-02 02:06:11 | 53.84004 | 15.47102 | 114° | 42km/h | 3825m | -1.8m/s | -5.3°C | 58.8% | 638.4hPa | 2.7V | 00:00:00 | 00:00:00 | 00:00:00 | |
| SP3WXH-11 | 2026-09-02 02:06:10 | 53.84009 | 15.47085 | 113° | 44km/h | 3827m | -2.0m/s | -5.3°C | 58.5% | 638.2hPa | 2.7V | 00:00:00 | 00:00:00 | 00:00:00 | |
| EDDB2-11 | 2026-09-02 02:06:09 | 53.84014 | 15.47067 | 114° | 46km/h | 3829m | -1.9m/s | -5.3°C | 58.3% | 638.0hPa | 2.7V | 00:00:00 | 00:00:00 | 00:00:00 | |
| KRY50SP-1 | 2026-09-02 02:06:05 | 53.84029 | 15.47009 | 114° | 55km/h | 3835m | -2.2m/s | -5.3°C | 58.3% | 637.6hPa | 2.7V | 00:00:00 | 00:00:00 | 00:00:00 | |
| AA1-15 | 2026-09-02 02:05:48 | 53.84091 | 15.46664 | 120° | 49km/h | 3872m | -2.3m/s | -5.5°C | 60.1% | 634.5hPa | 2.7V | 07:06:35 | 03:46:16 | 00:00:00 | |
| AA1-15 | 2026-09-02 02:05:30 | 53.84159 | 15.46327 | 120° | 40km/h | 3914m | -2.1m/s | -5.7°C | 57.9% | 631.2hPa | 2.6V | 07:15:56 | 03:45:58 | 00:00:00 | |
| KRY50SP | 2026-09-02 02:05:28 | 53.84164 | 15.46311 | 122° | 44km/h | 3916m | -2.6m/s | -5.8°C | 53.2% | 630.9hPa | 2.6V | 00:00:00 | 00:00:00 | 00:00:00 | |
| KRY50SP | 2026-09-02 02:05:16 | 53.84214 | 15.46077 | 103° | 38km/h | 3944m | -2.3m/s | -6.0°C | 54.3% | 628.7hPa | 2.6V | 00:00:00 | 00:00:00 | 00:00:00 | |
| KRY50SP | 2026-09-02 02:05:10 | 53.84240 | 15.45985 | 122° | 47km/h | 3958m | -2.0m/s | -6.1°C | 55.2% | 627.7hPa | 2.6V | 00:00:00 | 00:00:00 | 00:00:00 | |
| SP3WXH-11 | 2026-09-02 02:05:08 | 53.84259 | 15.45929 | 116° | 53km/h | 3964m | -2.2m/s | -6.1°C | 55.6% | 627.1hPa | 2.6V | 00:00:00 | 00:00:00 | 00:00:00 | |
| EDDB2-11 | 2026-09-02 02:05:07 | 53.84265 | 15.45908 | 114° | 55km/h | 3966m | -2.4m/s | -6.2°C | 55.8% | 626.9hPa | 2.6V | 00:00:00 | 00:00:00 | 00:00:00 | |
| SP3BTT-10 | 2026-09-02 02:05:04 | 53.84280 | 15.45842 | 107° | 51km/h | 3973m | -2.1m/s | -6.2°C | 58.0% | 626.3hPa | 2.6V | 00:00:00 | 00:00:00 | 00:00:00 | |
| AA1-15 | 2026-09-02 02:04:27 | 53.84454 | 15.45128 | 109° | 58km/h | 4059m | -2.7m/s | -6.6°C | 57.8% | 619.4hPa | 2.7V | 07:15:56 | 03:44:55 | 00:00:00 | |
| AA1-15 | 2026-09-02 02:04:15 | 53.84503 | 15.44900 | 120° | 55km/h | 4089m | -2.7m/s | -6.9°C | 57.1% | 617.2hPa | 2.7V | 07:15:56 | 03:44:43 | 00:00:00 | |
| AA1-15 | 2026-09-02 02:04:03 | 53.84555 | 15.44631 | 102° | 46km/h | 4118m | -2.3m/s | -7.1°C | 58.9% | 614.9hPa | 2.7V | 07:15:56 | 03:44:31 | 00:00:00 | |
| AA1-15 | 2026-09-02 02:03:46 | 53.84630 | 15.44277 | 102° | 57km/h | 4159m | -2.7m/s | -7.4°C | 62% | 611.7hPa | 2.6V | 07:15:56 | 03:44:14 | 00:00:00 | |
| AA1-15 | 2026-09-02 02:03:35 | 53.84657 | 15.44065 | 114° | 44km/h | 4187m | -2.4m/s | -7.6°C | 60.4% | 609.5hPa | 2.6V | 07:15:56 | 03:44:03 | 00:00:00 | |
| SP3BTT-10 | 2026-09-02 02:03:35 | 53.84657 | 15.44065 | 115° | 51km/h | 4188m | -2.4m/s | 0°C | 0% | 0hPa | 2.7V | 00:00:00 | 00:00:00 | 00:00:00 | |
| EDDB2-11 | 2026-09-02 02:03:34 | 53.84662 | 15.44048 | 116° | 46km/h | 4190m | -2.4m/s | -7.6°C | 57.1% | 609.4hPa | 2.7V | 00:00:00 | 00:00:00 | 00:00:00 | |
| JOZKA6-1 | 2026-09-02 02:03:32 | 53.84668 | 15.44030 | 118° | 49km/h | 4193m | -2.5m/s | 0°C | 0% | 0hPa | 2.7V | 00:00:00 | 00:00:00 | 00:00:00 | |
| DB0DAN | 2026-09-02 02:03:25 | 53.84704 | 15.43843 | 101° | 57km/h | 4212m | -2.7m/s | -7.7°C | 56.5% | 607.64hPa | 2.7V | 00:00:00 | 00:00:00 | 00:00:00 | |
| AA1-15 | 2026-09-02 02:03:24 | 53.84707 | 15.43819 | 96° | 57km/h | 4214m | -2.3m/s | -7.8°C | 61.5% | 607.4hPa | 2.7V | 07:15:56 | 03:43:52 | 00:00:00 | |
| AA1-15 | 2026-09-02 02:03:13 | 53.84732 | 15.43602 | 113° | 47km/h | 4243m | -2m/s | -8°C | 60.7% | 605.2hPa | 2.7V | 07:15:56 | 03:43:41 | 00:00:00 | |
| AA1-15 | 2026-09-02 02:03:02 | 53.84774 | 15.43346 | 94° | 53km/h | 4268m | -2.3m/s | -8.2°C | 60.8% | 603.1hPa | 2.7V | 07:15:56 | 03:43:30 | 00:00:00 | |
| KRY50SP | 2026-09-02 02:03:02 | 53.84774 | 15.43346 | 95° | 53km/h | 4268m | -2.3m/s | -8.2°C | 57.5% | 603.2hPa | 2.7V | 00:00:00 | 00:00:00 | 00:00:00 | |
| MECKS9 | 2026-09-02 02:03:01 | 53.84774 | 15.43346 | 95° | 53km/h | 4268m | -2.3m/s | -8.2°C | 57.5% | 603.2hPa | 2.7V | 00:00:00 | 00:00:00 | 00:00:00 | |
| DB0DAN | 2026-09-02 02:02:55 | 53.84794 | 15.43211 | 115° | 46km/h | 4285m | -2.7m/s | -8.3°C | 57.1% | 601.79hPa | 2.7V | 00:00:00 | 00:00:00 | 00:00:00 | |
| AA1-15 | 2026-09-02 02:02:51 | 53.84815 | 15.43127 | 113° | 58km/h | 4295m | -2.7m/s | -8.4°C | 62.2% | 601hPa | 2.6V | 07:15:56 | 03:43:19 | 00:00:00 | |
| SP3BTT-10 | 2026-09-02 02:02:49 | 53.84826 | 15.43078 | 107° | 57km/h | 4300m | -2.6m/s | 0°C | 0% | 0hPa | 2.7V | 00:00:00 | 00:00:00 | 00:00:00 | |
| KRY50SP | 2026-09-02 02:02:48 | 53.84826 | 15.43078 | 108° | 62km/h | 4300m | -2.7m/s | -8.5°C | 57.7% | 600.6hPa | 2.7V | 00:00:00 | 00:00:00 | 00:00:00 | |
| KRY50SP | 2026-09-02 02:02:43 | 53.84841 | 15.42952 | 97° | 57km/h | 4312m | -2.7m/s | -8.6°C | 57.8% | 599.7hPa | 2.7V | 00:00:00 | 00:00:00 | 00:00:00 | |
| DB0DAN | 2026-09-02 02:02:40 | 53.84847 | 15.42866 | 99° | 44km/h | 4321m | -2.2m/s | -8.6°C | 58% | 598.91hPa | 2.7V | 00:00:00 | 00:00:00 | 00:00:00 | |
| MECKS9 | 2026-09-02 02:02:38 | 53.84849 | 15.42847 | 106° | 46km/h | 4324m | -2.6m/s | -8.7°C | 57.9% | 598.8hPa | 2.6V | 00:00:00 | 00:00:00 | 00:00:00 | |
| KRY50SP | 2026-09-02 02:02:37 | 53.84852 | 15.42828 | 111° | 46km/h | 4327m | -2.8m/s | -8.7°C | 57.9% | 598.5hPa | 2.6V | 00:00:00 | 00:00:00 | 00:00:00 | |
| SP3WXH-11 | 2026-09-02 02:02:33 | 53.84879 | 15.42729 | 115° | 57km/h | 4340m | -2.6m/s | -8.8°C | 58.0% | 597.7hPa | 2.6V | 00:00:00 | 00:00:00 | 00:00:00 | |
| EDDB2-11 | 2026-09-02 02:02:32 | 53.84885 | 15.42707 | 117° | 58km/h | 4342m | -2.7m/s | -8.8°C | 57.9% | 597.4hPa | 2.6V | 00:00:00 | 00:00:00 | 00:00:00 | |
| KRY50SP | 2026-09-02 02:02:27 | 53.84914 | 15.42585 | 108° | 62km/h | 4356m | -2.7m/s | -8.9°C | 58.3% | 596.4hPa | 2.6V | 00:00:00 | 00:00:00 | 00:00:00 | |
| MECKS9 | 2026-09-02 02:02:25 | 53.84919 | 15.42559 | 104° | 62km/h | 4358m | -2.4m/s | -8.9°C | 58.5% | 596.3hPa | 2.6V | 00:00:00 | 00:00:00 | 00:00:00 | |
| DB0DAN | 2026-09-02 02:02:25 | 53.84922 | 15.42534 | 101° | 57km/h | 4360m | -2.7m/s | -9°C | 58.5% | 596.09hPa | 2.7V | 00:00:00 | 00:00:00 | 00:00:00 | |
| AA1-15 | 2026-09-02 02:02:08 | 53.84994 | 15.42183 | 112° | 62km/h | 4401m | -2.1m/s | -9.2°C | 57.5% | 593hPa | 2.6V | 07:15:56 | 03:42:36 | 00:00:00 | |
| AA1-15 | 2026-09-02 02:01:57 | 53.85034 | 15.41940 | 113° | 42km/h | 4427m | -2.9m/s | -9.3°C | 54.4% | 591hPa | 2.6V | 07:15:56 | 03:42:25 | 00:00:00 | |
| AA1-15 | 2026-09-02 02:01:46 | 53.85100 | 15.41731 | 114° | 60km/h | 4454m | -2.2m/s | -9.5°C | 54% | 589hPa | 2.7V | 07:15:56 | 03:42:14 | 00:00:00 | |
| AA1-15 | 2026-09-02 02:01:35 | 53.85141 | 15.41502 | 116° | 44km/h | 4478m | -2.8m/s | -9.7°C | 55.8% | 587hPa | 2.7V | 07:15:56 | 03:42:03 | 00:00:00 | |
| SP3WXH-11 | 2026-09-02 02:01:31 | 53.85164 | 15.41436 | 122° | 47km/h | 4488m | -2.3m/s | -9.8°C | 51.4% | 586.2hPa | 2.6V | 00:00:00 | 00:00:00 | 00:00:00 | |
| EDDB2-11 | 2026-09-02 02:01:30 | 53.85171 | 15.41417 | 120° | 53km/h | 4491m | -2.3m/s | -9.8°C | 51.4% | 586.0hPa | 2.6V | 00:00:00 | 00:00:00 | 00:00:00 | |
| SP3BTT-10 | 2026-09-02 02:01:18 | 53.85228 | 15.41159 | 111° | 49km/h | 4519m | -2.5m/s | 0°C | 0% | 0hPa | 2.6V | 00:00:00 | 00:00:00 | 00:00:00 | |
| JOZKA6-1 | 2026-09-02 02:01:07 | 53.85290 | 15.40935 | 104° | 57km/h | 4546m | -2.6m/s | 0°C | 0% | 0hPa | 2.6V | 00:00:00 | 00:00:00 | 00:00:00 | |
| SP3WXH-11 | 2026-09-02 02:01:00 | 53.85311 | 15.40799 | 114° | 40km/h | 4561m | -2.5m/s | -10.1°C | 48.5% | 580.7hPa | 2.6V | 00:00:00 | 00:00:00 | 00:00:00 | |
| EDDB2-11 | 2026-09-02 02:00:59 | 53.85328 | 15.40748 | 122° | 49km/h | 4569m | -2.5m/s | -10.1°C | 48.3% | 580.2hPa | 2.6V | 00:00:00 | 00:00:00 | 00:00:00 | |
| DB0DAN | 2026-09-02 02:00:40 | 53.85405 | 15.40392 | 115° | 40km/h | 4609m | -2.3m/s | -10.4°C | 48.9% | 577.13hPa | 2.6V | 00:00:00 | 00:00:00 | 00:00:00 | |
| SP3BTT-10 | 2026-09-02 02:00:36 | 53.85428 | 15.40320 | 117° | 57km/h | 4619m | -2.2m/s | 0°C | 0% | 0hPa | 2.7V | 00:00:00 | 00:00:00 | 00:00:00 | |
| SP3WXH-11 | 2026-09-02 02:00:29 | 53.85460 | 15.40158 | 97° | 53km/h | 4636m | -2.6m/s | -10.6°C | 49.4% | 575.1hPa | 2.7V | 00:00:00 | 00:00:00 | 00:00:00 | |
| DB0DAN | 2026-09-02 02:00:25 | 53.85466 | 15.40075 | 101° | 44km/h | 4646m | -2.5m/s | -10.7°C | 49.7% | 574.44hPa | 2.7V | 00:00:00 | 00:00:00 | 00:00:00 | |
| MECKS9 | 2026-09-02 02:00:16 | 53.85501 | 15.39935 | 120° | 53km/h | 4667m | -2.6m/s | -10.8°C | 50.0% | 573.0hPa | 2.6V | 07:12:00 | 00:00:00 | 00:00:00 | |
| DB0DAN | 2026-09-02 02:00:10 | 53.85534 | 15.39772 | 99° | 57km/h | 4683m | -2.5m/s | -11°C | 50.5% | 571.81hPa | 2.6V | 00:00:00 | 00:00:00 | 00:00:00 | |
| SP3WXH-11 | 2026-09-02 01:59:58 | 53.85562 | 15.39533 | 116° | 49km/h | 4711m | -2.4m/s | -11.3°C | 51.5% | 569.7hPa | 2.7V | 00:00:00 | 00:00:00 | 00:00:00 | |
| EDDB2-11 | 2026-09-02 01:59:57 | 53.85573 | 15.39493 | 114° | 55km/h | 4715m | -2.6m/s | -11.3°C | 51.8% | 569.4hPa | 2.7V | 00:00:00 | 00:00:00 | 00:00:00 | |
| DB0DAN | 2026-09-02 01:59:55 | 53.85579 | 15.39471 | 115° | 55km/h | 4718m | -2.8m/s | -11.3°C | 52.1% | 569.1hPa | 2.7V | 00:00:00 | 00:00:00 | 00:00:00 | |
| MECKS9 | 2026-09-02 01:59:49 | 53.85602 | 15.39350 | 100° | 58km/h | 4730m | -2.3m/s | -11.4°C | 52.2% | 568.2hPa | 2.7V | 07:12:00 | 00:00:00 | 00:00:00 | |
| DB0DAN | 2026-09-02 01:59:40 | 53.85617 | 15.39141 | 107° | 40km/h | 4752m | -2.7m/s | -11.6°C | 52.2% | 566.45hPa | 2.7V | 00:00:00 | 00:00:00 | 00:00:00 | |
| MECKS9 | 2026-09-02 01:59:38 | 53.85621 | 15.39123 | 110° | 46km/h | 4755m | -2.2m/s | -11.6°C | 52.2% | 566.2hPa | 2.7V | 00:00:00 | 00:00:00 | 00:00:00 | |
| JOZKA6-1 | 2026-09-02 01:59:37 | 53.85624 | 15.39105 | 112° | 46km/h | 4758m | -2.2m/s | 0°C | 0% | 0hPa | 2.7V | 00:00:00 | 00:00:00 | 00:00:00 | |
| SP3BTT-10 | 2026-09-02 01:59:34 | 53.85645 | 15.39018 | 109° | 55km/h | 4768m | -2.7m/s | -11.6°C | 53.8% | 565.4hPa | 2.7V | 00:00:00 | 00:00:00 | 00:00:00 | |
| SP3WXH-11 | 2026-09-02 01:59:27 | 53.85663 | 15.38846 | 91° | 51km/h | 4785m | -2.0m/s | -11.8°C | 52.5% | 564.2hPa | 2.6V | 00:00:00 | 00:00:00 | 00:00:00 | |
| EDDB2-11 | 2026-09-02 01:59:26 | 53.85663 | 15.38824 | 90° | 47km/h | 4787m | -2.4m/s | -11.8°C | 53.0% | 564.0hPa | 2.6V | 00:00:00 | 00:00:00 | 00:00:00 | |
| SONDE2-11 | 2026-09-02 01:59:15 | 53.85714 | 15.38500 | 95° | 58km/h | 4822m | -2.1m/s | -12.1°C | 54.0% | 561.5hPa | 2.6V | 00:00:00 | 00:00:00 | 00:00:00 | |
| MECKS9 | 2026-09-02 01:59:08 | 53.85716 | 15.38450 | 96° | 57km/h | 4827m | -2.4m/s | -12.2°C | 54.4% | 561.1hPa | 2.6V | 00:00:00 | 00:00:00 | 00:00:00 | |
| SP3WXH-11 | 2026-09-02 01:58:56 | 53.85755 | 15.38185 | 111° | 58km/h | 4857m | -2.6m/s | -12.4°C | 55.2% | 558.9hPa | 2.6V | 00:00:00 | 00:00:00 | 00:00:00 | |
| EDDB2-11 | 2026-09-02 01:58:55 | 53.85765 | 15.38136 | 104° | 58km/h | 4862m | -2.1m/s | -12.5°C | 55.4% | 558.7hPa | 2.6V | 00:00:00 | 00:00:00 | 00:00:00 | |
| SP3BTT-10 | 2026-09-02 01:58:50 | 53.85776 | 15.38033 | 98° | 53km/h | 4871m | -2.3m/s | -12.5°C | 57.9% | 557.9hPa | 2.6V | 00:00:00 | 00:00:00 | 00:00:00 | |
| SONDE2-11 | 2026-09-02 01:58:43 | 53.85786 | 15.37882 | 104° | 42km/h | 4886m | -2.6m/s | -12.7°C | 56.5% | 556.8hPa | 2.6V | 00:00:00 | 00:00:00 | 00:00:00 | |
| AA1-15 | 2026-09-02 01:58:23 | 53.85861 | 15.37453 | 104° | 44km/h | 4934m | -2.6m/s | -13.1°C | 62.5% | 553.4hPa | 2.6V | 07:15:56 | 03:38:51 | 00:00:00 | |
| SONDE2-11 | 2026-09-02 01:58:12 | 53.85908 | 15.37213 | 98° | 55km/h | 4960m | -2.2m/s | -13.2°C | 57.7% | 551.6hPa | 2.6V | 00:00:00 | 00:00:00 | 00:00:00 | |
| SP3BTT-10 | 2026-09-02 01:58:06 | 53.85921 | 15.37092 | 110° | 49km/h | 4973m | -2.3m/s | -13.3°C | 59.9% | 550.6hPa | 2.6V | 00:00:00 | 00:00:00 | 00:00:00 | |
| SP3WXH-11 | 2026-09-02 01:57:54 | 53.85990 | 15.36839 | 106° | 62km/h | 5003m | -2.6m/s | -13.4°C | 52.7% | 548.5hPa | 2.6V | 00:00:00 | 00:00:00 | 00:00:00 | |
| EDDB2-11 | 2026-09-02 01:57:53 | 53.85997 | 15.36789 | 101° | 58km/h | 5008m | -2.4m/s | -13.5°C | 52.8% | 548.1hPa | 2.6V | 00:00:00 | 00:00:00 | 00:00:00 | |
| SONDE2-11 | 2026-09-02 01:57:41 | 53.86053 | 15.36560 | 120° | 58km/h | 5034m | -3.2m/s | -13.5°C | 50.0% | 546.0hPa | 2.6V | 00:00:00 | 00:00:00 | 00:00:00 | |
| SP3WXH-11 | 2026-09-02 01:57:23 | 53.86133 | 15.36220 | 121° | 47km/h | 5076m | -2.3m/s | -13.9°C | 50.5% | 543.1hPa | 2.6V | 00:00:00 | 00:00:00 | 00:00:00 | |
| EDDB2-11 | 2026-09-02 01:57:22 | 53.86147 | 15.36182 | 120° | 55km/h | 5080m | -2.8m/s | -13.9°C | 50.6% | 542.8hPa | 2.6V | 00:00:00 | 00:00:00 | 00:00:00 | |
| AA1-15 | 2026-09-02 01:57:03 | 53.86235 | 15.35824 | 122° | 57km/h | 5122m | -3.1m/s | -14°C | 49.4% | 539.6hPa | 2.6V | 07:15:56 | 03:37:31 | 00:00:00 | |
| AA1-15 | 2026-09-02 01:56:53 | 53.86284 | 15.35604 | 105° | 46km/h | 5148m | -2.6m/s | -14°C | 48.4% | 537.8hPa | 2.6V | 07:15:56 | 03:37:21 | 00:00:00 | |
| SP3WXH-11 | 2026-09-02 01:56:52 | 53.86287 | 15.35586 | 102° | 44km/h | 5150m | -2.6m/s | -14.1°C | 45.2% | 537.6hPa | 2.6V | 00:00:00 | 00:00:00 | 00:00:00 | |
| EDDB2-11 | 2026-09-02 01:56:51 | 53.86293 | 15.35552 | 112° | 38km/h | 5155m | -2.8m/s | -14.1°C | 45.1% | 537.3hPa | 2.6V | 00:00:00 | 00:00:00 | 00:00:00 | |
| AA1-15 | 2026-09-02 01:56:42 | 53.86339 | 15.35415 | 119° | 58km/h | 5177m | -2.8m/s | -14°C | 48.4% | 535.9hPa | 2.6V | 07:15:56 | 03:37:10 | 00:00:00 | |
| AA1-15 | 2026-09-02 01:56:31 | 53.86384 | 15.35183 | 111° | 40km/h | 5204m | -2.7m/s | -14°C | 47.5% | 534hPa | 2.6V | 07:15:56 | 03:36:59 | 00:00:00 | |
| AA1-15 | 2026-09-02 01:56:20 | 53.86450 | 15.34966 | 106° | 55km/h | 5232m | -2.2m/s | -14.1°C | 47.2% | 532.1hPa | 2.6V | 07:15:56 | 03:36:48 | 00:00:00 | |
| AA1-15 | 2026-09-02 01:56:09 | 53.86496 | 15.34765 | 126° | 49km/h | 5260m | -2.5m/s | -14.3°C | 48.7% | 530.1hPa | 2.6V | 07:16:47 | 03:36:37 | 00:00:00 | |
| AA1-15 | 2026-09-02 01:55:58 | 53.86559 | 15.34529 | 105° | 49km/h | 5286m | -2.6m/s | -14.5°C | 48.4% | 528.2hPa | 2.6V | 07:16:47 | 03:36:26 | 00:00:00 | |
| AA1-15 | 2026-09-02 01:55:47 | 53.86605 | 15.34342 | 123° | 53km/h | 5315m | -2.8m/s | -14.7°C | 48.4% | 526.3hPa | 2.6V | 07:16:47 | 03:36:15 | 00:00:00 | |
| AA1-15 | 2026-09-02 01:55:36 | 53.86652 | 15.34106 | 105° | 40km/h | 5340m | -2.4m/s | -14.9°C | 48.1% | 524.4hPa | 2.6V | 07:16:47 | 03:36:04 | 00:00:00 | |
| AA1-15 | 2026-09-02 01:55:25 | 53.86715 | 15.33888 | 108° | 58km/h | 5369m | -2.6m/s | -15°C | 47% | 522.6hPa | 2.6V | 07:17:38 | 03:35:53 | 00:00:00 | |
| AA1-15 | 2026-09-02 01:55:14 | 53.86755 | 15.33686 | 122° | 49km/h | 5395m | -3.2m/s | -15.2°C | 46.6% | 520.6hPa | 2.6V | 07:17:38 | 03:35:42 | 00:00:00 | |
| AA1-15 | 2026-09-02 01:55:03 | 53.86816 | 15.33450 | 100° | 53km/h | 5423m | -2.5m/s | -15.3°C | 46.4% | 518.8hPa | 2.6V | 07:17:38 | 03:35:31 | 00:00:00 | |
| AA1-15 | 2026-09-02 01:54:52 | 53.86859 | 15.33263 | 121° | 51km/h | 5454m | -2.7m/s | -15.5°C | 46% | 516.8hPa | 2.5V | 07:17:38 | 03:35:20 | 00:00:00 | |
| SP3WXH-11 | 2026-09-02 01:54:48 | 53.86890 | 15.33156 | 106° | 55km/h | 5466m | -2.3m/s | -15.6°C | 42.7% | 516.0hPa | 2.6V | 00:00:00 | 00:00:00 | 00:00:00 | |
| EDDB2-11 | 2026-09-02 01:54:46 | 53.86894 | 15.33133 | 103° | 57km/h | 5468m | -2.6m/s | -15.6°C | 42.1% | 515.8hPa | 2.6V | 00:00:00 | 00:00:00 | 00:00:00 | |
| AA1-15 | 2026-09-02 01:54:41 | 53.86907 | 15.33031 | 105° | 38km/h | 5479m | -2.5m/s | -15.7°C | 44.1% | 514.9hPa | 2.6V | 07:17:38 | 03:35:09 | 00:00:00 | |
| AA1-15 | 2026-09-02 01:54:30 | 53.86968 | 15.32829 | 109° | 57km/h | 5507m | -2.7m/s | -15.8°C | 43.5% | 513.1hPa | 2.6V | 07:20:11 | 03:34:58 | 00:00:00 | |
| AA1-15 | 2026-09-02 01:54:20 | 53.87003 | 15.32648 | 119° | 47km/h | 5532m | -2.6m/s | -16°C | 42.1% | 511.4hPa | 2.6V | 07:20:11 | 03:34:48 | 00:00:00 | |
| KRY50SP | 2026-09-02 01:54:19 | 53.87003 | 15.32648 | 120° | 47km/h | 5532m | -2.6m/s | -16.0°C | 39.0% | 511.4hPa | 2.6V | 07:18:00 | 00:00:00 | 00:00:00 | |
| SP3WXH-11 | 2026-09-02 01:54:17 | 53.87021 | 15.32587 | 113° | 57km/h | 5538m | -2.6m/s | -16.0°C | 37.5% | 510.9hPa | 2.6V | 00:00:00 | 00:00:00 | 00:00:00 | |
| KRY50SP-1 | 2026-09-02 01:54:15 | 53.87026 | 15.32564 | 108° | 57km/h | 5541m | -2.4m/s | -16.1°C | 37.0% | 510.7hPa | 2.6V | 00:00:00 | 00:00:00 | 00:00:00 | |
| KRY50SP | 2026-09-02 01:54:14 | 53.87030 | 15.32541 | 103° | 57km/h | 5542m | -2.6m/s | -16.1°C | 36.8% | 510.5hPa | 2.6V | 07:18:00 | 00:00:00 | 00:00:00 | |
| MECKS9 | 2026-09-02 01:54:13 | 53.87033 | 15.32517 | 102° | 57km/h | 5544m | -3.0m/s | -16.1°C | 36.5% | 510.4hPa | 2.6V | 00:00:00 | 00:00:00 | 00:00:00 | |
| AM1SDL-15 | 2026-09-02 01:54:10 | 53.87043 | 15.32434 | 105° | 49km/h | 5555m | -2.4m/s | -16.1°C | 36.0% | 509.6hPa | 2.6V | 00:00:00 | 03:34:38 | 00:00:00 | |
| KRY50SP-1 | 2026-09-02 01:54:09 | 53.87042 | 15.32434 | 105° | 40km/h | 5555m | -2.4m/s | -16.1°C | 34.6% | 509.6hPa | 2.6V | 00:00:00 | 00:00:00 | 00:00:00 | |
| KRY50SP | 2026-09-02 01:54:08 | 53.87045 | 15.32418 | 107° | 37km/h | 5557m | -2.5m/s | -16.1°C | 34.3% | 509.5hPa | 2.6V | 07:18:00 | 00:00:00 | 00:00:00 | |
| SONDE2-11 | 2026-09-02 01:54:04 | 53.87071 | 15.32337 | 122° | 51km/h | 5569m | -2.9m/s | -16.2°C | 33.6% | 508.6hPa | 2.6V | 00:00:00 | 00:00:00 | 00:00:00 | |
| KRY50SP | 2026-09-02 01:54:02 | 53.87078 | 15.32318 | 121° | 51km/h | 5572m | -2.5m/s | -16.2°C | 33.8% | 508.5hPa | 2.6V | 07:18:00 | 00:00:00 | 00:00:00 | |
| AM1SDL-15 | 2026-09-02 01:53:58 | 53.87105 | 15.32207 | 102° | 46km/h | 5582m | -2.6m/s | -16.2°C | 33.2% | 507.6hPa | 2.6V | 00:00:00 | 03:34:26 | 00:00:00 | |
| KRY50SP | 2026-09-02 01:53:57 | 53.87105 | 15.32207 | 103° | 55km/h | 5582m | -2.7m/s | -16.2°C | 31.8% | 507.7hPa | 2.6V | 07:18:00 | 00:00:00 | 00:00:00 | |
| DB0DAN | 2026-09-02 01:53:55 | 53.87113 | 15.32146 | 105° | 40km/h | 5588m | -2.2m/s | -16.2°C | 28.8% | 507.19hPa | 2.6V | 00:00:00 | 00:00:00 | 00:00:00 | |
| SP3WXH-11 | 2026-09-02 01:53:46 | 53.87166 | 15.31977 | 118° | 57km/h | 5612m | -2.8m/s | -16.1°C | 22.2% | 505.5hPa | 2.5V | 00:00:00 | 00:00:00 | 00:00:00 | |
| KRY50SP | 2026-09-02 01:53:45 | 53.87159 | 15.31998 | 119° | 53km/h | 5609m | -2.5m/s | -16.1°C | 22.7% | 505.6hPa | 2.5V | 07:18:00 | 00:00:00 | 00:00:00 | |
| EDDB2-11 | 2026-09-02 01:53:44 | 53.87173 | 15.31955 | 113° | 58km/h | 5614m | -2.1m/s | -16.1°C | 21.8% | 505.3hPa | 2.5V | 00:00:00 | 00:00:00 | 00:00:00 | |
| DB0DAN | 2026-09-02 01:53:40 | 53.87189 | 15.31863 | 101° | 49km/h | 5624m | -2.9m/s | -16°C | 19.9% | 504.58hPa | 2.5V | 00:00:00 | 00:00:00 | 00:00:00 | |
| KRY50SP-1 | 2026-09-02 01:53:40 | 53.87186 | 15.31885 | 104° | 55km/h | 5621m | -2.5m/s | -16.0°C | 20.2% | 504.7hPa | 2.6V | 07:19:00 | 00:00:00 | 00:00:00 | |
| KRY50SP | 2026-09-02 01:53:39 | 53.87189 | 15.31863 | 102° | 51km/h | 5624m | -2.9m/s | -16.0°C | 19.9% | 504.6hPa | 2.6V | 07:19:00 | 00:00:00 | 00:00:00 | |
| KRY50SP | 2026-09-02 01:53:34 | 53.87202 | 15.31770 | 108° | 40km/h | 5638m | -2.6m/s | -16.1°C | 19.3% | 503.7hPa | 2.6V | 07:19:00 | 00:00:00 | 00:00:00 | |
| SONDE2-11 | 2026-09-02 01:53:33 | 53.87211 | 15.31739 | 118° | 42km/h | 5642m | -2.9m/s | -16.1°C | 19.2% | 503.4hPa | 2.6V | 00:00:00 | 00:00:00 | 00:00:00 | |
| MECKS9 | 2026-09-02 01:53:32 | 53.87210 | 15.31739 | 119° | 44km/h | 5642m | -2.9m/s | -16.1°C | 19.2% | 503.4hPa | 2.6V | 07:19:00 | 00:00:00 | 00:00:00 | |
| KRY50SP | 2026-09-02 01:53:29 | 53.87228 | 15.31690 | 123° | 51km/h | 5648m | -3.5m/s | -16.1°C | 18.7% | 502.9hPa | 2.6V | 07:19:00 | 00:00:00 | 00:00:00 | |
| DB0DAN | 2026-09-02 01:53:25 | 53.87263 | 15.31583 | 111° | 57km/h | 5663m | -2.6m/s | -16.2°C | 17.5% | 502.02hPa | 2.6V | 00:00:00 | 00:00:00 | 00:00:00 | |
| KRY50SP-1 | 2026-09-02 01:53:24 | 53.87263 | 15.31582 | 112° | 60km/h | 5663m | -2.6m/s | -16.2°C | 17.5% | 502.0hPa | 2.5V | 07:19:00 | 00:00:00 | 00:00:00 | |
| KRY50SP | 2026-09-02 01:53:23 | 53.87268 | 15.31558 | 109° | 58km/h | 5665m | -2.7m/s | -16.2°C | 17.4% | 501.8hPa | 2.5V | 07:19:00 | 00:00:00 | 00:00:00 | |
| AM1SDL-15 | 2026-09-02 01:53:22 | 53.87277 | 15.31512 | 105° | 47km/h | 5670m | -2.7m/s | -16.2°C | 18.0% | 501.4hPa | 2.5V | 00:00:00 | 03:33:50 | 00:00:00 | |
| MECKS9 | 2026-09-02 01:53:21 | 53.87277 | 15.31512 | 106° | 53km/h | 5670m | -2.8m/s | -16.2°C | 17.2% | 501.5hPa | 2.5V | 07:19:00 | 00:00:00 | 00:00:00 | |
| KRY50SP-1 | 2026-09-02 01:53:18 | 53.87284 | 15.31447 | 102° | 46km/h | 5677m | -2.6m/s | -16.3°C | 16.9% | 501.0hPa | 2.5V | 07:19:00 | 00:00:00 | 00:00:00 | |
| KRY50SP | 2026-09-02 01:53:17 | 53.87287 | 15.31429 | 105° | 42km/h | 5679m | -2.7m/s | -16.3°C | 16.8% | 500.9hPa | 2.5V | 07:19:00 | 00:00:00 | 00:00:00 | |
| SP3WXH-11 | 2026-09-02 01:53:15 | 53.87302 | 15.31363 | 119° | 46km/h | 5688m | -3.0m/s | -16.3°C | 15.8% | 500.2hPa | 2.5V | 00:00:00 | 00:00:00 | 00:00:00 | |
| EDDB2-11 | 2026-09-02 01:53:13 | 53.87308 | 15.31346 | 122° | 47km/h | 5692m | -2.7m/s | -16.3°C | 15.4% | 500.0hPa | 2.5V | 00:00:00 | 00:00:00 | 00:00:00 | |
| DB0DAN | 2026-09-02 01:53:10 | 53.87328 | 15.31292 | 123° | 51km/h | 5700m | -3.2m/s | -16.3°C | 13.4% | 499.55hPa | 2.5V | 00:00:00 | 00:00:00 | 00:00:00 | |
| AA1-15 | 2026-09-02 01:53:03 | 53.87369 | 15.31134 | 105° | 55km/h | 5722m | -2.7m/s | -16.4°C | 16.1% | 498.2hPa | 2.6V | 07:20:11 | 03:33:31 | 00:00:00 | |
| SONDE2-11 | 2026-09-02 01:53:02 | 53.87372 | 15.31111 | 102° | 53km/h | 5724m | -2.8m/s | -16.4°C | 14.1% | 498.1hPa | 2.6V | 00:00:00 | 00:00:00 | 00:00:00 | |
| KRY50SP | 2026-09-02 01:53:00 | 53.87374 | 15.31090 | 102° | 51km/h | 5727m | -3.1m/s | -16.4°C | 14.3% | 497.9hPa | 2.6V | 07:19:00 | 00:00:00 | 00:00:00 | |
| AM1SDL-15 | 2026-09-02 01:52:58 | 53.87381 | 15.31030 | 101° | 49km/h | 5736m | -3.1m/s | -16.4°C | 15.1% | 497.3hPa | 2.6V | 00:00:00 | 03:33:26 | 00:00:00 | |
| DB0DAN | 2026-09-02 01:52:55 | 53.87390 | 15.30978 | 113° | 37km/h | 5746m | -2.9m/s | -16.5°C | 14.3% | 496.81hPa | 2.6V | 00:00:00 | 00:00:00 | 00:00:00 | |
| AA1-15 | 2026-09-02 01:52:52 | 53.87405 | 15.30928 | 116° | 51km/h | 5755m | -3.3m/s | -16.6°C | 16.7% | 496.4hPa | 2.6V | 07:20:11 | 03:33:20 | 00:00:00 | |
| AA1-15 | 2026-09-02 01:52:41 | 53.87433 | 15.30696 | 100° | 42km/h | 5783m | -3.2m/s | -16.8°C | 17.8% | 494.4hPa | 2.5V | 07:20:11 | 03:33:09 | 00:00:00 | |
| DB0DAN | 2026-09-02 01:52:40 | 53.87434 | 15.30679 | 100° | 38km/h | 5786m | -3m/s | -16.8°C | 15.2% | 494.21hPa | 2.5V | 00:00:00 | 00:00:00 | 00:00:00 | |
| AA1-15 | 2026-09-02 01:52:30 | 53.87473 | 15.30490 | 97° | 57km/h | 5813m | -2.6m/s | -16.9°C | 17.3% | 492.6hPa | 2.6V | 07:20:11 | 03:32:58 | 00:00:00 | |
| KRY50SP-1 | 2026-09-02 01:52:28 | 53.87474 | 15.30467 | 96° | 53km/h | 5816m | -2.8m/s | -16.9°C | 14.9% | 492.3hPa | 2.5V | 07:20:00 | 00:00:00 | 00:00:00 | |
| DB0DAN | 2026-09-02 01:52:25 | 53.87477 | 15.30384 | 94° | 42km/h | 5825m | -3.2m/s | -16.9°C | 14.9% | 491.65hPa | 2.5V | 00:00:00 | 00:00:00 | 00:00:00 | |
| AA1-15 | 2026-09-02 01:52:19 | 53.87493 | 15.30287 | 115° | 46km/h | 5841m | -2.9m/s | -17°C | 15.9% | 490.6hPa | 2.5V | 07:20:11 | 03:32:47 | 00:00:00 | |
| KRY50SP-1 | 2026-09-02 01:52:16 | 53.87502 | 15.30249 | 113° | 53km/h | 5846m | -3.2m/s | -17.0°C | 13.2% | 490.2hPa | 2.6V | 07:20:00 | 00:00:00 | 00:00:00 | |
| KRY50SP | 2026-09-02 01:52:14 | 53.87510 | 15.30206 | 102° | 55km/h | 5851m | -2.7m/s | -17.0°C | 12.6% | 489.9hPa | 2.6V | 07:20:00 | 00:00:00 | 00:00:00 | |
| DB0DAN | 2026-09-02 01:52:10 | 53.87517 | 15.30095 | 91° | 46km/h | 5863m | -3.2m/s | -16.9°C | 10% | 489.06hPa | 2.6V | 00:00:00 | 00:00:00 | 00:00:00 | |
| AA1-15 | 2026-09-02 01:52:08 | 53.87517 | 15.30057 | 93° | 42km/h | 5868m | -3m/s | -16.9°C | 11.5% | 488.7hPa | 2.6V | 07:20:11 | 03:32:36 | 00:00:00 | |
| AA1-15 | 2026-09-02 01:51:57 | 53.87549 | 15.29855 | 99° | 53km/h | 5898m | -2.7m/s | -17.2°C | 14.5% | 486.9hPa | 2.5V | 07:21:02 | 03:32:25 | 00:00:00 | |
| AA1-15 | 2026-09-02 01:51:47 | 53.87567 | 15.29675 | 113° | 47km/h | 5922m | -3.1m/s | -17.4°C | 15% | 485.1hPa | 2.6V | 07:21:02 | 03:32:15 | 00:00:00 | |
| AA1-15 | 2026-09-02 01:51:36 | 53.87593 | 15.29443 | 93° | 38km/h | 5950m | -2.7m/s | -17.6°C | 13.4% | 483.2hPa | 2.5V | 07:21:02 | 03:32:04 | 00:00:00 | |
| AA1-15 | 2026-09-02 01:51:25 | 53.87633 | 15.29227 | 100° | 58km/h | 5979m | -3.1m/s | -17.9°C | 14.3% | 481.3hPa | 2.6V | 07:21:02 | 03:31:53 | 00:00:00 | |
| AA1-15 | 2026-09-02 01:51:14 | 53.87652 | 15.29017 | 113° | 40km/h | 6009m | -2.9m/s | -18.2°C | 15.8% | 479.5hPa | 2.5V | 07:21:02 | 03:31:42 | 00:00:00 | |
| AA1-15 | 2026-09-02 01:51:03 | 53.87684 | 15.28781 | 97° | 40km/h | 6038m | -2.5m/s | -18.4°C | 16.8% | 477.6hPa | 2.6V | 07:21:53 | 03:31:31 | 00:00:00 | |
| SONDE2-11 | 2026-09-02 01:50:58 | 53.87705 | 15.28679 | 111° | 47km/h | 6054m | -2.8m/s | -18.6°C | 14.9% | 476.6hPa | 2.5V | 00:00:00 | 00:00:00 | 00:00:00 | |
| DB0DAN | 2026-09-02 01:50:55 | 53.87715 | 15.28635 | 109° | 57km/h | 6059m | -3.4m/s | -18.6°C | 14.8% | 476.27hPa | 2.5V | 00:00:00 | 00:00:00 | 00:00:00 | |
| AA1-15 | 2026-09-02 01:50:52 | 53.87724 | 15.28565 | 96° | 57km/h | 6068m | -2.7m/s | -18.7°C | 17.2% | 475.7hPa | 2.6V | 07:21:53 | 03:31:20 | 00:00:00 | |
| AA1-15 | 2026-09-02 01:50:42 | 53.87744 | 15.28380 | 113° | 46km/h | 6093m | -2.6m/s | -19°C | 16.7% | 474.1hPa | 2.6V | 07:21:53 | 03:31:10 | 00:00:00 | |
| DB0DAN | 2026-09-02 01:50:40 | 53.87754 | 15.28340 | 114° | 53km/h | 6098m | -3.3m/s | -19°C | 14.3% | 473.76hPa | 2.6V | 00:00:00 | 00:00:00 | 00:00:00 | |
| AA1-15 | 2026-09-02 01:50:31 | 53.87778 | 15.28138 | 90° | 46km/h | 6120m | -2.9m/s | -19.2°C | 17.1% | 472.3hPa | 2.5V | 07:21:53 | 03:30:59 | 00:00:00 | |
| AA1-15 | 2026-09-02 01:50:21 | 53.87808 | 15.27959 | 110° | 57km/h | 6147m | -3.4m/s | -19.5°C | 18.6% | 470.7hPa | 2.5V | 07:21:53 | 03:30:49 | 00:00:00 | |
| AA1-15 | 2026-09-02 01:50:10 | 53.87825 | 15.27733 | 106° | 42km/h | 6180m | -2.6m/s | -19.7°C | 18.2% | 468.9hPa | 2.6V | 07:22:44 | 03:30:38 | 00:00:00 | |
| AA1-15 | 2026-09-02 01:49:59 | 53.87852 | 15.27498 | 92° | 49km/h | 6210m | -3.1m/s | -20°C | 19.2% | 467.1hPa | 2.6V | 07:22:44 | 03:30:27 | 00:00:00 | |
| AA1-15 | 2026-09-02 01:49:48 | 53.87878 | 15.27291 | 106° | 55km/h | 6240m | -2.2m/s | -20.2°C | 20.9% | 465.4hPa | 2.6V | 07:22:44 | 03:30:16 | 00:00:00 | |
| AA1-15 | 2026-09-02 01:49:37 | 53.87892 | 15.27043 | 91° | 40km/h | 6262m | -2.3m/s | -20.3°C | 20.6% | 463.6hPa | 2.6V | 07:22:44 | 03:30:05 | 00:00:00 | |
| AA1-15 | 2026-09-02 01:49:26 | 53.87930 | 15.26823 | 99° | 62km/h | 6290m | -4.2m/s | -20.6°C | 21% | 461.8hPa | 2.6V | 07:23:35 | 03:29:54 | 00:00:00 | |
| AA1-15 | 2026-09-02 01:49:15 | 53.87942 | 15.26589 | 107° | 42km/h | 6320m | -2.2m/s | -20.8°C | 21% | 460.1hPa | 2.6V | 07:23:35 | 03:29:43 | 00:00:00 | |
| AA1-15 | 2026-09-02 01:49:04 | 53.87976 | 15.26337 | 91° | 55km/h | 6349m | -3.6m/s | -21°C | 21.2% | 458.3hPa | 2.6V | 07:23:35 | 03:29:32 | 00:00:00 | |
| AA1-15 | 2026-09-02 01:48:53 | 53.88003 | 15.26123 | 105° | 55km/h | 6380m | -2.5m/s | -21.3°C | 21.3% | 456.6hPa | 2.5V | 07:23:35 | 03:29:21 | 00:00:00 | |
| AA1-15 | 2026-09-02 01:48:42 | 53.88018 | 15.25860 | 87° | 47km/h | 6403m | -2.7m/s | -21.5°C | 20.9% | 454.8hPa | 2.5V | 07:23:35 | 03:29:10 | 00:00:00 | |
| AA1-15 | 2026-09-02 01:48:31 | 53.88047 | 15.25626 | 97° | 60km/h | 6435m | -1.8m/s | -21.7°C | 18.6% | 453.2hPa | 2.6V | 07:24:26 | 03:28:59 | 00:00:00 | |
| AA1-15 | 2026-09-02 01:48:20 | 53.88063 | 15.25388 | 109° | 53km/h | 6462m | -2m/s | -21.9°C | 17.9% | 451.5hPa | 2.6V | 07:24:26 | 03:28:48 | 00:00:00 | |
| AA1-15 | 2026-09-02 01:48:10 | 53.88083 | 15.25143 | 94° | 49km/h | 6483m | -2m/s | -22.1°C | 16% | 450hPa | 2.5V | 07:24:26 | 03:28:38 | 00:00:00 | |
| AA1-15 | 2026-09-02 01:47:59 | 53.88115 | 15.24886 | 92° | 64km/h | 6508m | -3.3m/s | -22.3°C | 16.5% | 448.4hPa | 2.5V | 07:24:26 | 03:28:27 | 00:00:00 | |
| AA1-15 | 2026-09-02 01:47:48 | 53.88139 | 15.24640 | 108° | 62km/h | 6533m | -3.1m/s | -22.5°C | 16.4% | 446.8hPa | 2.6V | 07:24:26 | 03:28:16 | 00:00:00 | |
| AA1-15 | 2026-09-02 01:47:37 | 53.88158 | 15.24357 | 97° | 47km/h | 6563m | -2.4m/s | -22.6°C | 15.3% | 445.1hPa | 2.6V | 07:25:17 | 03:28:05 | 00:00:00 | |
| AA1-15 | 2026-09-02 01:47:26 | 53.88189 | 15.24076 | 92° | 60km/h | 6587m | -2.4m/s | -22.8°C | 15.8% | 443.6hPa | 2.6V | 07:25:17 | 03:27:54 | 00:00:00 | |
| AA1-15 | 2026-09-02 01:47:15 | 53.88218 | 15.23822 | 104° | 66km/h | 6614m | -2.5m/s | -23°C | 16.4% | 442hPa | 2.6V | 07:25:17 | 03:27:43 | 00:00:00 | |
| AA1-15 | 2026-09-02 01:47:04 | 53.88233 | 15.23528 | 94° | 55km/h | 6635m | -3m/s | -23.2°C | 17% | 440.4hPa | 2.5V | 07:25:17 | 03:27:32 | 00:00:00 | |
| AA1-15 | 2026-09-02 01:46:54 | 53.88275 | 15.23280 | 102° | 71km/h | 6666m | -3m/s | -23.4°C | 17.3% | 438.9hPa | 2.6V | 07:26:08 | 03:27:22 | 00:00:00 | |
| SONDE2-11 | 2026-09-02 01:46:49 | 53.88284 | 15.23133 | 90° | 62km/h | 6681m | -2.6m/s | -23.5°C | 14.5% | 438.1hPa | 2.6V | 00:00:00 | 00:00:00 | 00:00:00 | |
| AA1-15 | 2026-09-02 01:46:43 | 53.88300 | 15.22991 | 107° | 60km/h | 6696m | -2m/s | -23.6°C | 17.7% | 437.2hPa | 2.6V | 07:26:08 | 03:27:11 | 00:00:00 | |
| AA1-15 | 2026-09-02 01:46:32 | 53.88334 | 15.22682 | 93° | 57km/h | 6725m | -2.4m/s | -23.9°C | 18.2% | 435.6hPa | 2.5V | 07:26:08 | 03:27:00 | 00:00:00 | |
| AA1-15 | 2026-09-02 01:46:21 | 53.88379 | 15.22419 | 105° | 71km/h | 6754m | -1.9m/s | -24.1°C | 16.3% | 434hPa | 2.5V | 07:26:08 | 03:26:49 | 00:00:00 | |
| AA1-15 | 2026-09-02 01:46:11 | 53.88400 | 15.22163 | 107° | 51km/h | 6776m | -2.2m/s | -24.2°C | 16.8% | 432.6hPa | 2.6V | 07:26:08 | 03:26:39 | 00:00:00 | |
| AA1-15 | 2026-09-02 01:46:01 | 53.88435 | 15.21907 | 94° | 57km/h | 6800m | -3m/s | -24.4°C | 17.6% | 431.2hPa | 2.6V | 07:26:59 | 03:26:29 | 00:00:00 | |
| AA1-15 | 2026-09-02 01:45:50 | 53.88477 | 15.21655 | 103° | 66km/h | 6827m | -2.7m/s | -24.6°C | 17.5% | 429.6hPa | 2.5V | 07:26:59 | 03:26:18 | 00:00:00 | |
| SONDE2-11 | 2026-09-02 01:45:47 | 53.88484 | 15.21574 | 92° | 60km/h | 6833m | -2.9m/s | -24.7°C | 14.9% | 429.2hPa | 2.5V | 00:00:00 | 00:00:00 | 00:00:00 | |
| AA1-15 | 2026-09-02 01:45:39 | 53.88499 | 15.21404 | 111° | 51km/h | 6855m | -2.7m/s | -24.9°C | 18.1% | 428hPa | 2.5V | 07:26:59 | 03:26:07 | 00:00:00 | |
| AA1-15 | 2026-09-02 01:45:29 | 53.88540 | 15.21147 | 95° | 60km/h | 6881m | -2.2m/s | -25°C | 18.5% | 426.6hPa | 2.6V | 07:26:59 | 03:25:57 | 00:00:00 | |
| AA1-15 | 2026-09-02 01:45:18 | 53.88572 | 15.20920 | 114° | 58km/h | 6908m | -2.6m/s | -25.1°C | 16.7% | 424.9hPa | 2.6V | 07:26:59 | 03:25:46 | 00:00:00 | |
| AA1-15 | 2026-09-02 01:45:07 | 53.88608 | 15.20641 | 97° | 49km/h | 6936m | -2.8m/s | -25.3°C | 18.7% | 423.3hPa | 2.6V | 07:27:50 | 03:25:35 | 00:00:00 | |
| AA1-15 | 2026-09-02 01:44:56 | 53.88653 | 15.20385 | 95° | 62km/h | 6963m | -3.2m/s | -25.6°C | 22.4% | 421.8hPa | 2.5V | 07:27:50 | 03:25:24 | 00:00:00 | |
| AA1-15 | 2026-09-02 01:44:45 | 53.88690 | 15.20149 | 113° | 60km/h | 6991m | -2.5m/s | -25.8°C | 22.2% | 420.1hPa | 2.5V | 07:27:50 | 03:25:13 | 00:00:00 | |
| AA1-15 | 2026-09-02 01:44:34 | 53.88722 | 15.19877 | 101° | 46km/h | 7020m | -2.6m/s | -26°C | 22.7% | 418.5hPa | 2.5V | 07:27:50 | 03:25:02 | 00:00:00 | |
| AA1-15 | 2026-09-02 01:44:23 | 53.88776 | 15.19621 | 98° | 64km/h | 7047m | -2.6m/s | -26.3°C | 23.4% | 416.9hPa | 2.6V | 07:27:50 | 03:24:51 | 00:00:00 | |
| AA1-15 | 2026-09-02 01:44:12 | 53.88808 | 15.19381 | 115° | 58km/h | 7077m | -2.6m/s | -26.6°C | 24% | 415.2hPa | 2.6V | 07:28:41 | 03:24:40 | 00:00:00 | |
| AA1-15 | 2026-09-02 01:44:02 | 53.88845 | 15.19122 | 93° | 53km/h | 7102m | -2.8m/s | -26.8°C | 24% | 413.7hPa | 2.6V | 07:28:41 | 03:24:30 | 00:00:00 | |
| AA1-15 | 2026-09-02 01:43:51 | 53.88894 | 15.18877 | 107° | 68km/h | 7127m | -2.6m/s | -27.1°C | 23.6% | 412hPa | 2.6V | 07:28:41 | 03:24:19 | 00:00:00 | |
| AA1-15 | 2026-09-02 01:43:39 | 53.88931 | 15.18591 | 114° | 58km/h | 7159m | -3m/s | -27.3°C | 23% | 410.2hPa | 2.5V | 07:28:41 | 03:24:07 | 00:00:00 | |
| AA1-15 | 2026-09-02 01:43:29 | 53.88982 | 15.18322 | 94° | 64km/h | 7177m | -3.3m/s | -27.5°C | 23.3% | 408.8hPa | 2.5V | 07:29:32 | 03:23:57 | 00:00:00 | |
| AA1-15 | 2026-09-02 01:43:19 | 53.89015 | 15.18090 | 110° | 68km/h | 7209m | -2.2m/s | -27.8°C | 23.9% | 407.3hPa | 2.5V | 07:29:32 | 03:23:47 | 00:00:00 | |
| AA1-15 | 2026-09-02 01:43:08 | 53.89049 | 15.17778 | 95° | 51km/h | 7223m | -3.2m/s | -28°C | 22.7% | 405.6hPa | 2.5V | 07:29:32 | 03:23:36 | 00:00:00 | |
| AA1-15 | 2026-09-02 01:42:57 | 53.89090 | 15.17513 | 99° | 71km/h | 7269m | -3.1m/s | -28.2°C | 22.4% | 403.9hPa | 2.5V | 07:29:32 | 03:23:25 | 00:00:00 | |
| AA1-15 | 2026-09-02 01:42:47 | 53.89109 | 15.17275 | 112° | 60km/h | 7310m | -2.2m/s | -28.4°C | 23.5% | 402.3hPa | 2.5V | 07:29:32 | 03:23:15 | 00:00:00 | |
| AA1-15 | 2026-09-02 01:42:36 | 53.89149 | 15.16974 | 95° | 53km/h | 7331m | -3m/s | -28.7°C | 24.2% | 400.6hPa | 2.6V | 07:30:23 | 03:23:04 | 00:00:00 | |
| AA1-15 | 2026-09-02 01:42:25 | 53.89195 | 15.16706 | 101° | 71km/h | 7369m | -1.7m/s | -29°C | 26.6% | 398.9hPa | 2.6V | 07:30:23 | 03:22:53 | 00:00:00 | |
| AA1-15 | 2026-09-02 01:42:14 | 53.89223 | 15.16424 | 111° | 60km/h | 7380m | -3.5m/s | -29.3°C | 28.1% | 397.3hPa | 2.6V | 07:30:23 | 03:22:42 | 00:00:00 | |
| AA1-15 | 2026-09-02 01:42:03 | 53.89252 | 15.16120 | 94° | 53km/h | 7417m | -2.5m/s | -29.6°C | 28% | 395.6hPa | 2.6V | 07:30:23 | 03:22:31 | 00:00:00 | |
| AA1-15 | 2026-09-02 01:41:52 | 53.89301 | 15.15841 | 99° | 71km/h | 7451m | -2.2m/s | -29.9°C | 29.9% | 393.8hPa | 2.6V | 07:30:23 | 03:22:20 | 00:00:00 | |
| EDDB2-11 | 2026-09-02 01:41:50 | 53.89305 | 15.15781 | 95° | 71km/h | 7458m | -3.0m/s | -29.9°C | 25.7% | 393.5hPa | 2.6V | 00:00:00 | 00:00:00 | 00:00:00 | |
| AA1-15 | 2026-09-02 01:41:41 | 53.89328 | 15.15562 | 113° | 66km/h | 7485m | -3.4m/s | -30.2°C | 30.7% | 392.1hPa | 2.6V | 07:31:14 | 03:22:09 | 00:00:00 | |
| AA1-15 | 2026-09-02 01:41:30 | 53.89369 | 15.15251 | 98° | 55km/h | 7507m | -1.5m/s | -30.5°C | 29.8% | 390.4hPa | 2.6V | 07:31:14 | 03:21:58 | 00:00:00 | |
| AA1-15 | 2026-09-02 01:41:19 | 53.89432 | 15.14981 | 109° | 78km/h | 7522m | -2.8m/s | -30.8°C | 31.6% | 388.6hPa | 2.6V | 07:31:14 | 03:21:47 | 00:00:00 | |
| AA1-15 | 2026-09-02 01:41:08 | 53.89474 | 15.14683 | 114° | 62km/h | 7560m | -3.7m/s | -31°C | 38.2% | 387hPa | 2.6V | 07:31:14 | 03:21:36 | 00:00:00 | |
| AA1-15 | 2026-09-02 01:40:58 | 53.89535 | 15.14390 | 101° | 66km/h | 7598m | -3.1m/s | -31.2°C | 35.1% | 385.4hPa | 2.6V | 07:32:05 | 03:21:26 | 00:00:00 | |
| AA1-15 | 2026-09-02 01:40:47 | 53.89606 | 15.14120 | 118° | 78km/h | 7637m | -3.4m/s | -31.3°C | 28.7% | 383.6hPa | 2.5V | 07:32:05 | 03:21:15 | 00:00:00 | |
| AA1-15 | 2026-09-02 01:40:37 | 53.89662 | 15.13844 | 121° | 58km/h | 7662m | -3.2m/s | -31.4°C | 27.1% | 382hPa | 2.5V | 07:32:05 | 03:21:05 | 00:00:00 | |
| AA1-15 | 2026-09-02 01:40:26 | 53.89749 | 15.13532 | 106° | 75km/h | 7707m | -3.1m/s | -31.6°C | 23% | 380.3hPa | 2.6V | 07:32:05 | 03:20:54 | 00:00:00 | |
| AA1-15 | 2026-09-02 01:40:15 | 53.89819 | 15.13264 | 125° | 73km/h | 7743m | -3m/s | -31.8°C | 20% | 378.4hPa | 2.6V | 07:32:05 | 03:20:43 | 00:00:00 | |
| AA1-15 | 2026-09-02 01:40:04 | 53.89890 | 15.12955 | 112° | 58km/h | 7777m | -2.3m/s | -31.8°C | 15.2% | 376.7hPa | 2.6V | 07:32:56 | 03:20:32 | 00:00:00 | |
| AA1-15 | 2026-09-02 01:39:53 | 53.89987 | 15.12682 | 111° | 78km/h | 7810m | -3.1m/s | -32°C | 14.8% | 374.9hPa | 2.5V | 07:32:56 | 03:20:21 | 00:00:00 | |
| SP3WXH-11 | 2026-09-02 01:39:48 | 53.90015 | 15.12550 | 117° | 55km/h | 7826m | -2.4m/s | -32.1°C | 12.4% | 374.1hPa | 2.5V | 00:00:00 | 00:00:00 | 00:00:00 | |
| EDDB2-11 | 2026-09-02 01:39:46 | 53.90029 | 15.12507 | 122° | 55km/h | 7833m | -3.1m/s | -32.2°C | 12.4% | 373.7hPa | 2.5V | 00:00:00 | 00:00:00 | 00:00:00 | |
| AA1-15 | 2026-09-02 01:39:42 | 53.90068 | 15.12424 | 132° | 71km/h | 7844m | -3m/s | -32.2°C | 15.7% | 373hPa | 2.5V | 07:32:56 | 03:20:10 | 00:00:00 | |
| AA1-15 | 2026-09-02 01:39:31 | 53.90162 | 15.12132 | 124° | 57km/h | 7885m | -2.8m/s | -32.4°C | 16% | 371.3hPa | 2.6V | 07:32:56 | 03:19:59 | 00:00:00 | |
| AA1-15 | 2026-09-02 01:39:20 | 53.90273 | 15.11849 | 111° | 73km/h | 7919m | -3m/s | -32.6°C | 21% | 369.4hPa | 2.5V | 07:32:56 | 03:19:48 | 00:00:00 | |
| AA1-15 | 2026-09-02 01:39:09 | 53.90375 | 15.11595 | 126° | 80km/h | 7948m | -2.6m/s | -32.9°C | 26.9% | 367.6hPa | 2.6V | 07:33:47 | 03:19:37 | 00:00:00 | |
| AA1-15 | 2026-09-02 01:38:59 | 53.90458 | 15.11308 | 119° | 60km/h | 7985m | -2.7m/s | -33.2°C | 27.6% | 365.9hPa | 2.5V | 07:33:47 | 03:19:27 | 00:00:00 | |
| AA1-15 | 2026-09-02 01:38:48 | 53.90574 | 15.11033 | 116° | 82km/h | 8022m | -2.9m/s | -33.5°C | 26.5% | 364.1hPa | 2.6V | 07:33:47 | 03:19:16 | 00:00:00 | |
| SP3WXH-11 | 2026-09-02 01:38:46 | 53.90590 | 15.10971 | 114° | 75km/h | 8029m | -2.8m/s | -33.6°C | 21.3% | 363.8hPa | 2.5V | 00:00:00 | 00:00:00 | 00:00:00 | |
| AA1-15 | 2026-09-02 01:38:37 | 53.90650 | 15.10743 | 128° | 64km/h | 8056m | -2.5m/s | -33.8°C | 24% | 362.2hPa | 2.5V | 07:33:47 | 03:19:05 | 00:00:00 | |
| AA1-15 | 2026-09-02 01:38:26 | 53.90751 | 15.10433 | 108° | 69km/h | 8093m | -4.4m/s | -34.1°C | 22.8% | 360.5hPa | 2.5V | 07:33:47 | 03:18:54 | 00:00:00 | |
| AA1-15 | 2026-09-02 01:38:15 | 53.90852 | 15.10160 | 116° | 84km/h | 8129m | -2m/s | -34.4°C | 23.6% | 358.7hPa | 2.5V | 07:34:38 | 03:18:43 | 00:00:00 | |
| AA1-15 | 2026-09-02 01:38:04 | 53.90934 | 15.09877 | 129° | 75km/h | 8154m | -2.1m/s | -34.7°C | 25.8% | 356.8hPa | 2.5V | 07:34:38 | 03:18:32 | 00:00:00 | |
| AA1-15 | 2026-09-02 01:37:54 | 53.91016 | 15.09584 | 113° | 60km/h | 8186m | -2.5m/s | -35°C | 26.9% | 355.2hPa | 2.5V | 07:34:38 | 03:18:22 | 00:00:00 | |
| AA1-15 | 2026-09-02 01:37:43 | 53.91118 | 15.09296 | 115° | 82km/h | 8220m | -3.5m/s | -35.3°C | 27.5% | 353.5hPa | 2.5V | 07:34:38 | 03:18:11 | 00:00:00 | |
| AA1-15 | 2026-09-02 01:37:32 | 53.91201 | 15.09015 | 129° | 78km/h | 8258m | -2.2m/s | -35.6°C | 26.9% | 351.8hPa | 2.5V | 07:35:29 | 03:18:00 | 00:00:00 | |
| AA1-15 | 2026-09-02 01:37:22 | 53.91289 | 15.08696 | 116° | 60km/h | 8295m | -2.9m/s | -35.9°C | 26.6% | 350hPa | 2.5V | 07:35:29 | 03:17:49 | 00:00:00 | |
| AA1-15 | 2026-09-02 01:37:11 | 53.91387 | 15.08430 | 112° | 78km/h | 8322m | -3m/s | -36.2°C | 27.3% | 348.4hPa | 2.5V | 07:35:29 | 03:17:39 | 00:00:00 | |
| AA1-15 | 2026-09-02 01:37:01 | 53.91480 | 15.08147 | 123° | 84km/h | 8351m | -2.4m/s | -36.6°C | 28.5% | 346.8hPa | 2.5V | 07:35:29 | 03:17:28 | 00:00:00 | |
| AA1-15 | 2026-09-02 01:36:49 | 53.91554 | 15.07829 | 119° | 60km/h | 8389m | -3.1m/s | -36.9°C | 29.1% | 345.1hPa | 2.5V | 07:35:29 | 03:17:17 | 00:00:00 | |
| AA1-15 | 2026-09-02 01:36:38 | 53.91660 | 15.07527 | 110° | 82km/h | 8426m | -3.1m/s | -37.2°C | 29.1% | 343.4hPa | 2.5V | 07:36:20 | 03:17:06 | 00:00:00 | |
| AA1-15 | 2026-09-02 01:36:27 | 53.91748 | 15.07239 | 121° | 78km/h | 8453m | -2.8m/s | -37.5°C | 29.4% | 341.7hPa | 2.5V | 07:36:20 | 03:16:55 | 00:00:00 | |
| AA1-15 | 2026-09-02 01:36:16 | 53.91824 | 15.06936 | 125° | 64km/h | 8493m | -2.2m/s | -37.8°C | 31.7% | 340.1hPa | 2.5V | 07:36:20 | 03:16:44 | 00:00:00 | |
| AA1-15 | 2026-09-02 01:36:05 | 53.91926 | 15.06627 | 109° | 69km/h | 8536m | -2m/s | -38.2°C | 32.7% | 338.4hPa | 2.5V | 07:36:20 | 03:16:33 | 00:00:00 | |
| AA1-15 | 2026-09-02 01:35:55 | 53.92015 | 15.06382 | 123° | 86km/h | 8562m | -2.6m/s | -38.5°C | 33.3% | 337hPa | 2.4V | 07:36:20 | 03:16:23 | 00:00:00 | |
| AA1-15 | 2026-09-02 01:35:43 | 53.92107 | 15.06044 | 126° | 68km/h | 8597m | -2.9m/s | -38.8°C | 33.9% | 335.2hPa | 2.5V | 07:37:11 | 03:16:11 | 00:00:00 | |
| AA1-15 | 2026-09-02 01:35:32 | 53.92196 | 15.05721 | 113° | 58km/h | 8629m | -2.8m/s | -39.1°C | 34.6% | 333.5hPa | 2.5V | 07:37:11 | 03:16:00 | 00:00:00 | |
| AA1-15 | 2026-09-02 01:35:21 | 53.92294 | 15.05423 | 107° | 84km/h | 8665m | -2.4m/s | -39.5°C | 35.7% | 331.9hPa | 2.5V | 07:37:11 | 03:15:49 | 00:00:00 | |
| AA1-15 | 2026-09-02 01:35:12 | 53.92371 | 15.05164 | 126° | 73km/h | 8686m | -2.4m/s | -39.8°C | 36.6% | 330.4hPa | 2.4V | 07:37:11 | 03:15:39 | 00:00:00 | |
| AA1-15 | 2026-09-02 01:35:00 | 53.92454 | 15.04837 | 111° | 57km/h | 8722m | -3.2m/s | -40.1°C | 37.5% | 328.8hPa | 2.4V | 07:38:02 | 03:15:28 | 00:00:00 | |
| AA1-15 | 2026-09-02 01:34:49 | 53.92552 | 15.04547 | 111° | 80km/h | 8755m | -2.7m/s | -40.4°C | 38.5% | 327.1hPa | 2.5V | 07:38:02 | 03:15:17 | 00:00:00 | |
| AA1-15 | 2026-09-02 01:34:38 | 53.92632 | 15.04269 | 126° | 77km/h | 8791m | -2m/s | -40.8°C | 39.6% | 325.5hPa | 2.4V | 07:38:02 | 03:15:06 | 00:00:00 | |
| AA1-15 | 2026-09-02 01:34:27 | 53.92711 | 15.03946 | 114° | 60km/h | 8821m | -2.4m/s | -41.1°C | 42% | 323.9hPa | 2.4V | 07:38:02 | 03:14:55 | 00:00:00 | |
| AA1-15 | 2026-09-02 01:34:16 | 53.92811 | 15.03652 | 109° | 78km/h | 8866m | -3.6m/s | -41.4°C | 43.7% | 322.3hPa | 2.5V | 07:38:02 | 03:14:44 | 00:00:00 | |
| AA1-15 | 2026-09-02 01:34:05 | 53.92892 | 15.03349 | 121° | 80km/h | 8885m | -3.2m/s | -41.7°C | 44% | 320.8hPa | 2.4V | 07:38:53 | 03:14:33 | 00:00:00 | |
| AA1-15 | 2026-09-02 01:33:54 | 53.92970 | 15.03032 | 126° | 66km/h | 8926m | -2.1m/s | -42°C | 44.5% | 319.3hPa | 2.5V | 07:38:53 | 03:14:22 | 00:00:00 | |
| SONDE2-11 | 2026-09-02 01:33:53 | 53.92980 | 15.03010 | 129° | 66km/h | 8928m | -2.5m/s | -42.0°C | 39.2% | 319.1hPa | 2.4V | 00:00:00 | 00:00:00 | 00:00:00 | |
| AA1-15 | 2026-09-02 01:33:43 | 53.93075 | 15.02705 | 105° | 77km/h | 8955m | -2.9m/s | -42.3°C | 45.5% | 317.7hPa | 2.4V | 07:38:53 | 03:14:11 | 00:00:00 | |
| AA1-15 | 2026-09-02 01:33:32 | 53.93168 | 15.02420 | 121° | 84km/h | 8986m | -2.8m/s | -42.6°C | 47% | 316.2hPa | 2.5V | 07:38:53 | 03:14:00 | 00:00:00 | |
| AA1-15 | 2026-09-02 01:33:22 | 53.93242 | 15.02128 | 127° | 71km/h | 9016m | -2.2m/s | -42.8°C | 48.1% | 314.8hPa | 2.5V | 07:38:53 | 03:13:50 | 00:00:00 | |
| AA1-15 | 2026-09-02 01:33:11 | 53.93349 | 15.01792 | 108° | 71km/h | 9049m | -1.9m/s | -43.1°C | 47% | 313.4hPa | 2.5V | 07:39:44 | 03:13:39 | 00:00:00 | |
| AA1-15 | 2026-09-02 01:33:00 | 53.93461 | 15.01483 | 115° | 86km/h | 9074m | -2.6m/s | -43.3°C | 44.6% | 311.9hPa | 2.5V | 07:39:44 | 03:13:28 | 00:00:00 | |
| AA1-15 | 2026-09-02 01:32:49 | 53.93543 | 15.01181 | 128° | 73km/h | 9111m | -1.3m/s | -43.6°C | 44% | 310.4hPa | 2.5V | 07:39:44 | 03:13:17 | 00:00:00 | |
| AA1-15 | 2026-09-02 01:32:38 | 53.93641 | 15.00837 | 108° | 68km/h | 9144m | -2.6m/s | -43.9°C | 43.1% | 308.8hPa | 2.5V | 07:39:44 | 03:13:06 | 00:00:00 | |
| AA1-15 | 2026-09-02 01:32:27 | 53.93742 | 15.00547 | 114° | 86km/h | 9180m | -3.2m/s | -44.1°C | 42.6% | 307.4hPa | 2.5V | 07:40:35 | 03:12:55 | 00:00:00 | |
| AA1-15 | 2026-09-02 01:32:16 | 53.93817 | 15.00260 | 128° | 77km/h | 9216m | -0.9m/s | -44.4°C | 42.6% | 305.9hPa | 2.5V | 07:40:35 | 03:12:44 | 00:00:00 | |
| AA1-15 | 2026-09-02 01:32:05 | 53.93902 | 14.99926 | 110° | 60km/h | 9245m | -2.1m/s | -44.7°C | 42.6% | 304.4hPa | 2.5V | 07:40:35 | 03:12:33 | 00:00:00 | |
| AA1-15 | 2026-09-02 01:31:54 | 53.93999 | 14.99628 | 105° | 77km/h | 9276m | -2.4m/s | -44.9°C | 42.9% | 302.9hPa | 2.5V | 07:40:35 | 03:12:22 | 00:00:00 | |
| SONDE2-11 | 2026-09-02 01:31:49 | 53.94028 | 14.99467 | 118° | 55km/h | 9294m | -1.9m/s | -45.1°C | 35.9% | 302.1hPa | 2.5V | 00:00:00 | 00:00:00 | 00:00:00 | |
| AA1-15 | 2026-09-02 01:31:43 | 53.94075 | 14.99349 | 126° | 78km/h | 9305m | -2.2m/s | -45.1°C | 41.6% | 301.5hPa | 2.5V | 07:40:35 | 03:12:11 | 00:00:00 | |
| MECKS9 | 2026-09-02 01:31:42 | 53.94075 | 14.99349 | 127° | 78km/h | 9305m | -2.2m/s | -45.1°C | 36.3% | 301.5hPa | 2.4V | 07:40:00 | 00:00:00 | 00:00:00 | |
| AA1-15 | 2026-09-02 01:31:33 | 53.94140 | 14.99063 | 116° | 55km/h | 9328m | -2.9m/s | -45.3°C | 43.8% | 300.2hPa | 2.4V | 07:41:26 | 03:12:01 | 00:00:00 | |
| AA1-15 | 2026-09-02 01:31:22 | 53.94242 | 14.98781 | 109° | 68km/h | 9359m | -2.8m/s | -45.5°C | 44.2% | 298.7hPa | 2.4V | 07:41:26 | 03:11:50 | 00:00:00 | |
| AA1-15 | 2026-09-02 01:31:11 | 53.94333 | 14.98533 | 121° | 77km/h | 9390m | -3.5m/s | -45.7°C | 42.2% | 297.2hPa | 2.4V | 07:41:26 | 03:11:39 | 00:00:00 | |
| AA1-15 | 2026-09-02 01:31:00 | 53.94421 | 14.98273 | 132° | 69km/h | 9423m | -4.8m/s | -45.9°C | 40.4% | 295.8hPa | 2.4V | 07:41:26 | 03:11:28 | 00:00:00 | |
| AA1-15 | 2026-09-02 01:30:49 | 53.94510 | 14.97985 | 123° | 55km/h | 9456m | -3.8m/s | -46.1°C | 39.7% | 294.4hPa | 2.4V | 07:41:26 | 03:11:17 | 00:00:00 | |
| SONDE2-11 | 2026-09-02 01:30:47 | 53.94543 | 14.97929 | 132° | 62km/h | 9467m | -3.8m/s | -46.1°C | 33.3% | 293.9hPa | 2.4V | 00:00:00 | 00:00:00 | 00:00:00 | |
| AA1-15 | 2026-09-02 01:30:38 | 53.94625 | 14.97713 | 110° | 69km/h | 9495m | -3.3m/s | -46.2°C | 38.7% | 292.8hPa | 2.4V | 07:42:17 | 03:11:06 | 00:00:00 | |
| AA1-15 | 2026-09-02 01:30:27 | 53.94732 | 14.97454 | 124° | 80km/h | 9527m | -3.2m/s | -46.4°C | 37.4% | 291.3hPa | 2.4V | 07:42:17 | 03:10:55 | 00:00:00 | |
| AA1-15 | 2026-09-02 01:30:17 | 53.94837 | 14.97131 | 130° | 68km/h | 9555m | -4.4m/s | -46.6°C | 37.1% | 289.7hPa | 2.4V | 07:42:17 | 03:10:43 | 00:00:00 | |
| AA1-15 | 2026-09-02 01:30:04 | 53.94956 | 14.96819 | 114° | 66km/h | 9591m | -3.3m/s | -46.8°C | 36.8% | 288.2hPa | 2.4V | 07:42:17 | 03:10:32 | 00:00:00 | |
| AA1-15 | 2026-09-02 01:29:53 | 53.95078 | 14.96535 | 116° | 84km/h | 9628m | -4.6m/s | -47.1°C | 37.7% | 286.7hPa | 2.4V | 07:43:08 | 03:10:21 | 00:00:00 | |
| SONDE2-11 | 2026-09-02 01:29:45 | 53.95143 | 14.96321 | 131° | 66km/h | 9651m | -4.3m/s | -47.4°C | 32.2% | 285.5hPa | 2.4V | 00:00:00 | 00:00:00 | 00:00:00 | |
| AA1-15 | 2026-09-02 01:29:42 | 53.95183 | 14.96254 | 128° | 80km/h | 9665m | -4.5m/s | -47.4°C | 39% | 285.2hPa | 2.4V | 07:43:08 | 03:10:10 | 00:00:00 | |
| AA1-15 | 2026-09-02 01:29:31 | 53.95290 | 14.95942 | 132° | 66km/h | 9696m | -4m/s | -47.8°C | 40.8% | 283.7hPa | 2.4V | 07:43:08 | 03:09:59 | 00:00:00 | |
| AA1-15 | 2026-09-02 01:29:20 | 53.95408 | 14.95624 | 116° | 64km/h | 9728m | -2.8m/s | -48.1°C | 43.1% | 282.1hPa | 2.5V | 07:43:08 | 03:09:48 | 00:00:00 | |
| AA1-15 | 2026-09-02 01:29:10 | 53.95522 | 14.95366 | 118° | 89km/h | 9767m | -3.2m/s | -48.4°C | 45.5% | 280.8hPa | 2.5V | 07:43:08 | 03:09:38 | 00:00:00 | |
| AA1-15 | 2026-09-02 01:28:59 | 53.95635 | 14.95080 | 128° | 89km/h | 9796m | -4.7m/s | -48.7°C | 45.8% | 279.2hPa | 2.4V | 07:43:59 | 03:09:27 | 00:00:00 | |
| AA1-15 | 2026-09-02 01:28:48 | 53.95747 | 14.94766 | 134° | 68km/h | 9835m | -5.3m/s | -49°C | 46.6% | 277.7hPa | 2.4V | 07:43:59 | 03:09:16 | 00:00:00 | |
| AA1-15 | 2026-09-02 01:28:37 | 53.95867 | 14.94458 | 121° | 62km/h | 9872m | -3.5m/s | -49.3°C | 47.8% | 276.2hPa | 2.4V | 07:43:59 | 03:09:05 | 00:00:00 | |
| AA1-15 | 2026-09-02 01:28:26 | 53.95998 | 14.94158 | 114° | 84km/h | 9907m | -3.1m/s | -49.7°C | 48.9% | 274.7hPa | 2.4V | 07:43:59 | 03:08:54 | 00:00:00 | |
| AA1-15 | 2026-09-02 01:28:15 | 53.96120 | 14.93881 | 128° | 91km/h | 9944m | -4.4m/s | -50°C | 49.3% | 273.1hPa | 2.4V | 07:43:59 | 03:08:43 | 00:00:00 | |
| AA1-15 | 2026-09-02 01:28:05 | 53.96221 | 14.93605 | 134° | 69km/h | 9976m | -4.3m/s | -50.4°C | 48.4% | 271.7hPa | 2.5V | 07:44:50 | 03:08:33 | 00:00:00 | |
| AA1-15 | 2026-09-02 01:27:54 | 53.96349 | 14.93300 | 121° | 64km/h | 10015m | -4.5m/s | -50.6°C | 44.4% | 270.2hPa | 2.4V | 07:44:50 | 03:08:22 | 00:00:00 | |
| EDDB2-11 | 2026-09-02 01:27:53 | 53.96369 | 14.93254 | 130° | 68km/h | 10022m | -3.9m/s | -50.6°C | 36.9% | 269.9hPa | 2.4V | 00:00:00 | 00:00:00 | 00:00:00 | |
| AA1-15 | 2026-09-02 01:27:43 | 53.96487 | 14.93000 | 116° | 86km/h | 10058m | -3.1m/s | -50.7°C | 41.6% | 268.6hPa | 2.4V | 07:44:50 | 03:08:11 | 00:00:00 | |
| AA1-15 | 2026-09-02 01:27:32 | 53.96613 | 14.92716 | 126° | 95km/h | 10096m | -4.4m/s | -51°C | 38.9% | 267hPa | 2.4V | 07:44:50 | 03:08:00 | 00:00:00 | |
| AA1-15 | 2026-09-02 01:27:21 | 53.96735 | 14.92408 | 136° | 82km/h | 10132m | -4.9m/s | -51.3°C | 37.7% | 265.4hPa | 2.4V | 07:45:41 | 03:07:49 | 00:00:00 | |
| AA1-15 | 2026-09-02 01:27:11 | 53.96854 | 14.92106 | 128° | 66km/h | 10164m | -4.4m/s | -51.6°C | 37.9% | 264hPa | 2.5V | 07:45:41 | 03:07:39 | 00:00:00 | |
| AA1-15 | 2026-09-02 01:27:00 | 53.96993 | 14.91792 | 117° | 75km/h | 10206m | -3.6m/s | -51.9°C | 36.6% | 262.5hPa | 2.5V | 07:45:41 | 03:07:28 | 00:00:00 | |
| AA1-15 | 2026-09-02 01:26:49 | 53.97130 | 14.91492 | 121° | 91km/h | 10249m | -3.2m/s | -52.2°C | 37% | 260.9hPa | 2.4V | 07:45:41 | 03:07:17 | 00:00:00 | |
| AA1-15 | 2026-09-02 01:26:38 | 53.97254 | 14.91186 | 133° | 89km/h | 10282m | -5.4m/s | -52.6°C | 38.9% | 259.3hPa | 2.4V | 07:45:41 | 03:07:06 | 00:00:00 | |
| AA1-15 | 2026-09-02 01:26:27 | 53.97383 | 14.90860 | 132° | 73km/h | 10325m | -3.8m/s | -53°C | 41.6% | 257.8hPa | 2.4V | 07:46:32 | 03:06:55 | 00:00:00 | |
| AA1-15 | 2026-09-02 01:26:17 | 53.97519 | 14.90558 | 114° | 82km/h | 10356m | -5m/s | -53.3°C | 43.9% | 256.3hPa | 2.5V | 07:46:32 | 03:06:45 | 00:00:00 | |
| AA1-15 | 2026-09-02 01:26:06 | 53.97659 | 14.90260 | 124° | 93km/h | 10403m | -3.9m/s | -53.7°C | 46.3% | 254.8hPa | 2.5V | 07:46:32 | 03:06:34 | 00:00:00 | |
| AA1-15 | 2026-09-02 01:25:56 | 53.97775 | 14.89968 | 134° | 86km/h | 10434m | -4.2m/s | -54°C | 48.1% | 253.3hPa | 2.4V | 07:46:32 | 03:06:24 | 00:00:00 | |
| AA1-15 | 2026-09-02 01:25:45 | 53.97914 | 14.89631 | 129° | 69km/h | 10475m | -4.2m/s | -54.4°C | 49% | 251.7hPa | 2.4V | 07:46:32 | 03:06:13 | 00:00:00 | |
| AA1-15 | 2026-09-02 01:25:34 | 53.98059 | 14.89286 | 119° | 75km/h | 10518m | -4.1m/s | -54.7°C | 49.7% | 250.2hPa | 2.5V | 07:47:23 | 03:06:02 | 00:00:00 | |
| AA1-15 | 2026-09-02 01:25:23 | 53.98210 | 14.88958 | 120° | 95km/h | 10553m | -4.2m/s | -55°C | 48.8% | 248.7hPa | 2.5V | 07:47:23 | 03:05:51 | 00:00:00 | |
| AA1-15 | 2026-09-02 01:25:13 | 53.98339 | 14.88671 | 129° | 99km/h | 10589m | -4.3m/s | -55.2°C | 48% | 247.2hPa | 2.5V | 07:47:23 | 03:05:41 | 00:00:00 | |
| AA1-15 | 2026-09-02 01:25:02 | 53.98471 | 14.88336 | 135° | 82km/h | 10631m | -4.1m/s | -55.6°C | 48.1% | 245.7hPa | 2.4V | 07:47:23 | 03:05:30 | 00:00:00 | |
| AA1-15 | 2026-09-02 01:24:51 | 53.98616 | 14.88000 | 130° | 71km/h | 10673m | -4m/s | -55.8°C | 46.3% | 244.2hPa | 2.5V | 07:47:23 | 03:05:19 | 00:00:00 | |
| SP3WXH-11 | 2026-09-02 01:24:48 | 53.98657 | 14.87932 | 138° | 84km/h | 10683m | -4.6m/s | -55.9°C | 39.1% | 243.8hPa | 2.5V | 00:00:00 | 00:00:00 | 00:00:00 | |
| EDDB2-11 | 2026-09-02 01:24:46 | 53.98691 | 14.87879 | 135° | 95km/h | 10691m | -4.5m/s | -56.0°C | 39.8% | 243.5hPa | 2.5V | 00:00:00 | 00:00:00 | 00:00:00 | |
| MECKS9 | 2026-09-02 01:24:45 | 53.98691 | 14.87879 | 136° | 95km/h | 10691m | -4.5m/s | -56.0°C | 39.9% | 243.5hPa | 2.5V | 07:48:00 | 00:00:00 | 00:00:00 | |
| DL1XH-15 | 2026-09-02 01:24:41 | 53.98769 | 14.87683 | 118° | 77km/h | 10710m | -4.3m/s | -56.1°C | 45.4% | 242.7hPa | 2.5V | 07:47:33 | 03:05:08 | 00:00:00 | |
| AA1-15 | 2026-09-02 01:24:40 | 53.98769 | 14.87684 | 118° | 77km/h | 10710m | -4.3m/s | -56.1°C | 46% | 242.7hPa | 2.5V | 07:48:14 | 03:05:08 | 00:00:00 | |
| AA1-15 | 2026-09-02 01:24:30 | 53.98899 | 14.87431 | 126° | 99km/h | 10755m | -3.2m/s | -56.3°C | 47% | 241.4hPa | 2.5V | 07:48:14 | 03:04:58 | 00:00:00 | |
| DL1XH-15 | 2026-09-02 01:24:19 | 53.99099 | 14.86979 | 122° | 88km/h | 10805m | -4m/s | -56.8°C | 47.8% | 239.2hPa | 2.5V | 07:47:59 | 03:04:42 | 00:00:00 | |
| AA1-15 | 2026-09-02 01:24:19 | 53.99026 | 14.87123 | 136° | 78km/h | 10787m | -4.3m/s | -56.6°C | 47.7% | 239.9hPa | 2.5V | 07:48:14 | 03:04:47 | 00:00:00 | |
| AA1-15 | 2026-09-02 01:24:08 | 53.99157 | 14.86810 | 130° | 62km/h | 10826m | -4.1m/s | -57°C | 48.5% | 238.4hPa | 2.5V | 07:48:14 | 03:04:36 | 00:00:00 | |
| AA1-15 | 2026-09-02 01:23:57 | 53.99299 | 14.86511 | 117° | 78km/h | 10861m | -3.5m/s | -57.3°C | 49.3% | 237hPa | 2.5V | 07:49:05 | 03:04:25 | 00:00:00 | |
| AA1-15 | 2026-09-02 01:23:46 | 53.99433 | 14.86241 | 128° | 89km/h | 10900m | -5.1m/s | -57.7°C | 50.2% | 235.5hPa | 2.5V | 07:49:05 | 03:04:14 | 00:00:00 | |
| DL1XH-west | 2026-09-02 01:23:41 | 53.99483 | 14.86094 | 119° | 66km/h | 10918m | -4m/s | -57.8°C | 50% | 0hPa | 2.5V | 07:49:56 | 03:04:09 | 00:00:00 | |
| AA1-15 | 2026-09-02 01:23:35 | 53.99546 | 14.85969 | 135° | 73km/h | 10941m | -4.4m/s | -57.9°C | 50.8% | 234.1hPa | 2.5V | 07:49:05 | 03:04:03 | 00:00:00 | |
| DL1XH1-15 | 2026-09-02 01:23:33 | 53.99586 | 14.85891 | 123° | 82km/h | 10953m | -3m/s | -58°C | 53.2% | 233.8hPa | 2.5V | 07:48:41 | 03:04:00 | 00:00:00 | |
| DL1XH-west | 2026-09-02 01:23:31 | 53.99597 | 14.85860 | 119° | 82km/h | 10955m | -3m/s | -58°C | 51% | 0hPa | 2.5V | 07:49:56 | 03:03:59 | 00:00:00 | |
| DL1XH-15 | 2026-09-02 01:23:25 | 53.99669 | 14.85639 | 133° | 57km/h | 10980m | -4.7m/s | -58°C | 52.6% | 232.4hPa | 2.5V | 07:48:51 | 03:03:50 | 00:00:00 | |
| AA1-15 | 2026-09-02 01:23:24 | 53.99651 | 14.85676 | 126° | 51km/h | 10973m | -4.4m/s | -58°C | 50.8% | 232.7hPa | 2.5V | 07:49:05 | 03:03:52 | 00:00:00 | |
| SP3WXH-11 | 2026-09-02 01:23:15 | 53.99745 | 14.85469 | 113° | 77km/h | 11012m | -3.7m/s | -58.1°C | 44.8% | 231.6hPa | 2.5V | 00:00:00 | 00:00:00 | 00:00:00 | |
| DL1XH-15 | 2026-09-02 01:23:14 | 53.99775 | 14.85340 | 111° | 51km/h | 11026m | -5.7m/s | -58.1°C | 51.8% | 230.9hPa | 2.5V | 07:49:03 | 03:03:38 | 00:00:00 | |
| AA1-15 | 2026-09-02 01:23:13 | 53.99759 | 14.85413 | 111° | 68km/h | 11019m | -3.7m/s | -58.1°C | 51.4% | 231.3hPa | 2.5V | 07:49:05 | 03:03:41 | 00:00:00 | |
| AA1-15 | 2026-09-02 01:23:03 | 53.99847 | 14.85171 | 121° | 80km/h | 11060m | -3.9m/s | -58.2°C | 52% | 229.9hPa | 2.5V | 07:49:56 | 03:03:30 | 00:00:00 | |
| SP3BTT-10 | 2026-09-02 01:23:02 | 53.99847 | 14.85171 | 122° | 68km/h | 11060m | -3.9m/s | -58.2°C | 53.3% | 229.9hPa | 2.5V | 00:00:00 | 00:00:00 | 00:00:00 | |
| DL1XH-15 | 2026-09-02 01:23:01 | 53.99878 | 14.85052 | 107° | 68km/h | 11073m | -4.1m/s | -58.2°C | 51.4% | 229.3hPa | 2.5V | 07:49:15 | 03:03:26 | 00:00:00 | |
| DL1XH-west | 2026-09-02 01:22:51 | 53.99911 | 14.84899 | 126° | 49km/h | 11095m | -5.1m/s | -58.3°C | 51.7% | 0hPa | 2.5V | 07:49:56 | 03:03:19 | 00:00:00 | |
| SP3WXH-11 | 2026-09-02 01:22:44 | 53.99970 | 14.84718 | 107° | 71km/h | 11120m | -4.2m/s | -58.4°C | 43.9% | 227.5hPa | 2.5V | 00:00:00 | 00:00:00 | 00:00:00 | |
| DL1XH1-15 | 2026-09-02 01:22:43 | 53.99983 | 14.84609 | 100° | 53km/h | 11134m | -4m/s | -58.5°C | 51% | 227hPa | 2.5V | 07:49:33 | 03:03:08 | 00:00:00 | |
| DL1XH-west | 2026-09-02 01:22:41 | 53.99981 | 14.84633 | 99° | 62km/h | 11130m | -4.1m/s | -58.5°C | 50.7% | 0hPa | 2.5V | 07:49:56 | 03:03:09 | 00:00:00 | |
| AA1-15 | 2026-09-02 01:22:40 | 53.99983 | 14.84609 | 100° | 53km/h | 11134m | -4m/s | -58.5°C | 50.6% | 227hPa | 2.5V | 07:49:56 | 03:03:08 | 00:00:00 | |
| DL1XH1-15 | 2026-09-02 01:22:33 | 54.00043 | 14.84374 | 103° | 78km/h | 11177m | -3.3m/s | -58.6°C | 48.3% | 225.7hPa | 2.5V | 07:49:43 | 03:02:58 | 00:00:00 | |
| DL1XH-west | 2026-09-02 01:22:30 | 54.00043 | 14.84374 | 103° | 78km/h | 11177m | -3.3m/s | -58.6°C | 48.8% | 0hPa | 2.5V | 07:49:56 | 03:02:58 | 00:00:00 | |
| MECKS9 | 2026-09-02 01:22:26 | 54.00053 | 14.84283 | 98° | 64km/h | 11186m | -4.1m/s | -58.7°C | 40.6% | 225.2hPa | 2.5V | 07:49:00 | 00:00:00 | 00:00:00 | |
| DL1XH1-15 | 2026-09-02 01:22:23 | 54.00079 | 14.84122 | 119° | 62km/h | 11207m | -4.3m/s | -58.8°C | 48.7% | 224.4hPa | 2.5V | 07:49:53 | 03:02:48 | 00:00:00 | |
| AA1-15 | 2026-09-02 01:22:19 | 54.00087 | 14.84097 | 117° | 69km/h | 11212m | -4.7m/s | -58.9°C | 46.5% | 224.3hPa | 2.5V | 07:49:56 | 03:02:47 | 00:00:00 | |
| DL1XH-west | 2026-09-02 01:22:18 | 54.00095 | 14.84069 | 113° | 77km/h | 11218m | -4.5m/s | 0°C | 0% | 0hPa | 2.5V | 07:49:56 | 03:02:46 | 00:00:00 | |
| DL1XH-west | 2026-09-02 01:22:08 | 54.00125 | 14.83768 | 98° | 55km/h | 11255m | -4.9m/s | 0°C | 0% | 0hPa | 2.5V | 18:12:15 | 03:02:36 | 00:00:00 | |
| DL1XH-west | 2026-09-02 01:21:58 | 54.00179 | 14.83462 | 94° | 80km/h | 11296m | -4.2m/s | 0°C | 0% | 0hPa | 2.5V | 18:12:15 | 03:02:26 | 00:00:00 | |
| AA1-15 | 2026-09-02 01:21:57 | 54.00180 | 14.83430 | 93° | 69km/h | 11300m | -3.9m/s | -59°C | 37.8% | 221.3hPa | 2.5V | 07:50:47 | 03:02:25 | 00:00:00 | |
| AA1-15 | 2026-09-02 01:21:46 | 54.00240 | 14.83133 | 108° | 80km/h | 11337m | -3.5m/s | -58.7°C | 32.7% | 219.8hPa | 2.5V | 07:50:47 | 03:02:14 | 00:00:00 | |
| DL1XH-west | 2026-09-02 01:21:45 | 54.00245 | 14.83100 | 102° | 77km/h | 11340m | -2.4m/s | 0°C | 0% | 0hPa | 2.5V | 18:12:15 | 03:02:13 | 00:00:00 | |
| AA1-15 | 2026-09-02 01:21:35 | 54.00273 | 14.82846 | 118° | 66km/h | 11380m | -3.8m/s | -58.1°C | 27.7% | 218.4hPa | 2.5V | 07:50:47 | 03:02:03 | 00:00:00 | |
| MECKS9 | 2026-09-02 01:21:34 | 54.00273 | 14.82846 | 119° | 66km/h | 11380m | -3.8m/s | -58.1°C | 22.9% | 218.4hPa | 2.5V | 00:00:00 | 00:00:00 | 00:00:00 | |
| S3001 | 2026-09-02 01:21:31 | 54.00304 | 14.82687 | 99° | 77km/h | 11395m | -4.0m/s | -57.9°C | 20.9% | 217.8hPa | 2.5V | 00:00:00 | 00:00:00 | 00:00:00 | |
| DL1XH-15 | 2026-09-02 01:21:30 | 54.00311 | 14.82568 | 95° | 57km/h | 11407m | -3.4m/s | -57.9°C | 25.7% | 217.3hPa | 2.5V | 07:50:47 | 03:01:54 | 00:00:00 | |
| AA1-15 | 2026-09-02 01:21:24 | 54.00315 | 14.82522 | 106° | 47km/h | 11415m | -5.1m/s | -57.9°C | 24.8% | 217.1hPa | 2.5V | 07:51:38 | 03:01:52 | 00:00:00 | |
| DL1XH-15 | 2026-09-02 01:21:20 | 54.00362 | 14.82280 | 94° | 73km/h | 11457m | -4.4m/s | -57.9°C | 23.1% | 215.9hPa | 2.5V | 07:50:58 | 03:01:43 | 00:00:00 | |
| AA1-15 | 2026-09-02 01:21:13 | 54.00364 | 14.82217 | 89° | 68km/h | 11465m | -4.6m/s | -57.7°C | 21.6% | 215.6hPa | 2.5V | 07:51:38 | 03:01:41 | 00:00:00 | |
| AA1-15 | 2026-09-02 01:21:02 | 54.00409 | 14.81932 | 101° | 78km/h | 11505m | -3.6m/s | -57.1°C | 19.2% | 214.2hPa | 2.5V | 07:51:38 | 03:01:30 | 00:00:00 | |
| AA1-15 | 2026-09-02 01:20:52 | 54.00437 | 14.81664 | 112° | 73km/h | 11537m | -4m/s | -56.8°C | 17.5% | 213.1hPa | 2.6V | 07:51:38 | 03:01:20 | 00:00:00 | |
| AA1-15 | 2026-09-02 01:20:41 | 54.00472 | 14.81317 | 102° | 60km/h | 11578m | -3.4m/s | -56.7°C | 15.8% | 211.8hPa | 2.5V | 07:51:38 | 03:01:09 | 00:00:00 | |
| SP3WXH-11 | 2026-09-02 01:20:40 | 54.00477 | 14.81291 | 109° | 64km/h | 11581m | -3.4m/s | -56.7°C | 12.2% | 211.7hPa | 2.5V | 00:00:00 | 00:00:00 | 00:00:00 | |
| DL1XH-15 | 2026-09-02 01:20:38 | 54.00505 | 14.81169 | 109° | 84km/h | 11592m | -4m/s | -56.8°C | 15.7% | 211.2hPa | 2.5V | 07:51:37 | 03:01:04 | 00:00:00 | |
| AA1-15 | 2026-09-02 01:20:31 | 54.00530 | 14.80987 | 95° | 80km/h | 11609m | -3.5m/s | -56.8°C | 14% | 210.6hPa | 2.5V | 07:52:29 | 03:00:59 | 00:00:00 | |
| DL1XH-15 | 2026-09-02 01:20:28 | 54.00539 | 14.80846 | 104° | 62km/h | 11621m | -4.7m/s | -56.7°C | 14.7% | 210.1hPa | 2.5V | 07:51:47 | 03:00:54 | 00:00:00 | |
| AA1-15 | 2026-09-02 01:20:20 | 54.00577 | 14.80667 | 103° | 91km/h | 11649m | -2.8m/s | -55.8°C | 11.3% | 209.4hPa | 2.5V | 07:52:29 | 03:00:48 | 00:00:00 | |
| DL1XH-15 | 2026-09-02 01:20:18 | 54.00588 | 14.80521 | 93° | 80km/h | 11662m | -3.4m/s | -55.4°C | 11.8% | 209hPa | 2.5V | 07:51:57 | 03:00:44 | 00:00:00 | |
| MECKS9 | 2026-09-02 01:20:11 | 54.00596 | 14.80405 | 108° | 57km/h | 11672m | -5.1m/s | -54.9°C | 7.6% | 208.5hPa | 2.5V | 07:52:00 | 00:00:00 | 00:00:00 | |
| SP3WXH-11 | 2026-09-02 01:20:09 | 54.00615 | 14.80329 | 115° | 73km/h | 11685m | -5.1m/s | -54.7°C | 7.4% | 208.1hPa | 2.5V | 00:00:00 | 00:00:00 | 00:00:00 | |
| AA1-15 | 2026-09-02 01:20:09 | 54.00615 | 14.80329 | 115° | 75km/h | 11685m | -5.1m/s | -54.7°C | 9.4% | 208.1hPa | 2.5V | 07:52:29 | 03:00:37 | 00:00:00 | |
| DL1XH-15 | 2026-09-02 01:20:08 | 54.00637 | 14.80237 | 104° | 82km/h | 11698m | -3.7m/s | -54.7°C | 10.9% | 207.9hPa | 2.5V | 07:52:07 | 03:00:34 | 00:00:00 | |
| DL1XH-west | 2026-09-02 01:19:59 | 54.00646 | 14.80029 | 94° | 57km/h | 11724m | -4.5m/s | -54.2°C | 8.1% | 207hPa | 2.5V | 07:54:11 | 03:00:27 | 00:00:00 | |
| DL1XH-15 | 2026-09-02 01:19:58 | 54.00662 | 14.79940 | 117° | 55km/h | 11738m | -4.3m/s | -53.9°C | 9.4% | 206.5hPa | 2.5V | 07:52:18 | 03:00:23 | 00:00:00 | |
| AA1-15 | 2026-09-02 01:19:58 | 54.00648 | 14.80006 | 102° | 55km/h | 11729m | -4.2m/s | -54.1°C | 8% | 206.8hPa | 2.5V | 07:52:29 | 03:00:26 | 00:00:00 | |
| SONDE2-11 | 2026-09-02 01:19:55 | 54.00662 | 14.79940 | 117° | 55km/h | 11738m | -4.3m/s | -53.9°C | 6.2% | -1.0hPa | 2.5V | 00:00:00 | 00:00:00 | 00:00:00 | |
| DL1XH-15 | 2026-09-02 01:19:48 | 54.00699 | 14.79640 | 89° | 58km/h | 11767m | -4m/s | -53.8°C | 9.1% | 205.4hPa | 2.5V | 07:52:28 | 03:00:13 | 00:00:00 | |
| AA1-15 | 2026-09-02 01:19:47 | 54.00699 | 14.79695 | 89° | 68km/h | 11761m | -4.2m/s | -53.8°C | 7.8% | 205.7hPa | 2.5V | 07:52:29 | 03:00:15 | 00:00:00 | |
| SP3BTT-10 | 2026-09-02 01:19:44 | 54.00699 | 14.79617 | 96° | 66km/h | 11770m | -3.8m/s | -53.8°C | 9.1% | 205.3hPa | 2.6V | 00:00:00 | 00:00:00 | 00:00:00 | |
| MECKS9 | 2026-09-02 01:19:40 | 54.00710 | 14.79547 | 113° | 58km/h | 11778m | -4.7m/s | -53.9°C | 6.0% | 205.0hPa | 2.6V | 07:53:00 | 00:00:00 | 00:00:00 | |
| DL1XH-15 | 2026-09-02 01:19:38 | 54.00732 | 14.79366 | 91° | 73km/h | 11806m | -3.7m/s | -53.9°C | 8.9% | 204.4hPa | 2.6V | 07:52:38 | 03:00:03 | 00:00:00 | |
| AA1-15 | 2026-09-02 01:19:37 | 54.00730 | 14.79432 | 98° | 80km/h | 11798m | -3.8m/s | -53.9°C | 7.8% | 204.6hPa | 2.5V | 07:53:20 | 03:00:05 | 00:00:00 | |
| EDDB2-11 | 2026-09-02 01:19:36 | 54.00732 | 14.79399 | 92° | 78km/h | 11802m | -3.6m/s | -53.9°C | 5.9% | 204.5hPa | 2.5V | 00:00:00 | 00:00:00 | 00:00:00 | |
| MECKS9 | 2026-09-02 01:19:29 | 54.00733 | 14.79243 | 104° | 47km/h | 11826m | -3.6m/s | -54.0°C | 5.9% | 203.9hPa | 2.5V | 07:53:00 | 00:00:00 | 00:00:00 | |
| DL1XH-15 | 2026-09-02 01:19:28 | 54.00759 | 14.79121 | 105° | 75km/h | 11844m | -3.5m/s | -54.1°C | 8.8% | 203.3hPa | 2.5V | 07:52:48 | 02:59:53 | 00:00:00 | |
| AA1-15 | 2026-09-02 01:19:26 | 54.00753 | 14.79151 | 109° | 69km/h | 11841m | -3.5m/s | -54.1°C | 7.6% | 203.4hPa | 2.5V | 07:53:20 | 02:59:54 | 00:00:00 | |
| SONDE2-11 | 2026-09-02 01:19:24 | 54.00763 | 14.79089 | 99° | 75km/h | 11848m | -3.5m/s | -54.2°C | -1.0% | -1.0hPa | 2.5V | 00:00:00 | 00:00:00 | 00:00:00 | |
| DL1XH-15 | 2026-09-02 01:19:18 | 54.00760 | 14.78851 | 100° | 53km/h | 11879m | -2.7m/s | -54.4°C | 9.2% | 202.2hPa | 2.5V | 07:52:58 | 02:59:43 | 00:00:00 | |
| AA1-15 | 2026-09-02 01:19:16 | 54.00759 | 14.78873 | 94° | 49km/h | 11876m | -3.3m/s | -54.4°C | 7.5% | 202.3hPa | 2.5V | 07:53:20 | 02:59:44 | 00:00:00 | |
| DL1XH-15 | 2026-09-02 01:19:08 | 54.00773 | 14.78549 | 78° | 69km/h | 11914m | -3.8m/s | -54.6°C | 8.4% | 201hPa | 2.5V | 07:53:08 | 02:59:33 | 00:00:00 | |
| AA1-15 | 2026-09-02 01:19:05 | 54.00773 | 14.78549 | 79° | 69km/h | 11915m | -3.8m/s | -54.6°C | 6.7% | 201hPa | 2.5V | 07:53:20 | 02:59:33 | 00:00:00 | |
| SP3BTT-10 | 2026-09-02 01:19:02 | 54.00762 | 14.78473 | 77° | 68km/h | 11927m | -3.7m/s | -54.6°C | 8.5% | 200.6hPa | 2.5V | 00:00:00 | 00:00:00 | 00:00:00 | |
| MECKS9 | 2026-09-02 01:18:59 | 54.00758 | 14.78432 | 86° | 46km/h | 11935m | -3.4m/s | -54.5°C | 5.3% | 200.4hPa | 2.5V | 07:53:00 | 00:00:00 | 00:00:00 | |
| DL1XH-15 | 2026-09-02 01:18:58 | 54.00764 | 14.78305 | 93° | 77km/h | 11953m | -3m/s | -54°C | 7.8% | 199.9hPa | 2.5V | 07:53:18 | 02:59:23 | 00:00:00 | |
| AA1-15 | 2026-09-02 01:18:54 | 54.00764 | 14.78271 | 89° | 80km/h | 11957m | -3.6m/s | -54°C | 5.9% | 199.8hPa | 2.5V | 07:53:20 | 02:59:22 | 00:00:00 | |
| DJ2DS-15 | 2026-09-02 01:18:49 | 54.00749 | 14.78106 | 72° | 73km/h | 11982m | -3.7m/s | -54.1°C | 4.6% | 199.1hPa | 2.6V | 00:00:00 | 00:00:00 | 00:00:00 | |
| DL1XH-15 | 2026-09-02 01:18:48 | 54.00730 | 14.78008 | 82° | 49km/h | 11998m | -2.8m/s | -54.1°C | 7.5% | 198.6hPa | 2.6V | 07:53:28 | 02:59:13 | 00:00:00 | |
| AA1-15 | 2026-09-02 01:18:43 | 54.00730 | 14.77964 | 96° | 55km/h | 12004m | -2.3m/s | -54.1°C | 5.3% | 198.4hPa | 2.5V | 07:54:11 | 02:59:11 | 00:00:00 | |
| DL1XH-15 | 2026-09-02 01:18:38 | 54.00734 | 14.77716 | 75° | 80km/h | 12031m | -3.9m/s | -54°C | 7.2% | 197.4hPa | 2.6V | 07:53:38 | 02:59:03 | 00:00:00 | |
| DL1XH-west | 2026-09-02 01:18:37 | 54.00740 | 14.77785 | 88° | 80km/h | 12023m | -3.7m/s | -54°C | 4.9% | 197.6hPa | 2.5V | 07:54:11 | 02:59:05 | 00:00:00 | |
| AA1-15 | 2026-09-02 01:18:32 | 54.00719 | 14.77633 | 72° | 58km/h | 12045m | -4m/s | -54°C | 4.6% | 197hPa | 2.5V | 07:54:11 | 02:59:00 | 00:00:00 | |
| DL1XH-west | 2026-09-02 01:18:23 | 54.00733 | 14.77398 | 94° | 78km/h | 12085m | -3m/s | -53.5°C | 3.8% | 195.9hPa | 2.5V | 07:54:11 | 02:58:51 | 00:00:00 | |
| AA1-15 | 2026-09-02 01:18:21 | 54.00734 | 14.77329 | 85° | 82km/h | 12090m | -2.9m/s | -53.5°C | 3.8% | 195.7hPa | 2.5V | 07:54:11 | 02:58:49 | 00:00:00 | |
| DL1XH-15 | 2026-09-02 01:18:18 | 54.00718 | 14.77165 | 86° | 49km/h | 12108m | -3.7m/s | -53.3°C | 6% | 195hPa | 2.5V | 07:53:58 | 02:58:43 | 00:00:00 | |
| DL1XH-west | 2026-09-02 01:18:13 | 54.00719 | 14.77118 | 101° | 58km/h | 12113m | -3m/s | -53.2°C | 3.2% | 194.6hPa | 2.5V | 07:54:11 | 02:58:41 | 00:00:00 | |
| AA1-15 | 2026-09-02 01:18:10 | 54.00731 | 14.77035 | 102° | 80km/h | 12123m | -3m/s | -53°C | 3.1% | 194.4hPa | 2.6V | 07:54:11 | 02:58:38 | 00:00:00 | |
| DL1XH-15 | 2026-09-02 01:18:07 | 54.00737 | 14.76858 | 79° | 80km/h | 12137m | -5.7m/s | -52.7°C | 5.6% | 193.7hPa | 2.5V | 07:54:08 | 02:58:33 | 00:00:00 | |
| DL1XH1-15 | 2026-09-02 01:18:07 | 54.00739 | 14.76929 | 88° | 86km/h | 12131m | -5.2m/s | -52.8°C | 5.7% | 193.9hPa | 2.5V | 07:54:06 | 02:58:35 | 00:00:00 | |
| DL1XH-west | 2026-09-02 01:18:02 | 54.00725 | 14.76772 | 79° | 58km/h | 12154m | -4.8m/s | -52.6°C | 2.9% | 193.3hPa | 2.6V | 07:54:11 | 02:58:30 | 00:00:00 | |
| AA1-15 | 2026-09-02 01:17:59 | 54.00722 | 14.76707 | 102° | 46km/h | 12179m | -4m/s | -52.4°C | 2.8% | 193hPa | 2.5V | 07:55:02 | 02:58:27 | 00:00:00 | |
| DL1XH-15 | 2026-09-02 01:17:57 | 54.00738 | 14.76608 | 108° | 75km/h | 12195m | -4.3m/s | -52.4°C | 5.3% | 192.4hPa | 2.6V | 07:54:18 | 02:58:23 | 00:00:00 | |
| DL1XH-west | 2026-09-02 01:17:51 | 54.00749 | 14.76472 | 89° | 82km/h | 12211m | -3.7m/s | -52.3°C | 2.6% | 192hPa | 2.5V | 07:55:02 | 02:58:19 | 00:00:00 | |
| AA1-15 | 2026-09-02 01:17:48 | 54.00741 | 14.76379 | 79° | 64km/h | 12223m | -4.2m/s | -52.2°C | 2.6% | 191.6hPa | 2.5V | 07:55:02 | 02:58:16 | 00:00:00 | |
| DL1XH1-15 | 2026-09-02 01:17:47 | 54.00735 | 14.76331 | 83° | 53km/h | 12233m | -3.5m/s | -52°C | 5.1% | 191.3hPa | 2.5V | 07:54:27 | 02:58:14 | 00:00:00 | |
| DL1XH-west | 2026-09-02 01:17:41 | 54.00742 | 14.76222 | 104° | 66km/h | 12248m | -3.8m/s | -51.5°C | 2.5% | 190.7hPa | 2.5V | 07:55:02 | 02:58:09 | 00:00:00 | |
| AA1-15 | 2026-09-02 01:17:38 | 54.00754 | 14.76129 | 94° | 78km/h | 12263m | -3.3m/s | -51.4°C | 2.4% | 190.4hPa | 2.6V | 07:55:02 | 02:58:06 | 00:00:00 | |
| DL1XH-15 | 2026-09-02 01:17:37 | 54.00754 | 14.76028 | 79° | 77km/h | 12270m | -4.8m/s | -51.4°C | 4.9% | 190hPa | 2.5V | 07:54:38 | 02:58:03 | 00:00:00 | |
| DL1XH1-15 | 2026-09-02 01:17:37 | 54.00755 | 14.76060 | 87° | 78km/h | 12267m | -4.6m/s | -51.4°C | 4.9% | 190.1hPa | 2.5V | 07:54:37 | 02:58:04 | 00:00:00 | |
| DL1XH-west | 2026-09-02 01:17:30 | 54.00737 | 14.75894 | 84° | 51km/h | 12300m | -3.7m/s | -51.4°C | 2.5% | 189.4hPa | 2.5V | 07:55:02 | 02:57:58 | 00:00:00 | |
| DL1XH-15 | 2026-09-02 01:17:27 | 54.00748 | 14.75767 | 99° | 80km/h | 12322m | -4.2m/s | -51.2°C | 4.8% | 188.8hPa | 2.5V | 07:54:48 | 02:57:53 | 00:00:00 | |
| DL1XH1-15 | 2026-09-02 01:17:27 | 54.00745 | 14.75799 | 98° | 71km/h | 12317m | -4m/s | -51.3°C | 4.8% | 188.9hPa | 2.5V | 07:54:47 | 02:57:54 | 00:00:00 | |
| AA1-15 | 2026-09-02 01:17:27 | 54.00742 | 14.75827 | 101° | 62km/h | 12313m | -3.9m/s | -51.3°C | 2.4% | 189.1hPa | 2.6V | 07:55:02 | 02:57:55 | 00:00:00 | |
| DL1XH-west | 2026-09-02 01:17:19 | 54.00738 | 14.75557 | 77° | 75km/h | 12347m | -3.6m/s | -51.2°C | 2.3% | 188hPa | 2.5V | 07:55:02 | 02:57:47 | 00:00:00 | |
| DL1XH-15 | 2026-09-02 01:17:17 | 54.00728 | 14.75449 | 91° | 58km/h | 12363m | -3.1m/s | -51.2°C | 4.8% | 187.6hPa | 2.5V | 07:54:58 | 02:57:43 | 00:00:00 | |
| AA1-15 | 2026-09-02 01:17:16 | 54.00728 | 14.75474 | 84° | 60km/h | 12359m | -3.2m/s | -51.2°C | 2.3% | 187.7hPa | 2.6V | 07:55:02 | 02:57:44 | 00:00:00 | |
| SP3BTT-10 | 2026-09-02 01:17:14 | 54.00729 | 14.75424 | 97° | 68km/h | 12367m | -3.0m/s | -51.2°C | 4.7% | 187.4hPa | 2.5V | 00:00:00 | 00:00:00 | 00:00:00 | |
| DL1XH1-15 | 2026-09-02 01:17:12 | 54.00740 | 14.75217 | 87° | 93km/h | 12390m | -4.3m/s | -51.5°C | 4.7% | 186.7hPa | 2.5V | 07:55:05 | 02:57:36 | 00:00:00 | |
| DL1XH-west | 2026-09-02 01:17:08 | 54.00740 | 14.75217 | 88° | 93km/h | 12390m | -4.3m/s | -51.5°C | 2.2% | 186.7hPa | 2.5V | 07:55:53 | 02:57:36 | 00:00:00 | |
| DL1XH-15 | 2026-09-02 01:17:07 | 54.00731 | 14.75103 | 77° | 86km/h | 12404m | -3.9m/s | -51.6°C | 4.7% | 186.4hPa | 2.6V | 07:55:08 | 02:57:33 | 00:00:00 | |
| AA1-15 | 2026-09-02 01:17:05 | 54.00731 | 14.75103 | 77° | 86km/h | 12404m | -3.9m/s | -51.6°C | 2.1% | 186.4hPa | 2.6V | 07:55:53 | 02:57:33 | 00:00:00 | |
| DL1XH-west | 2026-09-02 01:16:58 | 54.00716 | 14.74913 | 100° | 58km/h | 12434m | -3.6m/s | -51.8°C | 1.9% | 185.6hPa | 2.5V | 07:55:53 | 02:57:26 | 00:00:00 | |
| DL1XH-15 | 2026-09-02 01:16:57 | 54.00725 | 14.74826 | 100° | 80km/h | 12443m | -4m/s | -51.7°C | 4.7% | 185.2hPa | 2.6V | 07:55:18 | 02:57:23 | 00:00:00 | |
| AA1-15 | 2026-09-02 01:16:54 | 54.00728 | 14.74791 | 97° | 82km/h | 12447m | -4m/s | -51.7°C | 2% | 185.1hPa | 2.5V | 07:55:53 | 02:57:22 | 00:00:00 | |
| DL1XH1-15 | 2026-09-02 01:16:52 | 54.00716 | 14.74598 | 80° | 62km/h | 12470m | -3.9m/s | -51.6°C | 4.5% | 184.4hPa | 2.5V | 07:55:25 | 02:57:16 | 00:00:00 | |
| S3001 | 2026-09-02 01:16:51 | 54.00727 | 14.74685 | 82° | 75km/h | 12458m | -3.0m/s | -51.7°C | 2.3% | 184.8hPa | 2.6V | 00:00:00 | 00:00:00 | 00:00:00 | |
| SONDE2-11 | 2026-09-02 01:16:49 | 54.00715 | 14.74529 | 97° | 51km/h | 12486m | -3.6m/s | -51.5°C | -1.0% | -1.0hPa | 2.6V | 00:00:00 | 00:00:00 | 00:00:00 | |
| DL1XH-15 | 2026-09-02 01:16:47 | 54.00715 | 14.74529 | 97° | 53km/h | 12486m | -3.6m/s | -51.5°C | 4.4% | 184hPa | 2.6V | 07:55:28 | 02:57:13 | 00:00:00 | |
| DL1XH-west | 2026-09-02 01:16:47 | 54.00714 | 14.74573 | 82° | 53km/h | 12474m | -4.7m/s | -51.6°C | 1.7% | 184.3hPa | 2.5V | 07:55:53 | 02:57:15 | 00:00:00 | |
| AA1-15 | 2026-09-02 01:16:43 | 54.00721 | 14.74485 | 107° | 60km/h | 12495m | -3m/s | -51.4°C | 1.6% | 183.8hPa | 2.5V | 07:55:53 | 02:57:11 | 00:00:00 | |
| DL1XH1-15 | 2026-09-02 01:16:42 | 54.00741 | 14.74325 | 90° | 84km/h | 12512m | -3.1m/s | -51.2°C | 4.3% | 183.3hPa | 2.6V | 07:55:35 | 02:57:06 | 00:00:00 | |
| DL1XH-15 | 2026-09-02 01:16:37 | 54.00736 | 14.74233 | 81° | 58km/h | 12522m | -3.3m/s | -51.1°C | 4.3% | 183hPa | 2.5V | 07:55:38 | 02:57:03 | 00:00:00 | |
| DL1XH-west | 2026-09-02 01:16:36 | 54.00738 | 14.74260 | 81° | 71km/h | 12519m | -3.4m/s | -51.1°C | 1.5% | 183.1hPa | 2.5V | 07:55:53 | 02:57:04 | 00:00:00 | |
| DL1XH1-15 | 2026-09-02 01:16:32 | 54.00750 | 14.74075 | 104° | 68km/h | 12553m | -2.8m/s | -50.9°C | 4.3% | 182.2hPa | 2.6V | 07:55:45 | 02:56:56 | 00:00:00 | |
| AA1-15 | 2026-09-02 01:16:32 | 54.00734 | 14.74166 | 99° | 46km/h | 12535m | -3.7m/s | -51.1°C | 1.4% | 182.6hPa | 2.5V | 07:55:53 | 02:57:00 | 00:00:00 | |
| SP3WXH-11 | 2026-09-02 01:16:32 | 54.00737 | 14.74146 | 108° | 49km/h | 12539m | -4.0m/s | -51.0°C | 1.9% | 182.5hPa | 2.5V | 00:00:00 | 00:00:00 | 00:00:00 | |
| SP3BTT-10 | 2026-09-02 01:16:31 | 54.00737 | 14.74146 | 109° | 68km/h | 12539m | -4.0m/s | -51.0°C | 4.2% | 182.4hPa | 2.5V | 00:00:00 | 00:00:00 | 00:00:00 | |
| DL1XH-15 | 2026-09-02 01:16:30 | 54.00759 | 14.73981 | 92° | 77km/h | 12562m | -3.2m/s | -50.9°C | 4.1% | 181.9hPa | 2.5V | 07:55:48 | 02:56:53 | 00:00:00 | |
| DL1XH-west | 2026-09-02 01:16:25 | 54.00759 | 14.73981 | 92° | 77km/h | 12562m | -3.3m/s | -50.9°C | 1.2% | 181.9hPa | 2.5V | 07:55:53 | 02:56:53 | 00:00:00 | |
| AA1-15 | 2026-09-02 01:16:22 | 54.00755 | 14.73884 | 79° | 66km/h | 12575m | -4.2m/s | -50.9°C | 1.1% | 181.6hPa | 2.5V | 07:55:53 | 02:56:50 | 00:00:00 | |
| DL1XH1-15 | 2026-09-02 01:16:22 | 54.00746 | 14.73790 | 88° | 42km/h | 12595m | -3.9m/s | -50.7°C | 3.8% | 181hPa | 2.6V | 07:55:55 | 02:56:46 | 00:00:00 | |
| DL1XH-15 | 2026-09-02 01:16:21 | 54.00753 | 14.73732 | 112° | 55km/h | 12608m | -3.4m/s | -50.6°C | 3.9% | 180.7hPa | 2.5V | 07:55:58 | 02:56:43 | 00:00:00 | |
| DL1XH-west | 2026-09-02 01:16:15 | 54.00753 | 14.73732 | 112° | 55km/h | 12608m | -3.4m/s | -50.6°C | 0.9% | 180.7hPa | 2.5V | 07:56:44 | 02:56:43 | 00:00:00 | |
| DL1XH1-15 | 2026-09-02 01:16:12 | 54.00764 | 14.73532 | 75° | 66km/h | 12634m | -3m/s | -50.4°C | 3.6% | 180hPa | 2.5V | 07:56:05 | 02:56:36 | 00:00:00 | |
| AA1-15 | 2026-09-02 01:16:12 | 54.00767 | 14.73655 | 100° | 75km/h | 12620m | -3.3m/s | -50.5°C | 0.8% | 180.4hPa | 2.6V | 07:56:44 | 02:56:40 | 00:00:00 | |
| DL1XH-west | 2026-09-02 01:16:05 | 54.00751 | 14.73462 | 71° | 46km/h | 12646m | -3.5m/s | -50.4°C | 0.6% | 179.6hPa | 2.5V | 07:56:44 | 02:56:33 | 00:00:00 | |
| MECKS9 | 2026-09-02 01:16:04 | 54.00751 | 14.73462 | 72° | 46km/h | 12646m | -3.5m/s | -50.4°C | 1.5% | 179.6hPa | 2.5V | 07:56:00 | 00:00:00 | 00:00:00 | |
| DL1XH1-15 | 2026-09-02 01:16:02 | 54.00761 | 14.73314 | 98° | 71km/h | 12669m | -4.1m/s | -50.3°C | 3.5% | 178.9hPa | 2.5V | 07:56:15 | 02:56:26 | 00:00:00 | |
| AA1-15 | 2026-09-02 01:16:01 | 54.00751 | 14.73392 | 106° | 53km/h | 12660m | -2.5m/s | -50.3°C | 0.5% | 179.2hPa | 2.6V | 07:56:44 | 02:56:29 | 00:00:00 | |
| SP3WXH-11 | 2026-09-02 01:16:01 | 54.00755 | 14.73368 | 104° | 58km/h | 12663m | -2.9m/s | -50.3°C | 1.4% | 179.1hPa | 2.5V | 00:00:00 | 00:00:00 | 00:00:00 | |
| DL1XH-15 | 2026-09-02 01:16:00 | 54.00763 | 14.73217 | 81° | 77km/h | 12682m | -4.1m/s | -50.4°C | 3.5% | 178.5hPa | 2.5V | 07:56:18 | 02:56:23 | 00:00:00 | |
| DL1XH-west | 2026-09-02 01:15:54 | 54.00759 | 14.73186 | 79° | 69km/h | 12688m | -4.2m/s | -50.4°C | 0.4% | 178.4hPa | 2.5V | 07:56:44 | 02:56:22 | 00:00:00 | |
| DL1XH-15 | 2026-09-02 01:15:50 | 54.00743 | 14.72987 | 102° | 62km/h | 12723m | -3.3m/s | -50°C | 3.3% | 177.4hPa | 2.6V | 07:56:28 | 02:56:13 | 00:00:00 | |
| AA1-15 | 2026-09-02 01:15:50 | 54.00740 | 14.73089 | 70° | 46km/h | 12707m | -3.1m/s | -50.3°C | 0.3% | 178hPa | 2.6V | 07:56:44 | 02:56:18 | 00:00:00 | |
| DJ2DS-15 | 2026-09-02 01:15:49 | 54.00739 | 14.73033 | 98° | 47km/h | 12720m | -2.3m/s | -50.1°C | 1.3% | 177.7hPa | 2.5V | 00:00:00 | 00:00:00 | 00:00:00 | |
| DL1XH-west | 2026-09-02 01:15:44 | 54.00747 | 14.72959 | 101° | 68km/h | 12725m | -3.6m/s | -50°C | 0.2% | 177.3hPa | 2.5V | 07:56:44 | 02:56:12 | 00:00:00 | |
| DL1XH1-15 | 2026-09-02 01:15:42 | 54.00740 | 14.72768 | 72° | 73km/h | 12751m | -3.7m/s | -50°C | 3.4% | 176.7hPa | 2.5V | 07:56:35 | 02:56:06 | 00:00:00 | |
| DL1XH-15 | 2026-09-02 01:15:40 | 54.00723 | 14.72691 | 73° | 47km/h | 12765m | -4.2m/s | -49.8°C | 3.4% | 176.3hPa | 2.6V | 07:56:38 | 02:56:03 | 00:00:00 | |
| AA1-15 | 2026-09-02 01:15:39 | 54.00745 | 14.72798 | 76° | 75km/h | 12746m | -4.3m/s | -50°C | 0.2% | 176.8hPa | 2.6V | 07:56:44 | 02:56:07 | 00:00:00 | |
| DL1XH-west | 2026-09-02 01:15:33 | 54.00719 | 14.72652 | 91° | 47km/h | 12774m | -2.8m/s | -49.7°C | 0.2% | 176.1hPa | 2.5V | 07:56:44 | 02:56:01 | 00:00:00 | |
| DL1XH1-15 | 2026-09-02 01:15:32 | 54.00735 | 14.72526 | 100° | 78km/h | 12794m | -3.4m/s | -49.5°C | 3.2% | 175.6hPa | 2.5V | 07:56:45 | 02:55:56 | 00:00:00 | |
| DL1XH-15 | 2026-09-02 01:15:30 | 54.00736 | 14.72421 | 80° | 84km/h | 12806m | -3.8m/s | -49.4°C | 3.3% | 175.3hPa | 2.5V | 07:56:48 | 02:55:53 | 00:00:00 | |
| AA1-15 | 2026-09-02 01:15:28 | 54.00735 | 14.72526 | 100° | 78km/h | 12794m | -3.4m/s | -49.5°C | 0.1% | 175.6hPa | 2.5V | 07:57:35 | 02:55:56 | 00:00:00 | |
| EDDB2-11 | 2026-09-02 01:15:28 | 54.00738 | 14.72493 | 93° | 82km/h | 12799m | -3.4m/s | -49.5°C | 1.2% | 175.5hPa | 2.6V | 00:00:00 | 00:00:00 | 00:00:00 | |
| AM1SDL-15 | 2026-09-02 01:15:24 | 54.00732 | 14.72386 | 75° | 66km/h | 12810m | -4.1m/s | -49.4°C | 3.2% | 175.1hPa | 2.6V | 00:00:00 | 02:55:52 | 00:00:00 | |
| DL1XH1-15 | 2026-09-02 01:15:22 | 54.00706 | 14.72234 | 89° | 53km/h | 12838m | -2.6m/s | -49.2°C | 3.2% | 174.6hPa | 2.6V | 07:56:55 | 02:55:46 | 00:00:00 | |
| DL1XH-west | 2026-09-02 01:15:22 | 54.00721 | 14.72327 | 74° | 68km/h | 12820m | -4.3m/s | -49.3°C | 0.2% | 174.9hPa | 2.5V | 07:57:35 | 02:55:50 | 00:00:00 | |
| DL1XH-15 | 2026-09-02 01:15:20 | 54.00714 | 14.72157 | 101° | 75km/h | 12846m | -3m/s | -49.1°C | 3.2% | 174.2hPa | 2.5V | 07:56:58 | 02:55:43 | 00:00:00 | |
| AA1-15 | 2026-09-02 01:15:18 | 54.00706 | 14.72234 | 90° | 53km/h | 12838m | -2.6m/s | -49.2°C | 0.1% | 174.6hPa | 2.6V | 07:57:35 | 02:55:46 | 00:00:00 | |
| DL1XH-west | 2026-09-02 01:15:12 | 54.00721 | 14.72053 | 87° | 88km/h | 12858m | -4m/s | -49.1°C | 0.1% | 173.9hPa | 2.6V | 07:57:35 | 02:55:40 | 00:00:00 | |
| DJ2DS-15 | 2026-09-02 01:15:12 | 54.00721 | 14.72053 | 88° | 71km/h | 12858m | -4.0m/s | -49.1°C | 3.2% | 173.8hPa | 2.5V | 00:00:00 | 02:55:40 | 00:00:00 | |
| DL1XH-15 | 2026-09-02 01:15:10 | 54.00695 | 14.71834 | 84° | 55km/h | 12892m | -1.6m/s | -49.2°C | 3.2% | 173.1hPa | 2.5V | 07:57:08 | 02:55:33 | 00:00:00 | |
| AA1-15 | 2026-09-02 01:15:07 | 54.00697 | 14.71857 | 77° | 60km/h | 12887m | -1.8m/s | -49.2°C | 0.1% | 173.2hPa | 2.5V | 07:57:35 | 02:55:34 | 00:00:00 | |
| DL1XH1-15 | 2026-09-02 01:15:02 | 54.00708 | 14.71703 | 100° | 78km/h | 12907m | -3.6m/s | -49.3°C | 3.3% | 172.5hPa | 2.5V | 07:57:13 | 02:55:28 | 00:00:00 | |
| DL1XH-west | 2026-09-02 01:15:01 | 54.00704 | 14.71735 | 106° | 71km/h | 12903m | -3.9m/s | -49.2°C | 0.2% | 172.7hPa | 2.5V | 07:57:35 | 02:55:29 | 00:00:00 | |
| AA1-15 | 2026-09-02 01:14:56 | 54.00706 | 14.71526 | 81° | 71km/h | 12927m | -3.6m/s | -49.3°C | 0.2% | 172.1hPa | 2.6V | 07:57:35 | 02:55:23 | 00:00:00 | |
| DL1XH1-15 | 2026-09-02 01:14:52 | 54.00695 | 14.71403 | 93° | 47km/h | 12952m | -3.9m/s | -49°C | 3.2% | 171.4hPa | 2.5V | 07:57:23 | 02:55:18 | 00:00:00 | |
| DL1XH-west | 2026-09-02 01:14:51 | 54.00695 | 14.71424 | 85° | 47km/h | 12946m | -4m/s | -49.1°C | 0% | 171.6hPa | 2.5V | 07:57:35 | 02:55:19 | 00:00:00 | |
| DK1YY | 2026-09-02 01:14:48 | 54.00701 | 14.71339 | 108° | 57km/h | 12963m | -3.4m/s | -49.0°C | 1.1% | 171.1hPa | 2.5V | 00:00:00 | 00:00:00 | 00:00:00 | |
| S3001 | 2026-09-02 01:14:47 | 54.00701 | 14.71339 | 108° | 57km/h | 12963m | -3.4m/s | -49.0°C | 1.1% | 171.1hPa | 2.5V | 00:00:00 | 00:00:00 | 00:00:00 | |
| AA1-15 | 2026-09-02 01:14:44 | 54.00717 | 14.71255 | 99° | 78km/h | 12973m | -2.5m/s | -48.9°C | 0.1% | 170.8hPa | 2.5V | 07:57:35 | 02:55:12 | 00:00:00 | |
| DL1XH1-15 | 2026-09-02 01:14:42 | 54.00715 | 14.71118 | 77° | 73km/h | 12988m | -3.6m/s | -49°C | 3.1% | 170.4hPa | 2.6V | 07:57:33 | 02:55:08 | 00:00:00 | |
| DL1XH-15 | 2026-09-02 01:14:40 | 54.00703 | 14.71009 | 94° | 40km/h | 13012m | -5.2m/s | -49°C | 3.1% | 169.8hPa | 2.5V | 07:57:38 | 02:55:03 | 00:00:00 | |
| DL1XH-west | 2026-09-02 01:14:40 | 54.00715 | 14.71118 | 77° | 73km/h | 12988m | -3.6m/s | -49°C | 0% | 170.4hPa | 2.6V | 07:57:35 | 02:55:08 | 00:00:00 | |
| AA1-15 | 2026-09-02 01:14:34 | 54.00704 | 14.70992 | 105° | 42km/h | 13018m | -3.4m/s | -49°C | 0.1% | 169.7hPa | 2.5V | 07:58:26 | 02:55:02 | 00:00:00 | |
| AM1SDL-15 | 2026-09-02 01:14:33 | 54.00708 | 14.70974 | 115° | 60km/h | 13021m | -3.5m/s | -49.0°C | 3.1% | 169.5hPa | 2.6V | 00:00:00 | 02:55:01 | 00:00:00 | |
| DL1XH1-15 | 2026-09-02 01:14:32 | 54.00723 | 14.70902 | 101° | 71km/h | 13029m | -3.2m/s | -49.1°C | 3.2% | 169.3hPa | 2.6V | 07:57:43 | 02:54:58 | 00:00:00 | |
| DJ2DS-15 | 2026-09-02 01:14:31 | 54.00718 | 14.70930 | 111° | 42km/h | 13027m | -3.4m/s | -49.1°C | 3.2% | 169.3hPa | 2.6V | 00:00:00 | 02:54:59 | 00:00:00 | |
| DL1XH-15 | 2026-09-02 01:14:30 | 54.00716 | 14.70750 | 71° | 62km/h | 13048m | -4.8m/s | -49.2°C | 3.1% | 168.7hPa | 2.5V | 07:57:48 | 02:54:53 | 00:00:00 | |
| DL1XH-west | 2026-09-02 01:14:30 | 54.00723 | 14.70902 | 102° | 71km/h | 13029m | -3.3m/s | -49.2°C | 0.1% | 169.3hPa | 2.6V | 07:58:26 | 02:54:58 | 00:00:00 | |
| AA1-15 | 2026-09-02 01:14:23 | 54.00706 | 14.70706 | 65° | 47km/h | 13058m | -4.9m/s | -49.3°C | 0% | 168.5hPa | 2.6V | 07:58:26 | 02:54:51 | 00:00:00 | |
| DL1XH1-15 | 2026-09-02 01:14:22 | 54.00698 | 14.70661 | 87° | 27km/h | 13075m | -2.9m/s | -49.3°C | 3.1% | 168.2hPa | 2.5V | 07:57:53 | 02:54:48 | 00:00:00 | |
| AM1SDL-15 | 2026-09-02 01:14:21 | 54.00699 | 14.70674 | 75° | 49km/h | 13069m | -3.8m/s | -49.2°C | 3.1% | 168.2hPa | 2.6V | 00:00:00 | 02:54:49 | 00:00:00 | |
| DL1XH-15 | 2026-09-02 01:14:20 | 54.00713 | 14.70572 | 101° | 58km/h | 13093m | -3.4m/s | -49.4°C | 3.3% | 167.6hPa | 2.6V | 07:57:58 | 02:54:43 | 00:00:00 | |
| DL1XH-west | 2026-09-02 01:14:19 | 54.00699 | 14.70648 | 106° | 35km/h | 13080m | -3.3m/s | -49.3°C | 0.1% | 168hPa | 2.5V | 07:58:26 | 02:54:47 | 00:00:00 | |
| AA1-15 | 2026-09-02 01:14:12 | 54.00715 | 14.70491 | 77° | 64km/h | 13105m | -3.1m/s | -49.5°C | 0.2% | 167.3hPa | 2.5V | 07:58:26 | 02:54:40 | 00:00:00 | |
| DL1XH1-15 | 2026-09-02 01:14:12 | 54.00708 | 14.70444 | 68° | 55km/h | 13121m | -3.7m/s | -49.5°C | 3.2% | 167.1hPa | 2.5V | 07:58:03 | 02:54:38 | 00:00:00 | |
| DL1XH-west | 2026-09-02 01:14:08 | 54.00698 | 14.70406 | 63° | 42km/h | 13130m | -2.8m/s | -49.5°C | 0.1% | 166.9hPa | 2.6V | 07:58:26 | 02:54:36 | 00:00:00 | |
| DJ2DS-15 | 2026-09-02 01:14:03 | 54.00695 | 14.70339 | 119° | 46km/h | 13140m | -3.4m/s | -49.5°C | 3.2% | 166.2hPa | 2.6V | 00:00:00 | 02:54:31 | 00:00:00 | |
| DL1XH1-15 | 2026-09-02 01:14:02 | 54.00710 | 14.70281 | 105° | 58km/h | 13152m | -5.1m/s | -49.5°C | 3.2% | 165.9hPa | 2.6V | 07:58:13 | 02:54:28 | 00:00:00 | |
| AA1-15 | 2026-09-02 01:14:02 | 54.00699 | 14.70322 | 117° | 47km/h | 13142m | -4.6m/s | -49.6°C | 0.1% | 166.2hPa | 2.5V | 07:58:26 | 02:54:30 | 00:00:00 | |
| DL1XH-west | 2026-09-02 01:13:57 | 54.00713 | 14.70205 | 81° | 60km/h | 13168m | -4.6m/s | -49.5°C | 0.1% | 165.6hPa | 2.5V | 07:58:26 | 02:54:25 | 00:00:00 | |
| SP3WXH-11 | 2026-09-02 01:13:57 | 54.00710 | 14.70181 | 71° | 57km/h | 13174m | -4.4m/s | -49.5°C | 1.1% | 165.5hPa | 2.6V | 00:00:00 | 00:00:00 | 00:00:00 | |
| DL1XH1-15 | 2026-09-02 01:13:52 | 54.00679 | 14.70095 | 80° | 22km/h | 13203m | -4m/s | -49.7°C | 3.2% | 164.8hPa | 2.6V | 07:58:23 | 02:54:18 | 00:00:00 | |
| AA1-15 | 2026-09-02 01:13:52 | 54.00685 | 14.70113 | 56° | 35km/h | 13192m | -4.2m/s | -49.6°C | 0.1% | 165.1hPa | 2.6V | 07:58:26 | 02:54:20 | 00:00:00 | |
| DL1XH-west | 2026-09-02 01:13:47 | 54.00685 | 14.70066 | 111° | 38km/h | 13220m | -3.3m/s | -49.8°C | 0.1% | 164.5hPa | 2.5V | 07:58:26 | 02:54:15 | 00:00:00 | |
| S3001 | 2026-09-02 01:13:45 | 54.00693 | 14.70031 | 103° | 49km/h | 13228m | -3.4m/s | -49.9°C | 1.2% | 164.3hPa | 2.6V | 00:00:00 | 00:00:00 | 00:00:00 | |
| DJ2DS-15 | 2026-09-02 01:13:43 | 54.00695 | 14.69982 | 84° | 44km/h | 13235m | -3.3m/s | -49.9°C | 3.3% | 164.1hPa | 2.6V | 00:00:00 | 02:54:11 | 00:00:00 | |
| DL1XH-15 | 2026-09-02 01:13:41 | 54.00657 | 14.69852 | 55° | 26km/h | 13265m | -3.4m/s | -50.2°C | 3.3% | 163.3hPa | 2.6V | 07:58:37 | 02:54:04 | 00:00:00 | |
| AA1-15 | 2026-09-02 01:13:41 | 54.00687 | 14.69931 | 70° | 62km/h | 13243m | -4.1m/s | -50.1°C | 0.1% | 163.9hPa | 2.5V | 07:59:17 | 02:54:09 | 00:00:00 | |
| DL1XH-west | 2026-09-02 01:13:36 | 54.00657 | 14.69852 | 56° | 26km/h | 13265m | -3.4m/s | -50.2°C | 0.2% | 163.3hPa | 2.6V | 07:59:17 | 02:54:04 | 00:00:00 | |
| DO2SHX-10 | 2026-09-02 01:13:33 | 54.00655 | 14.69822 | 107° | 44km/h | 13277m | -3.8m/s | -50.2°C | 3.3% | 162.9hPa | 2.5V | 00:00:00 | 02:54:01 | 00:00:00 | |
| DL1XH1-15 | 2026-09-02 01:13:32 | 54.00663 | 14.69771 | 98° | 57km/h | 13294m | -3.3m/s | -50.4°C | 3.3% | 162.6hPa | 2.5V | 07:58:43 | 02:53:58 | 00:00:00 | |
| DL1XH-15 | 2026-09-02 01:13:31 | 54.00656 | 14.69664 | 70° | 62km/h | 13310m | -3.9m/s | -50.4°C | 3.3% | 162.2hPa | 2.6V | 07:58:47 | 02:53:54 | 00:00:00 | |
| AA1-15 | 2026-09-02 01:13:31 | 54.00661 | 14.69792 | 103° | 47km/h | 13290m | -3.5m/s | -50.4°C | 0.2% | 162.8hPa | 2.5V | 07:59:17 | 02:53:59 | 00:00:00 | |
| DL1XH-west | 2026-09-02 01:13:25 | 54.00650 | 14.69640 | 63° | 58km/h | 13315m | -4.3m/s | -50.5°C | 0.2% | 162.1hPa | 2.5V | 07:59:17 | 02:53:53 | 00:00:00 | |
| DJ2DS-15 | 2026-09-02 01:13:24 | 54.00643 | 14.69620 | 57° | 51km/h | 13320m | -3.9m/s | -50.5°C | 1.2% | 162.0hPa | 2.6V | 00:00:00 | 00:00:00 | 00:00:00 | |
| DL1XH1-15 | 2026-09-02 01:13:22 | 54.00625 | 14.69567 | 84° | 26km/h | 13338m | -3.2m/s | -50.6°C | 3.4% | 161.6hPa | 2.6V | 07:58:53 | 02:53:48 | 00:00:00 | |
| AA1-15 | 2026-09-02 01:13:20 | 54.00625 | 14.69567 | 85° | 26km/h | 13338m | -3.2m/s | -50.6°C | 0.2% | 161.6hPa | 2.6V | 07:59:17 | 02:53:48 | 00:00:00 | |
| DL1XH-15 | 2026-09-02 01:13:19 | 54.00635 | 14.69449 | 86° | 68km/h | 13360m | -3.7m/s | -50.8°C | 3.3% | 160.9hPa | 2.5V | 07:58:59 | 02:53:42 | 00:00:00 | |
| DL1XH-west | 2026-09-02 01:13:14 | 54.00635 | 14.69449 | 86° | 68km/h | 13360m | -3.7m/s | -50.8°C | 0.2% | 160.9hPa | 2.5V | 07:59:17 | 02:53:42 | 00:00:00 | |
| DO2SHX-10 | 2026-09-02 01:13:13 | 54.00633 | 14.69420 | 81° | 68km/h | 13366m | -3.9m/s | -50.7°C | 3.4% | 160.7hPa | 2.6V | 00:00:00 | 02:53:41 | 00:00:00 | |
| DL1XH1-15 | 2026-09-02 01:13:12 | 54.00616 | 14.69347 | 56° | 58km/h | 13385m | -4.2m/s | -50.8°C | 3.3% | 160.5hPa | 2.6V | 07:59:03 | 02:53:38 | 00:00:00 | |
| DL1XH-15 | 2026-09-02 01:13:09 | 54.00585 | 14.69255 | 91° | 35km/h | 13412m | -3.4m/s | -50.9°C | 3.5% | 159.9hPa | 2.6V | 07:59:09 | 02:53:32 | 00:00:00 | |
| AA1-15 | 2026-09-02 01:13:09 | 54.00609 | 14.69327 | 52° | 53km/h | 13391m | -4.2m/s | -50.8°C | 0.3% | 160.4hPa | 2.5V | 07:59:17 | 02:53:37 | 00:00:00 | |
| DL1XH-west | 2026-09-02 01:13:04 | 54.00585 | 14.69255 | 91° | 35km/h | 13412m | -3.4m/s | -50.9°C | 0.3% | 159.9hPa | 2.6V | 07:59:17 | 02:53:32 | 00:00:00 | |
| DO2SHX-10 | 2026-09-02 01:13:03 | 54.00585 | 14.69239 | 100° | 62km/h | 13416m | -3.2m/s | -50.8°C | 3.5% | 159.7hPa | 2.6V | 00:00:00 | 02:53:31 | 00:00:00 | |
| DL1XH1-15 | 2026-09-02 01:13:02 | 54.00589 | 14.69166 | 90° | 69km/h | 13428m | -4m/s | -50.9°C | 3.4% | 159.4hPa | 2.5V | 07:59:13 | 02:53:28 | 00:00:00 | |
| DJ2DS-15 | 2026-09-02 01:13:01 | 54.00588 | 14.69194 | 96° | 58km/h | 13424m | -3.7m/s | -50.8°C | 3.5% | 159.5hPa | 2.5V | 00:00:00 | 02:53:29 | 00:00:00 | |
| DL1XH-15 | 2026-09-02 01:12:59 | 54.00557 | 14.68991 | 55° | 66km/h | 13455m | -4.4m/s | -51.1°C | 3.5% | 158.7hPa | 2.5V | 07:59:19 | 02:53:22 | 00:00:00 | |
| AA1-15 | 2026-09-02 01:12:58 | 54.00586 | 14.69103 | 78° | 75km/h | 13436m | -4.2m/s | -51°C | 0.2% | 159.2hPa | 2.5V | 07:59:17 | 02:53:26 | 00:00:00 | |
| DL1XH-west | 2026-09-02 01:12:53 | 54.00547 | 14.68970 | 54° | 57km/h | 13459m | -4.4m/s | -51.1°C | 0.3% | 158.6hPa | 2.5V | 08:00:59 | 02:53:21 | 00:00:00 | |
| DL1XH-15 | 2026-09-02 01:12:49 | 54.00531 | 14.68781 | 88° | 77km/h | 13503m | -5.1m/s | -50.8°C | 3.5% | 157.6hPa | 2.5V | 07:59:29 | 02:53:12 | 00:00:00 | |
| AA1-15 | 2026-09-02 01:12:47 | 54.00527 | 14.68866 | 97° | 57km/h | 13487m | -4m/s | -50.9°C | 0.3% | 157.9hPa | 2.5V | 08:00:08 | 02:53:15 | 00:00:00 | |
| DL1XH-west | 2026-09-02 01:12:43 | 54.00529 | 14.68748 | 82° | 77km/h | 13508m | -4.8m/s | -50.8°C | 0.3% | 157.5hPa | 2.5V | 08:00:59 | 02:53:11 | 00:00:00 | |
| DO2SHX-10 | 2026-09-02 01:12:41 | 54.00520 | 14.68684 | 71° | 75km/h | 13519m | -3.7m/s | -50.7°C | 3.5% | 157.3hPa | 2.5V | 00:00:00 | 02:53:09 | 00:00:00 | |
| DL1XH-15 | 2026-09-02 01:12:39 | 54.00494 | 14.68546 | 99° | 42km/h | 13554m | -5m/s | -50.2°C | 3.3% | 156.6hPa | 2.5V | 07:59:39 | 02:53:02 | 00:00:00 | |
| AA1-15 | 2026-09-02 01:12:37 | 54.00497 | 14.68596 | 64° | 38km/h | 13539m | -3.7m/s | -50.6°C | 0.2% | 156.9hPa | 2.5V | 08:00:08 | 02:53:05 | 00:00:00 | |
| DL1XH-west | 2026-09-02 01:12:32 | 54.00500 | 14.68505 | 103° | 57km/h | 13568m | -4.7m/s | -50°C | 0.1% | 156.3hPa | 2.5V | 08:00:59 | 02:53:00 | 00:00:00 | |
| DO2SHX-10 | 2026-09-02 01:12:30 | 54.00505 | 14.68450 | 92° | 77km/h | 13580m | -2.9m/s | -49.8°C | 3.3% | 156.0hPa | 2.6V | 00:00:00 | 02:52:58 | 00:00:00 | |
| DL1XH-15 | 2026-09-02 01:12:29 | 54.00477 | 14.68270 | 59° | 53km/h | 13602m | -2.8m/s | -49.8°C | 3.3% | 155.5hPa | 2.6V | 07:59:49 | 02:52:52 | 00:00:00 | |
| AA1-15 | 2026-09-02 01:12:26 | 54.00492 | 14.68318 | 68° | 69km/h | 13595m | -4.4m/s | -49.8°C | 0.2% | 155.7hPa | 2.5V | 08:00:08 | 02:52:54 | 00:00:00 | |
| DL1XH-west | 2026-09-02 01:12:21 | 54.00463 | 14.68219 | 84° | 35km/h | 13603m | -3.4m/s | -49.5°C | 0.1% | 155.2hPa | 2.5V | 08:00:59 | 02:52:49 | 00:00:00 | |
| AA1-15 | 2026-09-02 01:12:16 | 54.00475 | 14.68109 | 98° | 69km/h | 13627m | -4.5m/s | -49.3°C | 0% | 154.6hPa | 2.6V | 08:00:08 | 02:52:44 | 00:00:00 | |
| DL1XH-west | 2026-09-02 01:12:10 | 54.00462 | 14.67920 | 63° | 68km/h | 13646m | -4m/s | -49.3°C | 0% | 153.9hPa | 2.5V | 08:00:59 | 02:52:38 | 00:00:00 | |
| AA1-15 | 2026-09-02 01:12:05 | 54.00438 | 14.67829 | 89° | 38km/h | 13669m | -4.3m/s | -49.2°C | 0% | 153.3hPa | 2.5V | 08:00:08 | 02:52:33 | 00:00:00 | |
| DO2SHX-10 | 2026-09-02 01:12:05 | 54.00438 | 14.67829 | 89° | 44km/h | 13670m | -4.2m/s | -49.2°C | 3.1% | 153.3hPa | 2.5V | 00:00:00 | 02:52:33 | 00:00:00 | |
| MECKS9 | 2026-09-02 01:12:04 | 54.00438 | 14.67829 | 90° | 38km/h | 13670m | -4.3m/s | -49.2°C | 1.0% | 153.3hPa | 2.5V | 08:00:00 | 00:00:00 | 00:00:00 | |
| DL1XH1-15 | 2026-09-02 01:12:02 | 54.00444 | 14.67620 | 75° | 75km/h | 13703m | -4.8m/s | -49.1°C | 3.1% | 152.5hPa | 2.5V | 08:00:16 | 02:52:25 | 00:00:00 | |
| DO2SHX-10 | 2026-09-02 01:12:02 | 54.00445 | 14.67768 | 106° | 64km/h | 13682m | -4.1m/s | -49.2°C | 3.2% | 153.0hPa | 2.5V | 00:00:00 | 02:52:30 | 00:00:00 | |
| SP3BTT-10 | 2026-09-02 01:12:01 | 54.00449 | 14.67742 | 100° | 64km/h | 13691m | -4.0m/s | -49.2°C | 3.2% | 152.9hPa | 2.5V | 00:00:00 | 00:00:00 | 00:00:00 | |
| DO2SHX-10 | 2026-09-02 01:11:59 | 54.00451 | 14.67683 | 88° | 75km/h | 13704m | -3.5m/s | -49.0°C | 3.1% | 152.7hPa | 2.5V | 00:00:00 | 02:52:27 | 00:00:00 | |
| DL1XH-15 | 2026-09-02 01:11:58 | 54.00418 | 14.67525 | 65° | 46km/h | 13732m | -4m/s | -49.2°C | 3.1% | 152.1hPa | 2.5V | 08:00:20 | 02:52:21 | 00:00:00 | |
| DL1XH-west | 2026-09-02 01:11:58 | 54.00449 | 14.67649 | 80° | 78km/h | 13703m | -4.2m/s | -49.1°C | 0% | 152.6hPa | 2.6V | 08:00:59 | 02:52:26 | 00:00:00 | |
| AA1-15 | 2026-09-02 01:11:54 | 54.00425 | 14.67544 | 59° | 55km/h | 13728m | -4m/s | -49.2°C | 0% | 152.2hPa | 2.5V | 08:00:59 | 02:52:22 | 00:00:00 | |
| SP3WXH-11 | 2026-09-02 01:11:53 | 54.00415 | 14.67510 | 75° | 38km/h | 13736m | -3.6m/s | -49.2°C | 1.1% | 152.0hPa | 2.5V | 00:00:00 | 00:00:00 | 00:00:00 | |
| DO2SHX-10 | 2026-09-02 01:11:52 | 54.00414 | 14.67510 | 76° | 38km/h | 13736m | -3.5m/s | -49.1°C | 3.2% | 151.9hPa | 2.5V | 00:00:00 | 02:52:20 | 00:00:00 | |
| DL1XH1-15 | 2026-09-02 01:11:51 | 54.00429 | 14.67382 | 100° | 68km/h | 13764m | -4.8m/s | -48.9°C | 3% | 151.3hPa | 2.5V | 08:00:27 | 02:52:14 | 00:00:00 | |
| DO2SHX-10 | 2026-09-02 01:11:49 | 54.00415 | 14.67459 | 105° | 58km/h | 13748m | -4.0m/s | -49.0°C | 3.0% | 151.6hPa | 2.5V | 00:00:00 | 02:52:17 | 00:00:00 | |
| DL1XH-15 | 2026-09-02 01:11:48 | 54.00428 | 14.67286 | 81° | 77km/h | 13778m | -4.6m/s | -48.9°C | 3.1% | 150.9hPa | 2.5V | 08:00:30 | 02:52:11 | 00:00:00 | |
| DL1XH-west | 2026-09-02 01:11:48 | 54.00420 | 14.67437 | 104° | 66km/h | 13752m | -3.6m/s | -49°C | 0% | 151.5hPa | 2.5V | 08:00:59 | 02:52:16 | 00:00:00 | |
| AA1-15 | 2026-09-02 01:11:43 | 54.00428 | 14.67286 | 81° | 77km/h | 13778m | -4.6m/s | -48.9°C | 0% | 150.9hPa | 2.5V | 08:00:59 | 02:52:11 | 00:00:00 | |
| DO2SHX-10 | 2026-09-02 01:11:43 | 54.00428 | 14.67286 | 82° | 69km/h | 13778m | -4.6m/s | -48.9°C | 3.1% | 150.9hPa | 2.6V | 00:00:00 | 02:52:11 | 00:00:00 | |
| S3001 | 2026-09-02 01:11:41 | 54.00413 | 14.67203 | 61° | 55km/h | 13793m | -4.4m/s | -49.0°C | 1.0% | 150.7hPa | 2.6V | 00:00:00 | 00:00:00 | 00:00:00 | |
| DO2SHX-10 | 2026-09-02 01:11:40 | 54.00413 | 14.67203 | 62° | 46km/h | 13794m | -4.3m/s | -49.0°C | 3.1% | 150.6hPa | 2.6V | 00:00:00 | 02:52:08 | 00:00:00 | |
| DL1XH-15 | 2026-09-02 01:11:38 | 54.00412 | 14.67078 | 108° | 58km/h | 13827m | -4m/s | -49.2°C | 3.1% | 149.9hPa | 2.6V | 08:00:40 | 02:52:01 | 00:00:00 | |
| DL1XH-west | 2026-09-02 01:11:37 | 54.00401 | 14.67150 | 87° | 33km/h | 13812m | -3.9m/s | -49.1°C | 0% | 150.3hPa | 2.5V | 08:00:59 | 02:52:05 | 00:00:00 | |
| AA1-15 | 2026-09-02 01:11:32 | 54.00417 | 14.67052 | 110° | 69km/h | 13831m | -4.4m/s | -49.2°C | 0% | 149.7hPa | 2.5V | 08:00:59 | 02:52:00 | 00:00:00 | |
| DL1XH1-15 | 2026-09-02 01:11:31 | 54.00419 | 14.66861 | 72° | 66km/h | 13860m | -4.2m/s | -49.3°C | 3.2% | 149.1hPa | 2.5V | 08:00:47 | 02:51:54 | 00:00:00 | |
| DO2SHX-10 | 2026-09-02 01:11:31 | 54.00422 | 14.67022 | 103° | 78km/h | 13836m | -5.1m/s | -49.1°C | 3.1% | 149.6hPa | 2.6V | 00:00:00 | 02:51:59 | 00:00:00 | |
| DL1XH-15 | 2026-09-02 01:11:28 | 54.00406 | 14.66801 | 76° | 38km/h | 13879m | -5m/s | -49.3°C | 3.1% | 148.8hPa | 2.6V | 08:00:50 | 02:51:51 | 00:00:00 | |
| DL1XH-west | 2026-09-02 01:11:26 | 54.00419 | 14.66861 | 72° | 66km/h | 13860m | -4.2m/s | -49.3°C | 0% | 149.2hPa | 2.5V | 08:00:59 | 02:51:54 | 00:00:00 | |
| DO2SHX-10 | 2026-09-02 01:11:25 | 54.00414 | 14.66837 | 66° | 47km/h | 13865m | -4.7m/s | -49.3°C | 3.2% | 149.0hPa | 2.5V | 00:00:00 | 02:51:53 | 00:00:00 | |
| MECKS9 | 2026-09-02 01:11:24 | 54.00414 | 14.66837 | 66° | 55km/h | 13865m | -4.8m/s | -49.3°C | 1.1% | 149.0hPa | 2.5V | 08:00:00 | 00:00:00 | 00:00:00 | |
| DO2SHX-10 | 2026-09-02 01:11:22 | 54.00403 | 14.66786 | 85° | 35km/h | 13885m | -5.0m/s | -49.3°C | 3.1% | 148.6hPa | 2.5V | 00:00:00 | 02:51:50 | 00:00:00 | |
| DL1XH1-15 | 2026-09-02 01:11:21 | 54.00424 | 14.66661 | 100° | 77km/h | 13916m | -4.1m/s | -49.3°C | 3.1% | 148hPa | 2.5V | 08:00:57 | 02:51:44 | 00:00:00 | |
| AA1-15 | 2026-09-02 01:11:21 | 54.00403 | 14.66772 | 97° | 33km/h | 13892m | -5m/s | -49.3°C | 0% | 148.5hPa | 2.5V | 08:00:59 | 02:51:49 | 00:00:00 | |
| DO2SHX-10 | 2026-09-02 01:11:19 | 54.00408 | 14.66737 | 115° | 60km/h | 13905m | -3.6m/s | -49.3°C | 3.1% | 148.2hPa | 2.5V | 00:00:00 | 02:51:47 | 00:00:00 | |
| DL1XH-15 | 2026-09-02 01:11:18 | 54.00427 | 14.66566 | 81° | 77km/h | 13934m | -3.8m/s | -49.2°C | 3.1% | 147.6hPa | 2.6V | 08:01:00 | 02:51:41 | 00:00:00 | |
| DL1XH-west | 2026-09-02 01:11:16 | 54.00424 | 14.66661 | 100° | 77km/h | 13916m | -4.1m/s | -49.3°C | 0% | 148hPa | 2.5V | 08:00:59 | 02:51:44 | 00:00:00 | |
| DO2SHX-10 | 2026-09-02 01:11:16 | 54.00424 | 14.66661 | 101° | 77km/h | 13916m | -4.1m/s | -49.3°C | 3.1% | 148.0hPa | 2.6V | 00:00:00 | 02:51:44 | 00:00:00 | |
| DO2SHX-10 | 2026-09-02 01:11:13 | 54.00427 | 14.66566 | 82° | 71km/h | 13934m | -3.7m/s | -49.1°C | 3.1% | 147.6hPa | 2.6V | 00:00:00 | 02:51:41 | 00:00:00 | |
| DL1XH1-15 | 2026-09-02 01:11:11 | 54.00399 | 14.66417 | 95° | 31km/h | 13957m | -4.3m/s | -49.2°C | 3.1% | 146.8hPa | 2.6V | 08:01:07 | 02:51:34 | 00:00:00 | |
| AA1-15 | 2026-09-02 01:11:10 | 54.00413 | 14.66480 | 64° | 55km/h | 13942m | -4.1m/s | -49.1°C | 0% | 147.3hPa | 2.5V | 08:01:50 | 02:51:38 | 00:00:00 | |
| DO2SHX-10 | 2026-09-02 01:11:10 | 54.00413 | 14.66480 | 65° | 47km/h | 13943m | -4.0m/s | -49.0°C | 3.1% | 147.2hPa | 2.5V | 00:00:00 | 02:51:38 | 00:00:00 | |
| DL1XH-15 | 2026-09-02 01:11:08 | 54.00409 | 14.66362 | 110° | 58km/h | 13973m | -4.2m/s | -49.3°C | 3.1% | 146.6hPa | 2.5V | 08:01:10 | 02:51:31 | 00:00:00 | |
| DL1XH-west | 2026-09-02 01:11:06 | 54.00399 | 14.66417 | 96° | 31km/h | 13957m | -4.3m/s | -49.2°C | 0% | 146.8hPa | 2.6V | 08:01:50 | 02:51:34 | 00:00:00 | |
| DO2SHX-10 | 2026-09-02 01:11:04 | 54.00405 | 14.66383 | 112° | 58km/h | 13968m | -4.3m/s | -49.2°C | 3.1% | 146.6hPa | 2.6V | 00:00:00 | 02:51:32 | 00:00:00 | |
| MECKS9 | 2026-09-02 01:11:02 | 54.00409 | 14.66362 | 111° | 58km/h | 13973m | -4.2m/s | -49.3°C | 1.0% | 146.6hPa | 2.6V | 00:00:00 | 00:00:00 | 00:00:00 | |
| DL1XH1-15 | 2026-09-02 01:11:01 | 54.00399 | 14.66164 | 59° | 60km/h | 14010m | -4.5m/s | -49.4°C | 3.1% | 145.8hPa | 2.6V | 08:01:17 | 02:51:24 | 00:00:00 | |
| AA1-15 | 2026-09-02 01:11:00 | 54.00418 | 14.66276 | 92° | 73km/h | 13988m | -5.5m/s | -49.3°C | 0% | 146.2hPa | 2.5V | 08:01:50 | 02:51:28 | 00:00:00 | |
| DL1XH-15 | 2026-09-02 01:10:58 | 54.00380 | 14.66111 | 65° | 37km/h | 14024m | -4.7m/s | -49.5°C | 3.2% | 145.5hPa | 2.5V | 08:01:20 | 02:51:21 | 00:00:00 | |
| DL1XH-west | 2026-09-02 01:10:55 | 54.00392 | 14.66143 | 58° | 53km/h | 14015m | -4.8m/s | -49.4°C | 0% | 145.7hPa | 2.6V | 08:01:50 | 02:51:23 | 00:00:00 | |
| DO2SHX-10 | 2026-09-02 01:10:55 | 54.00392 | 14.66143 | 58° | 44km/h | 14015m | -4.8m/s | -49.4°C | 3.1% | 145.6hPa | 2.5V | 00:00:00 | 02:51:23 | 00:00:00 | |
| AM1SDL-15 | 2026-09-02 01:10:54 | 54.00385 | 14.66126 | 61° | 51km/h | 14020m | -4.1m/s | -49.4°C | 3.1% | 145.5hPa | 2.5V | 00:00:00 | 02:51:22 | 00:00:00 | |
| DO2SHX-10 | 2026-09-02 01:10:52 | 54.00377 | 14.66097 | 79° | 44km/h | 14030m | -4.2m/s | -49.4°C | 3.2% | 145.3hPa | 2.5V | 00:00:00 | 02:51:20 | 00:00:00 | |
| DL1XH1-15 | 2026-09-02 01:10:51 | 54.00389 | 14.65959 | 87° | 75km/h | 14062m | -4.8m/s | -49.6°C | 3.1% | 144.8hPa | 2.6V | 08:01:27 | 02:51:14 | 00:00:00 | |
| AA1-15 | 2026-09-02 01:10:50 | 54.00380 | 14.66066 | 103° | 47km/h | 14041m | -3.7m/s | -49.5°C | 0% | 145.1hPa | 2.6V | 08:01:50 | 02:51:18 | 00:00:00 | |
| EDDB2-11 | 2026-09-02 01:10:48 | 54.00387 | 14.66020 | 99° | 64km/h | 14051m | -4.3m/s | 0°C | -1.0% | -1.0hPa | 2.5V | 00:00:00 | 00:00:00 | 00:00:00 | |
| DL1XH-west | 2026-09-02 01:10:44 | 54.00382 | 14.65893 | 75° | 78km/h | 14073m | -4.9m/s | -49.6°C | 0% | 144.5hPa | 2.5V | 08:01:50 | 02:51:12 | 00:00:00 | |
| DJ2DS-15 | 2026-09-02 01:10:44 | 54.00382 | 14.65892 | 75° | 66km/h | 14073m | -4.9m/s | -49.6°C | 3.1% | 144.5hPa | 2.5V | 00:00:00 | 02:51:12 | 00:00:00 | |
| DO2SHX-10 | 2026-09-02 01:10:42 | 54.00369 | 14.65834 | 62° | 62km/h | 14083m | -3.8m/s | -49.6°C | 3.1% | 144.2hPa | 2.5V | 00:00:00 | 02:51:10 | 00:00:00 | |
| DL1XH1-15 | 2026-09-02 01:10:41 | 54.00336 | 14.65719 | 94° | 44km/h | 14108m | -3.7m/s | -49.7°C | 3.3% | 143.7hPa | 2.5V | 08:01:37 | 02:51:04 | 00:00:00 | |
| AA1-15 | 2026-09-02 01:10:39 | 54.00345 | 14.65770 | 56° | 46km/h | 14091m | -4.3m/s | -49.7°C | 0.1% | 143.9hPa | 2.6V | 08:01:50 | 02:51:07 | 00:00:00 | |
| S3001 | 2026-09-02 01:10:39 | 54.00340 | 14.65754 | 66° | 40km/h | 14097m | -4.4m/s | -49.7°C | 1.1% | 143.8hPa | 2.5V | 00:00:00 | 00:00:00 | 00:00:00 | |
| DL1XH-15 | 2026-09-02 01:10:38 | 54.00341 | 14.65645 | 96° | 71km/h | 14118m | -5.2m/s | -49.7°C | 3.2% | 143.4hPa | 2.5V | 08:01:40 | 02:51:01 | 00:00:00 | |
| DL1XH-west | 2026-09-02 01:10:33 | 54.00341 | 14.65645 | 96° | 71km/h | 14118m | -5.2m/s | -49.7°C | 0.1% | 143.4hPa | 2.5V | 08:01:50 | 02:51:01 | 00:00:00 | |
| DO2SHX-10 | 2026-09-02 01:10:33 | 54.00340 | 14.65645 | 97° | 77km/h | 14119m | -5.1m/s | -49.6°C | 3.2% | 143.3hPa | 2.5V | 08:01:00 | 02:51:01 | 00:00:00 | |
| DO2SHX-10 | 2026-09-02 01:10:30 | 54.00341 | 14.65544 | 81° | 84km/h | 14146m | -4.8m/s | -49.6°C | 3.2% | 142.9hPa | 2.6V | 00:00:00 | 02:50:58 | 00:00:00 | |
| DL1XH-15 | 2026-09-02 01:10:28 | 54.00294 | 14.65362 | 69° | 37km/h | 14170m | -5.8m/s | -49.8°C | 3.3% | 142.2hPa | 2.6V | 08:01:50 | 02:50:51 | 00:00:00 | |
| AA1-15 | 2026-09-02 01:10:28 | 54.00329 | 14.65475 | 66° | 80km/h | 14152m | -4.4m/s | -49.7°C | 0.1% | 142.7hPa | 2.6V | 08:01:50 | 02:50:56 | 00:00:00 | |
| DL1XH-west | 2026-09-02 01:10:23 | 54.00294 | 14.65362 | 69° | 37km/h | 14170m | -5.8m/s | -49.8°C | 0.1% | 142.3hPa | 2.6V | 08:01:50 | 02:50:51 | 00:00:00 | |
| DO2SHX-10 | 2026-09-02 01:10:21 | 54.00291 | 14.65329 | 96° | 47km/h | 14184m | -5.9m/s | -49.6°C | 3.2% | 141.9hPa | 2.6V | 00:00:00 | 02:50:49 | 00:00:00 | |
| SP3WXH-11 | 2026-09-02 01:10:19 | 54.00292 | 14.65287 | 102° | 55km/h | 14200m | -4.7m/s | -49.4°C | 1.0% | 141.7hPa | 2.6V | 00:00:00 | 00:00:00 | 00:00:00 | |
| DL1XH1-15 | 2026-09-02 01:10:18 | 54.00300 | 14.65094 | 77° | 78km/h | 14229m | -4.2m/s | -49.3°C | 3.3% | 141.1hPa | 2.6V | 08:02:00 | 02:50:41 | 00:00:00 | |
| AA1-15 | 2026-09-02 01:10:17 | 54.00300 | 14.65232 | 104° | 75km/h | 14210m | -4.9m/s | -49.4°C | 0% | 141.5hPa | 2.5V | 08:02:41 | 02:50:45 | 00:00:00 | |
| DL1XH-west | 2026-09-02 01:10:12 | 54.00295 | 14.65062 | 69° | 73km/h | 14235m | -4.1m/s | -49.3°C | 0.1% | 141hPa | 2.6V | 08:02:41 | 02:50:40 | 00:00:00 | |
| DO2SHX-10 | 2026-09-02 01:10:12 | 54.00295 | 14.65062 | 69° | 64km/h | 14235m | -4.1m/s | -49.2°C | 3.2% | 140.9hPa | 2.5V | 00:00:00 | 02:50:40 | 00:00:00 | |
| DO2SHX-10 | 2026-09-02 01:10:09 | 54.00275 | 14.64993 | 64° | 40km/h | 14250m | -5.1m/s | -49.0°C | 3.2% | 140.7hPa | 2.5V | 00:00:00 | 02:50:37 | 00:00:00 | |
| DL1XH-15 | 2026-09-02 01:10:08 | 54.00284 | 14.64883 | 111° | 69km/h | 14276m | -4.4m/s | -49°C | 3.1% | 140hPa | 2.5V | 08:02:10 | 02:50:31 | 00:00:00 | |
| AA1-15 | 2026-09-02 01:10:06 | 54.00271 | 14.64947 | 102° | 40km/h | 14266m | -4m/s | -49°C | 0% | 140.4hPa | 2.5V | 08:02:41 | 02:50:34 | 00:00:00 | |
| DO2SHX-10 | 2026-09-02 01:10:06 | 54.00271 | 14.64947 | 103° | 47km/h | 14266m | -4.0m/s | -48.9°C | 3.1% | 140.3hPa | 2.5V | 08:02:00 | 02:50:34 | 00:00:00 | |
| DL1XH1-15 | 2026-09-02 01:10:02 | 54.00290 | 14.64854 | 106° | 77km/h | 14282m | -4.7m/s | -49°C | 3% | 139.9hPa | 2.6V | 08:02:11 | 02:50:30 | 00:00:00 | |
| DL1XH-west | 2026-09-02 01:10:01 | 54.00295 | 14.64822 | 98° | 80km/h | 14287m | -4.4m/s | -49°C | 0% | 139.8hPa | 2.6V | 08:02:41 | 02:50:29 | 00:00:00 | |
| DO2SHX-10 | 2026-09-02 01:10:00 | 54.00296 | 14.64786 | 93° | 82km/h | 14292m | -4.6m/s | -49.0°C | 3.1% | 139.6hPa | 2.5V | 00:00:00 | 02:50:28 | 00:00:00 | |
| DL1XH-15 | 2026-09-02 01:09:58 | 54.00275 | 14.64593 | 80° | 35km/h | 14326m | -4.3m/s | -48.9°C | 3.1% | 139hPa | 2.5V | 08:02:20 | 02:50:21 | 00:00:00 | |
| AA1-15 | 2026-09-02 01:09:55 | 54.00282 | 14.64629 | 66° | 55km/h | 14316m | -4.7m/s | -48.9°C | 0% | 139.2hPa | 2.5V | 08:02:41 | 02:50:23 | 00:00:00 | |
| MECKS9 | 2026-09-02 01:09:54 | 54.00282 | 14.64629 | 67° | 55km/h | 14316m | -4.7m/s | -48.9°C | 1.0% | 139.2hPa | 2.6V | 08:02:00 | 00:00:00 | 00:00:00 | |
| DL1XH1-15 | 2026-09-02 01:09:52 | 54.00275 | 14.64578 | 99° | 37km/h | 14331m | -4.2m/s | -49°C | 3% | 138.9hPa | 2.6V | 08:02:21 | 02:50:20 | 00:00:00 | |
| DL1XH-west | 2026-09-02 01:09:51 | 54.00278 | 14.64563 | 114° | 38km/h | 14337m | -4.2m/s | -49°C | 0% | 138.8hPa | 2.6V | 08:02:41 | 02:50:19 | 00:00:00 | |
| DJ2DS-15 | 2026-09-02 01:09:48 | 54.00296 | 14.64503 | 114° | 62km/h | 14351m | -4.8m/s | -49.1°C | 1.0% | 138.4hPa | 2.6V | 00:00:00 | 00:00:00 | 00:00:00 | |
| DL1XH-15 | 2026-09-02 01:09:48 | 54.00315 | 14.64346 | 87° | 80km/h | 14375m | -5m/s | -49.1°C | 3.2% | 137.9hPa | 2.6V | 08:02:30 | 02:50:11 | 00:00:00 | |
| AA1-15 | 2026-09-02 01:09:44 | 54.00316 | 14.64379 | 92° | 78km/h | 14371m | -4.6m/s | -49.1°C | 0% | 138hPa | 2.6V | 08:02:41 | 02:50:12 | 00:00:00 | |
| DL1XH1-15 | 2026-09-02 01:09:42 | 54.00313 | 14.64315 | 80° | 69km/h | 14381m | -4.7m/s | -49.1°C | 3.1% | 137.8hPa | 2.5V | 08:02:31 | 02:50:10 | 00:00:00 | |
| DL1XH-west | 2026-09-02 01:09:40 | 54.00304 | 14.64263 | 73° | 53km/h | 14393m | -4.5m/s | -49.2°C | 0% | 137.6hPa | 2.5V | 08:02:41 | 02:50:08 | 00:00:00 | |
| DO2SHX-10 | 2026-09-02 01:09:39 | 54.00301 | 14.64244 | 71° | 37km/h | 14400m | -4.6m/s | -49.2°C | 3.1% | 137.4hPa | 2.5V | 08:02:00 | 02:50:07 | 00:00:00 | |
| DL1XH-15 | 2026-09-02 01:09:38 | 54.00320 | 14.64151 | 121° | 60km/h | 14432m | -4.6m/s | -49.4°C | 3.1% | 136.7hPa | 2.6V | 08:02:40 | 02:50:01 | 00:00:00 | |
| AA1-15 | 2026-09-02 01:09:34 | 54.00313 | 14.64171 | 124° | 51km/h | 14426m | -4.8m/s | -49.4°C | 0% | 136.9hPa | 2.5V | 08:02:41 | 02:50:02 | 00:00:00 | |
| DL1XH1-15 | 2026-09-02 01:09:32 | 54.00329 | 14.64127 | 118° | 68km/h | 14439m | -4.7m/s | -49.4°C | 3.1% | 136.7hPa | 2.6V | 08:02:41 | 02:50:00 | 00:00:00 | |
| DL1XH-west | 2026-09-02 01:09:30 | 54.00340 | 14.64069 | 102° | 77km/h | 14449m | -4.7m/s | -49.5°C | 0.1% | 136.5hPa | 2.5V | 08:03:32 | 02:49:58 | 00:00:00 | |
| DO2SHX-10 | 2026-09-02 01:09:30 | 54.00340 | 14.64069 | 103° | 75km/h | 14449m | -4.6m/s | -49.4°C | 3.2% | 136.4hPa | 2.5V | 00:00:00 | 02:49:58 | 00:00:00 | |
| DL1XH-15 | 2026-09-02 01:09:28 | 54.00323 | 14.63892 | 74° | 33km/h | 14487m | -4.5m/s | -49.6°C | 3.1% | 135.7hPa | 2.5V | 08:02:50 | 02:49:51 | 00:00:00 | |
| AA1-15 | 2026-09-02 01:09:23 | 54.00323 | 14.63892 | 74° | 33km/h | 14487m | -4.5m/s | -49.6°C | 0% | 135.7hPa | 2.5V | 08:03:32 | 02:49:51 | 00:00:00 | |
| DL1XH1-15 | 2026-09-02 01:09:22 | 54.00322 | 14.63880 | 90° | 24km/h | 14493m | -3.9m/s | -49.6°C | 3.2% | 135.6hPa | 2.6V | 08:02:51 | 02:49:50 | 00:00:00 | |
| DL1XH-west | 2026-09-02 01:09:20 | 54.00328 | 14.63859 | 126° | 35km/h | 14502m | -3.8m/s | -49.7°C | 0.1% | 135.4hPa | 2.5V | 08:03:32 | 02:49:48 | 00:00:00 | |
| DO2SHX-10 | 2026-09-02 01:09:18 | 54.00341 | 14.63830 | 122° | 60km/h | 14510m | -3.5m/s | -49.7°C | 3.2% | 135.2hPa | 2.5V | 00:00:00 | 02:49:46 | 00:00:00 | |
| SP3WXH-11 | 2026-09-02 01:09:17 | 54.00348 | 14.63809 | 118° | 58km/h | 14513m | -3.8m/s | -49.7°C | 1.0% | 135.1hPa | 2.5V | 00:00:00 | 00:00:00 | 00:00:00 | |
| DO2SHX-10 | 2026-09-02 01:09:15 | 54.00359 | 14.63755 | 108° | 69km/h | 14521m | -6.6m/s | -49.7°C | 3.3% | 134.9hPa | 2.5V | 00:00:00 | 02:49:43 | 00:00:00 | |
| DL1XH1-15 | 2026-09-02 01:09:12 | 54.00357 | 14.63668 | 74° | 60km/h | 14536m | -5m/s | -49.8°C | 3.2% | 134.6hPa | 2.5V | 08:03:01 | 02:49:40 | 00:00:00 | |
| AA1-15 | 2026-09-02 01:09:12 | 54.00357 | 14.63668 | 74° | 60km/h | 14536m | -5m/s | -49.8°C | 0% | 134.6hPa | 2.5V | 08:03:32 | 02:49:40 | 00:00:00 | |
| DL1XH-west | 2026-09-02 01:09:09 | 54.00342 | 14.63607 | 58° | 40km/h | 14549m | -5m/s | -50°C | 0% | 134.3hPa | 2.6V | 08:03:32 | 02:49:37 | 00:00:00 | |
| DO2SHX-10 | 2026-09-02 01:09:09 | 54.00342 | 14.63607 | 58° | 40km/h | 14550m | -5.0m/s | -49.9°C | 3.2% | 134.2hPa | 2.5V | 00:00:00 | 02:49:37 | 00:00:00 | |
| DK1YY | 2026-09-02 01:09:07 | 54.00336 | 14.63576 | 110° | 22km/h | 14563m | -4.5m/s | 0°C | -1.0% | -1.0hPa | 2.5V | 00:00:00 | 00:00:00 | 00:00:00 | |
| S3001 | 2026-09-02 01:09:06 | 54.00339 | 14.63566 | 125° | 27km/h | 14569m | -4.7m/s | -49.9°C | 1.0% | 133.9hPa | 2.5V | 00:00:00 | 00:00:00 | 00:00:00 | |
| DO2SHX-10 | 2026-09-02 01:09:05 | 54.00339 | 14.63566 | 126° | 40km/h | 14569m | -4.7m/s | -49.9°C | 3.2% | 133.8hPa | 2.5V | 00:00:00 | 02:49:33 | 00:00:00 | |
| DM0DOS-11 | 2026-09-02 01:09:04 | 54.00362 | 14.63465 | 93° | 64km/h | 14595m | -4.6m/s | -49.7°C | 0% | 133.4hPa | 2.5V | 08:03:13 | 02:49:28 | 00:00:00 | |
| DL1XH1-15 | 2026-09-02 01:09:02 | 54.00356 | 14.63516 | 110° | 55km/h | 14584m | -4.7m/s | -49.8°C | 3.3% | 133.6hPa | 2.6V | 08:03:11 | 02:49:30 | 00:00:00 | |
| AA1-15 | 2026-09-02 01:09:02 | 54.00356 | 14.63516 | 110° | 55km/h | 14584m | -4.7m/s | -49.8°C | 0.1% | 133.6hPa | 2.6V | 08:03:32 | 02:49:30 | 00:00:00 | |
| DO2SHX-10 | 2026-09-02 01:09:02 | 54.00356 | 14.63516 | 111° | 60km/h | 14585m | -4.7m/s | -49.8°C | 3.3% | 133.5hPa | 2.6V | 00:00:00 | 02:49:30 | 00:00:00 | |
| DO2SHX-10 | 2026-09-02 01:08:59 | 54.00360 | 14.63437 | 80° | 64km/h | 14601m | -4.4m/s | -49.6°C | 3.2% | 133.3hPa | 2.5V | 00:00:00 | 02:49:27 | 00:00:00 | |
| DL1XH-15 | 2026-09-02 01:08:58 | 54.00328 | 14.63330 | 59° | 18km/h | 14635m | -4.2m/s | -49.7°C | 3.2% | 132.7hPa | 2.5V | 08:03:20 | 02:49:21 | 00:00:00 | |
| DL1XH-west | 2026-09-02 01:08:58 | 54.00356 | 14.63410 | 73° | 62km/h | 14605m | -4.6m/s | -49.6°C | 0% | 133.2hPa | 2.6V | 08:03:32 | 02:49:26 | 00:00:00 | |
| AA1-15 | 2026-09-02 01:08:51 | 54.00329 | 14.63315 | 123° | 22km/h | 14644m | -4m/s | -49.7°C | 0.1% | 132.4hPa | 2.6V | 08:03:32 | 02:49:19 | 00:00:00 | |
| DL1XH-15 | 2026-09-02 01:08:48 | 54.00344 | 14.63138 | 70° | 66km/h | 14684m | -4.8m/s | -49.8°C | 3.2% | 131.6hPa | 2.5V | 08:03:30 | 02:49:11 | 00:00:00 | |
| DL1XH-west | 2026-09-02 01:08:48 | 54.00343 | 14.63270 | 113° | 53km/h | 14660m | -4.5m/s | -49.8°C | 0% | 132.2hPa | 2.5V | 08:03:32 | 02:49:16 | 00:00:00 | |
| SP3WXH-11 | 2026-09-02 01:08:46 | 54.00350 | 14.63221 | 94° | 62km/h | 14671m | -4.3m/s | -49.8°C | 1.0% | 131.9hPa | 2.5V | 00:00:00 | 00:00:00 | 00:00:00 | |
| DL1XH1-15 | 2026-09-02 01:08:42 | 54.00338 | 14.63114 | 60° | 58km/h | 14690m | -4.5m/s | -49.7°C | 3.1% | 131.5hPa | 2.5V | 08:03:31 | 02:49:10 | 00:00:00 | |
| AA1-15 | 2026-09-02 01:08:40 | 54.00321 | 14.63079 | 47° | 40km/h | 14701m | -4.4m/s | -49.7°C | 0% | 131.3hPa | 2.6V | 08:04:23 | 02:49:08 | 00:00:00 | |
| DL1XH-west | 2026-09-02 01:08:37 | 54.00311 | 14.63047 | 97° | 26km/h | 14720m | -3.7m/s | -49.7°C | 0% | 131hPa | 2.5V | 08:04:23 | 02:49:05 | 00:00:00 | |
| DM0DOS-11 | 2026-09-02 01:08:34 | 54.00319 | 14.63005 | 110° | 49km/h | 14730m | -4m/s | 0°C | 0% | 0hPa | 2.5V | 00:00:00 | 02:49:02 | 00:00:00 | |
| DL1XH1-15 | 2026-09-02 01:08:32 | 54.00325 | 14.62956 | 95° | 64km/h | 14738m | -4.7m/s | -49.9°C | 3.2% | 130.5hPa | 2.5V | 08:03:41 | 02:49:00 | 00:00:00 | |
| AA1-15 | 2026-09-02 01:08:29 | 54.00319 | 14.62869 | 69° | 73km/h | 14754m | -4.7m/s | -49.7°C | 0% | 130.2hPa | 2.5V | 08:04:23 | 02:48:57 | 00:00:00 | |
| DL1XH-west | 2026-09-02 01:08:26 | 54.00295 | 14.62798 | 52° | 53km/h | 14769m | -4.4m/s | -49.7°C | 0% | 129.9hPa | 2.5V | 08:04:23 | 02:48:54 | 00:00:00 | |
| DM0DOS-11 | 2026-09-02 01:08:24 | 54.00282 | 14.62772 | 58° | 33km/h | 14781m | -3.9m/s | 0°C | 0% | 0hPa | 2.6V | 00:00:00 | 02:48:52 | 00:00:00 | |
| DJ2DS-15 | 2026-09-02 01:08:24 | 54.00282 | 14.62772 | 59° | 51km/h | 14781m | -3.8m/s | -49.7°C | 3.2% | 129.7hPa | 2.6V | 00:00:00 | 02:48:52 | 00:00:00 | |
| DO2SHX-10 | 2026-09-02 01:08:23 | 54.00279 | 14.62761 | 75° | 31km/h | 14786m | -4.4m/s | -49.8°C | 3.3% | 129.6hPa | 2.6V | 00:00:00 | 02:48:51 | 00:00:00 | |
| DL1XH1-15 | 2026-09-02 01:08:22 | 54.00288 | 14.62697 | 105° | 58km/h | 14803m | -4.8m/s | -49.9°C | 3.2% | 129.2hPa | 2.6V | 08:03:54 | 02:48:47 | 00:00:00 | |
| DO2SHX-10 | 2026-09-02 01:08:20 | 54.00284 | 14.62718 | 112° | 57km/h | 14799m | -4.7m/s | -49.8°C | 3.2% | 129.3hPa | 2.6V | 00:00:00 | 02:48:48 | 00:00:00 | |
| DL1XH-15 | 2026-09-02 01:08:18 | 54.00281 | 14.62514 | 63° | 71km/h | 14838m | -4.8m/s | -49.9°C | 3.2% | 128.5hPa | 2.6V | 08:04:00 | 02:48:41 | 00:00:00 | |
| AA1-15 | 2026-09-02 01:08:18 | 54.00292 | 14.62671 | 106° | 66km/h | 14808m | -5.2m/s | -49.9°C | 0.1% | 129.1hPa | 2.5V | 08:04:23 | 02:48:46 | 00:00:00 | |
| DL1XH-west | 2026-09-02 01:08:16 | 54.00294 | 14.62610 | 89° | 75km/h | 14821m | -5.7m/s | -49.9°C | 0% | 128.9hPa | 2.5V | 08:04:23 | 02:48:44 | 00:00:00 | |
| DM0DOS-11 | 2026-09-02 01:08:14 | 54.00287 | 14.62544 | 71° | 77km/h | 14832m | -5.1m/s | 0°C | 0% | 0hPa | 2.6V | 00:00:00 | 02:48:42 | 00:00:00 | |
| DO2SHX-10 | 2026-09-02 01:08:14 | 54.00287 | 14.62544 | 72° | 71km/h | 14832m | -5.1m/s | -49.9°C | 3.2% | 128.6hPa | 2.6V | 00:00:00 | 02:48:42 | 00:00:00 | |
| DL1XH1-15 | 2026-09-02 01:08:12 | 54.00253 | 14.62439 | 65° | 33km/h | 14861m | -5m/s | -49.9°C | 3.2% | 128.2hPa | 2.6V | 08:04:04 | 02:48:37 | 00:00:00 | |
| DO2SHX-10 | 2026-09-02 01:08:11 | 54.00265 | 14.62468 | 54° | 42km/h | 14850m | -4.7m/s | -49.9°C | 3.3% | 128.3hPa | 2.6V | 00:00:00 | 02:48:39 | 00:00:00 | |
| DL1XH-15 | 2026-09-02 01:08:08 | 54.00266 | 14.62317 | 99° | 75km/h | 14889m | -4.2m/s | -49.9°C | 3.2% | 127.5hPa | 2.6V | 08:04:10 | 02:48:31 | 00:00:00 | |
| AA1-15 | 2026-09-02 01:08:08 | 54.00251 | 14.62426 | 87° | 29km/h | 14867m | -4.8m/s | -49.9°C | 0.1% | 128.1hPa | 2.6V | 08:04:23 | 02:48:36 | 00:00:00 | |
| DL1XH-west | 2026-09-02 01:08:06 | 54.00255 | 14.62395 | 110° | 44km/h | 14877m | -4.8m/s | -49.9°C | 0% | 127.9hPa | 2.5V | 08:04:23 | 02:48:34 | 00:00:00 | |
| DO2SHX-10 | 2026-09-02 01:08:05 | 54.00259 | 14.62374 | 110° | 66km/h | 14884m | -3.8m/s | -49.8°C | 3.1% | 127.7hPa | 2.6V | 00:00:00 | 02:48:33 | 00:00:00 | |
| DJ2DS-15 | 2026-09-02 01:08:04 | 54.00263 | 14.62348 | 104° | 62km/h | 14888m | -3.7m/s | -49.9°C | 3.2% | 127.6hPa | 2.6V | 00:00:00 | 02:48:32 | 00:00:00 | |
| S3001 | 2026-09-02 01:08:03 | 54.00266 | 14.62317 | 99° | 75km/h | 14890m | -4.2m/s | -49.9°C | 1.0% | 127.5hPa | 2.5V | 00:00:00 | 00:00:00 | 00:00:00 | |
| DJ2DS-15 | 2026-09-02 01:08:00 | 54.00262 | 14.62217 | 74° | 77km/h | 14902m | -4.7m/s | -49.9°C | 1.0% | 127.2hPa | 2.5V | 00:00:00 | 00:00:00 | 00:00:00 | |
| DO2SHX-10 | 2026-09-02 01:07:59 | 54.00256 | 14.62187 | 67° | 68km/h | 14908m | -4.9m/s | -49.8°C | 3.2% | 127.1hPa | 2.5V | 00:00:00 | 02:48:27 | 00:00:00 | |
| DL1XH-15 | 2026-09-02 01:07:58 | 54.00216 | 14.62078 | 79° | 29km/h | 14946m | -4.1m/s | -50°C | 3.2% | 126.5hPa | 2.6V | 08:04:20 | 02:48:21 | 00:00:00 | |
| AA1-15 | 2026-09-02 01:07:57 | 54.00238 | 14.62137 | 54° | 58km/h | 14920m | -5.4m/s | -49.9°C | 0% | 127hPa | 2.6V | 08:04:23 | 02:48:25 | 00:00:00 | |
| DL1XH-west | 2026-09-02 01:07:55 | 54.00224 | 14.62103 | 52° | 40km/h | 14935m | -4.8m/s | -49.9°C | 0% | 126.8hPa | 2.5V | 08:04:23 | 02:48:23 | 00:00:00 | |
| DO2SHX-10 | 2026-09-02 01:07:53 | 54.00216 | 14.62078 | 80° | 37km/h | 14947m | -4.1m/s | -50.0°C | 3.2% | 126.5hPa | 2.5V | 00:00:00 | 02:48:21 | 00:00:00 | |
| DO2SHX-10 | 2026-09-02 01:07:50 | 54.00221 | 14.62029 | 109° | 64km/h | 14960m | -3.9m/s | -50.1°C | 3.2% | 126.2hPa | 2.5V | 08:04:00 | 02:48:18 | 00:00:00 | |
| DL1XH-15 | 2026-09-02 01:07:48 | 54.00213 | 14.61810 | 62° | 71km/h | 14989m | -4.8m/s | -50.4°C | 3.3% | 125.5hPa | 2.5V | 08:04:30 | 02:48:11 | 00:00:00 | |
| AA1-15 | 2026-09-02 01:07:46 | 54.00230 | 14.61908 | 83° | 84km/h | 14976m | -4.7m/s | -50.3°C | 0.1% | 125.8hPa | 2.6V | 08:05:14 | 02:48:14 | 00:00:00 | |
| DL1XH-west | 2026-09-02 01:07:44 | 54.00220 | 14.61840 | 71° | 78km/h | 14985m | -4.7m/s | -50.4°C | 0.2% | 125.6hPa | 2.5V | 08:05:14 | 02:48:12 | 00:00:00 | |
| DO2SHX-10 | 2026-09-02 01:07:41 | 54.00197 | 14.61765 | 55° | 40km/h | 14999m | -4.8m/s | -50.3°C | 3.2% | 125.3hPa | 2.6V | 00:00:00 | 02:48:09 | 00:00:00 | |
| DL1XH-15 | 2026-09-02 01:07:38 | 54.00203 | 14.61619 | 97° | 73km/h | 15043m | -4.3m/s | -50.5°C | 3.4% | 124.5hPa | 2.5V | 08:04:40 | 02:48:01 | 00:00:00 | |
| AA1-15 | 2026-09-02 01:07:36 | 54.00190 | 14.61692 | 110° | 44km/h | 15028m | -5.6m/s | -50.5°C | 0.1% | 124.8hPa | 2.6V | 08:05:14 | 02:48:04 | 00:00:00 | |
| DL1XH-west | 2026-09-02 01:07:34 | 54.00199 | 14.61648 | 105° | 66km/h | 15038m | -5.1m/s | -50.5°C | 0.2% | 124.6hPa | 2.5V | 08:05:14 | 02:48:02 | 00:00:00 | |
| S3001 | 2026-09-02 01:07:33 | 54.00205 | 14.61587 | 90° | 78km/h | 15047m | -4.5m/s | -50.5°C | 1.1% | 124.4hPa | 2.5V | 00:00:00 | 00:00:00 | 00:00:00 | |
| DL1XH1-15 | 2026-09-02 01:07:32 | 54.00193 | 14.61491 | 66° | 71km/h | 15061m | -5.3m/s | -50.5°C | 3.3% | 124.1hPa | 2.5V | 08:04:44 | 02:47:57 | 00:00:00 | |
| DO2SHX-10 | 2026-09-02 01:07:32 | 54.00205 | 14.61586 | 91° | 78km/h | 15048m | -4.5m/s | -50.5°C | 3.4% | 124.4hPa | 2.5V | 00:00:00 | 02:48:00 | 00:00:00 | |
| DO2SHX-10 | 2026-09-02 01:07:29 | 54.00193 | 14.61491 | 67° | 62km/h | 15061m | -5.3m/s | -50.5°C | 3.3% | 124.1hPa | 2.5V | 00:00:00 | 02:47:57 | 00:00:00 | |
| DL1XH-15 | 2026-09-02 01:07:28 | 54.00166 | 14.61393 | 106° | 29km/h | 15094m | -5.8m/s | -50.5°C | 3.3% | 123.5hPa | 2.5V | 08:04:50 | 02:47:51 | 00:00:00 | |
| AA1-15 | 2026-09-02 01:07:26 | 54.00172 | 14.61429 | 58° | 40km/h | 15077m | -5.5m/s | -50.6°C | 0.2% | 123.8hPa | 2.6V | 08:05:14 | 02:47:54 | 00:00:00 | |
| DL1XH-west | 2026-09-02 01:07:24 | 54.00165 | 14.61405 | 79° | 26km/h | 15089m | -5.7m/s | -50.6°C | 0.2% | 123.6hPa | 2.5V | 08:05:14 | 02:47:52 | 00:00:00 | |
| DO2SHX-10 | 2026-09-02 01:07:23 | 54.00166 | 14.61393 | 107° | 40km/h | 15094m | -5.8m/s | -50.5°C | 3.3% | 123.4hPa | 2.5V | 08:04:00 | 02:47:51 | 00:00:00 | |
| DO2SHX-10 | 2026-09-02 01:07:20 | 54.00178 | 14.61340 | 107° | 69km/h | 15110m | -5.4m/s | -50.4°C | 3.3% | 123.1hPa | 2.5V | 00:00:00 | 02:47:48 | 00:00:00 | |
| DL1XH-15 | 2026-09-02 01:07:18 | 54.00152 | 14.61147 | 49° | 51km/h | 15146m | -6.2m/s | -50.4°C | 3.3% | 122.5hPa | 2.5V | 08:05:00 | 02:47:41 | 00:00:00 | |
| AA1-15 | 2026-09-02 01:07:15 | 54.00169 | 14.61189 | 63° | 68km/h | 15134m | -6.4m/s | -50.4°C | 0.2% | 122.7hPa | 2.5V | 08:05:14 | 02:47:43 | 00:00:00 | |
| DL1XH-west | 2026-09-02 01:07:13 | 54.00152 | 14.61147 | 50° | 51km/h | 15146m | -6.2m/s | -50.4°C | 0.1% | 122.5hPa | 2.5V | 08:05:14 | 02:47:41 | 00:00:00 | |
| DO2SHX-10 | 2026-09-02 01:07:11 | 54.00140 | 14.61119 | 58° | 26km/h | 15157m | -6.1m/s | -50.4°C | 3.3% | 122.2hPa | 2.6V | 00:00:00 | 02:47:39 | 00:00:00 | |
| DO2SHX-10 | 2026-09-02 01:07:08 | 54.00139 | 14.61086 | 112° | 49km/h | 15178m | -5.0m/s | -50.4°C | 3.4% | 122.0hPa | 2.6V | 00:00:00 | 02:47:36 | 00:00:00 | |
| DL1XH-15 | 2026-09-02 01:07:07 | 54.00137 | 14.60931 | 65° | 73km/h | 15210m | -5.7m/s | -50.5°C | 3.4% | 121.5hPa | 2.6V | 08:05:11 | 02:47:30 | 00:00:00 | |
| AA1-15 | 2026-09-02 01:07:04 | 54.00147 | 14.60990 | 82° | 71km/h | 15201m | -5.1m/s | -50.6°C | 0.3% | 121.7hPa | 2.5V | 08:05:14 | 02:47:32 | 00:00:00 | |
| DJ2DS-15 | 2026-09-02 01:07:04 | 54.00147 | 14.60990 | 82° | 53km/h | 15201m | -5.0m/s | -50.5°C | 3.4% | 121.6hPa | 2.5V | 08:05:00 | 02:47:32 | 00:00:00 | |
| AM1SDL-15 | 2026-09-02 01:07:03 | 54.00143 | 14.60960 | 73° | 49km/h | 15205m | -5.0m/s | -50.5°C | 3.4% | 121.5hPa | 2.5V | 00:00:00 | 02:47:31 | 00:00:00 | |
| DL1XH1-15 | 2026-09-02 01:07:02 | 54.00107 | 14.60866 | 45° | 44km/h | 15217m | -6m/s | -50.6°C | 3.4% | 121.1hPa | 2.5V | 08:05:14 | 02:47:27 | 00:00:00 | |
| DL1XH-west | 2026-09-02 01:07:02 | 54.00136 | 14.60931 | 66° | 73km/h | 15210m | -5.7m/s | -50.5°C | 0.2% | 121.5hPa | 2.6V | 08:05:14 | 02:47:30 | 00:00:00 | |
| S3001 | 2026-09-02 01:07:01 | 54.00127 | 14.60906 | 55° | 64km/h | 15213m | -5.4m/s | -50.5°C | 1.1% | 121.3hPa | 2.5V | 00:00:00 | 00:00:00 | 00:00:00 | |
| DO2SHX-10 | 2026-09-02 01:06:59 | 54.00107 | 14.60866 | 46° | 33km/h | 15218m | -5.9m/s | -50.5°C | 3.4% | 121.1hPa | 2.5V | 00:00:00 | 02:47:27 | 00:00:00 | |
| DL1XH-15 | 2026-09-02 01:06:57 | 54.00105 | 14.60771 | 100° | 62km/h | 15261m | -6.5m/s | -50.7°C | 3.4% | 120.4hPa | 2.5V | 08:05:21 | 02:47:20 | 00:00:00 | |
| AA1-15 | 2026-09-02 01:06:54 | 54.00098 | 14.60815 | 107° | 42km/h | 15248m | -6.7m/s | -50.7°C | 0.3% | 120.7hPa | 2.6V | 08:06:05 | 02:47:22 | 00:00:00 | |
| DO2SHX-10 | 2026-09-02 01:06:53 | 54.00101 | 14.60796 | 108° | 62km/h | 15254m | -7.0m/s | -50.7°C | 3.3% | 120.5hPa | 2.5V | 00:00:00 | 02:47:21 | 00:00:00 | |
| DL1XH1-15 | 2026-09-02 01:06:52 | 54.00106 | 14.60680 | 79° | 73km/h | 15276m | -5.3m/s | -50.8°C | 3.5% | 120.1hPa | 2.5V | 08:05:24 | 02:47:17 | 00:00:00 | |
| DL1XH-west | 2026-09-02 01:06:52 | 54.00105 | 14.60771 | 100° | 62km/h | 15261m | -6.5m/s | -50.7°C | 0.2% | 120.4hPa | 2.5V | 08:06:05 | 02:47:20 | 00:00:00 | |
| AM1SDL-15 | 2026-09-02 01:06:51 | 54.00108 | 14.60743 | 98° | 57km/h | 15267m | -6.2m/s | -50.7°C | 3.4% | 120.3hPa | 2.5V | 00:00:00 | 02:47:19 | 08:30:00 | |
| DO2SHX-10 | 2026-09-02 01:06:50 | 54.00108 | 14.60712 | 87° | 73km/h | 15272m | -5.9m/s | -50.8°C | 3.5% | 120.1hPa | 2.6V | 00:00:00 | 02:47:18 | 00:00:00 | |
| DL1XH-15 | 2026-09-02 01:06:48 | 54.00068 | 14.60547 | 94° | 26km/h | 15311m | -5.9m/s | -50.7°C | 3.4% | 119.5hPa | 2.6V | 08:05:31 | 02:47:10 | 00:00:00 | |
| AA1-15 | 2026-09-02 01:06:43 | 54.00068 | 14.60557 | 73° | 27km/h | 15305m | -6.2m/s | -50.8°C | 0.3% | 119.6hPa | 2.6V | 08:06:05 | 02:47:11 | 00:00:00 | |
| DL1XH1-15 | 2026-09-02 01:06:42 | 54.00079 | 14.60501 | 109° | 55km/h | 15328m | -5.8m/s | -50.6°C | 3.4% | 119.2hPa | 2.5V | 08:05:34 | 02:47:07 | 00:00:00 | |
| DL1XH-west | 2026-09-02 01:06:42 | 54.00067 | 14.60547 | 95° | 26km/h | 15311m | -5.9m/s | -50.7°C | 0.2% | 119.5hPa | 2.6V | 08:06:05 | 02:47:10 | 00:00:00 | |
| DO2SHX-10 | 2026-09-02 01:06:41 | 54.00070 | 14.60535 | 115° | 44km/h | 15317m | -5.9m/s | -50.6°C | 3.4% | 119.3hPa | 2.5V | 00:00:00 | 02:47:09 | 00:00:00 | |
| DO2SHX-10 | 2026-09-02 01:06:38 | 54.00084 | 14.60477 | 105° | 68km/h | 15334m | -5.8m/s | -50.5°C | 3.4% | 119.0hPa | 2.5V | 00:00:00 | 02:47:06 | 00:00:00 | |
| DL1XH-15 | 2026-09-02 01:06:37 | 54.00063 | 14.60322 | 49° | 46km/h | 15361m | -5.8m/s | -50.3°C | 3.3% | 118.5hPa | 2.6V | 08:05:41 | 02:47:00 | 00:00:00 | |
| DO2SHX-10 | 2026-09-02 01:06:35 | 54.00083 | 14.60389 | 77° | 64km/h | 15347m | -4.9m/s | -50.3°C | 3.4% | 118.7hPa | 2.5V | 00:00:00 | 02:47:03 | 00:00:00 | |
| DL1XH1-15 | 2026-09-02 01:06:32 | 54.00050 | 14.60292 | 74° | 20km/h | 15377m | -6.6m/s | -50.4°C | 3.3% | 118.2hPa | 2.5V | 08:05:44 | 02:46:57 | 00:00:00 | |
| AA1-15 | 2026-09-02 01:06:32 | 54.00063 | 14.60322 | 49° | 46km/h | 15361m | -5.8m/s | -50.3°C | 0.1% | 118.5hPa | 2.6V | 08:06:05 | 02:47:00 | 00:00:00 | |
| DL1XH-west | 2026-09-02 01:06:31 | 54.00057 | 14.60310 | 48° | 35km/h | 15365m | -6.1m/s | -50.3°C | 0.1% | 118.4hPa | 2.6V | 08:06:05 | 02:46:59 | 00:00:00 | |
| S3001 | 2026-09-02 01:06:30 | 54.00052 | 14.60300 | 50° | 26km/h | 15370m | -6.4m/s | -50.4°C | 1.1% | 118.3hPa | 2.5V | 00:00:00 | 00:00:00 | 00:00:00 | |
| DO2SHX-10 | 2026-09-02 01:06:29 | 54.00050 | 14.60292 | 75° | 24km/h | 15377m | -6.6m/s | -50.3°C | 3.3% | 118.1hPa | 2.5V | 08:05:00 | 02:46:57 | 00:00:00 | |
| DL1XH-15 | 2026-09-02 01:06:27 | 54.00071 | 14.60161 | 84° | 71km/h | 15418m | -5.9m/s | -50.4°C | 3.4% | 117.5hPa | 2.5V | 08:05:51 | 02:46:50 | 00:00:00 | |
| SP3BTT-10 | 2026-09-02 01:06:27 | 54.00054 | 14.60275 | 115° | 53km/h | 15389m | -5.7m/s | 0°C | 0% | 0hPa | 2.5V | 00:00:00 | 00:00:00 | 00:00:00 | |
| DO2SHX-10 | 2026-09-02 01:06:26 | 54.00058 | 14.60260 | 116° | 55km/h | 15397m | -5.1m/s | -50.4°C | 3.3% | 117.8hPa | 2.5V | 00:00:00 | 02:46:54 | 00:00:00 | |
| DJ2DS-15 | 2026-09-02 01:06:24 | 54.00068 | 14.60218 | 104° | 62km/h | 15409m | -5.4m/s | -50.3°C | 3.3% | 117.7hPa | 2.5V | 00:00:00 | 02:46:52 | 00:00:00 | |
| DO2SHX-10 | 2026-09-02 01:06:23 | 54.00071 | 14.60190 | 95° | 69km/h | 15413m | -5.7m/s | -50.4°C | 3.3% | 117.6hPa | 2.5V | 00:00:00 | 02:46:51 | 00:00:00 | |
| DL1XH1-15 | 2026-09-02 01:06:22 | 54.00055 | 14.60081 | 58° | 60km/h | 15434m | -6m/s | -50.4°C | 3.3% | 117.2hPa | 2.5V | 08:05:54 | 02:46:47 | 00:00:00 | |
| DL1XH-west | 2026-09-02 01:06:21 | 54.00067 | 14.60133 | 75° | 69km/h | 15423m | -5.9m/s | -50.4°C | 0.1% | 117.4hPa | 2.6V | 08:06:05 | 02:46:49 | 00:00:00 | |
| DL1XH-15 | 2026-09-02 01:06:17 | 54.00039 | 14.59990 | 112° | 42km/h | 15468m | -7m/s | -50.5°C | 3.3% | 116.5hPa | 2.5V | 08:06:01 | 02:46:40 | 00:00:00 | |
| DO2SHX-10 | 2026-09-02 01:06:17 | 54.00040 | 14.60045 | 51° | 29km/h | 15443m | -5.0m/s | -50.3°C | 3.4% | 116.9hPa | 2.6V | 00:00:00 | 02:46:45 | 00:00:00 | |
| MECKS9 | 2026-09-02 01:06:16 | 54.00034 | 14.60034 | 53° | 27km/h | 15447m | -5.1m/s | -50.4°C | 1.1% | 116.9hPa | 2.6V | 08:06:00 | 00:00:00 | 00:00:00 | |
| DO2SHX-10 | 2026-09-02 01:06:14 | 54.00032 | 14.60016 | 104° | 33km/h | 15456m | -6.0m/s | -50.4°C | 3.3% | 116.7hPa | 2.6V | 00:00:00 | 02:46:42 | 00:00:00 | |
| DL1XH1-15 | 2026-09-02 01:06:12 | 54.00052 | 14.59918 | 95° | 69km/h | 15489m | -6.8m/s | -50.5°C | 3.3% | 116.2hPa | 2.6V | 08:06:04 | 02:46:37 | 00:00:00 | |
| DL1XH-west | 2026-09-02 01:06:10 | 54.00049 | 14.59946 | 104° | 66km/h | 15482m | -6.4m/s | -50.5°C | 0.1% | 116.4hPa | 2.5V | 08:06:05 | 02:46:38 | 00:00:00 | |
| DO2SHX-10 | 2026-09-02 01:06:08 | 54.00052 | 14.59889 | 85° | 73km/h | 15495m | -6.5m/s | -50.5°C | 3.4% | 116.1hPa | 2.6V | 00:00:00 | 02:46:36 | 00:00:00 | |
| DL1XH-15 | 2026-09-02 01:06:07 | 54.00015 | 14.59755 | 56° | 27km/h | 15527m | -6.1m/s | -50.5°C | 3.3% | 115.6hPa | 2.6V | 08:06:11 | 02:46:30 | 00:00:00 | |
| MECKS9 | 2026-09-02 01:06:06 | 54.00042 | 14.59829 | 69° | 71km/h | 15509m | -5.0m/s | -50.6°C | 1.1% | 115.9hPa | 2.5V | 00:00:00 | 00:00:00 | 00:00:00 | |
| DO2SHX-10 | 2026-09-02 01:06:05 | 54.00034 | 14.59803 | 61° | 53km/h | 15512m | -5.5m/s | -50.5°C | 3.3% | 115.8hPa | 2.5V | 00:00:00 | 02:46:33 | 00:00:00 | |
| DJ2DS-15 | 2026-09-02 01:06:04 | 54.00026 | 14.59782 | 55° | 47km/h | 15516m | -6.4m/s | -50.5°C | 3.4% | 115.7hPa | 2.5V | 00:00:00 | 02:46:32 | 00:00:00 | |
| DL1XH1-15 | 2026-09-02 01:06:03 | 54.00017 | 14.59719 | 113° | 40km/h | 15548m | -6.5m/s | -50.4°C | 3.3% | 115.3hPa | 2.5V | 08:06:14 | 02:46:27 | 00:00:00 | |
| DL1XH-west | 2026-09-02 01:06:00 | 54.00014 | 14.59734 | 105° | 29km/h | 15541m | -6.2m/s | -50.4°C | 0.1% | 115.4hPa | 2.5V | 08:06:56 | 02:46:28 | 00:00:00 | |
| DO2SHX-10 | 2026-09-02 01:05:59 | 54.00017 | 14.59719 | 114° | 49km/h | 15548m | -6.5m/s | -50.4°C | 3.3% | 115.3hPa | 2.6V | 00:00:00 | 02:46:27 | 00:00:00 | |
| DL1XH-15 | 2026-09-02 01:05:56 | 54.00024 | 14.59503 | 62° | 60km/h | 15589m | -4.5m/s | -50.3°C | 3.3% | 114.5hPa | 2.6V | 08:06:22 | 02:46:19 | 00:00:00 | |
| DO2SHX-10 | 2026-09-02 01:05:56 | 54.00031 | 14.59652 | 105° | 73km/h | 15567m | -6.4m/s | -50.4°C | 3.3% | 114.9hPa | 2.5V | 00:00:00 | 02:46:24 | 00:00:00 | |
| MECKS9 | 2026-09-02 01:05:55 | 54.00031 | 14.59652 | 105° | 69km/h | 15567m | -6.4m/s | -50.5°C | 1.0% | 115.0hPa | 2.5V | 00:00:00 | 00:00:00 | 00:00:00 | |
| DO2SHX-10 | 2026-09-02 01:05:53 | 54.00036 | 14.59558 | 80° | 68km/h | 15582m | -4.7m/s | -50.4°C | 3.3% | 114.6hPa | 2.5V | 00:00:00 | 02:46:21 | 00:00:00 | |
| DL1XH1-15 | 2026-09-02 01:05:52 | 54.00011 | 14.59464 | 61° | 37km/h | 15595m | -5.5m/s | -50.1°C | 3.2% | 114.3hPa | 2.5V | 08:06:24 | 02:46:17 | 00:00:00 | |
| DL1XH-west | 2026-09-02 01:05:49 | 54.00011 | 14.59464 | 62° | 37km/h | 15595m | -5.5m/s | -50.1°C | 0% | 114.3hPa | 2.5V | 08:06:56 | 02:46:17 | 00:00:00 | |
| DO2SHX-10 | 2026-09-02 01:05:47 | 54.00008 | 14.59439 | 100° | 33km/h | 15606m | -7.1m/s | -50.1°C | 3.2% | 114.1hPa | 2.5V | 00:00:00 | 02:46:15 | 00:00:00 | |
| DO2SHX-10 | 2026-09-02 01:05:44 | 54.00023 | 14.59394 | 120° | 62km/h | 15628m | -7.4m/s | -50.0°C | 3.1% | 113.7hPa | 2.5V | 00:00:00 | 02:46:12 | 00:00:00 | |
| SP3BTT-10 | 2026-09-02 01:05:43 | 54.00030 | 14.59373 | 118° | 71km/h | 15635m | -6.9m/s | 0°C | 0% | 0hPa | 2.6V | 00:00:00 | 00:00:00 | 00:00:00 | |
| DL1XH1-15 | 2026-09-02 01:05:42 | 54.00042 | 14.59255 | 78° | 71km/h | 15660m | -4.5m/s | -50.3°C | 3.3% | 113.4hPa | 2.6V | 08:06:34 | 02:46:07 | 00:00:00 | |
| DL1XH-15 | 2026-09-02 01:05:41 | 54.00044 | 14.59286 | 91° | 75km/h | 15655m | -5.2m/s | -50.2°C | 3.2% | 113.4hPa | 2.6V | 08:06:33 | 02:46:08 | 00:00:00 | |
| DL1XH-west | 2026-09-02 01:05:39 | 54.00042 | 14.59255 | 79° | 71km/h | 15661m | -4.5m/s | -50.3°C | 0% | 113.4hPa | 2.6V | 08:06:56 | 02:46:07 | 00:00:00 | |
| DO2SHX-10 | 2026-09-02 01:05:38 | 54.00039 | 14.59226 | 77° | 58km/h | 15666m | -5.5m/s | -50.3°C | 3.2% | 113.2hPa | 2.6V | 00:00:00 | 02:46:06 | 00:00:00 | |
| DO2SHX-10 | 2026-09-02 01:05:35 | 54.00018 | 14.59162 | 64° | 27km/h | 15679m | -6.8m/s | -50.2°C | 3.2% | 112.9hPa | 2.6V | 08:06:00 | 02:46:03 | 00:00:00 | |
| MECKS9 | 2026-09-02 01:05:34 | 54.00018 | 14.59162 | 64° | 33km/h | 15679m | -6.8m/s | -50.3°C | 0.9% | 113.0hPa | 2.6V | 00:00:00 | 00:00:00 | 00:00:00 | |
| DL1XH1-15 | 2026-09-02 01:05:32 | 54.00040 | 14.59084 | 122° | 60km/h | 15711m | -5.3m/s | -50°C | 3.1% | 112.3hPa | 2.6V | 08:06:44 | 02:45:57 | 00:00:00 | |
| DO2SHX-10 | 2026-09-02 01:05:32 | 54.00018 | 14.59132 | 126° | 40km/h | 15701m | -5.6m/s | -50.0°C | 3.1% | 112.6hPa | 2.5V | 00:00:00 | 02:46:00 | 00:00:00 | |
| DL1XH-15 | 2026-09-02 01:05:31 | 54.00056 | 14.59032 | 106° | 71km/h | 15720m | -5.9m/s | -50°C | 3.2% | 112.2hPa | 2.5V | 08:06:46 | 02:45:55 | 00:00:00 | |
| DL1XH-west | 2026-09-02 01:05:29 | 54.00040 | 14.59084 | 123° | 60km/h | 15711m | -5.3m/s | -50°C | 0% | 112.3hPa | 2.6V | 08:06:56 | 02:45:57 | 00:00:00 | |
| AA1-15 | 2026-09-02 01:05:28 | 54.00049 | 14.59060 | 114° | 68km/h | 15714m | -5.4m/s | -50°C | 0% | 112.2hPa | 2.5V | 08:06:56 | 02:45:56 | 00:00:00 | |
| DO2SHX-10 | 2026-09-02 01:05:26 | 54.00059 | 14.59003 | 98° | 66km/h | 15726m | -5.8m/s | -50.0°C | 3.2% | 112.0hPa | 2.5V | 00:00:00 | 02:45:54 | 00:00:00 | |
| DJ2DS-15 | 2026-09-02 01:05:24 | 54.00058 | 14.58946 | 76° | 38km/h | 15738m | -5.3m/s | -49.8°C | 3.1% | 111.8hPa | 2.6V | 00:00:00 | 02:45:52 | 00:00:00 | |
| DO2SHX-10 | 2026-09-02 01:05:23 | 54.00054 | 14.58923 | 69° | 40km/h | 15743m | -5.8m/s | -49.8°C | 3.0% | 111.8hPa | 2.6V | 00:00:00 | 02:45:51 | 00:00:00 | |
| DL1XH1-15 | 2026-09-02 01:05:22 | 54.00042 | 14.58879 | 102° | 13km/h | 15764m | -6.2m/s | -50°C | 3.1% | 111.4hPa | 2.6V | 08:06:54 | 02:45:47 | 00:00:00 | |
| DL1XH-15 | 2026-09-02 01:05:21 | 54.00056 | 14.58853 | 134° | 44km/h | 15781m | -6.1m/s | -50.1°C | 3.1% | 111.1hPa | 2.5V | 08:06:57 | 02:45:44 | 00:00:00 | |
| DL1XH-west | 2026-09-02 01:05:18 | 54.00045 | 14.58873 | 136° | 22km/h | 15770m | -6.8m/s | -50°C | 0% | 111.3hPa | 2.6V | 08:06:56 | 02:45:46 | 00:00:00 | |
| AA1-15 | 2026-09-02 01:05:17 | 54.00049 | 14.58865 | 136° | 33km/h | 15775m | -6.5m/s | -50°C | 0% | 111.2hPa | 2.5V | 08:06:56 | 02:45:45 | 00:00:00 | |
| DO2SHX-10 | 2026-09-02 01:05:17 | 54.00049 | 14.58865 | 137° | 44km/h | 15776m | -6.5m/s | -50.0°C | 3.1% | 111.2hPa | 2.5V | 00:00:00 | 02:45:45 | 00:00:00 | |
| DO2SHX-10 | 2026-09-02 01:05:14 | 54.00072 | 14.58815 | 109° | 64km/h | 15794m | -4.6m/s | -50.1°C | 3.1% | 110.9hPa | 2.5V | 00:00:00 | 02:45:42 | 00:00:00 | |
| DL1XH1-15 | 2026-09-02 01:05:12 | 54.00064 | 14.58697 | 57° | 44km/h | 15819m | -6.2m/s | -50.3°C | 3.1% | 110.5hPa | 2.5V | 08:07:04 | 02:45:37 | 00:00:00 | |
| DL1XH-15 | 2026-09-02 01:05:11 | 54.00051 | 14.58666 | 56° | 9km/h | 15834m | -6.2m/s | -50.4°C | 3.1% | 110.2hPa | 2.5V | 08:07:07 | 02:45:34 | 00:00:00 | |
| DL1XH-west | 2026-09-02 01:05:08 | 54.00059 | 14.58683 | 54° | 33km/h | 15824m | -6.5m/s | -50.3°C | 0% | 110.4hPa | 2.6V | 08:07:47 | 02:45:36 | 00:00:00 | |
| AA1-15 | 2026-09-02 01:05:06 | 54.00052 | 14.58666 | 56° | 9km/h | 15834m | -6.3m/s | -50.4°C | 0% | 110.2hPa | 2.5V | 08:07:47 | 02:45:34 | 00:00:00 | |
| DO2SHX-10 | 2026-09-02 01:05:05 | 54.00052 | 14.58663 | 132° | 24km/h | 15840m | -5.8m/s | -50.4°C | 3.2% | 110.0hPa | 2.5V | 00:00:00 | 02:45:33 | 00:00:00 | |
| DJ2DS-15 | 2026-09-02 01:05:04 | 54.00056 | 14.58658 | 142° | 44km/h | 15844m | -6.4m/s | -50.4°C | 3.2% | 110.0hPa | 2.5V | 00:00:00 | 02:45:32 | 00:00:00 | |
| DO2SHX-10 | 2026-09-02 01:05:02 | 54.00067 | 14.58637 | 128° | 55km/h | 15856m | -6.3m/s | -50.5°C | 3.2% | 109.8hPa | 2.6V | 00:00:00 | 02:45:30 | 00:00:00 | |
| DL1XH-15 | 2026-09-02 01:05:01 | 54.00080 | 14.58498 | 65° | 53km/h | 15893m | -5.9m/s | -50.7°C | 3.2% | 109.2hPa | 2.6V | 08:07:17 | 02:45:24 | 00:00:00 | |
| DL1XH-west | 2026-09-02 01:04:57 | 54.00084 | 14.58520 | 75° | 57km/h | 15886m | -6.7m/s | -50.7°C | 0% | 109.3hPa | 2.6V | 08:07:47 | 02:45:25 | 00:00:00 | |
| AA1-15 | 2026-09-02 01:04:55 | 54.00074 | 14.58480 | 52° | 47km/h | 15900m | -6.2m/s | -50.7°C | 0% | 109.2hPa | 2.5V | 08:07:47 | 02:45:23 | 00:00:00 | |
| DO2SHX-10 | 2026-09-02 01:04:53 | 54.00061 | 14.58458 | 53° | 16km/h | 15911m | -6.0m/s | -50.7°C | 3.2% | 108.9hPa | 2.6V | 00:00:00 | 02:45:21 | 00:00:00 | |
| DL1XH1-15 | 2026-09-02 01:04:52 | 54.00069 | 14.58433 | 130° | 37km/h | 15935m | -6.3m/s | -50.9°C | 3.3% | 108.6hPa | 2.6V | 08:07:24 | 02:45:17 | 00:00:00 | |
| DL1XH-15 | 2026-09-02 01:04:50 | 54.00086 | 14.58352 | 88° | 64km/h | 15958m | -6m/s | -50.9°C | 3.3% | 108.3hPa | 2.5V | 08:07:28 | 02:45:13 | 00:00:00 | |
| DL1XH-west | 2026-09-02 01:04:47 | 54.00081 | 14.58401 | 110° | 55km/h | 15947m | -6m/s | -50.9°C | 0% | 108.4hPa | 2.5V | 08:07:47 | 02:45:15 | 00:00:00 | |
| AA1-15 | 2026-09-02 01:04:44 | 54.00084 | 14.58325 | 79° | 60km/h | 15964m | -5.3m/s | -50.9°C | 0% | 108.2hPa | 2.5V | 08:07:47 | 02:45:12 | 00:00:00 | |
| DO2SHX-10 | 2026-09-02 01:04:44 | 54.00084 | 14.58325 | 80° | 58km/h | 15965m | -5.3m/s | -50.9°C | 3.3% | 108.1hPa | 2.5V | 00:00:00 | 02:45:12 | 00:00:00 | |
| DL1XH1-15 | 2026-09-02 01:04:42 | 54.00058 | 14.58239 | 58° | 24km/h | 15990m | -6.1m/s | -51°C | 3.4% | 107.7hPa | 2.5V | 08:07:34 | 02:45:07 | 00:00:00 | |
| DO2SHX-10 | 2026-09-02 01:04:41 | 54.00069 | 14.58260 | 52° | 33km/h | 15980m | -5.9m/s | -50.9°C | 3.3% | 107.8hPa | 2.6V | 08:07:00 | 02:45:09 | 00:00:00 | |
| DL1XH-15 | 2026-09-02 01:04:40 | 54.00066 | 14.58191 | 117° | 47km/h | 16008m | -6.3m/s | -50.9°C | 3.2% | 107.3hPa | 2.6V | 08:07:38 | 02:45:03 | 00:00:00 | |
| DL1XH-west | 2026-09-02 01:04:37 | 54.00056 | 14.58221 | 124° | 22km/h | 15998m | -6.4m/s | -50.9°C | 0% | 107.5hPa | 2.5V | 08:07:47 | 02:45:05 | 00:00:00 | |
| AA1-15 | 2026-09-02 01:04:33 | 54.00082 | 14.58148 | 105° | 62km/h | 16022m | -6.7m/s | -50.9°C | 0% | 107.1hPa | 2.6V | 08:07:47 | 02:45:01 | 00:00:00 | |
| DL1XH1-15 | 2026-09-02 01:04:32 | 54.00072 | 14.58034 | 63° | 68km/h | 16048m | -6.7m/s | -50.9°C | 3.2% | 106.8hPa | 2.5V | 08:07:44 | 02:44:57 | 00:00:00 | |
| DO2SHX-10 | 2026-09-02 01:04:32 | 54.00084 | 14.58122 | 91° | 69km/h | 16028m | -7.3m/s | -50.8°C | 3.2% | 107.0hPa | 2.5V | 00:00:00 | 02:45:00 | 00:00:00 | |
| DL1XH-15 | 2026-09-02 01:04:30 | 54.00048 | 14.57971 | 51° | 18km/h | 16065m | -7.1m/s | -51°C | 3.3% | 106.4hPa | 2.6V | 08:07:48 | 02:44:53 | 00:00:00 | |
| DL1XH-west | 2026-09-02 01:04:26 | 54.00051 | 14.57980 | 46° | 38km/h | 16061m | -6.9m/s | -50.9°C | 0% | 106.5hPa | 2.6V | 08:07:47 | 02:44:54 | 00:00:00 | |
| AA1-15 | 2026-09-02 01:04:23 | 54.00048 | 14.57955 | 112° | 20km/h | 16078m | -6.8m/s | -51°C | 0% | 106.2hPa | 2.5V | 08:08:38 | 02:44:51 | 00:00:00 | |
| DL1XH-15 | 2026-09-02 01:04:20 | 54.00062 | 14.57772 | 64° | 62km/h | 16130m | -5.4m/s | -51°C | 3.3% | 105.5hPa | 2.5V | 08:07:58 | 02:44:43 | 00:00:00 | |
| DL1XH-west | 2026-09-02 01:04:15 | 54.00062 | 14.57772 | 65° | 62km/h | 16130m | -5.4m/s | -51.1°C | 0% | 105.5hPa | 2.5V | 08:08:38 | 02:44:43 | 00:00:00 | |
| AA1-15 | 2026-09-02 01:04:12 | 54.00043 | 14.57722 | 47° | 29km/h | 16148m | -6.4m/s | -51°C | 0% | 105.2hPa | 2.5V | 08:08:38 | 02:44:40 | 00:00:00 | |
| DO2SHX-10 | 2026-09-02 01:04:11 | 54.00039 | 14.57713 | 63° | 20km/h | 16154m | -5.9m/s | -50.9°C | 3.2% | 105.0hPa | 2.5V | 00:00:00 | 02:44:39 | 00:00:00 | |
| DL1XH-15 | 2026-09-02 01:04:10 | 54.00066 | 14.57637 | 109° | 62km/h | 16190m | -5.8m/s | -51°C | 3.3% | 104.5hPa | 2.5V | 08:08:08 | 02:44:33 | 00:00:00 | |
| DL1XH-west | 2026-09-02 01:04:04 | 54.00069 | 14.57611 | 97° | 66km/h | 16195m | -5.3m/s | -51°C | 0% | 104.4hPa | 2.5V | 08:08:38 | 02:44:32 | 00:00:00 | |
| DJ2DS-15 | 2026-09-02 01:04:04 | 54.00069 | 14.57611 | 98° | 42km/h | 16195m | -5.3m/s | -50.9°C | 3.3% | 104.4hPa | 2.5V | 08:08:00 | 02:44:32 | 00:00:00 | |
| DL1XH1-15 | 2026-09-02 01:04:02 | 54.00050 | 14.57501 | 46° | 37km/h | 16219m | -6.8m/s | -51°C | 3.3% | 104hPa | 2.5V | 08:08:14 | 02:44:27 | 00:00:00 | |
| AA1-15 | 2026-09-02 01:04:01 | 54.00063 | 14.57534 | 62° | 58km/h | 16209m | -5.6m/s | -51°C | 0% | 104.2hPa | 2.6V | 08:08:38 | 02:44:29 | 00:00:00 | |
| DL1XH-15 | 2026-09-02 01:04:00 | 54.00042 | 14.57478 | 145° | 16km/h | 16242m | -6.2m/s | -51°C | 3.2% | 103.6hPa | 2.6V | 08:08:18 | 02:44:23 | 00:00:00 | |
| DL1XH-west | 2026-09-02 01:03:54 | 54.00047 | 14.57471 | 141° | 31km/h | 16247m | -6.3m/s | -51°C | 0% | 103.5hPa | 2.6V | 08:08:38 | 02:44:22 | 00:00:00 | |
| DO2SHX-10 | 2026-09-02 01:03:53 | 54.00053 | 14.57460 | 134° | 49km/h | 16253m | -5.9m/s | -51.0°C | 3.3% | 103.4hPa | 2.5V | 00:00:00 | 02:44:21 | 00:00:00 | |
| DL1XH1-15 | 2026-09-02 01:03:52 | 54.00073 | 14.57372 | 83° | 60km/h | 16274m | -5.5m/s | -51.1°C | 3.3% | 103.1hPa | 2.5V | 08:08:24 | 02:44:17 | 00:00:00 | |
| AA1-15 | 2026-09-02 01:03:51 | 54.00068 | 14.57424 | 109° | 60km/h | 16264m | -5.4m/s | -51.1°C | 0% | 103.2hPa | 2.5V | 08:08:38 | 02:44:19 | 00:00:00 | |
| DJ2DS-15 | 2026-09-02 01:03:48 | 54.00065 | 14.57321 | 66° | 53km/h | 16286m | -6.3m/s | -51.1°C | 0.9% | 102.9hPa | 2.6V | 00:00:00 | 00:00:00 | 00:00:00 | |
| DL1XH-west | 2026-09-02 01:03:43 | 54.00037 | 14.57271 | 27° | 26km/h | 16310m | -6.5m/s | -51°C | 0% | 102.5hPa | 2.6V | 08:08:38 | 02:44:11 | 00:00:00 | |
| DL1XH1-15 | 2026-09-02 01:03:42 | 54.00036 | 14.57254 | 133° | 27km/h | 16327m | -5.4m/s | -50.8°C | 3.3% | 102.1hPa | 2.5V | 08:08:34 | 02:44:07 | 00:00:00 | |
| AA1-15 | 2026-09-02 01:03:41 | 54.00030 | 14.57265 | 65° | 5km/h | 16318m | -6m/s | -50.9°C | 0% | 102.3hPa | 2.5V | 08:08:38 | 02:44:09 | 00:00:00 | |
| DO2SHX-10 | 2026-09-02 01:03:41 | 54.00030 | 14.57265 | 65° | 18km/h | 16318m | -6.0m/s | -50.8°C | 3.3% | 102.2hPa | 2.5V | 00:00:00 | 02:44:09 | 00:00:00 | |
| DL1XH-15 | 2026-09-02 01:03:40 | 54.00048 | 14.57179 | 85° | 62km/h | 16348m | -6.7m/s | -50.8°C | 3.3% | 101.8hPa | 2.5V | 08:08:38 | 02:44:03 | 00:00:00 | |
| DO2SHX-10 | 2026-09-02 01:03:38 | 54.00041 | 14.57242 | 120° | 47km/h | 16332m | -5.3m/s | -50.7°C | 3.3% | 102.0hPa | 2.5V | 00:00:00 | 02:44:06 | 00:00:00 | |
| D01LWL | 2026-09-02 01:03:36 | 54.00048 | 14.57179 | 85° | 60km/h | 16348m | -6.7m/s | -50.8°C | 0.9% | 101.8hPa | 2.5V | 00:00:00 | 00:00:00 | 00:00:00 | |
| DO2SHX-10 | 2026-09-02 01:03:35 | 54.00047 | 14.57179 | 86° | 58km/h | 16348m | -6.7m/s | -50.7°C | 3.3% | 101.8hPa | 2.5V | 00:00:00 | 02:44:03 | 00:00:00 | |
| DL1XH1-15 | 2026-09-02 01:03:32 | 54.00010 | 14.57088 | 18° | 22km/h | 16386m | -5.7m/s | -50.9°C | 3.3% | 101.2hPa | 2.5V | 08:08:44 | 02:43:57 | 00:00:00 | |
| DL1XH-west | 2026-09-02 01:03:32 | 54.00033 | 14.57114 | 48° | 53km/h | 16367m | -6.3m/s | -50.8°C | 0% | 101.5hPa | 2.6V | 08:09:29 | 02:44:00 | 00:00:00 | |
| DO2SHX-10 | 2026-09-02 01:03:32 | 54.00032 | 14.57114 | 49° | 44km/h | 16367m | -6.2m/s | -50.8°C | 3.2% | 101.5hPa | 2.5V | 00:00:00 | 02:44:00 | 00:00:00 | |
| DL1XH-15 | 2026-09-02 01:03:31 | 54.00012 | 14.57074 | 128° | 29km/h | 16414m | -6.5m/s | -50.6°C | 3.2% | 100.9hPa | 2.5V | 08:08:48 | 02:43:53 | 00:00:00 | |
| AA1-15 | 2026-09-02 01:03:30 | 54.00017 | 14.57091 | 19° | 35km/h | 16380m | -6m/s | -50.9°C | 0% | 101.4hPa | 2.5V | 08:09:29 | 02:43:58 | 00:00:00 | |
| DO2SHX-10 | 2026-09-02 01:03:29 | 54.00010 | 14.57088 | 19° | 13km/h | 16386m | -5.6m/s | -50.8°C | 3.3% | 101.2hPa | 2.5V | 00:00:00 | 02:43:57 | 00:00:00 | |
| MECKS9 | 2026-09-02 01:03:28 | 54.00010 | 14.57088 | 19° | 22km/h | 16386m | -5.7m/s | -50.9°C | 0.9% | 101.3hPa | 2.5V | 00:00:00 | 00:00:00 | 00:00:00 | |
| DB0DAN | 2026-09-02 01:03:25 | 54.00012 | 14.57074 | 129° | 27km/h | 16414m | -6.5m/s | -50.6°C | 0.8% | 100.92hPa | 2.5V | 00:00:00 | 00:00:00 | 00:00:00 | |
| S3001 | 2026-09-02 01:03:24 | 54.00017 | 14.57061 | 114° | 38km/h | 16421m | -6.1m/s | -50.6°C | 0.9% | 100.8hPa | 2.5V | 00:00:00 | 00:00:00 | 00:00:00 | |
| DO2SHX-10 | 2026-09-02 01:03:23 | 54.00021 | 14.57044 | 106° | 55km/h | 16426m | -6.3m/s | -50.6°C | 3.2% | 100.7hPa | 2.5V | 00:00:00 | 02:43:51 | 00:00:00 | |
| DL1XH1-15 | 2026-09-02 01:03:22 | 54.00013 | 14.56950 | 63° | 53km/h | 16449m | -5.9m/s | -50.5°C | 3.3% | 100.4hPa | 2.5V | 08:08:54 | 02:43:47 | 00:00:00 | |
| DL1XH-west | 2026-09-02 01:03:22 | 54.00023 | 14.57022 | 94° | 55km/h | 16432m | -5.8m/s | -50.6°C | 0% | 100.6hPa | 2.5V | 08:09:29 | 02:43:50 | 00:00:00 | |
| DL1XH-15 | 2026-09-02 01:03:20 | 53.99987 | 14.56903 | 32° | 16km/h | 16470m | -6.3m/s | -50.5°C | 3.2% | 100hPa | 2.6V | 08:08:58 | 02:43:43 | 00:00:00 | |
| AA1-15 | 2026-09-02 01:03:19 | 54.00013 | 14.56950 | 64° | 53km/h | 16449m | -5.9m/s | -50.5°C | 0% | 100.4hPa | 2.5V | 08:09:29 | 02:43:47 | 00:00:00 | |
| DO2SHX-10 | 2026-09-02 01:03:17 | 53.99999 | 14.56916 | 43° | 31km/h | 16458m | -6.2m/s | -50.5°C | 3.2% | 100.2hPa | 2.6V | 00:00:00 | 02:43:45 | 00:00:00 | |
| DO2SHX-10 | 2026-09-02 01:03:14 | 53.99987 | 14.56899 | 54° | 15km/h | 16475m | -6.6m/s | -50.5°C | 3.2% | 99.9hPa | 2.6V | 00:00:00 | 02:43:42 | 00:00:00 | |
| DL1XH1-15 | 2026-09-02 01:03:12 | 54.00004 | 14.56843 | 110° | 58km/h | 16506m | -7.1m/s | -50.4°C | 3.1% | 99.5hPa | 2.6V | 08:09:04 | 02:43:37 | 00:00:00 | |
| DL1XH-west | 2026-09-02 01:03:12 | 53.99990 | 14.56889 | 128° | 24km/h | 16488m | -7.4m/s | -50.5°C | 0% | 99.8hPa | 2.5V | 08:09:29 | 02:43:40 | 00:00:00 | |
| AA1-15 | 2026-09-02 01:03:09 | 54.00008 | 14.56819 | 98° | 62km/h | 16513m | -6.9m/s | -50.4°C | 0% | 99.4hPa | 2.5V | 08:09:29 | 02:43:36 | 00:00:00 | |
| DO2SHX-10 | 2026-09-02 01:03:08 | 54.00008 | 14.56819 | 98° | 62km/h | 16513m | -6.8m/s | -50.4°C | 3.1% | 99.3hPa | 2.6V | 00:00:00 | 02:43:36 | 00:00:00 | |
| DO2SHX-10 | 2026-09-02 01:03:05 | 54.00002 | 14.56738 | 69° | 31km/h | 16530m | -6.6m/s | -50.2°C | 3.1% | 99.1hPa | 2.6V | 00:00:00 | 02:43:33 | 00:00:00 | |
| DL1XH1-15 | 2026-09-02 01:03:02 | 53.99981 | 14.56663 | 125° | 22km/h | 16557m | -6.1m/s | -50.2°C | 0% | 98.6hPa | 2.6V | 08:09:14 | 02:43:27 | 00:00:00 | |
| DL1XH-west | 2026-09-02 01:03:01 | 53.99980 | 14.56678 | 58° | 16km/h | 16550m | -6.4m/s | -50.2°C | 0% | 98.8hPa | 2.5V | 08:09:29 | 02:43:29 | 00:00:00 | |
| AA1-15 | 2026-09-02 01:02:58 | 53.99985 | 14.56653 | 137° | 37km/h | 16561m | -7.4m/s | -50.3°C | 0% | 98.5hPa | 2.5V | 08:09:29 | 02:43:26 | 00:00:00 | |
| DO2SHX-10 | 2026-09-02 01:02:56 | 54.00000 | 14.56621 | 116° | 64km/h | 16578m | -7.7m/s | -50.3°C | 3.2% | 98.3hPa | 2.6V | 00:00:00 | 02:43:24 | 00:00:00 | |
| DG6HD-11 | 2026-09-02 01:02:54 | 54.00009 | 14.56568 | 96° | 58km/h | 16593m | -6.1m/s | -50.4°C | 3.2% | 98.1hPa | 2.6V | 00:00:00 | 00:00:00 | 00:00:00 | |
| DO2SHX-10 | 2026-09-02 01:02:53 | 54.00010 | 14.56540 | 86° | 68km/h | 16600m | -6.2m/s | -50.4°C | 3.2% | 98.1hPa | 2.5V | 00:00:00 | 02:43:21 | 00:00:00 | |
| DL1XH1-15 | 2026-09-02 01:02:52 | 53.99989 | 14.56444 | 50° | 46km/h | 16629m | -6.7m/s | -50.6°C | 0% | 97.8hPa | 2.5V | 08:09:24 | 02:43:17 | 00:00:00 | |
| DL1XH-west | 2026-09-02 01:02:50 | 53.99996 | 14.56462 | 58° | 53km/h | 16620m | -6.5m/s | -50.6°C | 0% | 97.8hPa | 2.5V | 08:09:29 | 02:43:18 | 00:00:00 | |
| AA1-15 | 2026-09-02 01:02:47 | 53.99978 | 14.56423 | 48° | 22km/h | 16641m | -5.3m/s | -50.5°C | 0% | 97.6hPa | 2.6V | 08:09:29 | 02:43:15 | 00:00:00 | |
| DO2SHX-10 | 2026-09-02 01:02:47 | 53.99978 | 14.56423 | 48° | 18km/h | 16641m | -5.2m/s | -50.5°C | 3.2% | 97.5hPa | 2.5V | 00:00:00 | 02:43:15 | 00:00:00 | |
| DO2SHX-10 | 2026-09-02 01:02:44 | 53.99982 | 14.56404 | 129° | 44km/h | 16651m | -6.5m/s | -50.3°C | 3.1% | 97.3hPa | 2.5V | 00:00:00 | 02:43:12 | 00:00:00 | |
| DL1XH-15 | 2026-09-02 01:02:41 | 53.99997 | 14.56349 | 109° | 62km/h | 16666m | -7.9m/s | 0°C | 0% | 0hPa | 2.5V | 08:09:32 | 02:43:09 | 00:00:00 | |
| DL1XH1-15 | 2026-09-02 01:02:41 | 54.00004 | 14.56294 | 92° | 69km/h | 16680m | -7.1m/s | 0°C | 0% | 0hPa | 2.6V | 00:00:00 | 02:43:07 | 00:00:00 | |
| DL1XH-west | 2026-09-02 01:02:39 | 54.00004 | 14.56294 | 93° | 69km/h | 16680m | -7.1m/s | -50.4°C | 0% | 96.8hPa | 2.6V | 08:10:20 | 02:43:07 | 00:00:00 | |
| AA1-15 | 2026-09-02 01:02:36 | 53.99994 | 14.56212 | 59° | 57km/h | 16701m | -5.5m/s | -50.3°C | 0% | 96.6hPa | 2.5V | 08:10:20 | 02:43:04 | 00:00:00 | |
| DO2SHX-10 | 2026-09-02 01:02:35 | 53.99986 | 14.56193 | 55° | 35km/h | 16706m | -6.0m/s | -50.3°C | 3.2% | 96.5hPa | 2.6V | 00:00:00 | 02:43:03 | 00:00:00 | |
| D01LWL | 2026-09-02 01:02:34 | 53.99980 | 14.56179 | 47° | 37km/h | 16712m | -6.7m/s | -50.4°C | -1.0% | 96.5hPa | 2.6V | 00:00:00 | 00:00:00 | 00:00:00 | |
| DL1XH-15 | 2026-09-02 01:02:31 | 53.99975 | 14.56154 | 126° | 22km/h | 16728m | -6.4m/s | 0°C | 0% | 0hPa | 2.6V | 08:09:42 | 02:42:59 | 00:00:00 | |
| DL1XH1-15 | 2026-09-02 01:02:31 | 53.99995 | 14.56117 | 125° | 60km/h | 16748m | -7.5m/s | 0°C | 0% | 0hPa | 2.5V | 00:00:00 | 02:42:56 | 00:00:00 | |
| DL1XH-west | 2026-09-02 01:02:29 | 53.99986 | 14.56134 | 128° | 46km/h | 16741m | -6.9m/s | -50.5°C | 0% | 96hPa | 2.5V | 08:10:20 | 02:42:57 | 00:00:00 | |
| DO2SHX-10 | 2026-09-02 01:02:29 | 53.99986 | 14.56134 | 129° | 57km/h | 16742m | -6.9m/s | -50.4°C | 3.2% | 95.9hPa | 2.5V | 00:00:00 | 02:42:57 | 00:00:00 | |
| DL1XH-15 | 2026-09-02 01:02:26 | 54.00000 | 14.55927 | 61° | 51km/h | 16794m | -6m/s | 0°C | 0% | 0hPa | 2.5V | 08:09:52 | 02:42:49 | 00:00:00 | |
| AA1-15 | 2026-09-02 01:02:25 | 54.00014 | 14.56037 | 95° | 75km/h | 16769m | -6.7m/s | -50.6°C | 0% | 95.6hPa | 2.6V | 08:10:20 | 02:42:53 | 00:00:00 | |
| DG6HD-11 | 2026-09-02 01:02:24 | 54.00013 | 14.56006 | 87° | 55km/h | 16776m | -6.0m/s | -50.6°C | 3.3% | 95.5hPa | 2.5V | 00:00:00 | 00:00:00 | 00:00:00 | |
| DO2SHX-10 | 2026-09-02 01:02:23 | 54.00011 | 14.55976 | 76° | 62km/h | 16783m | -5.4m/s | -50.6°C | 3.3% | 95.4hPa | 2.5V | 08:09:00 | 02:42:51 | 00:00:00 | |
| DJ2DS-15 | 2026-09-02 01:02:22 | 54.00005 | 14.55949 | 68° | 42km/h | 16789m | -4.8m/s | -50.6°C | 3.3% | 95.3hPa | 2.5V | 00:00:00 | 02:42:50 | 00:00:00 | |
| DL1XH1-15 | 2026-09-02 01:02:21 | 53.99986 | 14.55889 | 68° | 20km/h | 16811m | -7.2m/s | 0°C | 0% | 0hPa | 2.5V | 00:00:00 | 02:42:46 | 00:00:00 | |
| DL1XH-west | 2026-09-02 01:02:18 | 53.99985 | 14.55889 | 69° | 20km/h | 16812m | -7.2m/s | -50.5°C | 0% | 95hPa | 2.5V | 08:10:20 | 02:42:46 | 00:00:00 | |
| AA1-15 | 2026-09-02 01:02:14 | 54.00002 | 14.55857 | 127° | 47km/h | 16837m | -6.1m/s | -50.2°C | 0% | 94.6hPa | 2.6V | 08:10:20 | 02:42:42 | 00:00:00 | |
| DO2SHX-10 | 2026-09-02 01:02:14 | 54.00002 | 14.55856 | 128° | 57km/h | 16837m | -6.0m/s | -50.2°C | 3.2% | 94.6hPa | 2.6V | 00:00:00 | 02:42:42 | 00:00:00 | |
| DL1XH1-15 | 2026-09-02 01:02:12 | 54.00012 | 14.55705 | 65° | 58km/h | 16867m | -6.7m/s | 0°C | 0% | 0hPa | 2.6V | 00:00:00 | 02:42:36 | 00:00:00 | |
| DL1XH-west | 2026-09-02 01:02:07 | 54.00006 | 14.55684 | 55° | 49km/h | 16873m | -6.9m/s | -50°C | 0% | 94.1hPa | 2.5V | 08:10:20 | 02:42:35 | 00:00:00 | |
| AA1-15 | 2026-09-02 01:02:04 | 53.99988 | 14.55654 | 42° | 13km/h | 16889m | -7m/s | -50.1°C | 0% | 93.8hPa | 2.6V | 08:10:20 | 02:42:32 | 00:00:00 | |
| D01LWL | 2026-09-02 01:02:03 | 53.99990 | 14.55645 | 147° | 22km/h | 16902m | -6.4m/s | -50.1°C | -1.0% | -1.0hPa | 2.5V | 00:00:00 | 00:00:00 | 00:00:00 | |
| DL1XH1-15 | 2026-09-02 01:02:02 | 54.00013 | 14.55588 | 109° | 60km/h | 16931m | -6.6m/s | 0°C | 0% | 0hPa | 2.5V | 00:00:00 | 02:42:26 | 00:00:00 | |
| DL1XH-west | 2026-09-02 01:01:56 | 54.00017 | 14.55536 | 86° | 62km/h | 16942m | -6m/s | -50.3°C | 0% | 93.1hPa | 2.6V | 08:10:20 | 02:42:24 | 00:00:00 | |
| AA1-15 | 2026-09-02 01:01:52 | 53.99992 | 14.55457 | 37° | 40km/h | 16962m | -7.2m/s | -50.5°C | 0% | 92.8hPa | 2.5V | 08:11:11 | 02:42:20 | 00:00:00 | |
| DL1XH-15 | 2026-09-02 01:01:51 | 53.99979 | 14.55443 | 73° | 5km/h | 16982m | -8.2m/s | 0°C | 0% | 0hPa | 2.6V | 08:10:24 | 02:42:17 | 00:00:00 | |
| DL1XH-west | 2026-09-02 01:01:46 | 53.99989 | 14.55427 | 125° | 37km/h | 17007m | -6.6m/s | -50.4°C | 0% | 92.2hPa | 2.5V | 08:11:11 | 02:42:14 | 00:00:00 | |
| AA1-15 | 2026-09-02 01:01:41 | 53.99998 | 14.55311 | 74° | 66km/h | 17034m | -6.9m/s | -50°C | 0% | 91.8hPa | 2.6V | 08:11:11 | 02:42:09 | 00:00:00 | |
| DL1XH-west | 2026-09-02 01:01:35 | 53.99955 | 14.55229 | 27° | 9km/h | 17073m | -7m/s | -49.6°C | 0% | 91.2hPa | 2.5V | 08:11:11 | 02:42:03 | 00:00:00 | |
| AA1-15 | 2026-09-02 01:01:30 | 53.99973 | 14.55174 | 102° | 58km/h | 17108m | -7.1m/s | -49.7°C | 0% | 90.8hPa | 2.6V | 08:11:11 | 02:41:58 | 00:00:00 | |
| DL1XH-15 | 2026-09-02 01:01:30 | 53.99947 | 14.55042 | 48° | 58km/h | 17129m | -8.6m/s | 0°C | 0% | 0hPa | 2.6V | 08:10:48 | 02:41:53 | 00:00:00 | |
| DL1XH-west | 2026-09-02 01:01:24 | 53.99937 | 14.55026 | 37° | 46km/h | 17138m | -9.1m/s | -49.6°C | 0% | 90.2hPa | 2.5V | 08:11:11 | 02:41:52 | 00:00:00 | |
| AA1-15 | 2026-09-02 01:01:19 | 53.99920 | 14.54996 | 114° | 22km/h | 17176m | -7.1m/s | -49.3°C | 0% | 89.8hPa | 2.5V | 08:11:11 | 02:41:47 | 00:00:00 | |
| DL1XH-west | 2026-09-02 01:01:14 | 53.99929 | 14.54888 | 77° | 69km/h | 17208m | -7.9m/s | -49.4°C | 0% | 89.4hPa | 2.6V | 08:11:11 | 02:41:42 | 00:00:00 | |
| AA1-15 | 2026-09-02 01:01:08 | 53.99870 | 14.54762 | 24° | 37km/h | 17249m | -7.2m/s | -49.6°C | 0% | 88.8hPa | 2.5V | 08:11:11 | 02:41:36 | 00:00:00 | |
| DL1XH-15 | 2026-09-02 01:01:07 | 53.99870 | 14.54693 | 95° | 60km/h | 17289m | -7.6m/s | 0°C | 0% | 0hPa | 2.5V | 08:11:11 | 02:41:30 | 00:00:00 | |
| DL1XH-west | 2026-09-02 01:01:03 | 53.99867 | 14.54716 | 104° | 49km/h | 17282m | -7m/s | -49.6°C | 0% | 88.4hPa | 2.6V | 08:11:11 | 02:41:31 | 00:00:00 | |
| AA1-15 | 2026-09-02 01:00:58 | 53.99853 | 14.54577 | 60° | 77km/h | 17317m | -7.3m/s | -49.7°C | 0% | 87.9hPa | 2.6V | 08:12:02 | 02:41:26 | 00:00:00 | |
| DL1XH-15 | 2026-09-02 01:00:57 | 53.99793 | 14.54493 | 60° | 16km/h | 17359m | -7.9m/s | 0°C | 0% | 0hPa | 2.5V | 08:11:21 | 02:41:20 | 00:00:00 | |
| DL1XH-west | 2026-09-02 01:00:53 | 53.99798 | 14.54498 | 27° | 29km/h | 17350m | -7.8m/s | -49.8°C | 0% | 87.5hPa | 2.6V | 08:12:53 | 02:41:21 | 00:00:00 | |
| AA1-15 | 2026-09-02 01:00:48 | 53.99801 | 14.54439 | 105° | 57km/h | 17387m | -7m/s | -49.2°C | 0% | 87hPa | 2.5V | 08:12:02 | 02:41:16 | 00:00:00 | |
| DL1XH-west | 2026-09-02 01:00:42 | 53.99780 | 14.54281 | 43° | 58km/h | 17428m | -6.6m/s | -49.3°C | 0% | 86.5hPa | 2.5V | 08:12:53 | 02:41:10 | 00:00:00 | |
| AA1-15 | 2026-09-02 01:00:38 | 53.99752 | 14.54240 | 61° | 13km/h | 17450m | -7.6m/s | -49.4°C | 0% | 86.1hPa | 2.5V | 08:12:02 | 02:41:06 | 00:00:00 | |
| DO2SHX-10 | 2026-09-02 01:00:36 | 53.99756 | 14.54225 | 130° | 40km/h | 17463m | -8.4m/s | -49.4°C | 3.0% | 85.9hPa | 2.5V | 00:00:00 | 02:41:04 | 00:00:00 | |
| DO2SHX-10 | 2026-09-02 01:00:33 | 53.99773 | 14.54172 | 114° | 68km/h | 17489m | -8.7m/s | -49.5°C | 3.0% | 85.6hPa | 2.5V | 08:11:00 | 02:41:01 | 00:00:00 | |
| DL1XH-15 | 2026-09-02 01:00:31 | 53.99780 | 14.54085 | 80° | 69km/h | 17512m | -7.2m/s | 0°C | 0% | 0hPa | 2.5V | 08:11:43 | 02:40:58 | 00:00:00 | |
| DL1XH-west | 2026-09-02 01:00:31 | 53.99781 | 14.54116 | 93° | 73km/h | 17505m | -8m/s | -49.6°C | 0% | 85.5hPa | 2.5V | 08:12:53 | 02:40:59 | 00:00:00 | |
| AA1-15 | 2026-09-02 01:00:27 | 53.99761 | 14.54015 | 45° | 47km/h | 17534m | -6.9m/s | -49.7°C | 0% | 85.2hPa | 2.5V | 08:12:02 | 02:40:55 | 00:00:00 | |
| DL1XH-west | 2026-09-02 01:00:21 | 53.99754 | 14.53984 | 147° | 37km/h | 17581m | -7.2m/s | -49.6°C | 0% | 84.5hPa | 2.5V | 08:12:53 | 02:40:49 | 00:00:00 | |
| AA1-15 | 2026-09-02 01:00:16 | 53.99782 | 14.53874 | 87° | 66km/h | 17612m | -6.9m/s | -49.4°C | 0% | 84.2hPa | 2.5V | 08:12:02 | 02:40:44 | 00:00:00 | |
| DL1XH-west | 2026-09-02 01:00:10 | 53.99749 | 14.53790 | 358° | 13km/h | 17658m | -7.1m/s | -49.5°C | 0% | 83.5hPa | 2.5V | 08:12:53 | 02:40:38 | 00:00:00 | |
| AA1-15 | 2026-09-02 01:00:06 | 53.99762 | 14.53789 | 155° | 37km/h | 17688m | -6.3m/s | -49.6°C | 0% | 83.2hPa | 2.5V | 08:12:53 | 02:40:34 | 00:00:00 | |
| DO2SHX-10 | 2026-09-02 01:00:06 | 53.99762 | 14.53789 | 156° | 46km/h | 17688m | -6.2m/s | -49.6°C | 3.1% | 83.1hPa | 2.5V | 08:12:00 | 02:40:34 | 00:00:00 | |
| DL1XH-15 | 2026-09-02 01:00:01 | 53.99787 | 14.53667 | 69° | 60km/h | 17726m | -7.3m/s | 0°C | 0% | 0hPa | 2.5V | 08:12:13 | 02:40:28 | 00:00:00 | |
| DL1XH-west | 2026-09-02 01:00:00 | 53.99787 | 14.53667 | 70° | 60km/h | 17726m | -7.3m/s | -49.9°C | 0% | 82.7hPa | 2.5V | 08:12:53 | 02:40:28 | 00:00:00 | |
| AA1-15 | 2026-09-02 00:59:55 | 53.99745 | 14.53606 | 5° | 29km/h | 17755m | -7m/s | -49.7°C | 0% | 82.2hPa | 2.5V | 08:12:53 | 02:40:23 | 00:00:00 | |
| DL1XH-west | 2026-09-02 00:59:50 | 53.99745 | 14.53586 | 121° | 38km/h | 17791m | -6.8m/s | -49.6°C | 0% | 81.8hPa | 2.5V | 08:12:53 | 02:40:18 | 00:00:00 | |
| DL1XH-15 | 2026-09-02 00:59:49 | 53.99735 | 14.53442 | 50° | 62km/h | 17834m | -5.7m/s | 0°C | 0% | 0hPa | 2.6V | 08:12:29 | 02:40:12 | 00:00:00 | |
| S3001 | 2026-09-02 00:59:47 | 53.99750 | 14.53492 | 76° | 66km/h | 17823m | -6.3m/s | -49.7°C | 0.8% | 81.5hPa | 2.6V | 00:00:00 | 00:00:00 | 00:00:00 | |
| AA1-15 | 2026-09-02 00:59:44 | 53.99735 | 14.53442 | 51° | 62km/h | 17834m | -5.7m/s | -49.7°C | 0% | 81.3hPa | 2.6V | 08:12:53 | 02:40:12 | 00:00:00 | |
| DL1XH-west | 2026-09-02 00:59:39 | 53.99689 | 14.53403 | 347° | 15km/h | 17865m | -6.9m/s | -49.6°C | 0% | 80.8hPa | 2.5V | 08:12:53 | 02:40:07 | 00:00:00 | |
| AA1-15 | 2026-09-02 00:59:33 | 53.99702 | 14.53347 | 98° | 57km/h | 17906m | -7.4m/s | -49.5°C | 0% | 80.4hPa | 2.6V | 08:12:53 | 02:40:01 | 00:00:00 | |
| DO2SHX-10 | 2026-09-02 00:59:33 | 53.99702 | 14.53347 | 99° | 62km/h | 17906m | -7.3m/s | -49.4°C | 3.1% | 80.3hPa | 2.5V | 00:00:00 | 02:40:01 | 00:00:00 | |
| DL1XH-15 | 2026-09-02 00:59:31 | 53.99694 | 14.53267 | 60° | 66km/h | 17930m | -7.9m/s | 0°C | 0% | 0hPa | 2.5V | 08:12:43 | 02:39:58 | 00:00:00 | |
| DL1XH-west | 2026-09-02 00:59:28 | 53.99674 | 14.53228 | 36° | 60km/h | 17945m | -8.2m/s | -49.4°C | 0% | 79.9hPa | 2.5V | 08:12:53 | 02:39:56 | 00:00:00 | |
| AA1-15 | 2026-09-02 00:59:23 | 53.99631 | 14.53215 | 298° | 4km/h | 17984m | -6.9m/s | -49.4°C | 0% | 79.5hPa | 2.5V | 08:12:53 | 02:39:51 | 00:00:00 | |
| DL1XH-15 | 2026-09-02 00:59:21 | 53.99646 | 14.53184 | 113° | 49km/h | 18013m | -7.1m/s | 0°C | 0% | 0hPa | 2.5V | 00:00:00 | 02:39:47 | 00:00:00 | |
| DL1XH-west | 2026-09-02 00:59:16 | 53.99650 | 14.53110 | 76° | 68km/h | 18035m | -6.9m/s | -49.5°C | 0% | 78.9hPa | 2.6V | 08:14:35 | 02:39:44 | 00:00:00 | |
| AA1-15 | 2026-09-02 00:59:12 | 53.99611 | 14.53035 | 19° | 47km/h | 18067m | -6.2m/s | -49.5°C | 0% | 78.6hPa | 2.5V | 08:13:44 | 02:39:40 | 00:00:00 | |
| DO2SHX-10 | 2026-09-02 00:59:12 | 53.99611 | 14.53035 | 20° | 37km/h | 18067m | -6.2m/s | -49.5°C | 3.0% | 78.5hPa | 2.5V | 08:13:00 | 02:39:40 | 00:00:00 | |
| DL1XH-15 | 2026-09-02 00:59:11 | 53.99589 | 14.53034 | 317° | 15km/h | 18087m | -7.1m/s | 0°C | 0% | 0hPa | 2.5V | 00:00:00 | 02:39:37 | 00:00:00 | |
| DL1XH-west | 2026-09-02 00:59:05 | 53.99601 | 14.53027 | 132° | 40km/h | 18115m | -6.1m/s | -49.7°C | 0% | 78hPa | 2.6V | 08:14:35 | 02:39:33 | 00:00:00 | |
| AA1-15 | 2026-09-02 00:59:02 | 53.99612 | 14.52968 | 90° | 57km/h | 18137m | -6.7m/s | -49.6°C | 0% | 77.8hPa | 2.5V | 08:13:44 | 02:39:30 | 00:00:00 | |
| DL1XH-west | 2026-09-02 00:58:55 | 53.99554 | 14.52875 | 343° | 29km/h | 18186m | -6.1m/s | -49.6°C | 0% | 77.1hPa | 2.6V | 08:14:35 | 02:39:23 | 00:00:00 | |
| DJ2DS-15 | 2026-09-02 00:58:55 | 53.99554 | 14.52875 | 343° | 35km/h | 18186m | -6.0m/s | -49.6°C | 3.0% | 77.1hPa | 2.6V | 00:00:00 | 02:39:23 | 00:00:00 | |
| DO2SHX-10 | 2026-09-02 00:58:53 | 53.99548 | 14.52883 | 252° | 26km/h | 18197m | -6.6m/s | -49.7°C | 3.0% | 76.9hPa | 2.5V | 00:00:00 | 02:39:21 | 00:00:00 | |
| DL1XH-15 | 2026-09-02 00:58:51 | 53.99567 | 14.52778 | 68° | 66km/h | 18253m | -6.3m/s | 0°C | 0% | 0hPa | 2.5V | 00:00:00 | 02:39:14 | 00:00:00 | |
| AA1-15 | 2026-09-02 00:58:51 | 53.99556 | 14.52879 | 148° | 27km/h | 18212m | -7.1m/s | -49.8°C | 0% | 76.8hPa | 2.5V | 08:13:44 | 02:39:19 | 00:00:00 | |
| DL1XH-west | 2026-09-02 00:58:44 | 53.99549 | 14.52733 | 43° | 62km/h | 18265m | -6.5m/s | -50.3°C | 0% | 76.2hPa | 2.6V | 08:14:35 | 02:39:12 | 00:00:00 | |
| AA1-15 | 2026-09-02 00:58:40 | 53.99503 | 14.52706 | 342° | 33km/h | 18293m | -7.2m/s | -50.5°C | 0% | 75.8hPa | 2.5V | 08:13:44 | 02:39:08 | 00:00:00 | |
| DL1XH-west | 2026-09-02 00:58:34 | 53.99512 | 14.52702 | 122° | 44km/h | 18340m | -6.9m/s | 0°C | 0% | 75.3hPa | 2.6V | 08:14:35 | 02:39:02 | 00:00:00 | |
| DO2SHX-10 | 2026-09-02 00:58:33 | 53.99518 | 14.52684 | 112° | 57km/h | 18348m | -7.5m/s | -50.4°C | 3.2% | 75.2hPa | 2.6V | 08:13:00 | 02:39:01 | 00:00:00 | |
| DG6HD-11 | 2026-09-02 00:58:32 | 53.99522 | 14.52661 | 99° | 60km/h | 18355m | -7.6m/s | -50.4°C | 3.2% | 75.1hPa | 2.6V | 00:00:00 | 00:00:00 | 00:00:00 | |
| DL1XH-15 | 2026-09-02 00:58:31 | 53.99500 | 14.52569 | 38° | 58km/h | 18383m | -6.7m/s | 0°C | 0% | 0hPa | 2.6V | 00:00:00 | 02:38:56 | 00:00:00 | |
| AA1-15 | 2026-09-02 00:58:29 | 53.99510 | 14.52588 | 55° | 64km/h | 18377m | -6.6m/s | -50.4°C | 0% | 74.9hPa | 2.5V | 08:13:44 | 02:38:57 | 00:00:00 | |
| DL1XH-west | 2026-09-02 00:58:23 | 53.99462 | 14.52559 | 226° | 9km/h | 18424m | -6.9m/s | 0°C | 0% | 74.4hPa | 2.6V | 08:14:35 | 02:38:51 | 00:00:00 | |
| DL1XH-15 | 2026-09-02 00:58:20 | 53.99485 | 14.52394 | 57° | 66km/h | 18490m | -7.4m/s | 0°C | 0% | 0hPa | 2.5V | 00:00:00 | 02:38:42 | 00:00:00 | |
| AA1-15 | 2026-09-02 00:58:19 | 53.99484 | 14.52527 | 122° | 53km/h | 18449m | -7.4m/s | -50.1°C | 0% | 74hPa | 2.5V | 08:14:35 | 02:38:47 | 00:00:00 | |
| DL1XH-west | 2026-09-02 00:58:12 | 53.99465 | 14.52359 | 33° | 46km/h | 18501m | -7m/s | 0°C | 0% | 0hPa | 2.6V | 08:14:35 | 02:38:40 | 00:00:00 | |
| AA1-15 | 2026-09-02 00:58:08 | 53.99446 | 14.52352 | 188° | 11km/h | 18529m | -7.1m/s | -50.3°C | 0% | 73.2hPa | 2.5V | 08:14:35 | 02:38:36 | 00:00:00 | |
| DL1XH-west | 2026-09-02 00:58:01 | 53.99486 | 14.52233 | 83° | 68km/h | 18585m | -6.1m/s | 0°C | 0% | 0hPa | 2.5V | 08:14:35 | 02:38:29 | 00:00:00 | |
| AA1-15 | 2026-09-02 00:57:57 | 53.99458 | 14.52157 | 22° | 38km/h | 18617m | -7.5m/s | -49.6°C | 0% | 72.2hPa | 2.6V | 08:14:35 | 02:38:25 | 00:00:00 | |
| SP3WXH-11 | 2026-09-02 00:57:55 | 53.99441 | 14.52161 | 281° | 13km/h | 18641m | -7.5m/s | -49.6°C | 0.8% | 72.0hPa | 2.5V | 00:00:00 | 00:00:00 | 00:00:00 | |
| D01LWL | 2026-09-02 00:57:54 | 53.99482 | 14.52135 | 118° | 53km/h | 18685m | -7.2m/s | 0°C | -1.0% | -1.0hPa | 2.5V | 00:00:00 | 00:00:00 | 00:00:00 | |
| DL1XH-15 | 2026-09-02 00:57:50 | 53.99482 | 14.52065 | 61° | 57km/h | 18706m | -6.8m/s | 0°C | 0% | 0hPa | 2.5V | 00:00:00 | 02:38:13 | 00:00:00 | |
| DL1XH-west | 2026-09-02 00:57:47 | 53.99487 | 14.52113 | 100° | 57km/h | 18692m | -7.5m/s | 0°C | 0% | 0hPa | 2.5V | 08:14:35 | 02:38:15 | 00:00:00 | |
| AA1-15 | 2026-09-02 00:57:46 | 53.99487 | 14.52088 | 80° | 58km/h | 18700m | -6.7m/s | -49.9°C | 0% | 71.3hPa | 2.5V | 08:14:35 | 02:38:14 | 00:00:00 | |
| S3001 | 2026-09-02 00:57:43 | 53.99453 | 14.52028 | 7° | 40km/h | 18729m | -7.7m/s | -50.0°C | 0.8% | 71.0hPa | 2.6V | 00:00:00 | 00:00:00 | 00:00:00 | |
| DL1XH-15 | 2026-09-02 00:57:37 | 53.99468 | 14.52031 | 96° | 49km/h | 18807m | -7.5m/s | 0°C | 0% | 0hPa | 2.6V | 00:00:00 | 02:38:00 | 00:00:00 | |
| AA1-15 | 2026-09-02 00:57:36 | 53.99442 | 14.52074 | 190° | 33km/h | 18778m | -7.2m/s | -50.5°C | 0% | 70.4hPa | 2.5V | 08:15:26 | 02:38:04 | 00:00:00 | |
| DL1XH-west | 2026-09-02 00:57:35 | 53.99451 | 14.52074 | 162° | 37km/h | 18785m | -6.7m/s | 0°C | 0% | 0hPa | 2.5V | 18:12:15 | 02:38:03 | 00:00:00 | |
| AA1-15 | 2026-09-02 00:57:25 | 53.99410 | 14.51966 | 324° | 38km/h | 18867m | -7.1m/s | -50.5°C | 0% | 69.5hPa | 2.5V | 08:15:26 | 02:37:53 | 00:00:00 | |
| SP3WXH-11 | 2026-09-02 00:57:24 | 53.99402 | 14.51987 | 269° | 26km/h | 18882m | -6.9m/s | -50.5°C | 0.8% | 69.4hPa | 2.5V | 00:00:00 | 00:00:00 | 00:00:00 | |
| DL1XH-15 | 2026-09-02 00:57:19 | 53.99421 | 14.51949 | 84° | 51km/h | 18931m | -7m/s | 0°C | 0% | 0hPa | 2.5V | 00:00:00 | 02:37:45 | 00:00:00 | |
| AA1-15 | 2026-09-02 00:57:14 | 53.99400 | 14.51887 | 39° | 66km/h | 18952m | -5.5m/s | -49.9°C | 0% | 68.6hPa | 2.5V | 08:15:26 | 02:37:42 | 00:00:00 | |
| AA1-15 | 2026-09-02 00:57:03 | 53.99361 | 14.51856 | 97° | 55km/h | 19038m | -7.5m/s | -50.3°C | 0% | 67.7hPa | 2.5V | 08:15:26 | 02:37:31 | 00:00:00 | |
| AA1-15 | 2026-09-02 00:56:53 | 53.99270 | 14.51739 | 289° | 9km/h | 19116m | -7.3m/s | -50.8°C | 0% | 66.9hPa | 2.6V | 08:15:26 | 02:37:21 | 00:00:00 | |
| SP3WXH-11 | 2026-09-02 00:56:53 | 53.99271 | 14.51740 | 184° | 9km/h | 19124m | -7.7m/s | -50.9°C | 0.8% | 66.8hPa | 2.5V | 00:00:00 | 00:00:00 | 00:00:00 | |
| AA1-15 | 2026-09-02 00:56:42 | 53.99237 | 14.51541 | 18° | 57km/h | 19205m | -6.1m/s | -50.8°C | 0.1% | 66hPa | 2.5V | 08:16:17 | 02:37:10 | 00:00:00 | |
| DL1XH-15 | 2026-09-02 00:56:37 | 53.99237 | 14.51445 | 86° | 73km/h | 19282m | -6.8m/s | 0°C | 0% | 0hPa | 2.5V | 00:00:00 | 02:37:00 | 00:00:00 | |
| AA1-15 | 2026-09-02 00:56:32 | 53.99237 | 14.51445 | 87° | 73km/h | 19282m | -6.8m/s | -50.9°C | 0% | 65.2hPa | 2.5V | 08:16:17 | 02:37:00 | 00:00:00 | |
| DJ2DS-15 | 2026-09-02 00:56:24 | 53.99169 | 14.51336 | 302° | 37km/h | 19345m | -7.4m/s | -50.7°C | 3.2% | 64.6hPa | 2.5V | 00:00:00 | 02:36:52 | 00:00:00 | |
| DL1XH-15 | 2026-09-02 00:56:21 | 53.99192 | 14.51317 | 129° | 53km/h | 19377m | -6.6m/s | 0°C | 0% | 0hPa | 2.5V | 00:00:00 | 02:36:48 | 00:00:00 | |
| AA1-15 | 2026-09-02 00:56:21 | 53.99183 | 14.51330 | 144° | 42km/h | 19369m | -7m/s | -50.6°C | 0% | 64.4hPa | 2.5V | 08:16:17 | 02:36:49 | 00:00:00 | |
| AA1-15 | 2026-09-02 00:56:10 | 53.99132 | 14.51142 | 331° | 27km/h | 19455m | -7.8m/s | -51.1°C | 0% | 63.5hPa | 2.5V | 08:16:17 | 02:36:38 | 00:00:00 | |
| AA1-15 | 2026-09-02 00:55:59 | 53.99129 | 14.51006 | 32° | 64km/h | 19550m | -8.4m/s | -51.2°C | 0% | 62.6hPa | 2.5V | 08:16:17 | 02:36:27 | 00:00:00 | |
| DJ2DS-15 | 2026-09-02 00:55:58 | 53.99114 | 14.50996 | 16° | 58km/h | 19559m | -8.2m/s | -51.1°C | 0.8% | 62.5hPa | 2.5V | 00:00:00 | 00:00:00 | 00:00:00 | |
| MECKS9 | 2026-09-02 00:55:54 | 53.99079 | 14.51000 | 321° | 31km/h | 19586m | -7.9m/s | -51.3°C | 0.8% | 62.3hPa | 2.5V | 08:17:00 | 00:00:00 | 00:00:00 | |
| DL1XH-15 | 2026-09-02 00:55:51 | 53.99101 | 14.50976 | 107° | 57km/h | 19631m | -8.3m/s | 0°C | 0% | 0hPa | 2.5V | 00:00:00 | 02:36:17 | 00:00:00 | |
| AA1-15 | 2026-09-02 00:55:48 | 53.99104 | 14.50952 | 91° | 64km/h | 19642m | -7.7m/s | -51.7°C | 0% | 61.7hPa | 2.5V | 08:17:08 | 02:36:16 | 00:00:00 | |
| AA1-15 | 2026-09-02 00:55:38 | 53.99020 | 14.50837 | 187° | 15km/h | 19727m | -8.3m/s | -52.2°C | 0.2% | 61hPa | 2.5V | 08:17:08 | 02:36:06 | 00:00:00 | |
| AA1-15 | 2026-09-02 00:55:27 | 53.98993 | 14.50615 | 10° | 46km/h | 19818m | -7.4m/s | -52.3°C | 0.3% | 60hPa | 2.5V | 08:17:08 | 02:35:55 | 00:00:00 | |
| AA1-15 | 2026-09-02 00:55:16 | 53.99022 | 14.50462 | 74° | 82km/h | 19918m | -8.4m/s | -52°C | 0.3% | 59.1hPa | 2.5V | 08:17:08 | 02:35:44 | 00:00:00 | |
| AA1-15 | 2026-09-02 00:55:06 | 53.98987 | 14.50373 | 154° | 49km/h | 20012m | -8.7m/s | -51.2°C | 0.2% | 58.3hPa | 2.5V | 08:17:08 | 02:35:34 | 00:00:00 | |
| AA1-15 | 2026-09-02 00:54:55 | 53.98979 | 14.50204 | 285° | 26km/h | 20109m | -8m/s | -51°C | 0.1% | 57.5hPa | 2.5V | 08:17:59 | 02:35:23 | 00:00:00 | |
| SP3WXH-11 | 2026-09-02 00:54:49 | 53.99036 | 14.50189 | 113° | 57km/h | 20172m | -7.5m/s | -50.7°C | 0.8% | 56.9hPa | 2.5V | 00:00:00 | 00:00:00 | 00:00:00 | |
| D01LWL | 2026-09-02 00:54:48 | 53.99036 | 14.50189 | 113° | 57km/h | 20172m | -7.5m/s | 0°C | -1.0% | -1.0hPa | 2.5V | 00:00:00 | 00:00:00 | 00:00:00 | |
| AA1-15 | 2026-09-02 00:54:44 | 53.99023 | 14.50107 | 31° | 46km/h | 20208m | -8.4m/s | -50.8°C | 0% | 56.6hPa | 2.5V | 08:17:59 | 02:35:12 | 00:00:00 | |
| AA1-15 | 2026-09-02 00:54:33 | 53.99028 | 14.50141 | 103° | 49km/h | 20305m | -8.4m/s | -51.1°C | 0.1% | 55.7hPa | 2.5V | 08:17:59 | 02:35:01 | 00:00:00 | |
| AA1-15 | 2026-09-02 00:54:22 | 53.98963 | 14.50100 | 190° | 31km/h | 20404m | -8.5m/s | -51.4°C | 0.1% | 54.9hPa | 2.5V | 08:17:59 | 02:34:50 | 00:00:00 | |
| AA1-15 | 2026-09-02 00:54:11 | 53.98919 | 14.49974 | 320° | 44km/h | 20507m | -8.5m/s | -51.4°C | 0.1% | 54hPa | 2.5V | 08:18:50 | 02:34:39 | 00:00:00 | |
| AA1-15 | 2026-09-02 00:54:00 | 53.98926 | 14.49894 | 37° | 66km/h | 20611m | -8.9m/s | -51.7°C | 0.1% | 53.2hPa | 2.5V | 08:18:50 | 02:34:28 | 00:00:00 | |
| AA1-15 | 2026-09-02 00:53:50 | 53.98888 | 14.49914 | 126° | 49km/h | 20708m | -8.8m/s | -51.9°C | 0.2% | 52.4hPa | 2.6V | 08:18:50 | 02:34:18 | 00:00:00 | |
| SP3WXH-11 | 2026-09-02 00:53:46 | 53.98885 | 14.49817 | 52° | 69km/h | 20744m | -7.7m/s | -51.9°C | 0.9% | 52.1hPa | 2.5V | 00:00:00 | 00:00:00 | 00:00:00 | |
| AA1-15 | 2026-09-02 00:53:39 | 53.98819 | 14.49817 | 242° | 31km/h | 20809m | -9.2m/s | -51.3°C | 0.1% | 51.5hPa | 2.5V | 08:18:50 | 02:34:07 | 00:00:00 | |
| AA1-15 | 2026-09-02 00:53:29 | 53.98843 | 14.49691 | 21° | 49km/h | 20908m | -8.9m/s | -51.5°C | 0.2% | 50.8hPa | 2.5V | 08:18:50 | 02:33:57 | 00:00:00 | |
| AA1-15 | 2026-09-02 00:53:18 | 53.98870 | 14.49709 | 92° | 53km/h | 21007m | -9.3m/s | -51.3°C | 0.1% | 50hPa | 2.6V | 08:19:41 | 02:33:46 | 00:00:00 | |
| AA1-15 | 2026-09-02 00:53:07 | 53.98843 | 14.49740 | 170° | 44km/h | 21112m | -10.2m/s | -51.2°C | 0.1% | 49.2hPa | 2.5V | 08:19:41 | 02:33:35 | 00:00:00 | |
| AA1-15 | 2026-09-02 00:52:56 | 53.98786 | 14.49698 | 281° | 55km/h | 21217m | -8.8m/s | -51.8°C | 0.1% | 48.4hPa | 2.5V | 08:19:41 | 02:33:24 | 00:00:00 | |
| DB0DAN | 2026-09-02 00:52:55 | 53.98786 | 14.49718 | 251° | 38km/h | 21226m | -9.9m/s | -51.8°C | 0.8% | 48.32hPa | 2.6V | 00:00:00 | 00:00:00 | 00:00:00 | |
| AA1-15 | 2026-09-02 00:52:46 | 53.98777 | 14.49626 | 12° | 64km/h | 21312m | -10.4m/s | -52°C | 0.1% | 47.7hPa | 2.5V | 08:19:41 | 02:33:14 | 00:00:00 | |
| AA1-15 | 2026-09-02 00:52:36 | 53.98774 | 14.49622 | 86° | 62km/h | 21421m | -10.8m/s | -52.6°C | 0.3% | 46.9hPa | 2.5V | 08:19:41 | 02:33:03 | 00:00:00 | |
| AA1-15 | 2026-09-02 00:52:24 | 53.98722 | 14.49605 | 165° | 40km/h | 21537m | -9.7m/s | -52.4°C | 0.3% | 46.1hPa | 2.5V | 08:20:32 | 02:32:52 | 00:00:00 | |
| AA1-15 | 2026-09-02 00:52:14 | 53.98669 | 14.49491 | 306° | 40km/h | 21635m | -10.6m/s | -52°C | 0.2% | 45.4hPa | 2.6V | 08:20:32 | 02:32:42 | 00:00:00 | |
| AA1-15 | 2026-09-02 00:52:03 | 53.98694 | 14.49397 | 33° | 57km/h | 21752m | -10.8m/s | -52.1°C | 0.3% | 44.5hPa | 2.6V | 08:20:32 | 02:32:31 | 00:00:00 | |
| AA1-15 | 2026-09-02 00:51:53 | 53.98722 | 14.49393 | 120° | 66km/h | 21855m | -11.1m/s | -51.7°C | 0.2% | 43.9hPa | 2.5V | 08:20:32 | 02:32:21 | 00:00:00 | |
| AA1-15 | 2026-09-02 00:51:43 | 53.98693 | 14.49348 | 219° | 51km/h | 21964m | -11.9m/s | -51.7°C | 0.2% | 43.1hPa | 2.5V | 08:20:32 | 02:32:11 | 00:00:00 | |
| AA1-15 | 2026-09-02 00:51:32 | 53.98725 | 14.49281 | 302° | 46km/h | 22091m | -10.8m/s | -51.6°C | 0.2% | 42.4hPa | 2.5V | 08:21:23 | 02:32:00 | 00:00:00 | |
| AA1-15 | 2026-09-02 00:51:21 | 53.98776 | 14.49280 | 27° | 46km/h | 22203m | -12.1m/s | -51.7°C | 0.2% | 41.6hPa | 2.6V | 08:21:23 | 02:31:49 | 00:00:00 | |
| AA1-15 | 2026-09-02 00:51:11 | 53.98765 | 14.49398 | 147° | 42km/h | 22316m | -11.3m/s | -51.4°C | 0.1% | 40.9hPa | 2.6V | 08:21:23 | 02:31:39 | 00:00:00 | |
| AA1-15 | 2026-09-02 00:51:01 | 53.98690 | 14.49365 | 281° | 49km/h | 22428m | -11.9m/s | -51.6°C | 0.2% | 40.2hPa | 2.6V | 08:21:23 | 02:31:29 | 00:00:00 | |
| AA1-15 | 2026-09-02 00:50:50 | 53.98678 | 14.49284 | 354° | 62km/h | 22554m | -11.2m/s | -51.6°C | 0.2% | 39.4hPa | 2.5V | 08:21:23 | 02:31:18 | 00:00:00 | |
| AA1-15 | 2026-09-02 00:50:40 | 53.98701 | 14.49325 | 95° | 51km/h | 22668m | -12m/s | -52.1°C | 0.2% | 38.7hPa | 2.5V | 08:22:14 | 02:31:08 | 00:00:00 | |
| AA1-15 | 2026-09-02 00:50:29 | 53.98674 | 14.49357 | 174° | 55km/h | 22794m | -12.5m/s | -51.9°C | 0.2% | 38hPa | 2.5V | 08:22:14 | 02:30:57 | 00:00:00 | |
| AA1-15 | 2026-09-02 00:50:18 | 53.98644 | 14.49295 | 260° | 49km/h | 22927m | -12.4m/s | -52°C | 0.3% | 37.2hPa | 2.5V | 08:22:14 | 02:30:46 | 00:00:00 | |
| AA1-15 | 2026-09-02 00:50:07 | 53.98657 | 14.49213 | 353° | 62km/h | 23055m | -13.6m/s | -52.1°C | 0.2% | 36.5hPa | 2.5V | 08:22:14 | 02:30:35 | 00:00:00 | |
| AA1-15 | 2026-09-02 00:49:56 | 53.98672 | 14.49223 | 65° | 64km/h | 23196m | -12.2m/s | -52.4°C | 0.3% | 35.7hPa | 2.6V | 08:23:05 | 02:30:24 | 00:00:00 | |
| AA1-15 | 2026-09-02 00:49:46 | 53.98616 | 14.49253 | 164° | 47km/h | 23318m | -12.6m/s | -51.9°C | 0.2% | 35hPa | 2.6V | 08:23:05 | 02:30:14 | 00:00:00 | |
| AA1-15 | 2026-09-02 00:49:38 | 53.98567 | 14.49035 | 315° | 58km/h | 23627m | -12.5m/s | -51.8°C | 0.3% | 33.5hPa | 2.5V | 08:23:05 | 02:29:50 | 00:00:00 | |
| AA1-15 | 2026-09-02 00:49:12 | 53.98612 | 14.49012 | 60° | 71km/h | 23745m | -12.5m/s | -51.8°C | 0.2% | 32.8hPa | 2.5V | 08:23:05 | 02:29:40 | 00:00:00 | |
| AA1-15 | 2026-09-02 00:49:01 | 53.98593 | 14.48994 | 130° | 78km/h | 23888m | -11.6m/s | -51.5°C | 0.3% | 32.1hPa | 2.6V | 08:23:56 | 02:29:29 | 00:00:00 | |
| AA1-15 | 2026-09-02 00:48:51 | 53.98545 | 14.48871 | 241° | 40km/h | 24023m | -12.2m/s | -51.1°C | 0.2% | 31.4hPa | 2.6V | 08:23:56 | 02:29:19 | 00:00:00 | |
| AA1-15 | 2026-09-02 00:48:40 | 53.98580 | 14.48681 | 343° | 68km/h | 24163m | -12m/s | -50.7°C | 0.1% | 30.8hPa | 2.6V | 08:23:56 | 02:29:08 | 00:00:00 | |
| AA1-15 | 2026-09-02 00:48:29 | 53.98636 | 14.48637 | 67° | 71km/h | 24298m | -14.3m/s | -50.9°C | 0.1% | 30.1hPa | 2.5V | 08:23:56 | 02:28:57 | 00:00:00 | |
| AA1-15 | 2026-09-02 00:48:18 | 53.98624 | 14.48673 | 149° | 78km/h | 24471m | -12.4m/s | -50.7°C | 0.1% | 29.4hPa | 2.5V | 08:23:56 | 02:28:46 | 00:00:00 | |
| AA1-15 | 2026-09-02 00:48:08 | 53.98610 | 14.48595 | 227° | 64km/h | 24617m | -14.5m/s | -50.7°C | 0.2% | 28.7hPa | 2.5V | 08:24:47 | 02:28:35 | 00:00:00 | |
| AA1-15 | 2026-09-02 00:47:56 | 53.98657 | 14.48483 | 336° | 55km/h | 24767m | -13.9m/s | -50.3°C | 0.1% | 28.1hPa | 2.6V | 08:24:47 | 02:28:24 | 00:00:00 | |
| AA1-15 | 2026-09-02 00:47:45 | 53.98705 | 14.48402 | 63° | 84km/h | 24933m | -15.1m/s | -50.1°C | 0.1% | 27.4hPa | 2.6V | 08:24:47 | 02:28:13 | 00:00:00 | |
| AA1-15 | 2026-09-02 00:47:35 | 53.98732 | 14.48377 | 130° | 95km/h | 25102m | -11.7m/s | -49.6°C | 0% | 26.7hPa | 2.5V | 08:24:47 | 02:28:02 | 00:00:00 | |
| AA1-15 | 2026-09-02 00:47:24 | 53.98725 | 14.48300 | 218° | 77km/h | 25246m | -11m/s | -49.4°C | 0% | 26.1hPa | 2.5V | 08:25:38 | 02:27:52 | 00:00:00 | |
| AA1-15 | 2026-09-02 00:47:14 | 53.98806 | 14.48219 | 331° | 49km/h | 25383m | -15.3m/s | -49.5°C | 0% | 25.5hPa | 2.5V | 08:25:38 | 02:27:42 | 00:00:00 | |
| AA1-15 | 2026-09-02 00:47:03 | 53.98878 | 14.48309 | 49° | 51km/h | 25545m | -13.2m/s | -49.8°C | 0% | 24.9hPa | 2.5V | 08:25:38 | 02:27:31 | 00:00:00 | |
| AA1-15 | 2026-09-02 00:46:52 | 53.98865 | 14.48418 | 144° | 64km/h | 25702m | -16.8m/s | -49.9°C | 0% | 24.3hPa | 2.5V | 08:25:38 | 02:27:20 | 00:00:00 | |
| AA1-15 | 2026-09-02 00:46:41 | 53.98822 | 14.48441 | 208° | 66km/h | 25892m | -16.3m/s | -49.8°C | 0% | 23.6hPa | 2.5V | 08:25:38 | 02:27:09 | 00:00:00 | |
| AA1-15 | 2026-09-02 00:46:31 | 53.98835 | 14.48325 | 314° | 53km/h | 26046m | -15.8m/s | -50°C | 0.1% | 23.1hPa | 2.5V | 08:26:29 | 02:26:59 | 00:00:00 | |
| AA1-15 | 2026-09-02 00:46:20 | 53.98923 | 14.48297 | 45° | 58km/h | 26236m | -16m/s | -50.4°C | 0.1% | 22.5hPa | 2.5V | 08:26:29 | 02:26:48 | 00:00:00 | |
| AA1-15 | 2026-09-02 00:46:10 | 53.98965 | 14.48370 | 133° | 77km/h | 26417m | -11.4m/s | -50.4°C | 0.2% | 21.9hPa | 2.5V | 08:26:29 | 02:26:38 | 00:00:00 | |
| AA1-15 | 2026-09-02 00:45:59 | 53.98962 | 14.48378 | 187° | 82km/h | 26545m | -15.8m/s | -49.8°C | 0.1% | 21.3hPa | 2.5V | 08:26:29 | 02:26:27 | 00:00:00 | |
| AA1-15 | 2026-09-02 00:45:48 | 53.98937 | 14.48365 | 269° | 57km/h | 26702m | -39.6m/s | -49.8°C | 0.1% | 20.7hPa | 2.5V | 08:26:29 | 02:26:16 | 00:00:00 | |
| AA1-15 | 2026-09-02 00:45:37 | 53.98960 | 14.48292 | 358° | 84km/h | 26917m | -23.9m/s | -49.4°C | 0.1% | 20.1hPa | 2.5V | 08:27:20 | 02:26:05 | 00:00:00 | |
| AA1-15 | 2026-09-02 00:45:26 | 53.98984 | 14.48210 | 65° | 82km/h | 27138m | -18.7m/s | -48.7°C | 0% | 19.5hPa | 2.5V | 08:27:20 | 02:25:54 | 00:00:00 | |
| AA1-15 | 2026-09-02 00:45:15 | 53.99014 | 14.48184 | 121° | 91km/h | 27336m | -18.6m/s | -48.4°C | 0% | 18.9hPa | 2.5V | 08:27:20 | 02:25:43 | 00:00:00 | |
| AA1-15 | 2026-09-02 00:45:02 | 53.99067 | 14.48090 | 128° | 69km/h | 27555m | -22.6m/s | -48.1°C | 0% | 18.3hPa | 2.6V | 08:27:20 | 02:25:30 | 00:00:00 | |
| AA1-15 | 2026-09-02 00:44:48 | 53.99112 | 14.48183 | 108° | 71km/h | 27690m | -30.3m/s | -47.2°C | 0% | 17.6hPa | 2.5V | 08:29:53 | 02:25:16 | 00:00:00 | |
| AA1-15 | 2026-09-02 00:44:32 | 53.99031 | 14.47892 | 28° | 89km/h | 28141m | -13m/s | -47°C | 0% | 16.7hPa | 2.5V | 08:29:53 | 02:25:00 | 00:00:00 | |
| AA1-15 | 2026-09-02 00:44:19 | 53.99083 | 14.47782 | 73° | 80km/h | 28390m | -29.5m/s | -47.1°C | 0% | 16.1hPa | 2.5V | 08:29:53 | 02:24:47 | 00:00:00 | |
| AA1-15 | 2026-09-02 00:44:04 | 53.99137 | 14.47648 | 49° | 77km/h | 28741m | -19.1m/s | -46.4°C | 0% | 15.4hPa | 2.5V | 08:29:53 | 02:24:32 | 00:00:00 | |
| AA1-15 | 2026-09-02 00:43:51 | 53.99096 | 14.47646 | 23° | 106km/h | 28999m | -17.4m/s | -45.6°C | 0% | 14.8hPa | 2.5V | 08:29:53 | 02:24:19 | 00:00:00 | |
| DK1YY | 2026-09-02 00:43:45 | 53.99014 | 14.47666 | 226° | 42km/h | 29133m | -20.0m/s | -45.4°C | 0.6% | 14.5hPa | 2.6V | 00:00:00 | 00:00:00 | 00:00:00 | |
| AA1-15 | 2026-09-02 00:43:37 | 53.99090 | 14.47456 | 52° | 95km/h | 29287m | -23.8m/s | -44.8°C | 0% | 14.1hPa | 2.6V | 08:29:53 | 02:24:05 | 00:00:00 | |
| AA1-15 | 2026-09-02 00:43:26 | 53.99143 | 14.47370 | 80° | 78km/h | 29547m | -29.1m/s | -45°C | 0% | 13.6hPa | 2.5V | 08:29:53 | 02:23:53 | 00:00:00 | |
| AA1-15 | 2026-09-02 00:43:13 | 53.99168 | 14.47387 | 114° | 84km/h | 29830m | -24.3m/s | -43.5°C | 0% | 13hPa | 2.5V | 08:29:53 | 02:23:41 | 00:00:00 | |
| AA1-15 | 2026-09-02 00:43:02 | 53.99122 | 14.47411 | 170° | 73km/h | 30087m | -22.4m/s | -42.7°C | 0% | 12.6hPa | 2.5V | 08:29:53 | 02:23:30 | 00:00:00 | |
| AA1-15 | 2026-09-02 00:42:52 | 53.99047 | 14.47304 | 234° | 44km/h | 30322m | -24.8m/s | -42.6°C | 0% | 12.1hPa | 2.5V | 08:29:53 | 02:23:20 | 00:00:00 | |
| AA1-15 | 2026-09-02 00:42:41 | 53.99087 | 14.47134 | 341° | 75km/h | 30576m | -24.3m/s | -41.8°C | 0% | 11.7hPa | 2.6V | 08:29:53 | 02:23:09 | 00:00:00 | |
| AA1-15 | 2026-09-02 00:42:30 | 53.99144 | 14.47074 | 35° | 78km/h | 30850m | -23.6m/s | -41.3°C | 0% | 11.2hPa | 2.6V | 08:29:53 | 02:22:58 | 00:00:00 | |
| AA1-15 | 2026-09-02 00:42:19 | 53.99179 | 14.47137 | 107° | 69km/h | 31124m | -21.9m/s | -41.6°C | 0% | 10.8hPa | 2.5V | 18:12:15 | 02:22:47 | 00:00:00 | |
| AA1-15 | 2026-09-02 00:42:09 | 53.99119 | 14.47148 | 243° | 49km/h | 31324m | -16.7m/s | -41.7°C | 0% | 10.5hPa | 2.5V | 18:12:15 | 02:22:37 | 00:00:00 | |
| AA1-15 | 2026-09-02 00:41:58 | 53.99156 | 14.47340 | 351° | 20km/h | 31561m | -22.3m/s | -41.6°C | 0% | 10.1hPa | 2.5V | 18:12:15 | 02:22:26 | 00:00:00 | |
| AA1-15 | 2026-09-02 00:41:48 | 53.99140 | 14.47265 | 84° | 22km/h | 31964m | -35.7m/s | -40.3°C | 0% | 9.6hPa | 2.5V | 18:12:15 | 02:22:16 | 00:00:00 | |
| AA1-15 | 2026-09-02 00:41:37 | 53.99143 | 14.47190 | 201° | 16km/h | 32009m | 4.7m/s | -40.6°C | 0% | 9.5hPa | 2.5V | 18:12:15 | 02:22:05 | 00:00:00 | |
| MECKS9 | 2026-09-02 00:41:34 | 53.99149 | 14.47195 | 208° | 9km/h | 32000m | 4.8m/s | -40.7°C | 0.4% | 9.5hPa | 2.6V | 00:00:00 | 00:00:00 | 00:00:00 | |
| AA1-15 | 2026-09-02 00:41:26 | 53.99150 | 14.47144 | 127° | 15km/h | 31951m | 4.7m/s | -40.6°C | 0% | 9.5hPa | 2.6V | 18:12:15 | 02:21:54 | 00:00:00 | |
| AA1-15 | 2026-09-02 00:41:15 | 53.99158 | 14.47089 | 93° | 11km/h | 31894m | 6m/s | -40.9°C | 0% | 9.6hPa | 2.6V | 18:12:15 | 02:21:43 | 00:00:00 | |
| AA1-15 | 2026-09-02 00:41:04 | 53.99163 | 14.47084 | 42° | 5km/h | 31833m | 5.1m/s | -41.1°C | 0% | 9.7hPa | 2.5V | 18:12:15 | 02:21:32 | 00:00:00 | |
| AA1-15 | 2026-09-02 00:40:53 | 53.99174 | 14.47081 | 244° | 9km/h | 31775m | 4.8m/s | -41.2°C | 0% | 9.8hPa | 2.5V | 18:12:15 | 02:21:21 | 00:00:00 | |
| AA1-15 | 2026-09-02 00:40:42 | 53.99203 | 14.47100 | 172° | 7km/h | 31715m | 6.1m/s | -41.2°C | 0% | 9.9hPa | 2.5V | 18:12:15 | 02:21:10 | 00:00:00 | |
| AA1-15 | 2026-09-02 00:40:31 | 53.99228 | 14.47095 | 136° | 15km/h | 31654m | 4.9m/s | -41.4°C | 0% | 10hPa | 2.6V | 18:12:15 | 02:20:59 | 00:00:00 | |
| AA1-15 | 2026-09-02 00:40:20 | 53.99244 | 14.47051 | 123° | 5km/h | 31593m | 6m/s | -41.9°C | 0% | 10hPa | 2.6V | 18:12:15 | 02:20:48 | 00:00:00 | |
| AA1-15 | 2026-09-02 00:40:09 | 53.99240 | 14.47005 | 13° | 9km/h | 31534m | 5.5m/s | -42.1°C | 0% | 10.2hPa | 2.5V | 18:12:15 | 02:20:37 | 00:00:00 | |
| AA1-15 | 2026-09-02 00:39:59 | 53.99223 | 14.46983 | 41° | 7km/h | 31481m | 4.7m/s | -42.1°C | 0% | 10.2hPa | 2.5V | 18:12:15 | 02:20:27 | 00:00:00 | |
| AA1-15 | 2026-09-02 00:39:50 | 53.99219 | 14.46970 | 230° | 7km/h | 31428m | 5.1m/s | -42°C | 0% | 10.3hPa | 2.5V | 18:12:15 | 02:20:17 | 00:00:00 | |
| SP3WXH-11 | 2026-09-02 00:39:49 | 53.99219 | 14.46970 | 11° | 5km/h | 31422m | 6.3m/s | -41.9°C | 0.5% | 10.3hPa | 2.5V | 00:00:00 | 00:00:00 | 00:00:00 | |
| DJ2DS-15 | 2026-09-02 00:39:45 | 53.99220 | 14.46958 | 117° | 7km/h | 31400m | 6.0m/s | -41.9°C | 0.5% | 10.4hPa | 2.5V | 00:00:00 | 00:00:00 | 00:00:00 | |
| AA1-15 | 2026-09-02 00:39:38 | 53.99227 | 14.46963 | 200° | 11km/h | 31362m | 6.1m/s | -41.8°C | 0% | 10.4hPa | 2.5V | 18:12:15 | 02:20:06 | 00:00:00 | |
| AA1-15 | 2026-09-02 00:39:28 | 53.99236 | 14.46965 | 152° | 18km/h | 31308m | 6.4m/s | -41.8°C | 0% | 10.5hPa | 2.5V | 18:12:15 | 02:19:56 | 00:00:00 | |
| AA1-15 | 2026-09-02 00:39:17 | 53.99278 | 14.46981 | 169° | 13km/h | 31245m | 5.2m/s | -41.7°C | 0% | 10.6hPa | 2.5V | 18:12:15 | 02:19:45 | 00:00:00 | |
| AA1-15 | 2026-09-02 00:39:07 | 53.99323 | 14.46988 | 200° | 20km/h | 31185m | 4.1m/s | -41.7°C | 0% | 10.7hPa | 2.5V | 18:12:15 | 02:19:35 | 00:00:00 | |
| AA1-15 | 2026-09-02 00:38:56 | 53.99339 | 14.46993 | 180° | 15km/h | 31124m | 5.6m/s | -41.6°C | 0% | 10.8hPa | 2.6V | 18:12:15 | 02:19:24 | 00:00:00 | |
| AA1-15 | 2026-09-02 00:38:45 | 53.99376 | 14.46979 | 174° | 18km/h | 31062m | 6.2m/s | -41.4°C | 0% | 10.9hPa | 2.6V | 18:12:15 | 02:19:13 | 00:00:00 | |
| AA1-15 | 2026-09-02 00:38:34 | 53.99409 | 14.46955 | 120° | 7km/h | 31001m | 4.8m/s | -41.6°C | 0% | 11hPa | 2.5V | 18:12:15 | 02:19:02 | 00:00:00 | |
| AA1-15 | 2026-09-02 00:38:23 | 53.99437 | 14.46934 | 121° | 15km/h | 30942m | 6.3m/s | -41.5°C | 0% | 11.1hPa | 2.5V | 18:12:15 | 02:18:51 | 00:00:00 | |
| AA1-15 | 2026-09-02 00:38:12 | 53.99464 | 14.46904 | 134° | 15km/h | 30880m | 6.1m/s | -41.3°C | 0% | 11.2hPa | 2.6V | 18:12:15 | 02:18:40 | 00:00:00 | |
| AA1-15 | 2026-09-02 00:38:01 | 53.99472 | 14.46844 | 104° | 5km/h | 30818m | 6.1m/s | -41.4°C | 0% | 11.3hPa | 2.5V | 18:12:15 | 02:18:29 | 00:00:00 | |
| AA1-15 | 2026-09-02 00:37:50 | 53.99485 | 14.46764 | 70° | 11km/h | 30756m | 4.8m/s | -41.6°C | 0% | 11.4hPa | 2.5V | 18:12:15 | 02:18:18 | 00:00:00 | |
| SP3WXH-11 | 2026-09-02 00:37:44 | 53.99492 | 14.46734 | 133° | 22km/h | 30724m | 5.3m/s | -41.8°C | 0.5% | 11.4hPa | 2.5V | 00:00:00 | 00:00:00 | 00:00:00 | |
| AA1-15 | 2026-09-02 00:37:40 | 53.99506 | 14.46711 | 114° | 16km/h | 30701m | 4.7m/s | -41.9°C | 0% | 11.5hPa | 2.5V | 18:12:15 | 02:18:08 | 00:00:00 | |
| AA1-15 | 2026-09-02 00:37:29 | 53.99501 | 14.46636 | 117° | 13km/h | 30642m | 6.1m/s | -42.1°C | 0% | 11.6hPa | 2.5V | 18:12:15 | 02:17:57 | 00:00:00 | |
| AA1-15 | 2026-09-02 00:37:18 | 53.99512 | 14.46558 | 95° | 22km/h | 30583m | 4.7m/s | -41.9°C | 0% | 11.7hPa | 2.5V | 18:12:15 | 02:17:46 | 00:00:00 | |
| AA1-15 | 2026-09-02 00:37:07 | 53.99521 | 14.46481 | 87° | 9km/h | 30522m | 5.6m/s | -42.3°C | 0% | 11.8hPa | 2.5V | 18:12:15 | 02:17:35 | 00:00:00 | |
| AA1-15 | 2026-09-02 00:36:57 | 53.99534 | 14.46410 | 92° | 11km/h | 30471m | 5.1m/s | -42.4°C | 0% | 11.9hPa | 2.5V | 18:12:15 | 02:17:25 | 00:00:00 | |
| AA1-15 | 2026-09-02 00:36:46 | 53.99535 | 14.46342 | 98° | 24km/h | 30411m | 5.7m/s | -42.4°C | 0% | 12hPa | 2.6V | 18:12:15 | 02:17:14 | 00:00:00 | |
| AA1-15 | 2026-09-02 00:36:35 | 53.99530 | 14.46262 | 121° | 22km/h | 30354m | 4.3m/s | -42.7°C | 0% | 12.1hPa | 2.5V | 18:12:15 | 02:17:03 | 00:00:00 | |
| AA1-15 | 2026-09-02 00:36:24 | 53.99525 | 14.46202 | 69° | 26km/h | 30298m | 4.7m/s | -43°C | 0% | 12.2hPa | 2.5V | 18:12:15 | 02:16:52 | 00:00:00 | |
| AA1-15 | 2026-09-02 00:36:13 | 53.99495 | 14.46157 | 21° | 16km/h | 30240m | 5.1m/s | -43.2°C | 0% | 12.3hPa | 2.5V | 18:12:15 | 02:16:41 | 00:00:00 | |
| AA1-15 | 2026-09-02 00:36:03 | 53.99459 | 14.46089 | 357° | 13km/h | 30187m | 5.1m/s | -43.3°C | 0% | 12.4hPa | 2.6V | 18:12:15 | 02:16:31 | 00:00:00 | |
| AA1-15 | 2026-09-02 00:35:52 | 53.99434 | 14.46058 | 66° | 18km/h | 30128m | 5m/s | -43.1°C | 0% | 12.5hPa | 2.5V | 18:12:15 | 02:16:20 | 00:00:00 | |
| AA1-15 | 2026-09-02 00:35:42 | 53.99422 | 14.46047 | 82° | 11km/h | 30073m | 4.6m/s | -43.1°C | 0% | 12.6hPa | 2.5V | 18:12:15 | 02:16:10 | 00:00:00 | |
| AA1-15 | 2026-09-02 00:35:32 | 53.99407 | 14.46011 | 262° | 5km/h | 30021m | 5.7m/s | -43.3°C | 0% | 12.7hPa | 2.5V | 18:12:15 | 02:16:00 | 00:00:00 | |
| AA1-15 | 2026-09-02 00:35:21 | 53.99398 | 14.45992 | 354° | 9km/h | 29963m | 4.7m/s | -43.6°C | 0% | 12.8hPa | 2.5V | 18:12:15 | 02:15:49 | 00:00:00 | |
| AA1-15 | 2026-09-02 00:35:10 | 53.99406 | 14.45979 | 18° | 4km/h | 29907m | 5.2m/s | -43.9°C | 0% | 12.9hPa | 2.5V | 18:12:15 | 02:15:38 | 00:00:00 | |
| AA1-15 | 2026-09-02 00:34:59 | 53.99421 | 14.45996 | 145° | 18km/h | 29850m | 5.4m/s | -44.5°C | 0% | 13hPa | 2.5V | 18:12:15 | 02:15:27 | 00:00:00 | |
| AA1-15 | 2026-09-02 00:34:49 | 53.99418 | 14.45988 | 197° | 11km/h | 29798m | 5.6m/s | -44.8°C | 0% | 13.1hPa | 2.5V | 18:12:15 | 02:15:17 | 00:00:00 | |
| AA1-15 | 2026-09-02 00:34:38 | 53.99452 | 14.45968 | 223° | 16km/h | 29737m | 6.5m/s | -45.1°C | 0% | 13.2hPa | 2.5V | 18:12:15 | 02:15:06 | 00:00:00 | |
| AA1-15 | 2026-09-02 00:34:28 | 53.99477 | 14.45958 | 136° | 20km/h | 29681m | 5m/s | -45.3°C | 0% | 13.4hPa | 2.5V | 18:12:15 | 02:14:56 | 00:00:00 | |
| AA1-15 | 2026-09-02 00:34:17 | 53.99512 | 14.45950 | 139° | 24km/h | 29624m | 6.1m/s | -45.6°C | 0% | 13.4hPa | 2.6V | 18:12:15 | 02:14:45 | 00:00:00 | |
| AA1-15 | 2026-09-02 00:34:06 | 53.99549 | 14.45898 | 142° | 9km/h | 29564m | 5.1m/s | -45.4°C | 0% | 13.6hPa | 2.6V | 18:12:15 | 02:14:34 | 00:00:00 | |
| AA1-15 | 2026-09-02 00:33:55 | 53.99580 | 14.45828 | 119° | 11km/h | 29504m | 4.6m/s | -45.3°C | 0% | 13.7hPa | 2.5V | 18:12:15 | 02:14:23 | 00:00:00 | |
| AA1-15 | 2026-09-02 00:33:45 | 53.99602 | 14.45748 | 113° | 26km/h | 29451m | 5.8m/s | -45.5°C | 0% | 13.8hPa | 2.5V | 18:12:15 | 02:14:13 | 00:00:00 | |
| AA1-15 | 2026-09-02 00:33:34 | 53.99618 | 14.45639 | 100° | 37km/h | 29389m | 5.3m/s | -45.7°C | 0% | 13.9hPa | 2.5V | 18:12:15 | 02:14:02 | 00:00:00 | |
| AA1-15 | 2026-09-02 00:33:23 | 53.99637 | 14.45511 | 82° | 24km/h | 29328m | 6.5m/s | -45.9°C | 0% | 14.1hPa | 2.5V | 18:12:15 | 02:13:51 | 00:00:00 | |
| AA1-15 | 2026-09-02 00:33:12 | 53.99643 | 14.45384 | 77° | 22km/h | 29272m | 4.9m/s | -46.3°C | 0% | 14.2hPa | 2.6V | 18:12:15 | 02:13:40 | 00:00:00 | |
| AA1-15 | 2026-09-02 00:33:01 | 53.99626 | 14.45295 | 89° | 24km/h | 29212m | 6m/s | -46.4°C | 0% | 14.3hPa | 2.6V | 18:12:15 | 02:13:29 | 00:00:00 | |
| AA1-15 | 2026-09-02 00:32:50 | 53.99603 | 14.45181 | 76° | 24km/h | 29154m | 4.9m/s | -46.6°C | 0% | 14.4hPa | 2.6V | 18:12:15 | 02:13:18 | 00:00:00 | |
| AA1-15 | 2026-09-02 00:32:39 | 53.99585 | 14.45064 | 61° | 16km/h | 29096m | 4.4m/s | -46.6°C | 0% | 14.6hPa | 2.5V | 18:12:15 | 02:13:07 | 00:00:00 | |
| AA1-15 | 2026-09-02 00:32:28 | 53.99563 | 14.44973 | 48° | 20km/h | 29036m | 5.7m/s | -46.4°C | 0% | 14.7hPa | 2.5V | 18:12:15 | 02:12:56 | 00:00:00 | |
| AA1-15 | 2026-09-02 00:32:13 | 53.99534 | 14.44914 | 345° | 18km/h | 28958m | 4.8m/s | -46.5°C | 0% | 14.9hPa | 2.6V | 18:12:15 | 02:12:41 | 00:00:00 | |
| AA1-15 | 2026-09-02 00:32:03 | 53.99509 | 14.44900 | 348° | 7km/h | 28902m | 6.1m/s | -46.7°C | 0% | 15hPa | 2.5V | 18:12:15 | 02:12:31 | 00:00:00 | |
| AA1-15 | 2026-09-02 00:31:51 | 53.99493 | 14.44899 | 94° | 7km/h | 28836m | 4.9m/s | -47.2°C | 0% | 15.2hPa | 2.5V | 18:12:15 | 02:12:19 | 00:00:00 | |
| AA1-15 | 2026-09-02 00:31:39 | 53.99486 | 14.44898 | 138° | 11km/h | 28771m | 6m/s | -47.3°C | 0% | 15.3hPa | 2.5V | 18:12:15 | 02:12:07 | 00:00:00 | |
| AA1-15 | 2026-09-02 00:31:22 | 53.99535 | 14.44858 | 140° | 29km/h | 28681m | 6.4m/s | -47°C | 0% | 15.5hPa | 2.5V | 18:12:15 | 02:11:50 | 00:00:00 | |
| AA1-15 | 2026-09-02 00:31:12 | 53.99564 | 14.44821 | 152° | 24km/h | 28627m | 4.7m/s | -47.1°C | 0% | 15.7hPa | 2.6V | 18:12:15 | 02:11:40 | 00:00:00 | |
| AA1-15 | 2026-09-02 00:31:00 | 53.99616 | 14.44729 | 136° | 18km/h | 28560m | 5.2m/s | -47.3°C | 0% | 15.8hPa | 2.5V | 18:12:15 | 02:11:28 | 00:00:00 | |
| AA1-15 | 2026-09-02 00:30:49 | 53.99677 | 14.44631 | 133° | 27km/h | 28502m | 4.8m/s | -47.6°C | 0% | 15.9hPa | 2.5V | 18:12:15 | 02:11:17 | 00:00:00 | |
| DK1YY | 2026-09-02 00:30:49 | 53.99677 | 14.44631 | 133° | 26km/h | 28502m | 4.8m/s | -47.6°C | 0.7% | 15.9hPa | 2.6V | 00:00:00 | 00:00:00 | 00:00:00 | |
| AA1-15 | 2026-09-02 00:30:38 | 53.99733 | 14.44503 | 116° | 38km/h | 28439m | 4.8m/s | -47.7°C | 0% | 16.1hPa | 2.6V | 18:12:15 | 02:11:06 | 00:00:00 | |
| AA1-15 | 2026-09-02 00:30:28 | 53.99769 | 14.44400 | 103° | 33km/h | 28386m | 5.3m/s | -47.4°C | 0% | 16.2hPa | 2.6V | 18:12:15 | 02:10:56 | 00:00:00 | |
| AA1-15 | 2026-09-02 00:30:18 | 53.99792 | 14.44274 | 129° | 29km/h | 28330m | 5m/s | -47.4°C | 0% | 16.3hPa | 2.5V | 18:12:15 | 02:10:45 | 00:00:00 | |
| AA1-15 | 2026-09-02 00:30:07 | 53.99804 | 14.44165 | 89° | 31km/h | 28278m | 5.8m/s | -47.4°C | 0% | 16.5hPa | 2.6V | 18:12:15 | 02:10:35 | 00:00:00 | |
| AA1-15 | 2026-09-02 00:29:57 | 53.99803 | 14.44059 | 70° | 24km/h | 28225m | 4.5m/s | -47.5°C | 0% | 16.6hPa | 2.5V | 18:12:15 | 02:10:25 | 00:00:00 | |
| AA1-15 | 2026-09-02 00:29:47 | 53.99782 | 14.43942 | 67° | 31km/h | 28171m | 4.2m/s | -47.6°C | 0% | 16.8hPa | 2.5V | 18:12:15 | 02:10:15 | 00:00:00 | |
| DK1YY | 2026-09-02 00:29:47 | 53.99782 | 14.43942 | 67° | 31km/h | 28171m | 4.2m/s | -47.6°C | 0.7% | 16.8hPa | 2.5V | 00:00:00 | 00:00:00 | 00:00:00 | |
| AA1-15 | 2026-09-02 00:29:37 | 53.99763 | 14.43859 | 38° | 18km/h | 28114m | 6.2m/s | -47.5°C | 0% | 16.9hPa | 2.5V | 18:12:15 | 02:10:05 | 00:00:00 | |
| AA1-15 | 2026-09-02 00:29:26 | 53.99731 | 14.43796 | 44° | 16km/h | 28054m | 5.9m/s | -47.3°C | 0% | 17hPa | 2.5V | 18:12:15 | 02:09:54 | 00:00:00 | |
| AA1-15 | 2026-09-02 00:29:15 | 53.99704 | 14.43747 | 27° | 11km/h | 27991m | 6m/s | -47.1°C | 0% | 17.2hPa | 2.6V | 18:12:15 | 02:09:43 | 00:00:00 | |
| AA1-15 | 2026-09-02 00:29:05 | 53.99672 | 14.43724 | 64° | 9km/h | 27939m | 4.9m/s | -47.2°C | 0% | 17.3hPa | 2.5V | 18:12:15 | 02:09:33 | 00:00:00 | |
| AA1-15 | 2026-09-02 00:28:54 | 53.99653 | 14.43692 | 35° | 11km/h | 27876m | 4.3m/s | -47.4°C | 0% | 17.5hPa | 2.5V | 18:12:15 | 02:09:22 | 00:00:00 | |
| DK1YY | 2026-09-02 00:28:45 | 53.99646 | 14.43672 | 338° | 4km/h | 27819m | 6.1m/s | -47.5°C | 0.7% | 17.6hPa | 2.5V | 00:00:00 | 00:00:00 | 00:00:00 | |
| AA1-15 | 2026-09-02 00:28:43 | 53.99645 | 14.43673 | 322° | 5km/h | 27814m | 5.5m/s | -47.5°C | 0% | 17.7hPa | 2.5V | 18:12:15 | 02:09:11 | 00:00:00 | |
| AA1-15 | 2026-09-02 00:28:32 | 53.99634 | 14.43658 | 35° | 9km/h | 27751m | 4.9m/s | -47.9°C | 0% | 17.8hPa | 2.5V | 18:12:15 | 02:09:00 | 00:00:00 | |
| AA1-15 | 2026-09-02 00:28:21 | 53.99627 | 14.43645 | 165° | 7km/h | 27690m | 6.3m/s | -48.1°C | 0% | 18hPa | 2.6V | 18:12:15 | 02:08:49 | 00:00:00 | |
| AA1-15 | 2026-09-02 00:28:11 | 53.99633 | 14.43625 | 139° | 9km/h | 27633m | 4.6m/s | -48.3°C | 0% | 18.2hPa | 2.5V | 18:12:15 | 02:08:39 | 00:00:00 | |
| AA1-15 | 2026-09-02 00:28:00 | 53.99653 | 14.43573 | 93° | 13km/h | 27569m | 5.2m/s | -48.2°C | 0% | 18.3hPa | 2.5V | 18:12:15 | 02:08:28 | 00:00:00 | |
| AA1-15 | 2026-09-02 00:27:50 | 53.99682 | 14.43480 | 121° | 26km/h | 27508m | 5.2m/s | -48.5°C | 0% | 18.5hPa | 2.6V | 18:12:15 | 02:08:17 | 00:00:00 | |
| AA1-15 | 2026-09-02 00:27:39 | 53.99707 | 14.43383 | 119° | 33km/h | 27452m | 5.5m/s | -48.6°C | 0% | 18.7hPa | 2.5V | 18:12:15 | 02:08:07 | 00:00:00 | |
| AA1-15 | 2026-09-02 00:27:28 | 53.99735 | 14.43293 | 113° | 18km/h | 27392m | 6.2m/s | -48.7°C | 0% | 18.8hPa | 2.6V | 18:12:15 | 02:07:56 | 00:00:00 | |
| AA1-15 | 2026-09-02 00:27:17 | 53.99771 | 14.43196 | 98° | 26km/h | 27331m | 6.3m/s | -48.7°C | 0% | 19hPa | 2.6V | 18:12:15 | 02:07:45 | 00:00:00 | |
| AA1-15 | 2026-09-02 00:27:07 | 53.99786 | 14.43096 | 115° | 27km/h | 27269m | 6.3m/s | -48.8°C | 0.1% | 19.2hPa | 2.5V | 18:12:15 | 02:07:34 | 00:00:00 | |
| AA1-15 | 2026-09-02 00:26:56 | 53.99805 | 14.42990 | 114° | 20km/h | 27211m | 5.9m/s | -48.7°C | 0% | 19.4hPa | 2.5V | 18:12:15 | 02:07:23 | 00:00:00 | |
| AA1-15 | 2026-09-02 00:26:45 | 53.99819 | 14.42876 | 82° | 22km/h | 27155m | 5.4m/s | -48.8°C | 0% | 19.5hPa | 2.5V | 18:12:15 | 02:07:13 | 00:00:00 | |
| AA1-15 | 2026-09-02 00:26:35 | 53.99830 | 14.42757 | 93° | 29km/h | 27088m | 6m/s | -49°C | 0.1% | 19.7hPa | 2.6V | 18:12:15 | 02:07:01 | 00:00:00 | |
| AA1-15 | 2026-09-02 00:26:24 | 53.99818 | 14.42700 | 81° | 24km/h | 27039m | 4.5m/s | -48.9°C | 0% | 19.9hPa | 2.6V | 18:12:15 | 02:06:52 | 00:00:00 | |
| AA1-15 | 2026-09-02 00:26:13 | 53.99814 | 14.42599 | 2° | 13km/h | 26984m | 5.8m/s | -49.3°C | 0.1% | 20hPa | 2.6V | 18:12:15 | 02:06:41 | 00:00:00 | |
| AA1-15 | 2026-09-02 00:26:02 | 53.99799 | 14.42531 | 64° | 20km/h | 26923m | 4m/s | -49.5°C | 0.1% | 20.2hPa | 2.5V | 18:12:15 | 02:06:30 | 00:00:00 | |
| AA1-15 | 2026-09-02 00:25:51 | 53.99777 | 14.42500 | 88° | 13km/h | 26864m | 5.7m/s | -49.6°C | 0.1% | 20.4hPa | 2.5V | 18:12:15 | 02:06:19 | 00:00:00 | |
| SP3WXH-11 | 2026-09-02 00:25:50 | 53.99777 | 14.42495 | 94° | 9km/h | 26858m | 4.9m/s | -49.6°C | 0.8% | 20.4hPa | 2.5V | 00:00:00 | 00:00:00 | 00:00:00 | |
| AA1-15 | 2026-09-02 00:25:40 | 53.99767 | 14.42514 | 338° | 7km/h | 26802m | 4.6m/s | -50°C | 0.2% | 20.6hPa | 2.5V | 18:12:15 | 02:06:08 | 00:00:00 | |
| AA1-15 | 2026-09-02 00:25:30 | 53.99764 | 14.42533 | 226° | 9km/h | 26744m | 4.3m/s | -49.9°C | 0.1% | 20.8hPa | 2.5V | 18:12:15 | 02:05:57 | 00:00:00 | |
| AA1-15 | 2026-09-02 00:25:19 | 53.99783 | 14.42547 | 252° | 7km/h | 26687m | 5m/s | -49.9°C | 0.1% | 20.9hPa | 2.5V | 18:12:15 | 02:05:46 | 00:00:00 | |
| AA1-15 | 2026-09-02 00:25:08 | 53.99806 | 14.42507 | 156° | 13km/h | 26629m | 6.5m/s | -50°C | 0.2% | 21.2hPa | 2.5V | 18:12:15 | 02:05:35 | 00:00:00 | |
| AA1-15 | 2026-09-02 00:24:57 | 53.99841 | 14.42490 | 135° | 18km/h | 26569m | 6m/s | -50.2°C | 0.2% | 21.4hPa | 2.5V | 18:12:15 | 02:05:24 | 00:00:00 | |
| AA1-15 | 2026-09-02 00:24:46 | 53.99869 | 14.42473 | 149° | 9km/h | 26513m | 5.7m/s | -50.2°C | 0.1% | 21.5hPa | 2.5V | 18:12:15 | 02:05:13 | 00:00:00 | |
| AA1-15 | 2026-09-02 00:24:35 | 53.99904 | 14.42460 | 200° | 11km/h | 26454m | 5.6m/s | -50.2°C | 0.2% | 21.7hPa | 2.5V | 18:12:15 | 02:05:02 | 00:00:00 | |
| AA1-15 | 2026-09-02 00:24:24 | 53.99930 | 14.42470 | 158° | 13km/h | 26403m | 6.3m/s | -50.4°C | 0.2% | 21.9hPa | 2.5V | 18:12:15 | 02:04:52 | 00:00:00 | |
| AA1-15 | 2026-09-02 00:24:14 | 53.99954 | 14.42467 | 189° | 13km/h | 26348m | 5.3m/s | -50.7°C | 0.3% | 22.1hPa | 2.5V | 18:12:15 | 02:04:42 | 00:00:00 | |
| AA1-15 | 2026-09-02 00:24:04 | 53.99986 | 14.42485 | 222° | 13km/h | 26296m | 4.5m/s | -50.6°C | 0.2% | 22.3hPa | 2.5V | 18:12:15 | 02:04:32 | 00:00:00 | |
| AA1-15 | 2026-09-02 00:23:54 | 54.00034 | 14.42482 | 172° | 18km/h | 26237m | 5.7m/s | -50.6°C | 0.2% | 22.4hPa | 2.5V | 18:12:15 | 02:04:21 | 00:00:00 | |
| SP3WXH-11 | 2026-09-02 00:23:46 | 54.00060 | 14.42479 | 148° | 20km/h | 26200m | 4.8m/s | -50.7°C | 0.8% | 22.6hPa | 2.5V | 00:00:00 | 00:00:00 | 00:00:00 | |
| AA1-15 | 2026-09-02 00:23:43 | 54.00075 | 14.42455 | 132° | 20km/h | 26180m | 4.8m/s | -50.6°C | 0.3% | 22.6hPa | 2.5V | 18:12:15 | 02:04:10 | 00:00:00 | |
| AA1-15 | 2026-09-02 00:23:32 | 54.00115 | 14.42412 | 150° | 24km/h | 26126m | 4.3m/s | -50.4°C | 0.2% | 22.8hPa | 2.5V | 18:12:15 | 02:04:00 | 00:00:00 | |
| AA1-15 | 2026-09-02 00:23:21 | 54.00144 | 14.42361 | 145° | 11km/h | 26066m | 5.3m/s | -50.2°C | 0.2% | 23.1hPa | 2.6V | 18:12:15 | 02:03:49 | 00:00:00 | |
| AA1-15 | 2026-09-02 00:23:11 | 54.00173 | 14.42330 | 77° | 11km/h | 26004m | 6.1m/s | -50.1°C | 0.2% | 23.2hPa | 2.5V | 18:12:15 | 02:03:38 | 00:00:00 | |
| AA1-15 | 2026-09-02 00:23:01 | 54.00191 | 14.42303 | 144° | 9km/h | 25958m | 4.9m/s | -49.9°C | 0.2% | 23.4hPa | 2.6V | 18:12:15 | 02:03:29 | 00:00:00 | |
| AA1-15 | 2026-09-02 00:22:50 | 54.00195 | 14.42298 | 190° | 13km/h | 25899m | 4.9m/s | -49.9°C | 0.1% | 23.6hPa | 2.5V | 18:12:15 | 02:03:18 | 00:00:00 | |
| SP3WXH-11 | 2026-09-02 00:22:44 | 54.00203 | 14.42309 | 251° | 5km/h | 25867m | 6.3m/s | -50.0°C | 0.8% | 23.7hPa | 2.6V | 00:00:00 | 00:00:00 | 00:00:00 | |
| AA1-15 | 2026-09-02 00:22:40 | 54.00201 | 14.42318 | 343° | 7km/h | 25844m | 5.7m/s | -50°C | 0.2% | 23.8hPa | 2.6V | 18:12:15 | 02:03:08 | 00:00:00 | |
| AA1-15 | 2026-09-02 00:22:29 | 54.00201 | 14.42314 | 99° | 2km/h | 25782m | 4.9m/s | -49.9°C | 0.1% | 24.1hPa | 2.5V | 18:12:15 | 02:02:57 | 00:00:00 | |
| AA1-15 | 2026-09-02 00:22:18 | 54.00192 | 14.42312 | 318° | 5km/h | 25726m | 4.4m/s | -49.9°C | 0.1% | 24.3hPa | 2.5V | 18:12:15 | 02:02:46 | 00:00:00 | |
| AA1-15 | 2026-09-02 00:22:07 | 54.00194 | 14.42318 | 197° | 0km/h | 25665m | 4m/s | -50°C | 0.1% | 24.5hPa | 2.6V | 18:12:15 | 02:02:35 | 00:00:00 | |
| AA1-15 | 2026-09-02 00:21:57 | 54.00195 | 14.42349 | 271° | 11km/h | 25607m | 5.7m/s | -50.1°C | 0.2% | 24.7hPa | 2.5V | 18:12:15 | 02:02:24 | 00:00:00 | |
| AA1-15 | 2026-09-02 00:21:45 | 54.00202 | 14.42406 | 241° | 13km/h | 25547m | 5.3m/s | -50.2°C | 0.2% | 24.9hPa | 2.6V | 18:12:15 | 02:02:13 | 00:00:00 | |
| AA1-15 | 2026-09-02 00:21:35 | 54.00229 | 14.42472 | 227° | 18km/h | 25494m | 6.2m/s | -50.2°C | 0.2% | 25.1hPa | 2.5V | 18:12:15 | 02:02:03 | 00:00:00 | |
| AA1-15 | 2026-09-02 00:21:25 | 54.00273 | 14.42518 | 219° | 27km/h | 25443m | 4.2m/s | -50.1°C | 0.2% | 25.3hPa | 2.6V | 18:12:15 | 02:01:53 | 00:00:00 | |
| AA1-15 | 2026-09-02 00:21:14 | 54.00333 | 14.42541 | 201° | 24km/h | 25384m | 4.9m/s | -49.7°C | 0.2% | 25.5hPa | 2.6V | 18:12:15 | 02:01:42 | 00:00:00 | |
| AA1-15 | 2026-09-02 00:21:05 | 54.00395 | 14.42555 | 167° | 29km/h | 25330m | 4.6m/s | -49.6°C | 0.1% | 25.8hPa | 2.6V | 18:12:15 | 02:01:32 | 00:00:00 | |
| AA1-15 | 2026-09-02 00:20:54 | 54.00455 | 14.42569 | 180° | 15km/h | 25280m | 4.7m/s | -49.9°C | 0.2% | 26hPa | 2.5V | 18:12:15 | 02:01:22 | 00:00:00 | |
| AA1-15 | 2026-09-02 00:20:43 | 54.00518 | 14.42531 | 163° | 26km/h | 25222m | 5m/s | -49.9°C | 0.2% | 26.2hPa | 2.5V | 18:12:15 | 02:01:11 | 00:00:00 | |
| AA1-15 | 2026-09-02 00:20:32 | 54.00575 | 14.42445 | 130° | 29km/h | 25163m | 4.7m/s | -49.9°C | 0.2% | 26.4hPa | 2.6V | 18:12:15 | 02:01:00 | 00:00:00 | |
| AA1-15 | 2026-09-02 00:20:21 | 54.00617 | 14.42370 | 117° | 31km/h | 25106m | 4.7m/s | -50°C | 0.2% | 26.7hPa | 2.5V | 18:12:15 | 02:00:49 | 00:00:00 | |
| AA1-15 | 2026-09-02 00:20:10 | 54.00657 | 14.42265 | 101° | 18km/h | 25047m | 5.3m/s | -50.4°C | 0.3% | 26.9hPa | 2.5V | 18:12:15 | 02:00:38 | 00:00:00 | |
| AA1-15 | 2026-09-02 00:19:59 | 54.00668 | 14.42149 | 103° | 24km/h | 24989m | 5.5m/s | -50.8°C | 0.3% | 27.1hPa | 2.6V | 18:12:15 | 02:00:27 | 00:00:00 | |
| AA1-15 | 2026-09-02 00:19:48 | 54.00669 | 14.42038 | 88° | 18km/h | 24933m | 6m/s | -50.9°C | 0.3% | 27.4hPa | 2.5V | 18:12:15 | 02:00:16 | 00:00:00 | |
| AA1-15 | 2026-09-02 00:19:37 | 54.00661 | 14.41969 | 82° | 15km/h | 24874m | 4.2m/s | -50.9°C | 0.3% | 27.6hPa | 2.5V | 18:12:15 | 02:00:05 | 00:00:00 | |
| AA1-15 | 2026-09-02 00:19:27 | 54.00665 | 14.41931 | 150° | 4km/h | 24822m | 5.1m/s | -50.9°C | 0.3% | 27.8hPa | 2.6V | 18:12:15 | 01:59:55 | 00:00:00 | |
| AA1-15 | 2026-09-02 00:19:16 | 54.00690 | 14.41913 | 148° | 7km/h | 24766m | 4.6m/s | -50.8°C | 0.3% | 28.1hPa | 2.5V | 18:12:15 | 01:59:44 | 00:00:00 | |
| AA1-15 | 2026-09-02 00:19:05 | 54.00739 | 14.41907 | 167° | 29km/h | 24708m | 5.8m/s | -51°C | 0.2% | 28.3hPa | 2.5V | 18:12:15 | 01:59:33 | 00:00:00 | |
| AA1-15 | 2026-09-02 00:18:55 | 54.00793 | 14.41871 | 159° | 20km/h | 24656m | 5.3m/s | -51.2°C | 0.3% | 28.6hPa | 2.5V | 18:12:15 | 01:59:23 | 00:00:00 | |
| AA1-15 | 2026-09-02 00:18:44 | 54.00835 | 14.41830 | 130° | 18km/h | 24598m | 4.8m/s | -51.3°C | 0.3% | 28.8hPa | 2.5V | 18:12:15 | 01:59:12 | 00:00:00 | |
| DO2SHX-10 | 2026-09-02 00:18:44 | 54.00835 | 14.41830 | 131° | 18km/h | 24598m | 4.8m/s | -51.3°C | 3.5% | 28.8hPa | 2.5V | 00:00:00 | 01:59:12 | 00:00:00 | |
| DO2SHX-10 | 2026-09-02 00:18:41 | 54.00844 | 14.41815 | 146° | 15km/h | 24582m | 4.1m/s | -51.3°C | 3.5% | 28.8hPa | 2.5V | 00:00:00 | 01:59:09 | 00:00:00 | |
| DO2SHX-10 | 2026-09-02 00:18:38 | 54.00851 | 14.41804 | 123° | 11km/h | 24567m | 5.2m/s | -51.2°C | 3.5% | 28.9hPa | 2.5V | 00:00:00 | 01:59:06 | 08:30:00 | |
| AA1-15 | 2026-09-02 00:18:19 | 54.00898 | 14.41685 | 135° | 24km/h | 24471m | 5.1m/s | -51.1°C | 0.2% | 29.4hPa | 2.6V | 18:12:15 | 01:58:47 | 00:00:00 | |
| DO2SHX-10 | 2026-09-02 00:18:19 | 54.00898 | 14.41685 | 135° | 24km/h | 24472m | 5.1m/s | -51.0°C | 3.4% | 29.3hPa | 2.6V | 00:00:00 | 01:58:47 | 00:00:00 | |
| DO2SHX-10 | 2026-09-02 00:18:16 | 54.00907 | 14.41662 | 115° | 16km/h | 24456m | 4.9m/s | -51.0°C | 3.4% | 29.4hPa | 2.5V | 00:00:00 | 01:58:44 | 00:00:00 | |
| DO2SHX-10 | 2026-09-02 00:18:13 | 54.00911 | 14.41645 | 107° | 13km/h | 24442m | 4.4m/s | -51.1°C | 3.4% | 29.5hPa | 2.5V | 00:00:00 | 01:58:41 | 00:00:00 | |
| DO2SHX-10 | 2026-09-02 00:18:10 | 54.00912 | 14.41629 | 110° | 15km/h | 24426m | 4.6m/s | -51.0°C | 3.5% | 29.5hPa | 2.5V | 00:00:00 | 01:58:38 | 08:30:00 | |
| DO2SHX-10 | 2026-09-02 00:18:07 | 54.00918 | 14.41614 | 138° | 18km/h | 24411m | 3.9m/s | -51.1°C | 3.5% | 29.6hPa | 2.5V | 00:00:00 | 01:58:35 | 00:00:00 | |
| SP3WXH-11 | 2026-09-02 00:18:05 | 54.00924 | 14.41603 | 125° | 20km/h | 24403m | 5.6m/s | -51.2°C | 0.8% | 29.7hPa | 2.5V | 00:00:00 | 00:00:00 | 00:00:00 | |
| DO2SHX-10 | 2026-09-02 00:18:04 | 54.00927 | 14.41595 | 119° | 24km/h | 24397m | 5.3m/s | -51.1°C | 3.5% | 29.7hPa | 2.5V | 00:00:00 | 01:58:32 | 00:00:00 | |
| DK1YY | 2026-09-02 00:17:53 | 54.00942 | 14.41521 | 131° | 16km/h | 24337m | 5.0m/s | -51.3°C | 0.9% | 30.0hPa | 2.5V | 00:00:00 | 00:00:00 | 00:00:00 | |
| DO2SHX-10 | 2026-09-02 00:17:52 | 54.00942 | 14.41521 | 132° | 20km/h | 24337m | 5.0m/s | -51.2°C | 3.5% | 30.0hPa | 2.5V | 00:00:00 | 01:58:20 | 00:00:00 | |
| MECKS9 | 2026-09-02 00:17:49 | 54.00949 | 14.41497 | 109° | 24km/h | 24322m | 4.8m/s | -51.3°C | 0.9% | 30.1hPa | 2.6V | 00:00:00 | 00:00:00 | 00:00:00 | |
| DO2SHX-10 | 2026-09-02 00:17:46 | 54.00953 | 14.41473 | 107° | 16km/h | 24307m | 4.9m/s | -51.2°C | 3.5% | 30.1hPa | 2.6V | 00:00:00 | 01:58:14 | 00:00:00 | |
| DO2SHX-10 | 2026-09-02 00:17:43 | 54.00954 | 14.41452 | 90° | 13km/h | 24290m | 4.2m/s | -51.2°C | 3.5% | 30.2hPa | 2.6V | 00:00:00 | 01:58:11 | 08:30:00 | |
| DO2SHX-10 | 2026-09-02 00:17:40 | 54.00956 | 14.41436 | 124° | 13km/h | 24275m | 4.9m/s | -51.3°C | 3.5% | 30.2hPa | 2.5V | 00:00:00 | 01:58:08 | 00:00:00 | |
| DO2SHX-10 | 2026-09-02 00:17:37 | 54.00961 | 14.41421 | 109° | 18km/h | 24258m | 5.0m/s | -51.3°C | 3.5% | 30.3hPa | 2.5V | 00:00:00 | 01:58:05 | 00:00:00 | |
| DO2SHX-10 | 2026-09-02 00:17:34 | 54.00967 | 14.41400 | 114° | 18km/h | 24243m | 5.6m/s | -51.3°C | 3.4% | 30.4hPa | 2.5V | 00:00:00 | 01:58:02 | 00:00:00 | |
| DO2SHX-10 | 2026-09-02 00:17:31 | 54.00972 | 14.41380 | 109° | 20km/h | 24228m | 6.1m/s | -51.3°C | 3.4% | 30.4hPa | 2.6V | 00:00:00 | 01:57:59 | 00:00:00 | |
| DO2SHX-10 | 2026-09-02 00:17:28 | 54.00973 | 14.41356 | 91° | 13km/h | 24213m | 5.7m/s | -51.3°C | 3.5% | 30.5hPa | 2.6V | 00:00:00 | 01:57:56 | 00:00:00 | |
| AA1-15 | 2026-09-02 00:17:09 | 54.00973 | 14.41201 | 99° | 26km/h | 24120m | 4.6m/s | -51.7°C | 0.3% | 31hPa | 2.6V | 18:12:15 | 01:57:37 | 00:00:00 | |
| DO2SHX-10 | 2026-09-02 00:17:07 | 54.00976 | 14.41179 | 105° | 27km/h | 24109m | 5.5m/s | -51.7°C | 3.6% | 31.0hPa | 2.5V | 00:00:00 | 01:57:35 | 00:00:00 | |
| DO2SHX-10 | 2026-09-02 00:17:04 | 54.00980 | 14.41145 | 92° | 27km/h | 24095m | 5.7m/s | -51.7°C | 3.5% | 31.1hPa | 2.5V | 00:00:00 | 01:57:32 | 00:00:00 | |
| SP3WXH-11 | 2026-09-02 00:17:03 | 54.00979 | 14.41122 | 76° | 26km/h | 24086m | 4.7m/s | -51.8°C | 0.9% | 31.2hPa | 2.5V | 00:00:00 | 00:00:00 | 00:00:00 | |
| MECKS9 | 2026-09-02 00:17:01 | 54.00978 | 14.41122 | 77° | 26km/h | 24086m | 4.7m/s | -51.8°C | 0.9% | 31.2hPa | 2.5V | 00:00:00 | 00:00:00 | 00:00:00 | |
| DK1YY | 2026-09-02 00:16:51 | 54.00962 | 14.41018 | 83° | 27km/h | 24022m | 5.4m/s | -52.0°C | 0.9% | 31.5hPa | 2.5V | 00:00:00 | 00:00:00 | 00:00:00 | |
| S3001 | 2026-09-02 00:16:50 | 54.00958 | 14.40994 | 72° | 27km/h | 24013m | 5.1m/s | -51.9°C | 0.9% | 31.5hPa | 2.5V | 00:00:00 | 00:00:00 | 00:00:00 | |
| DO2SHX-10 | 2026-09-02 00:16:49 | 54.00960 | 14.41005 | 76° | 27km/h | 24018m | 4.3m/s | -51.9°C | 3.6% | 31.5hPa | 2.5V | 00:00:00 | 01:57:17 | 08:30:00 | |
| AA1-15 | 2026-09-02 00:16:29 | 54.00935 | 14.40822 | 77° | 20km/h | 23910m | 6m/s | -52.2°C | 0.4% | 32hPa | 2.5V | 18:12:15 | 01:56:57 | 00:00:00 | |
| DO2SHX-10 | 2026-09-02 00:16:28 | 54.00934 | 14.40812 | 80° | 24km/h | 23904m | 5.0m/s | -52.2°C | 3.6% | 32.0hPa | 2.5V | 00:00:00 | 01:56:56 | 00:00:00 | |
| DO2SHX-10 | 2026-09-02 00:16:25 | 54.00931 | 14.40783 | 85° | 22km/h | 23889m | 4.9m/s | -52.2°C | 3.7% | 32.1hPa | 2.5V | 00:00:00 | 01:56:53 | 00:00:00 | |
| DO2SHX-10 | 2026-09-02 00:16:22 | 54.00929 | 14.40754 | 82° | 20km/h | 23873m | 5.0m/s | -52.2°C | 3.7% | 32.1hPa | 2.5V | 00:00:00 | 01:56:50 | 08:30:00 | |
| DK1YY | 2026-09-02 00:16:20 | 54.00924 | 14.40731 | 59° | 13km/h | 23856m | 5.9m/s | -52.2°C | 0.9% | 32.3hPa | 2.5V | 00:00:00 | 00:00:00 | 00:00:00 | |
| S3001 | 2026-09-02 00:16:19 | 54.00922 | 14.40726 | 48° | 13km/h | 23851m | 4.8m/s | -52.3°C | 0.9% | 32.3hPa | 2.5V | 00:00:00 | 00:00:00 | 00:00:00 | |
| DO2SHX-10 | 2026-09-02 00:16:16 | 54.00917 | 14.40716 | 52° | 18km/h | 23840m | 5.5m/s | -52.2°C | 3.7% | 32.3hPa | 2.5V | 00:00:00 | 01:56:44 | 00:00:00 | |
| DO2SHX-10 | 2026-09-02 00:16:13 | 54.00909 | 14.40698 | 54° | 18km/h | 23824m | 5.7m/s | -52.2°C | 3.7% | 32.4hPa | 2.5V | 00:00:00 | 01:56:41 | 00:00:00 | |
| DO2SHX-10 | 2026-09-02 00:16:10 | 54.00902 | 14.40678 | 66° | 22km/h | 23808m | 5.8m/s | -52.1°C | 3.7% | 32.5hPa | 2.6V | 00:00:00 | 01:56:38 | 00:00:00 | |
| DO2SHX-10 | 2026-09-02 00:16:07 | 54.00894 | 14.40655 | 42° | 16km/h | 23793m | 6.0m/s | -52.1°C | 3.7% | 32.6hPa | 2.6V | 00:00:00 | 01:56:35 | 00:00:00 | |
| DO2SHX-10 | 2026-09-02 00:16:04 | 54.00885 | 14.40644 | 25° | 9km/h | 23778m | 5.9m/s | -52.0°C | 3.7% | 32.6hPa | 2.6V | 00:00:00 | 01:56:32 | 00:00:00 | |
| SP3WXH-11 | 2026-09-02 00:16:01 | 54.00878 | 14.40637 | 19° | 4km/h | 23756m | 5.8m/s | -52.0°C | 0.9% | 32.8hPa | 2.5V | 00:00:00 | 00:00:00 | 00:00:00 | |
| DK1YY | 2026-09-02 00:15:48 | 54.00853 | 14.40601 | 357° | 4km/h | 23700m | 5.0m/s | -52.0°C | 0.9% | 33.1hPa | 2.5V | 00:00:00 | 00:00:00 | 00:00:00 | |
| S3001 | 2026-09-02 00:15:47 | 54.00852 | 14.40601 | 3° | 5km/h | 23695m | 5.1m/s | -52.1°C | 0.9% | 33.1hPa | 2.5V | 00:00:00 | 00:00:00 | 00:00:00 | |
| DO2SHX-10 | 2026-09-02 00:15:46 | 54.00850 | 14.40600 | 15° | 18km/h | 23690m | 5.4m/s | -52.0°C | 3.6% | 33.1hPa | 2.5V | 00:00:00 | 01:56:14 | 00:00:00 | |
| MECKS9 | 2026-09-02 00:15:41 | 54.00846 | 14.40582 | 99° | 15km/h | 23664m | 4.8m/s | -52.1°C | 0.9% | 33.3hPa | 2.5V | 00:00:00 | 00:00:00 | 00:00:00 | |
| AA1-15 | 2026-09-02 00:15:15 | 54.00828 | 14.40507 | 94° | 15km/h | 23532m | 5m/s | -52.1°C | 0.4% | 34hPa | 2.5V | 18:12:15 | 01:55:43 | 00:00:00 | |
| AA1-15 | 2026-09-02 00:15:04 | 54.00819 | 14.40436 | 45° | 13km/h | 23474m | 4.8m/s | -52.1°C | 0.4% | 34.3hPa | 2.5V | 18:12:15 | 01:55:32 | 00:00:00 | |
| AA1-15 | 2026-09-02 00:14:48 | 54.00788 | 14.40325 | 32° | 18km/h | 23392m | 5.7m/s | -52.2°C | 0.4% | 34.7hPa | 2.6V | 18:12:15 | 01:55:16 | 00:00:00 | |
| DK1YY | 2026-09-02 00:14:46 | 54.00781 | 14.40314 | 50° | 18km/h | 23382m | 4.2m/s | -52.2°C | 0.9% | 34.8hPa | 2.5V | 00:00:00 | 00:00:00 | 00:00:00 | |
| S3001 | 2026-09-02 00:14:45 | 54.00778 | 14.40308 | 54° | 16km/h | 23378m | 4.3m/s | -52.2°C | 0.9% | 34.8hPa | 2.5V | 00:00:00 | 00:00:00 | 00:00:00 | |
| AA1-15 | 2026-09-02 00:14:37 | 54.00758 | 14.40266 | 35° | 16km/h | 23337m | 5.9m/s | -52.3°C | 0.4% | 35hPa | 2.5V | 18:12:15 | 01:55:05 | 00:00:00 | |
| AA1-15 | 2026-09-02 00:14:27 | 54.00726 | 14.40241 | 52° | 15km/h | 23286m | 5.9m/s | -52.5°C | 0.4% | 35.3hPa | 2.5V | 18:12:15 | 01:54:55 | 00:00:00 | |
| AA1-15 | 2026-09-02 00:14:12 | 54.00685 | 14.40207 | 60° | 13km/h | 23204m | 4.6m/s | -52.7°C | 0.5% | 35.7hPa | 2.5V | 18:12:15 | 01:54:40 | 00:00:00 | |
| AA1-15 | 2026-09-02 00:14:02 | 54.00662 | 14.40198 | 350° | 9km/h | 23154m | 4.2m/s | -52.4°C | 0.5% | 36hPa | 2.5V | 18:12:15 | 01:54:30 | 00:00:00 | |
| AA1-15 | 2026-09-02 00:13:52 | 54.00644 | 14.40179 | 359° | 9km/h | 23099m | 5.4m/s | -52.4°C | 0.4% | 36.3hPa | 2.6V | 18:12:15 | 01:54:19 | 00:00:00 | |
| DK1YY | 2026-09-02 00:13:44 | 54.00637 | 14.40173 | 114° | 4km/h | 23063m | 5.7m/s | -52.3°C | 1.0% | 36.5hPa | 2.6V | 00:00:00 | 00:00:00 | 00:00:00 | |
| AA1-15 | 2026-09-02 00:13:40 | 54.00634 | 14.40162 | 58° | 9km/h | 23039m | 3.9m/s | -52.2°C | 0.5% | 36.7hPa | 2.6V | 18:12:15 | 01:54:07 | 00:00:00 | |
| AA1-15 | 2026-09-02 00:13:30 | 54.00632 | 14.40158 | 225° | 2km/h | 22992m | 4.3m/s | -52°C | 0.4% | 36.9hPa | 2.5V | 18:12:15 | 01:53:58 | 00:00:00 | |
| AA1-15 | 2026-09-02 00:13:19 | 54.00628 | 14.40160 | 141° | 4km/h | 22936m | 5.1m/s | -51.8°C | 0.5% | 37.2hPa | 2.5V | 18:12:15 | 01:53:47 | 00:00:00 | |
| AA1-15 | 2026-09-02 00:13:09 | 54.00637 | 14.40155 | 356° | 7km/h | 22884m | 6.3m/s | -51.8°C | 0.4% | 37.5hPa | 2.5V | 18:12:15 | 01:53:37 | 00:00:00 | |
| AA1-15 | 2026-09-02 00:12:58 | 54.00641 | 14.40134 | 159° | 5km/h | 22828m | 4.3m/s | -51.7°C | 0.4% | 37.8hPa | 2.5V | 18:12:15 | 01:53:26 | 00:00:00 | |
| AA1-15 | 2026-09-02 00:12:48 | 54.00643 | 14.40112 | 106° | 11km/h | 22777m | 4.9m/s | -51.6°C | 0.3% | 38.1hPa | 2.5V | 18:12:15 | 01:53:16 | 00:00:00 | |
| AA1-15 | 2026-09-02 00:12:37 | 54.00652 | 14.40081 | 124° | 9km/h | 22721m | 5.4m/s | -51.8°C | 0.4% | 38.5hPa | 2.6V | 18:12:15 | 01:53:05 | 00:00:00 | |
| AA1-15 | 2026-09-02 00:12:27 | 54.00658 | 14.40058 | 34° | 2km/h | 22665m | 6.2m/s | -52°C | 0.4% | 38.8hPa | 2.6V | 18:12:15 | 01:52:54 | 00:00:00 | |
| AA1-15 | 2026-09-02 00:12:15 | 54.00647 | 14.40064 | 84° | 7km/h | 22610m | 4.6m/s | -51.9°C | 0.4% | 39.1hPa | 2.5V | 18:12:15 | 01:52:43 | 00:00:00 | |
| AA1-15 | 2026-09-02 00:12:05 | 54.00638 | 14.40029 | 48° | 7km/h | 22559m | 5.6m/s | -51.8°C | 0.4% | 39.5hPa | 2.5V | 18:12:15 | 01:52:33 | 00:00:00 | |
| AA1-15 | 2026-09-02 00:11:54 | 54.00618 | 14.39989 | 33° | 11km/h | 22504m | 5.1m/s | -51.9°C | 0.4% | 39.8hPa | 2.5V | 18:12:15 | 01:52:22 | 00:00:00 | |
| SP3WXH-11 | 2026-09-02 00:11:53 | 54.00613 | 14.39985 | 26° | 11km/h | 22494m | 5.9m/s | -51.9°C | 0.9% | 39.8hPa | 2.6V | 00:00:00 | 00:00:00 | 00:00:00 | |
| AA1-15 | 2026-09-02 00:11:43 | 54.00580 | 14.39967 | 8° | 20km/h | 22450m | 3.6m/s | -51.8°C | 0.4% | 40.1hPa | 2.6V | 18:12:15 | 01:52:11 | 00:00:00 | |
| AA1-15 | 2026-09-02 00:11:33 | 54.00560 | 14.39965 | 317° | 4km/h | 22403m | 4.1m/s | -51.5°C | 0.4% | 40.4hPa | 2.5V | 18:12:15 | 01:52:01 | 00:00:00 | |
| AA1-15 | 2026-09-02 00:11:22 | 54.00534 | 14.39988 | 302° | 7km/h | 22349m | 5.9m/s | -51.5°C | 0.4% | 40.7hPa | 2.5V | 18:12:15 | 01:51:50 | 00:00:00 | |
| AA1-15 | 2026-09-02 00:11:11 | 54.00516 | 14.40030 | 310° | 11km/h | 22295m | 5.3m/s | -51.4°C | 0.4% | 41.1hPa | 2.5V | 18:12:15 | 01:51:39 | 00:00:00 | |
| AA1-15 | 2026-09-02 00:11:00 | 54.00526 | 14.40069 | 221° | 13km/h | 22238m | 4.7m/s | -51.1°C | 0.3% | 41.4hPa | 2.5V | 18:12:15 | 01:51:28 | 00:00:00 | |
| AA1-15 | 2026-09-02 00:10:49 | 54.00542 | 14.40104 | 233° | 13km/h | 22180m | 5.9m/s | -51.3°C | 0.4% | 41.8hPa | 2.6V | 18:12:15 | 01:51:17 | 00:00:00 | |
| AA1-15 | 2026-09-02 00:10:38 | 54.00572 | 14.40122 | 177° | 15km/h | 22124m | 5.1m/s | -51.6°C | 0.4% | 42.2hPa | 2.6V | 18:12:15 | 01:51:06 | 00:00:00 | |
| AA1-15 | 2026-09-02 00:10:27 | 54.00608 | 14.40107 | 144° | 16km/h | 22070m | 3.9m/s | -51.3°C | 0.4% | 42.5hPa | 2.5V | 18:12:15 | 01:50:55 | 00:00:00 | |
| AA1-15 | 2026-09-02 00:10:17 | 54.00641 | 14.40072 | 137° | 13km/h | 22021m | 5m/s | -51.3°C | 0.4% | 42.8hPa | 2.5V | 18:12:15 | 01:50:45 | 00:00:00 | |
| AA1-15 | 2026-09-02 00:10:06 | 54.00679 | 14.40037 | 157° | 16km/h | 21966m | 5.4m/s | -51.2°C | 0.4% | 43.2hPa | 2.5V | 18:12:15 | 01:50:34 | 00:00:00 | |
| AA1-15 | 2026-09-02 00:09:56 | 54.00709 | 14.39998 | 163° | 13km/h | 21916m | 5.2m/s | -51.3°C | 0.3% | 43.5hPa | 2.5V | 18:12:15 | 01:50:24 | 00:00:00 | |
| AA1-15 | 2026-09-02 00:09:45 | 54.00734 | 14.39937 | 101° | 20km/h | 21862m | 4.9m/s | -51.2°C | 0.3% | 43.9hPa | 2.6V | 18:12:15 | 01:50:13 | 00:00:00 | |
| AA1-15 | 2026-09-02 00:09:34 | 54.00748 | 14.39860 | 93° | 26km/h | 21806m | 5.2m/s | -51.5°C | 0.4% | 44.3hPa | 2.6V | 18:12:15 | 01:50:02 | 00:00:00 | |
| AA1-15 | 2026-09-02 00:09:24 | 54.00752 | 14.39750 | 105° | 20km/h | 21753m | 3.9m/s | -51.7°C | 0.4% | 44.6hPa | 2.5V | 18:12:15 | 01:49:51 | 00:00:00 | |
| AA1-15 | 2026-09-02 00:09:12 | 54.00747 | 14.39649 | 62° | 16km/h | 21699m | 5.1m/s | -51.8°C | 0.4% | 45hPa | 2.5V | 18:12:15 | 01:49:40 | 00:00:00 | |
| AA1-15 | 2026-09-02 00:09:01 | 54.00745 | 14.39571 | 72° | 20km/h | 21648m | 4.4m/s | -51.9°C | 0.4% | 45.3hPa | 2.5V | 18:12:15 | 01:49:29 | 00:00:00 | |
| AA1-15 | 2026-09-02 00:08:51 | 54.00717 | 14.39514 | 68° | 18km/h | 21603m | 5.5m/s | -52.1°C | 0.4% | 45.7hPa | 2.5V | 18:12:15 | 01:49:19 | 00:00:00 | |
| SP3WXH-11 | 2026-09-02 00:08:46 | 54.00703 | 14.39477 | 30° | 18km/h | 21578m | 4.6m/s | -52.2°C | 1.0% | 45.9hPa | 2.6V | 00:00:00 | 00:00:00 | 00:00:00 | |
| AA1-15 | 2026-09-02 00:08:40 | 54.00682 | 14.39464 | 22° | 16km/h | 21549m | 4.6m/s | -52.2°C | 0.4% | 46.1hPa | 2.6V | 18:12:15 | 01:49:08 | 00:00:00 | |
| DK1YY | 2026-09-02 00:08:34 | 54.00665 | 14.39427 | 66° | 16km/h | 21521m | 5.6m/s | 0°C | -1.0% | -1.0hPa | 2.5V | 00:00:00 | 00:00:00 | 00:00:00 | |
| S3001 | 2026-09-02 00:08:33 | 54.00663 | 14.39421 | 58° | 15km/h | 21516m | 4.1m/s | -52.3°C | 1.0% | 46.3hPa | 2.5V | 00:00:00 | 00:00:00 | 00:00:00 | |
| DG6HD-11 | 2026-09-02 00:08:31 | 54.00660 | 14.39411 | 61° | 22km/h | 21508m | 5.5m/s | -52.4°C | 3.6% | 46.3hPa | 2.5V | 00:00:00 | 00:00:00 | 00:00:00 | |
| MECKS9 | 2026-09-02 00:08:29 | 54.00659 | 14.39407 | 64° | 11km/h | 21503m | 5.4m/s | -52.5°C | 1.0% | 46.4hPa | 2.5V | 00:00:00 | 00:00:00 | 00:00:00 | |
| SP3WXH-11 | 2026-09-02 00:08:15 | 54.00638 | 14.39277 | 76° | 18km/h | 21434m | 4.4m/s | -52.7°C | 1.0% | 46.9hPa | 2.5V | 00:00:00 | 00:00:00 | 00:00:00 | |
| S3001 | 2026-09-02 00:08:02 | 54.00613 | 14.39172 | 65° | 15km/h | 21372m | 4.4m/s | -52.5°C | 1.0% | 47.3hPa | 2.5V | 00:00:00 | 00:00:00 | 00:00:00 | |
| SP3WXH-11 | 2026-09-02 00:07:44 | 54.00575 | 14.39102 | 30° | 7km/h | 21289m | 4.2m/s | -52.3°C | 1.0% | 47.9hPa | 2.5V | 00:00:00 | 00:00:00 | 00:00:00 | |
| MECKS9 | 2026-09-02 00:07:40 | 54.00568 | 14.39094 | 34° | 15km/h | 21275m | 4.5m/s | -52.3°C | 1.0% | 48.0hPa | 2.5V | 00:00:00 | 00:00:00 | 00:00:00 | |
| AA1-15 | 2026-09-02 00:07:23 | 54.00534 | 14.39081 | 48° | 4km/h | 21186m | 3.6m/s | -51.9°C | 0.4% | 48.7hPa | 2.5V | 18:12:15 | 01:47:50 | 00:00:00 | |
| AA1-15 | 2026-09-02 00:07:12 | 54.00532 | 14.39057 | 108° | 5km/h | 21140m | 5.1m/s | -52.2°C | 0.4% | 49hPa | 2.6V | 18:12:15 | 01:47:40 | 00:00:00 | |
| AA1-15 | 2026-09-02 00:07:02 | 54.00535 | 14.39026 | 116° | 13km/h | 21086m | 4.9m/s | -52.3°C | 0.4% | 49.5hPa | 2.6V | 18:12:15 | 01:47:29 | 00:00:00 | |
| AA1-15 | 2026-09-02 00:06:51 | 54.00532 | 14.38968 | 66° | 9km/h | 21035m | 4.9m/s | -52.5°C | 0.5% | 49.8hPa | 2.5V | 18:12:15 | 01:47:18 | 00:00:00 | |
| AA1-15 | 2026-09-02 00:06:40 | 54.00532 | 14.38903 | 93° | 16km/h | 20990m | 4.4m/s | -52.3°C | 0.6% | 50.2hPa | 2.5V | 18:12:15 | 01:47:08 | 00:00:00 | |
| AA1-15 | 2026-09-02 00:06:30 | 54.00543 | 14.38821 | 81° | 18km/h | 20944m | 5.5m/s | -52.3°C | 0.4% | 50.5hPa | 2.5V | 18:12:15 | 01:46:58 | 00:00:00 | |
| AA1-15 | 2026-09-02 00:06:19 | 54.00528 | 14.38757 | 78° | 18km/h | 20890m | 4.3m/s | -52.4°C | 0.5% | 50.9hPa | 2.6V | 18:12:15 | 01:46:47 | 00:00:00 | |
| AA1-15 | 2026-09-02 00:06:08 | 54.00506 | 14.38669 | 65° | 22km/h | 20839m | 5.4m/s | -52.4°C | 0.5% | 51.4hPa | 2.6V | 18:12:15 | 01:46:36 | 00:00:00 | |
| AA1-15 | 2026-09-02 00:05:57 | 54.00436 | 14.38533 | 37° | 16km/h | 20733m | 4.8m/s | -52.1°C | 0.5% | 52.2hPa | 2.6V | 18:12:15 | 01:46:14 | 00:00:00 | |
| AA1-15 | 2026-09-02 00:05:40 | 54.00412 | 14.38519 | 19° | 13km/h | 20705m | 3.8m/s | -52°C | 0.4% | 52.5hPa | 2.6V | 18:12:15 | 01:46:08 | 00:00:00 | |
| AA1-15 | 2026-09-02 00:05:30 | 54.00381 | 14.38475 | 22° | 15km/h | 20658m | 5.5m/s | -51.7°C | 0.4% | 52.8hPa | 2.6V | 18:12:15 | 01:45:58 | 00:00:00 | |
| AA1-15 | 2026-09-02 00:05:19 | 54.00349 | 14.38454 | 54° | 13km/h | 20603m | 3.6m/s | -51.6°C | 0.5% | 53.3hPa | 2.5V | 18:12:15 | 01:45:47 | 00:00:00 | |
| AA1-15 | 2026-09-02 00:05:08 | 54.00334 | 14.38413 | 25° | 9km/h | 20551m | 6m/s | -51.3°C | 0.4% | 53.7hPa | 2.5V | 18:12:15 | 01:45:36 | 00:00:00 | |
| AA1-15 | 2026-09-02 00:04:58 | 54.00318 | 14.38377 | 60° | 11km/h | 20496m | 4.1m/s | -51.1°C | 0.3% | 54.1hPa | 2.5V | 18:12:15 | 01:45:25 | 00:00:00 | |
| AA1-15 | 2026-09-02 00:04:46 | 54.00298 | 14.38330 | 64° | 22km/h | 20439m | 5.2m/s | -51.1°C | 0.4% | 54.6hPa | 2.6V | 18:12:15 | 01:45:14 | 00:00:00 | |
| AA1-15 | 2026-09-02 00:04:35 | 54.00280 | 14.38275 | 72° | 15km/h | 20387m | 5.5m/s | -51°C | 0.3% | 55hPa | 2.6V | 18:12:15 | 01:45:03 | 00:00:00 | |
| AA1-15 | 2026-09-02 00:04:25 | 54.00260 | 14.38204 | 38° | 5km/h | 20340m | 4.9m/s | -50.8°C | 0.4% | 55.5hPa | 2.6V | 18:12:15 | 01:44:53 | 00:00:00 | |
| AA1-15 | 2026-09-02 00:04:16 | 54.00253 | 14.38154 | 60° | 13km/h | 20284m | 5.6m/s | -50.5°C | 0.3% | 55.9hPa | 2.5V | 18:12:15 | 01:44:42 | 00:00:00 | |
| AA1-15 | 2026-09-02 00:04:04 | 54.00259 | 14.38138 | 110° | 11km/h | 20236m | 3.8m/s | -50.1°C | 0.3% | 56.4hPa | 2.5V | 18:12:15 | 01:44:32 | 00:00:00 | |
| AA1-15 | 2026-09-02 00:03:54 | 54.00258 | 14.38114 | 158° | 7km/h | 20191m | 3.9m/s | -50°C | 0.2% | 56.7hPa | 2.5V | 18:12:15 | 01:44:22 | 00:00:00 | |
| AA1-15 | 2026-09-02 00:03:44 | 54.00275 | 14.38084 | 114° | 9km/h | 20127m | 5.1m/s | -50.1°C | 0.2% | 57.3hPa | 2.6V | 18:12:15 | 01:44:08 | 00:00:00 | |
| AA1-15 | 2026-09-02 00:03:31 | 54.00304 | 14.38045 | 123° | 16km/h | 20086m | 5.6m/s | -50.4°C | 0.2% | 57.6hPa | 2.6V | 18:12:15 | 01:43:59 | 00:00:00 | |
| AA1-15 | 2026-09-02 00:03:20 | 54.00331 | 14.37950 | 112° | 27km/h | 20034m | 4.4m/s | -50.4°C | 0.3% | 58.1hPa | 2.6V | 18:12:15 | 01:43:48 | 00:00:00 | |
| AA1-15 | 2026-09-02 00:03:10 | 54.00357 | 14.37816 | 106° | 27km/h | 19984m | 4.9m/s | -50.3°C | 0.2% | 58.5hPa | 2.5V | 18:12:15 | 01:43:37 | 00:00:00 | |
| S3001 | 2026-09-02 00:03:05 | 54.00374 | 14.37593 | 102° | 31km/h | 19900m | 3.9m/s | -50.8°C | 0.9% | 59.3hPa | 2.6V | 00:00:00 | 00:00:00 | 00:00:00 | |
| AA1-15 | 2026-09-02 00:03:00 | 54.00375 | 14.37713 | 94° | 31km/h | 19940m | 5.4m/s | -50.3°C | 0.2% | 58.9hPa | 2.6V | 18:12:15 | 01:43:28 | 00:00:00 | |
| DG6HD-11 | 2026-09-02 00:02:50 | 54.00364 | 14.37432 | 75° | 38km/h | 19858m | 3.2m/s | -51.5°C | 3.6% | 59.6hPa | 2.6V | 00:00:00 | 00:00:00 | 08:30:00 | |
| AA1-15 | 2026-09-02 00:02:49 | 54.00378 | 14.37564 | 101° | 38km/h | 19892m | 3.4m/s | -51°C | 0.3% | 59.4hPa | 2.5V | 18:12:15 | 01:43:17 | 00:00:00 | |
| SP3WXH-11 | 2026-09-02 00:02:43 | 54.00362 | 14.37326 | 92° | 33km/h | 19827m | 4.9m/s | -51.7°C | 1.0% | 60.0hPa | 2.5V | 00:00:00 | 00:00:00 | 00:00:00 | |
| AA1-15 | 2026-09-02 00:02:39 | 54.00361 | 14.37370 | 91° | 35km/h | 19840m | 5.2m/s | -51.6°C | 0.4% | 59.8hPa | 2.5V | 18:12:15 | 01:43:05 | 00:00:00 | |
| MECKS9 | 2026-09-02 00:02:34 | 54.00339 | 14.37161 | 72° | 42km/h | 19783m | 4.9m/s | -51.7°C | 1.0% | 60.4hPa | 2.5V | 00:00:00 | 00:00:00 | 00:00:00 | |
| S3001 | 2026-09-02 00:02:30 | 54.00331 | 14.37097 | 81° | 31km/h | 19765m | 4.8m/s | -51.7°C | 1.0% | 60.5hPa | 2.5V | 00:00:00 | 00:00:00 | 00:00:00 | |
| AA1-15 | 2026-09-02 00:02:27 | 54.00339 | 14.37161 | 71° | 42km/h | 19783m | 4.9m/s | -51.7°C | 0.4% | 60.4hPa | 2.5V | 18:12:15 | 01:42:52 | 00:00:00 | |
| DG6HD-11 | 2026-09-02 00:02:18 | 54.00304 | 14.36965 | 61° | 35km/h | 19724m | 4.9m/s | -51.5°C | 3.6% | 60.9hPa | 2.5V | 00:00:00 | 00:00:00 | 00:00:00 | |
| AA1-15 | 2026-09-02 00:02:14 | 54.00314 | 14.36996 | 59° | 38km/h | 19732m | 4.3m/s | -51.6°C | 0.4% | 60.9hPa | 2.5V | 18:12:15 | 01:42:41 | 00:00:00 | |
| SP3WXH-11 | 2026-09-02 00:02:11 | 54.00277 | 14.36847 | 73° | 33km/h | 19687m | 4.6m/s | -51.6°C | 1.0% | 61.3hPa | 2.5V | 00:00:00 | 00:00:00 | 00:00:00 | |
| AA1-15 | 2026-09-02 00:02:03 | 54.00277 | 14.36847 | 73° | 33km/h | 19687m | 4.6m/s | -51.6°C | 0.4% | 61.3hPa | 2.5V | 18:12:15 | 01:42:31 | 00:00:00 | |
| AA1-15 | 2026-09-02 00:01:53 | 54.00223 | 14.36687 | 69° | 29km/h | 19632m | 5m/s | -51.4°C | 0.4% | 61.8hPa | 2.6V | 18:12:15 | 01:42:19 | 00:00:00 | |
| DG6HD-11 | 2026-09-02 00:01:51 | 54.00177 | 14.36584 | 52° | 24km/h | 19586m | 4.7m/s | -51.0°C | 3.5% | 62.2hPa | 2.6V | 00:00:00 | 00:00:00 | 00:00:00 | |
| SP3WXH-11 | 2026-09-02 00:01:41 | 54.00135 | 14.36489 | 47° | 22km/h | 19540m | 4.4m/s | -51.0°C | 1.0% | 62.7hPa | 2.6V | 00:00:00 | 00:00:00 | 00:00:00 | |
| AA1-15 | 2026-09-02 00:01:40 | 54.00172 | 14.36573 | 51° | 31km/h | 19582m | 3.5m/s | -51.1°C | 0.3% | 62.3hPa | 2.6V | 18:12:15 | 01:42:08 | 00:00:00 | |
| AA1-15 | 2026-09-02 00:01:30 | 54.00131 | 14.36482 | 46° | 24km/h | 19534m | 5.5m/s | -51°C | 0.3% | 62.7hPa | 2.6V | 18:12:15 | 01:41:58 | 00:00:00 | |
| AA1-15 | 2026-09-02 00:01:19 | 54.00094 | 14.36397 | 73° | 18km/h | 19483m | 4.1m/s | -51.2°C | 0.3% | 63.2hPa | 2.5V | 18:12:15 | 01:41:47 | 00:00:00 | |
| DJ2DS-15 | 2026-09-02 00:01:19 | 54.00087 | 14.36360 | 66° | 24km/h | 19464m | 4.3m/s | -51.3°C | 1.0% | 63.4hPa | 2.6V | 00:00:00 | 00:00:00 | 00:00:00 | |
| MECKS9 | 2026-09-02 00:01:16 | 54.00079 | 14.36335 | 58° | 22km/h | 19450m | 4.6m/s | -51.3°C | 1.0% | 63.6hPa | 2.6V | 00:00:00 | 00:00:00 | 00:00:00 | |
| DG6HD-11 | 2026-09-02 00:01:15 | 54.00075 | 14.36327 | 60° | 33km/h | 19445m | 5.1m/s | -51.2°C | 3.5% | 63.6hPa | 2.6V | 00:00:00 | 00:00:00 | 00:00:00 | |
| AA1-15 | 2026-09-02 00:01:09 | 54.00066 | 14.36298 | 63° | 26km/h | 19431m | 4.9m/s | -51.3°C | 0.3% | 63.7hPa | 2.5V | 18:12:15 | 01:41:36 | 00:00:00 | |
| SP3WXH-11 | 2026-09-02 00:01:01 | 54.00044 | 14.36202 | 64° | 31km/h | 19392m | 5.7m/s | -51.5°C | 1.0% | 64.1hPa | 2.5V | 00:00:00 | 00:00:00 | 00:00:00 | |
| AA1-15 | 2026-09-02 00:00:57 | 54.00033 | 14.36167 | 65° | 29km/h | 19378m | 5.9m/s | -51.5°C | 0.4% | 64.3hPa | 2.5V | 18:12:15 | 01:41:25 | 00:00:00 | |
| S3001 | 2026-09-02 00:00:49 | 54.00005 | 14.36028 | 63° | 38km/h | 19329m | 3.8m/s | -51.3°C | 1.0% | 64.8hPa | 2.6V | 00:00:00 | 00:00:00 | 00:00:00 | |
| AA1-15 | 2026-09-02 00:00:47 | 54.00001 | 14.36013 | 62° | 38km/h | 19324m | 5.3m/s | -51.2°C | 0.4% | 64.8hPa | 2.6V | 18:12:15 | 01:41:14 | 00:00:00 | |
| DG6HD-11 | 2026-09-02 00:00:45 | 53.99979 | 14.35949 | 59° | 31km/h | 19303m | 4.2m/s | -51.0°C | 3.5% | 65.0hPa | 2.6V | 00:00:00 | 00:00:00 | 00:00:00 | |
| AA1-15 | 2026-09-02 00:00:35 | 53.99960 | 14.35884 | 65° | 35km/h | 19274m | 4.2m/s | -50.8°C | 0.3% | 65.3hPa | 2.6V | 18:12:15 | 01:41:03 | 00:00:00 | |
| SP3WXH-11 | 2026-09-02 00:00:34 | 53.99938 | 14.35806 | 58° | 33km/h | 19246m | 5.1m/s | -50.8°C | 1.0% | 65.6hPa | 2.5V | 00:00:00 | 00:00:00 | 00:00:00 | |
| MECKS9 | 2026-09-02 00:00:27 | 53.99911 | 14.35730 | 55° | 27km/h | 19213m | 3.9m/s | -50.8°C | 1.0% | 65.9hPa | 2.5V | 00:00:00 | 00:00:00 | 00:00:00 | |
| AA1-15 | 2026-09-02 00:00:24 | 53.99919 | 14.35750 | 59° | 27km/h | 19222m | 5.5m/s | -50.8°C | 0.3% | 65.8hPa | 2.5V | 18:12:15 | 01:40:52 | 00:00:00 | |
| S3001 | 2026-09-02 00:00:21 | 53.99888 | 14.35666 | 62° | 31km/h | 19184m | 4.3m/s | -51.0°C | 1.0% | 66.2hPa | 2.5V | 00:00:00 | 00:00:00 | 00:00:00 | |
| DG6HD-11 | 2026-09-02 00:00:17 | 53.99866 | 14.35611 | 44° | 27km/h | 19160m | 4.6m/s | -50.8°C | 3.5% | 66.4hPa | 2.5V | 00:00:00 | 00:00:00 | 00:00:00 | |
| MECKS9 | 2026-09-02 00:00:15 | 53.99866 | 14.35611 | 45° | 33km/h | 19160m | 4.6m/s | -50.8°C | 1.0% | 66.4hPa | 2.5V | 00:00:00 | 00:00:00 | 00:00:00 | |
| AA1-15 | 2026-09-02 00:00:13 | 53.99877 | 14.35632 | 55° | 29km/h | 19169m | 4.2m/s | -50.9°C | 0.3% | 66.4hPa | 2.5V | 18:12:15 | 01:40:41 | 00:00:00 | |
| AA1-15 | 2026-09-02 00:00:02 | 53.99815 | 14.35534 | 45° | 24km/h | 19117m | 4.1m/s | -50.5°C | 0.4% | 66.9hPa | 2.5V | 18:12:15 | 01:40:30 | 00:00:00 | |
| SP3WXH-11 | 2026-09-01 23:59:59 | 53.99797 | 14.35502 | 47° | 26km/h | 19098m | 5.0m/s | -50.3°C | 1.0% | 67.1hPa | 2.6V | 00:00:00 | 00:00:00 | 00:00:00 | |
| AA1-15 | 2026-09-01 23:59:51 | 53.99759 | 14.35451 | 30° | 26km/h | 19064m | 5.3m/s | -50°C | 0.3% | 67.4hPa | 2.6V | 18:12:15 | 01:40:19 | 00:00:00 | |
| S3001 | 2026-09-01 23:59:45 | 53.99728 | 14.35423 | 37° | 18km/h | 19034m | 5.5m/s | -49.8°C | 0.9% | 67.7hPa | 2.6V | 00:00:00 | 00:00:00 | 00:00:00 | |
| AA1-15 | 2026-09-01 23:59:41 | 53.99714 | 14.35396 | 50° | 26km/h | 19014m | 4.7m/s | -49.6°C | 0.2% | 67.9hPa | 2.6V | 18:12:15 | 01:40:09 | 00:00:00 | |
| DG6HD-11 | 2026-09-01 23:59:41 | 53.99714 | 14.35396 | 50° | 22km/h | 19015m | 4.6m/s | -49.6°C | 3.3% | 67.9hPa | 2.6V | 00:00:00 | 00:00:00 | 00:00:00 | |
| AA1-15 | 2026-09-01 23:59:30 | 53.99653 | 14.35334 | 28° | 24km/h | 18964m | 3.9m/s | -49.2°C | 0.1% | 68.5hPa | 2.6V | 18:12:15 | 01:39:58 | 00:00:00 | |
| SP3WXH-11 | 2026-09-01 23:59:28 | 53.99639 | 14.35321 | 29° | 18km/h | 18951m | 4.6m/s | -49.1°C | 0.9% | 68.6hPa | 2.5V | 00:00:00 | 00:00:00 | 00:00:00 | |
| AA1-15 | 2026-09-01 23:59:19 | 53.99601 | 14.35277 | 33° | 20km/h | 18914m | 5.6m/s | -49.1°C | 0.1% | 69hPa | 2.5V | 18:12:15 | 01:39:47 | 00:00:00 | |
| S3001 | 2026-09-01 23:59:14 | 53.99581 | 14.35256 | 29° | 16km/h | 18890m | 4.6m/s | -49.6°C | 0.9% | 69.3hPa | 2.5V | 00:00:00 | 00:00:00 | 00:00:00 | |
| DG6HD-11 | 2026-09-01 23:59:11 | 53.99572 | 14.35240 | 57° | 16km/h | 18874m | 4.0m/s | -49.6°C | 3.1% | 69.4hPa | 2.5V | 00:00:00 | 00:00:00 | 00:00:00 | |
| AA1-15 | 2026-09-01 23:59:08 | 53.99563 | 14.35221 | 51° | 20km/h | 18860m | 4.7m/s | -50.4°C | 0.3% | 69.6hPa | 2.5V | 18:12:15 | 01:39:36 | 00:00:00 | |
| AA1-15 | 2026-09-01 23:58:57 | 53.99538 | 14.35166 | 75° | 15km/h | 18808m | 4.1m/s | -50.8°C | 0.3% | 70.1hPa | 2.5V | 18:12:15 | 01:39:25 | 00:00:00 | |
| AA1-15 | 2026-09-01 23:58:46 | 53.99524 | 14.35089 | 67° | 22km/h | 18756m | 5.2m/s | -50.5°C | 0.2% | 70.7hPa | 2.6V | 18:12:15 | 01:39:14 | 00:00:00 | |
| AA1-15 | 2026-09-01 23:58:35 | 53.99516 | 14.35001 | 83° | 27km/h | 18704m | 4.7m/s | -50.4°C | 0.3% | 71.3hPa | 2.6V | 18:12:15 | 01:39:03 | 00:00:00 | |
| AA1-15 | 2026-09-01 23:58:25 | 53.99505 | 14.34893 | 93° | 24km/h | 18654m | 5.6m/s | -51.1°C | 0.3% | 71.8hPa | 2.6V | 18:12:15 | 01:38:53 | 00:00:00 | |
| AA1-15 | 2026-09-01 23:58:14 | 53.99497 | 14.34717 | 79° | 40km/h | 18595m | 5.9m/s | -51.1°C | 0.4% | 72.4hPa | 2.5V | 18:12:15 | 01:38:42 | 00:00:00 | |
| AA1-15 | 2026-09-01 23:58:03 | 53.99474 | 14.34526 | 80° | 40km/h | 18541m | 4.3m/s | -50.8°C | 0.4% | 73hPa | 2.5V | 18:12:15 | 01:38:31 | 00:00:00 | |
| AA1-15 | 2026-09-01 23:57:52 | 53.99455 | 14.34356 | 79° | 37km/h | 18489m | 4.3m/s | -50.8°C | 0.3% | 73.7hPa | 2.5V | 18:12:15 | 01:38:20 | 00:00:00 | |
| AA1-15 | 2026-09-01 23:57:42 | 53.99434 | 14.34216 | 72° | 29km/h | 18442m | 4.6m/s | -50.5°C | 0.3% | 74.2hPa | 2.5V | 18:12:15 | 01:38:10 | 00:00:00 | |
| AA1-15 | 2026-09-01 23:57:31 | 53.99406 | 14.34079 | 66° | 35km/h | 18389m | 4.5m/s | -50.3°C | 0.3% | 74.8hPa | 2.7V | 18:12:15 | 01:37:59 | 00:00:00 | |
| AA1-15 | 2026-09-01 23:57:20 | 53.99380 | 14.33973 | 62° | 22km/h | 18336m | 5.5m/s | -50.4°C | 0.3% | 75.4hPa | 2.6V | 18:12:15 | 01:37:48 | 00:00:00 | |
| AA1-15 | 2026-09-01 23:57:10 | 53.99354 | 14.33884 | 62° | 16km/h | 18289m | 4.6m/s | -50.2°C | 0.3% | 75.9hPa | 2.6V | 18:12:15 | 01:37:38 | 00:00:00 | |
| AA1-15 | 2026-09-01 23:56:59 | 53.99323 | 14.33769 | 66° | 31km/h | 18239m | 4.6m/s | -49.9°C | 0.2% | 76.5hPa | 2.7V | 18:12:15 | 01:37:27 | 00:00:00 | |
| AA1-15 | 2026-09-01 23:56:49 | 53.99286 | 14.33665 | 64° | 27km/h | 18190m | 5.5m/s | -49.6°C | 0.2% | 77hPa | 2.6V | 18:12:15 | 01:37:16 | 00:00:00 | |
| AA1-15 | 2026-09-01 23:56:39 | 53.99250 | 14.33544 | 56° | 26km/h | 18143m | 4.7m/s | -49.2°C | 0.2% | 77.6hPa | 2.5V | 18:12:15 | 01:37:05 | 00:00:00 | |
| AA1-15 | 2026-09-01 23:56:27 | 53.99227 | 14.33464 | 78° | 24km/h | 18097m | 5.3m/s | -49.1°C | 0.2% | 78.2hPa | 2.7V | 18:12:15 | 01:36:55 | 00:00:00 | |
| AA1-15 | 2026-09-01 23:56:17 | 53.99212 | 14.33365 | 84° | 29km/h | 18047m | 4.9m/s | -49.2°C | 0.1% | 78.8hPa | 2.7V | 18:12:15 | 01:36:44 | 00:00:00 | |
| AA1-15 | 2026-09-01 23:56:07 | 53.99201 | 14.33238 | 69° | 27km/h | 18001m | 4.1m/s | -49.4°C | 0.2% | 79.3hPa | 2.7V | 18:12:15 | 01:36:34 | 00:00:00 | |
| AA1-15 | 2026-09-01 23:55:55 | 53.99176 | 14.33111 | 72° | 31km/h | 17951m | 4.1m/s | -49.2°C | 0.1% | 79.9hPa | 2.5V | 18:12:15 | 01:36:23 | 00:00:00 | |
| AA1-15 | 2026-09-01 23:55:45 | 53.99138 | 14.32978 | 55° | 33km/h | 17901m | 4.6m/s | -49.7°C | 0.2% | 80.5hPa | 2.7V | 18:12:15 | 01:36:12 | 00:00:00 | |
| AA1-15 | 2026-09-01 23:55:34 | 53.99103 | 14.32834 | 61° | 44km/h | 17858m | 4.6m/s | -50.2°C | 0.3% | 81hPa | 2.7V | 18:12:15 | 01:36:02 | 00:00:00 | |
| AA1-15 | 2026-09-01 23:55:24 | 53.99065 | 14.32699 | 76° | 35km/h | 17813m | 5.4m/s | -50°C | 0.3% | 81.6hPa | 2.6V | 18:12:15 | 01:35:52 | 00:00:00 | |
| AA1-15 | 2026-09-01 23:55:13 | 53.99033 | 14.32563 | 70° | 24km/h | 17766m | 4.8m/s | -49.7°C | 0.3% | 82.2hPa | 2.7V | 18:12:15 | 01:35:41 | 00:00:00 | |
| AA1-15 | 2026-09-01 23:55:02 | 53.99014 | 14.32424 | 69° | 24km/h | 17714m | 3.9m/s | -49.3°C | 0.2% | 82.9hPa | 2.7V | 18:12:15 | 01:35:30 | 00:00:00 | |
| AA1-15 | 2026-09-01 23:54:51 | 53.99010 | 14.32293 | 95° | 29km/h | 17665m | 5.1m/s | -49.3°C | 0.1% | 83.5hPa | 2.5V | 18:12:15 | 01:35:19 | 00:00:00 | |
| SP3WXH-11 | 2026-09-01 23:54:48 | 53.99010 | 14.32266 | 86° | 16km/h | 17652m | 4.3m/s | -49.5°C | 0.9% | 83.6hPa | 2.7V | 00:00:00 | 00:00:00 | 00:00:00 | |
| AA1-15 | 2026-09-01 23:54:40 | 53.99015 | 14.32166 | 98° | 38km/h | 17616m | 4.6m/s | -49.1°C | 0.1% | 84.1hPa | 2.7V | 18:12:15 | 01:35:08 | 00:00:00 | |
| AA1-15 | 2026-09-01 23:54:30 | 53.99027 | 14.32019 | 104° | 37km/h | 17570m | 5.4m/s | -49.5°C | 0.2% | 84.7hPa | 2.7V | 18:12:15 | 01:34:58 | 00:00:00 | |
| AA1-15 | 2026-09-01 23:54:19 | 53.99038 | 14.31830 | 92° | 44km/h | 17516m | 4.9m/s | -49.4°C | 0.2% | 85.4hPa | 2.5V | 18:12:15 | 01:34:47 | 00:00:00 | |
| AA1-15 | 2026-09-01 23:54:09 | 53.99031 | 14.31662 | 77° | 38km/h | 17468m | 5m/s | -49.4°C | 0.2% | 86hPa | 2.5V | 18:12:15 | 01:34:37 | 00:00:00 | |
| AA1-15 | 2026-09-01 23:53:58 | 53.99006 | 14.31477 | 74° | 40km/h | 17417m | 4m/s | -49.6°C | 0.2% | 86.7hPa | 2.7V | 18:12:15 | 01:34:26 | 00:00:00 | |
| AA1-15 | 2026-09-01 23:53:47 | 53.98968 | 14.31292 | 65° | 47km/h | 17366m | 4.2m/s | -50°C | 0.3% | 87.3hPa | 2.5V | 18:12:15 | 01:34:15 | 00:00:00 | |
| SP3WXH-11 | 2026-09-01 23:53:46 | 53.98962 | 14.31273 | 61° | 46km/h | 17361m | 5.3m/s | -50.0°C | 1.0% | 87.4hPa | 2.7V | 00:00:00 | 00:00:00 | 00:00:00 | |
| AA1-15 | 2026-09-01 23:53:36 | 53.98905 | 14.31095 | 59° | 46km/h | 17316m | 3.9m/s | -50°C | 0.3% | 88hPa | 2.7V | 18:12:15 | 01:34:04 | 00:00:00 | |
| AA1-15 | 2026-09-01 23:53:26 | 53.98844 | 14.30930 | 66° | 40km/h | 17271m | 5.6m/s | -49.9°C | 0.2% | 88.7hPa | 2.7V | 18:12:15 | 01:33:54 | 00:00:00 | |
| AA1-15 | 2026-09-01 23:53:15 | 53.98790 | 14.30782 | 61° | 38km/h | 17222m | 4.2m/s | -50.2°C | 0.3% | 89.3hPa | 2.7V | 18:12:15 | 01:33:43 | 00:00:00 | |
| AA1-15 | 2026-09-01 23:53:04 | 53.98743 | 14.30618 | 65° | 40km/h | 17170m | 3.7m/s | -50.1°C | 0.3% | 90hPa | 2.7V | 18:12:15 | 01:33:32 | 00:00:00 | |
| AA1-15 | 2026-09-01 23:52:53 | 53.98702 | 14.30452 | 66° | 37km/h | 17124m | 5m/s | -50.1°C | 0.3% | 90.7hPa | 2.7V | 18:12:15 | 01:33:21 | 00:00:00 | |
| DJ2DS-15 | 2026-09-01 23:52:51 | 53.98694 | 14.30407 | 81° | 37km/h | 17111m | 5.2m/s | -50.0°C | 1.0% | 90.8hPa | 2.7V | 00:00:00 | 00:00:00 | 00:00:00 | |
| SP3WXH-11 | 2026-09-01 23:52:44 | 53.98685 | 14.30319 | 76° | 31km/h | 17084m | 5.0m/s | -49.9°C | 1.0% | 91.2hPa | 2.7V | 00:00:00 | 00:00:00 | 00:00:00 | |
| AA1-15 | 2026-09-01 23:52:43 | 53.98684 | 14.30305 | 77° | 35km/h | 17079m | 4.4m/s | -49.9°C | 0.2% | 91.2hPa | 2.7V | 18:12:15 | 01:33:11 | 00:00:00 | |
| AA1-15 | 2026-09-01 23:52:32 | 53.98670 | 14.30131 | 91° | 35km/h | 17031m | 4.7m/s | -50°C | 0.3% | 91.9hPa | 2.5V | 18:12:15 | 01:33:00 | 00:00:00 | |
| AA1-15 | 2026-09-01 23:52:21 | 53.98662 | 14.29998 | 94° | 37km/h | 16983m | 4.4m/s | -50°C | 0.2% | 92.6hPa | 2.6V | 18:12:15 | 01:32:49 | 00:00:00 | |
| AA1-15 | 2026-09-01 23:52:10 | 53.98663 | 14.29829 | 77° | 37km/h | 16935m | 4.3m/s | -50.4°C | 0.3% | 93.3hPa | 2.5V | 18:12:15 | 01:32:38 | 00:00:00 | |
| AA1-15 | 2026-09-01 23:51:59 | 53.98656 | 14.29630 | 79° | 46km/h | 16889m | 3.5m/s | -50.5°C | 0.3% | 93.9hPa | 2.7V | 18:12:15 | 01:32:27 | 00:00:00 | |
| AA1-15 | 2026-09-01 23:51:48 | 53.98619 | 14.29459 | 87° | 44km/h | 16841m | 4.7m/s | -50.1°C | 0.3% | 94.6hPa | 2.5V | 18:12:15 | 01:32:16 | 00:00:00 | |
| AA1-15 | 2026-09-01 23:51:38 | 53.98602 | 14.29283 | 80° | 40km/h | 16798m | 4.3m/s | -49.8°C | 0.3% | 95.3hPa | 2.5V | 18:12:15 | 01:32:06 | 00:00:00 | |
| AA1-15 | 2026-09-01 23:51:28 | 53.98591 | 14.29105 | 84° | 42km/h | 16752m | 5m/s | -49.6°C | 0.2% | 95.9hPa | 2.5V | 18:12:15 | 01:31:56 | 00:00:00 | |
| AA1-15 | 2026-09-01 23:51:18 | 53.98585 | 14.28920 | 81° | 42km/h | 16708m | 4.9m/s | -49.8°C | 0.2% | 96.6hPa | 2.7V | 18:12:15 | 01:31:46 | 00:00:00 | |
| AA1-15 | 2026-09-01 23:51:07 | 53.98584 | 14.28713 | 90° | 53km/h | 16659m | 5m/s | -50°C | 0.3% | 97.3hPa | 2.5V | 18:12:15 | 01:31:35 | 00:00:00 | |
| AA1-15 | 2026-09-01 23:50:56 | 53.98580 | 14.28474 | 92° | 51km/h | 16611m | 4.8m/s | -49.7°C | 0.2% | 98hPa | 2.6V | 18:12:15 | 01:31:24 | 00:00:00 | |
| AA1-15 | 2026-09-01 23:50:46 | 53.98567 | 14.28255 | 88° | 44km/h | 16567m | 3.8m/s | -50.2°C | 0.4% | 98.7hPa | 2.5V | 18:12:15 | 01:31:14 | 00:00:00 | |
| AA1-15 | 2026-09-01 23:50:35 | 53.98556 | 14.28021 | 79° | 53km/h | 16521m | 3.6m/s | -50.1°C | 0.3% | 99.4hPa | 2.5V | 18:12:15 | 01:31:03 | 00:00:00 | |
| AA1-15 | 2026-09-01 23:50:24 | 53.98544 | 14.27798 | 89° | 42km/h | 16476m | 4.4m/s | -50°C | 0.3% | 100.1hPa | 2.7V | 18:12:15 | 01:30:52 | 00:00:00 | |
| AA1-15 | 2026-09-01 23:50:13 | 53.98535 | 14.27585 | 86° | 42km/h | 16431m | 4.6m/s | -50.5°C | 0.3% | 100.8hPa | 2.7V | 18:12:15 | 01:30:41 | 00:00:00 | |
| AA1-15 | 2026-09-01 23:50:02 | 53.98524 | 14.27390 | 81° | 42km/h | 16384m | 5m/s | -50.8°C | 0.4% | 101.5hPa | 2.7V | 18:12:15 | 01:30:30 | 00:00:00 | |
| AA1-15 | 2026-09-01 23:49:52 | 53.98508 | 14.27219 | 79° | 33km/h | 16342m | 3.8m/s | -50.8°C | 0.4% | 102.1hPa | 2.5V | 18:12:15 | 01:30:20 | 00:00:00 | |
| DJ2DS-15 | 2026-09-01 23:49:50 | 53.98503 | 14.27176 | 82° | 35km/h | 16330m | 4.4m/s | -50.7°C | 1.1% | 102.3hPa | 2.5V | 00:00:00 | 00:00:00 | 00:00:00 | |
| AA1-15 | 2026-09-01 23:49:41 | 53.98500 | 14.27039 | 89° | 38km/h | 16296m | 3.3m/s | -50.5°C | 0.4% | 102.9hPa | 2.5V | 18:12:15 | 01:30:09 | 00:00:00 | |
| AA1-15 | 2026-09-01 23:49:30 | 53.98497 | 14.26857 | 94° | 40km/h | 16248m | 3.6m/s | -50.7°C | 0.3% | 103.6hPa | 2.5V | 18:12:15 | 01:29:58 | 00:00:00 | |
| AA1-15 | 2026-09-01 23:49:19 | 53.98503 | 14.26656 | 95° | 42km/h | 16200m | 4m/s | -50.9°C | 0.4% | 104.4hPa | 2.7V | 18:12:15 | 01:29:47 | 00:00:00 | |
| AA1-15 | 2026-09-01 23:49:09 | 53.98509 | 14.26453 | 94° | 46km/h | 16158m | 5m/s | -51.2°C | 0.5% | 105hPa | 2.6V | 18:12:15 | 01:29:37 | 00:00:00 | |
| AA1-15 | 2026-09-01 23:48:58 | 53.98510 | 14.26238 | 87° | 47km/h | 16110m | 4.5m/s | -51.6°C | 0.6% | 105.8hPa | 2.5V | 18:12:15 | 01:29:26 | 00:00:00 | |
| AA1-15 | 2026-09-01 23:48:47 | 53.98498 | 14.25997 | 86° | 49km/h | 16065m | 5.3m/s | -51.3°C | 0.5% | 106.6hPa | 2.5V | 18:12:15 | 01:29:15 | 00:00:00 | |
| AA1-15 | 2026-09-01 23:48:37 | 53.98490 | 14.25793 | 87° | 46km/h | 16015m | 4.8m/s | -51.4°C | 0.6% | 107.4hPa | 2.7V | 18:12:15 | 01:29:04 | 00:00:00 | |
| AA1-15 | 2026-09-01 23:48:25 | 53.98487 | 14.25614 | 97° | 37km/h | 15967m | 5.3m/s | -51.2°C | 0.5% | 108.2hPa | 2.7V | 18:12:15 | 01:28:53 | 00:00:00 | |
| AA1-15 | 2026-09-01 23:48:14 | 53.98498 | 14.25442 | 99° | 37km/h | 15918m | 4.4m/s | -50.9°C | 0.5% | 109.1hPa | 2.6V | 18:12:15 | 01:28:42 | 00:00:00 | |
| AA1-15 | 2026-09-01 23:48:03 | 53.98515 | 14.25257 | 95° | 40km/h | 15869m | 3.8m/s | -50.8°C | 0.5% | 109.8hPa | 2.6V | 18:12:15 | 01:28:31 | 00:00:00 | |
| AA1-15 | 2026-09-01 23:47:52 | 53.98523 | 14.25057 | 99° | 46km/h | 15820m | 4m/s | -50.7°C | 0.5% | 110.6hPa | 2.6V | 18:12:15 | 01:28:20 | 00:00:00 | |
| S3001 | 2026-09-01 23:47:51 | 53.98526 | 14.25018 | 96° | 46km/h | 15811m | 4.3m/s | -50.7°C | 1.2% | 110.8hPa | 2.7V | 00:00:00 | 00:00:00 | 00:00:00 | |
| AA1-15 | 2026-09-01 23:47:41 | 53.98533 | 14.24838 | 91° | 47km/h | 15772m | 4.2m/s | -50.7°C | 0.5% | 111.5hPa | 2.7V | 18:12:15 | 01:28:09 | 00:00:00 | |
| AA1-15 | 2026-09-01 23:47:30 | 53.98545 | 14.24591 | 96° | 57km/h | 15726m | 3.7m/s | -50.6°C | 0.6% | 112.3hPa | 2.6V | 18:12:15 | 01:27:58 | 00:00:00 | |
| AA1-15 | 2026-09-01 23:47:19 | 53.98552 | 14.24329 | 92° | 57km/h | 15679m | 4.9m/s | -50.9°C | 0.6% | 113.1hPa | 2.6V | 18:12:15 | 01:27:47 | 00:00:00 | |
| AA1-15 | 2026-09-01 23:47:10 | 53.98554 | 14.24069 | 90° | 51km/h | 15631m | 4.8m/s | -50.9°C | 0.6% | 113.9hPa | 2.7V | 18:12:15 | 01:27:36 | 00:00:00 | |
| AA1-15 | 2026-09-01 23:46:58 | 53.98546 | 14.23875 | 80° | 47km/h | 15589m | 4.4m/s | -50.7°C | 0.6% | 114.7hPa | 2.7V | 18:12:15 | 01:27:26 | 00:00:00 | |
| AA1-15 | 2026-09-01 23:46:47 | 53.98522 | 14.23661 | 72° | 47km/h | 15541m | 4.7m/s | -50.6°C | 0.6% | 115.5hPa | 2.7V | 18:12:15 | 01:27:15 | 00:00:00 | |
| AA1-15 | 2026-09-01 23:46:36 | 53.98487 | 14.23437 | 76° | 47km/h | 15495m | 4.5m/s | -50.5°C | 0.7% | 116.3hPa | 2.6V | 18:12:15 | 01:27:04 | 00:00:00 | |
| AA1-15 | 2026-09-01 23:46:26 | 53.98454 | 14.23207 | 84° | 47km/h | 15449m | 3.9m/s | -50.5°C | 0.7% | 117.2hPa | 2.6V | 18:12:15 | 01:26:53 | 00:00:00 | |
| AA1-15 | 2026-09-01 23:46:15 | 53.98443 | 14.23007 | 77° | 51km/h | 15408m | 3.3m/s | -50.5°C | 0.7% | 117.9hPa | 2.6V | 18:12:15 | 01:26:43 | 00:00:00 | |
| AA1-15 | 2026-09-01 23:46:04 | 53.98429 | 14.22807 | 84° | 46km/h | 15360m | 3.5m/s | -50.3°C | 0.7% | 118.8hPa | 2.6V | 18:12:15 | 01:26:32 | 00:00:00 | |
| AA1-15 | 2026-09-01 23:45:55 | 53.98412 | 14.22605 | 85° | 44km/h | 15317m | 3.5m/s | -50.6°C | 0.7% | 119.5hPa | 2.6V | 18:12:15 | 01:26:22 | 00:00:00 | |
| DK1YY | 2026-09-01 23:45:48 | 53.98411 | 14.22477 | 85° | 51km/h | 15293m | 3.6m/s | -50.6°C | 1.3% | 120.0hPa | 2.6V | 00:00:00 | 00:00:00 | 00:00:00 | |
| S3001 | 2026-09-01 23:45:46 | 53.98408 | 14.22430 | 81° | 55km/h | 15285m | 4.1m/s | -50.5°C | 1.3% | 120.1hPa | 2.6V | 00:00:00 | 00:00:00 | 00:00:00 | |
| AA1-15 | 2026-09-01 23:45:43 | 53.98399 | 14.22361 | 74° | 53km/h | 15273m | 3.6m/s | -50.5°C | 0.7% | 120.3hPa | 2.6V | 18:12:15 | 01:26:11 | 00:00:00 | |
| AA1-15 | 2026-09-01 23:45:32 | 53.98363 | 14.22126 | 69° | 53km/h | 15226m | 3.5m/s | -50.5°C | 0.6% | 121.2hPa | 2.7V | 18:12:15 | 01:26:00 | 00:00:00 | |
| AA1-15 | 2026-09-01 23:45:21 | 53.98307 | 14.21887 | 72° | 49km/h | 15180m | 4.2m/s | -50.4°C | 0.7% | 122.1hPa | 2.6V | 18:12:15 | 01:25:49 | 00:00:00 | |
| AA1-15 | 2026-09-01 23:45:11 | 53.98267 | 14.21677 | 74° | 47km/h | 15131m | 4.5m/s | -50.1°C | 0.7% | 123hPa | 2.7V | 18:12:15 | 01:25:38 | 00:00:00 | |
| AA1-15 | 2026-09-01 23:44:59 | 53.98237 | 14.21461 | 75° | 51km/h | 15086m | 4.5m/s | -49.9°C | 0.5% | 123.8hPa | 2.6V | 18:12:15 | 01:25:27 | 00:00:00 | |
| AA1-15 | 2026-09-01 23:44:49 | 53.98203 | 14.21254 | 77° | 49km/h | 15044m | 5.2m/s | -50°C | 0.5% | 124.7hPa | 2.7V | 18:12:15 | 01:25:17 | 00:00:00 | |
| DK1YY | 2026-09-01 23:44:46 | 53.98192 | 14.21173 | 76° | 47km/h | 15027m | 3.4m/s | -50.2°C | 1.3% | 125.0hPa | 2.6V | 00:00:00 | 00:00:00 | 00:00:00 | |
| S3001 | 2026-09-01 23:44:44 | 53.98190 | 14.21153 | 78° | 47km/h | 15023m | 4.6m/s | -50.2°C | 1.3% | 125.0hPa | 2.6V | 00:00:00 | 00:00:00 | 00:00:00 | |
| AA1-15 | 2026-09-01 23:44:38 | 53.98175 | 14.21028 | 77° | 53km/h | 14998m | 4.2m/s | -50.4°C | 0.6% | 125.5hPa | 2.6V | 18:12:15 | 01:25:06 | 00:00:00 | |
| AA1-15 | 2026-09-01 23:44:27 | 53.98136 | 14.20787 | 80° | 47km/h | 14949m | 3.9m/s | -50.4°C | 0.5% | 126.4hPa | 2.7V | 18:12:15 | 01:24:55 | 00:00:00 | |
| AA1-15 | 2026-09-01 23:44:16 | 53.98084 | 14.20581 | 62° | 49km/h | 14900m | 3.8m/s | -50.2°C | 0.6% | 127.4hPa | 2.6V | 18:12:15 | 01:24:44 | 00:00:00 | |
| AA1-15 | 2026-09-01 23:44:06 | 53.98036 | 14.20402 | 66° | 49km/h | 14855m | 3.8m/s | -50.3°C | 0.6% | 128.3hPa | 2.7V | 18:12:15 | 01:24:34 | 00:00:00 | |
| AA1-15 | 2026-09-01 23:43:55 | 53.97998 | 14.20196 | 75° | 53km/h | 14806m | 3.8m/s | -50.6°C | 0.7% | 129.3hPa | 2.6V | 18:12:15 | 01:24:23 | 00:00:00 | |
| AA1-15 | 2026-09-01 23:43:44 | 53.97958 | 14.19963 | 79° | 49km/h | 14757m | 3.4m/s | -50.5°C | 0.6% | 130.2hPa | 2.6V | 18:12:15 | 01:24:12 | 00:00:00 | |
| AA1-15 | 2026-09-01 23:43:33 | 53.97923 | 14.19747 | 71° | 47km/h | 14710m | 4.1m/s | -50.4°C | 0.6% | 131.2hPa | 2.7V | 18:12:15 | 01:24:01 | 00:00:00 | |
| AA1-15 | 2026-09-01 23:43:22 | 53.97882 | 14.19562 | 77° | 42km/h | 14663m | 3.6m/s | -50.1°C | 0.6% | 132.1hPa | 2.6V | 18:12:15 | 01:23:50 | 00:00:00 | |
| AA1-15 | 2026-09-01 23:43:11 | 53.97856 | 14.19365 | 82° | 44km/h | 14615m | 3.8m/s | -49.7°C | 0.6% | 133.1hPa | 2.7V | 18:12:15 | 01:23:39 | 00:00:00 | |
| AA1-15 | 2026-09-01 23:43:00 | 53.97834 | 14.19184 | 75° | 40km/h | 14568m | 3.2m/s | -49.7°C | 0.6% | 134hPa | 2.6V | 18:12:15 | 01:23:28 | 00:00:00 | |
| AA1-15 | 2026-09-01 23:42:49 | 53.97821 | 14.18987 | 86° | 49km/h | 14522m | 3.9m/s | -49.7°C | 0.6% | 135hPa | 2.7V | 18:12:15 | 01:23:17 | 00:00:00 | |
| AA1-15 | 2026-09-01 23:42:39 | 53.97803 | 14.18767 | 82° | 53km/h | 14475m | 4.2m/s | -49.9°C | 0.7% | 135.9hPa | 2.6V | 18:12:15 | 01:23:06 | 00:00:00 | |
| AA1-15 | 2026-09-01 23:42:27 | 53.97779 | 14.18513 | 81° | 51km/h | 14428m | 3.9m/s | -49.8°C | 0.7% | 136.9hPa | 2.6V | 18:12:15 | 01:22:55 | 00:00:00 | |
| AA1-15 | 2026-09-01 23:42:17 | 53.97755 | 14.18308 | 74° | 47km/h | 14384m | 3.3m/s | -49.7°C | 0.7% | 137.8hPa | 2.6V | 18:12:15 | 01:22:45 | 00:00:00 | |
| DG6HD-11 | 2026-09-01 23:42:16 | 53.97752 | 14.18289 | 76° | 46km/h | 14380m | 3.6m/s | -49.7°C | 3.7% | 137.8hPa | 2.6V | 00:00:00 | 00:00:00 | 00:00:00 | |
| DB0DAN | 2026-09-01 23:42:10 | 53.97739 | 14.18175 | 84° | 44km/h | 14354m | 4.5m/s | -49.5°C | 1.4% | 138.45hPa | 2.6V | 00:00:00 | 00:00:00 | 00:00:00 | |
| AA1-15 | 2026-09-01 23:42:06 | 53.97732 | 14.18103 | 77° | 40km/h | 14338m | 3.7m/s | -49.4°C | 0.6% | 138.8hPa | 2.6V | 18:12:15 | 01:22:34 | 00:00:00 | |
| DJ2DS-15 | 2026-09-01 23:42:02 | 53.97723 | 14.18018 | 82° | 42km/h | 14318m | 2.8m/s | -49.2°C | 1.3% | 139.2hPa | 2.7V | 00:00:00 | 00:00:00 | 00:00:00 | |
| DB0DAN | 2026-09-01 23:41:55 | 53.97717 | 14.17898 | 85° | 44km/h | 14294m | 4.6m/s | -49°C | 1.4% | 139.76hPa | 2.7V | 00:00:00 | 00:00:00 | 00:00:00 | |
| AA1-15 | 2026-09-01 23:41:55 | 53.97717 | 14.17898 | 85° | 46km/h | 14294m | 4.6m/s | -49°C | 0.6% | 139.8hPa | 2.7V | 18:12:15 | 01:22:23 | 00:00:00 | |
| AA1-15 | 2026-09-01 23:41:44 | 53.97707 | 14.17684 | 90° | 47km/h | 14248m | 3.9m/s | -49°C | 0.5% | 140.7hPa | 2.7V | 18:12:15 | 01:22:12 | 00:00:00 | |
| AA1-15 | 2026-09-01 23:41:33 | 53.97701 | 14.17461 | 95° | 57km/h | 14203m | 3.2m/s | -49.1°C | 0.5% | 141.7hPa | 2.6V | 18:12:15 | 01:22:01 | 00:00:00 | |
| DB0DAN | 2026-09-01 23:41:25 | 53.97705 | 14.17267 | 88° | 49km/h | 14173m | 4.6m/s | -49.6°C | 1.3% | 142.31hPa | 2.7V | 00:00:00 | 00:00:00 | 00:00:00 | |
| AA1-15 | 2026-09-01 23:41:22 | 53.97704 | 14.17200 | 91° | 53km/h | 14162m | 4.1m/s | -49.7°C | 0.6% | 142.6hPa | 2.6V | 18:12:15 | 01:21:50 | 00:00:00 | |
| AA1-15 | 2026-09-01 23:41:11 | 53.97696 | 14.16938 | 83° | 57km/h | 14120m | 3.5m/s | -50.1°C | 0.7% | 143.5hPa | 2.7V | 18:12:15 | 01:21:39 | 00:00:00 | |
| AA1-15 | 2026-09-01 23:41:00 | 53.97676 | 14.16642 | 79° | 60km/h | 14075m | 3.8m/s | -50°C | 0.7% | 144.5hPa | 2.6V | 18:12:15 | 01:21:28 | 00:00:00 | |
| AA1-15 | 2026-09-01 23:40:49 | 53.97651 | 14.16367 | 87° | 64km/h | 14032m | 3.5m/s | -50.2°C | 0.7% | 145.4hPa | 2.6V | 18:12:15 | 01:21:17 | 00:00:00 | |
| AA1-15 | 2026-09-01 23:40:38 | 53.97633 | 14.16095 | 84° | 58km/h | 13990m | 4.4m/s | -49.9°C | 0.6% | 146.4hPa | 2.6V | 18:12:15 | 01:21:06 | 00:00:00 | |
| AA1-15 | 2026-09-01 23:40:27 | 53.97616 | 14.15828 | 85° | 55km/h | 13946m | 3.9m/s | -49.9°C | 0.7% | 147.3hPa | 2.7V | 18:12:15 | 01:20:55 | 00:00:00 | |
| AA1-15 | 2026-09-01 23:40:16 | 53.97611 | 14.15563 | 88° | 57km/h | 13902m | 4m/s | -49.9°C | 0.7% | 148.3hPa | 2.7V | 18:12:15 | 01:20:44 | 00:00:00 | |
| AA1-15 | 2026-09-01 23:40:06 | 53.97596 | 14.15320 | 83° | 58km/h | 13862m | 4.4m/s | -50.1°C | 0.7% | 149.2hPa | 2.6V | 18:12:15 | 01:20:34 | 00:00:00 | |
| AA1-15 | 2026-09-01 23:39:55 | 53.97563 | 14.15058 | 74° | 58km/h | 13816m | 3.4m/s | -50°C | 0.7% | 150.3hPa | 2.7V | 18:12:15 | 01:20:23 | 00:00:00 | |
| AA1-15 | 2026-09-01 23:39:44 | 53.97537 | 14.14803 | 79° | 55km/h | 13771m | 3.6m/s | -50.2°C | 0.7% | 151.3hPa | 2.6V | 18:12:15 | 01:20:12 | 00:00:00 | |
| AA1-15 | 2026-09-01 23:39:33 | 53.97522 | 14.14536 | 85° | 57km/h | 13728m | 4.2m/s | -50.3°C | 0.7% | 152.4hPa | 2.7V | 18:12:15 | 01:20:01 | 00:00:00 | |
| AA1-15 | 2026-09-01 23:39:22 | 53.97498 | 14.14259 | 77° | 55km/h | 13679m | 4.6m/s | -50.4°C | 0.8% | 153.4hPa | 2.6V | 18:12:15 | 01:19:50 | 00:00:00 | |
| AA1-15 | 2026-09-01 23:39:11 | 53.97468 | 14.13985 | 78° | 60km/h | 13634m | 3.3m/s | -50.4°C | 0.9% | 154.6hPa | 2.6V | 18:12:15 | 01:19:39 | 00:00:00 | |
| DB0DAN | 2026-09-01 23:39:10 | 53.97465 | 14.13961 | 77° | 55km/h | 13630m | 4.1m/s | -50.5°C | 1.5% | 154.66hPa | 2.6V | 00:00:00 | 00:00:00 | 00:00:00 | |
| AA1-15 | 2026-09-01 23:39:00 | 53.97439 | 14.13720 | 83° | 64km/h | 13588m | 3.9m/s | -50.5°C | 0.9% | 155.6hPa | 2.7V | 18:12:15 | 01:19:28 | 00:00:00 | |
| AA1-15 | 2026-09-01 23:38:49 | 53.97416 | 14.13438 | 76° | 62km/h | 13541m | 5.2m/s | -50.5°C | 0.8% | 156.8hPa | 2.6V | 18:12:15 | 01:19:17 | 00:00:00 | |
| SP3WXH-11 | 2026-09-01 23:38:46 | 53.97405 | 14.13361 | 76° | 58km/h | 13528m | 5.3m/s | -50.4°C | 1.6% | 157.1hPa | 2.6V | 00:00:00 | 00:00:00 | 00:00:00 | |
| AM1SDL-15 | 2026-09-01 23:38:45 | 53.97401 | 14.13337 | 77° | 53km/h | 13523m | 3.9m/s | -50.4°C | 3.8% | 157.1hPa | 2.6V | 00:00:00 | 01:19:13 | 08:30:00 | |
| DG6HD-11 | 2026-09-01 23:38:42 | 53.97393 | 14.13266 | 81° | 53km/h | 13510m | 3.5m/s | -50.5°C | 3.8% | 157.5hPa | 2.6V | 00:00:00 | 00:00:00 | 08:30:00 | |
| DB0DAN | 2026-09-01 23:38:40 | 53.97388 | 14.13221 | 76° | 51km/h | 13501m | 3.9m/s | -50.7°C | 1.6% | 157.72hPa | 2.7V | 00:00:00 | 00:00:00 | 00:00:00 | |
| AA1-15 | 2026-09-01 23:38:38 | 53.97382 | 14.13176 | 76° | 55km/h | 13493m | 5.1m/s | -51°C | 1% | 158hPa | 2.6V | 18:12:15 | 01:19:06 | 00:00:00 | |
| AA1-15 | 2026-09-01 23:38:28 | 53.97341 | 14.12945 | 73° | 49km/h | 13447m | 4.7m/s | -51.2°C | 1.1% | 159hPa | 2.6V | 18:12:15 | 01:18:56 | 00:00:00 | |
| AA1-15 | 2026-09-01 23:38:17 | 53.97283 | 14.12722 | 68° | 53km/h | 13397m | 4.2m/s | -50.9°C | 1.1% | 160.3hPa | 2.6V | 18:12:15 | 01:18:45 | 00:00:00 | |
| SP3WXH-11 | 2026-09-01 23:38:15 | 53.97273 | 14.12681 | 70° | 49km/h | 13389m | 3.4m/s | -50.8°C | 1.6% | 160.4hPa | 2.6V | 00:00:00 | 00:00:00 | 00:00:00 | |
| DG6HD-11 | 2026-09-01 23:38:12 | 53.97261 | 14.12619 | 72° | 49km/h | 13376m | 4.1m/s | -50.7°C | 4.0% | 160.7hPa | 2.6V | 00:00:00 | 00:00:00 | 00:00:00 | |
| DB0DAN | 2026-09-01 23:38:10 | 53.97252 | 14.12578 | 68° | 49km/h | 13367m | 3.4m/s | -50.7°C | 1.7% | 161hPa | 2.6V | 00:00:00 | 00:00:00 | 00:00:00 | |
| AA1-15 | 2026-09-01 23:38:07 | 53.97237 | 14.12515 | 66° | 55km/h | 13355m | 2.8m/s | -50.6°C | 1% | 161.3hPa | 2.7V | 18:12:15 | 01:18:35 | 00:00:00 | |
| AA1-15 | 2026-09-01 23:37:56 | 53.97193 | 14.12291 | 75° | 51km/h | 13306m | 4.2m/s | -50.2°C | 0.9% | 162.5hPa | 2.7V | 18:12:15 | 01:18:24 | 00:00:00 | |
| DB0DAN | 2026-09-01 23:37:55 | 53.97189 | 14.12270 | 73° | 49km/h | 13302m | 4.1m/s | -50.1°C | 1.6% | 162.58hPa | 2.7V | 00:00:00 | 00:00:00 | 00:00:00 | |
| AA1-15 | 2026-09-01 23:37:45 | 53.97155 | 14.12068 | 79° | 42km/h | 13258m | 4.3m/s | -49.8°C | 0.9% | 163.7hPa | 2.6V | 18:12:15 | 01:18:13 | 00:00:00 | |
| SP3WXH-11 | 2026-09-01 23:37:44 | 53.97152 | 14.12050 | 78° | 42km/h | 13253m | 5.5m/s | -49.8°C | 1.5% | 163.8hPa | 2.6V | 00:00:00 | 00:00:00 | 00:00:00 | |
| DO2SHX-10 | 2026-09-01 23:37:43 | 53.97150 | 14.12031 | 78° | 47km/h | 13248m | 4.5m/s | -49.7°C | 3.7% | 163.9hPa | 2.6V | 00:00:00 | 01:18:11 | 00:00:00 | |
| DG6HD-11 | 2026-09-01 23:37:42 | 53.97147 | 14.12012 | 79° | 46km/h | 13243m | 4.9m/s | -49.7°C | 3.7% | 164.0hPa | 2.6V | 00:00:00 | 00:00:00 | 00:00:00 | |
| DB0DAN | 2026-09-01 23:37:40 | 53.97143 | 14.11971 | 81° | 47km/h | 13232m | 5.2m/s | -49.7°C | 1.5% | 164.34hPa | 2.6V | 00:00:00 | 00:00:00 | 00:00:00 | |
| AA1-15 | 2026-09-01 23:37:34 | 53.97134 | 14.11850 | 84° | 46km/h | 13205m | 4.6m/s | -49.6°C | 0.8% | 165.1hPa | 2.6V | 18:12:15 | 01:18:02 | 00:00:00 | |
| AA1-15 | 2026-09-01 23:37:23 | 53.97126 | 14.11637 | 90° | 44km/h | 13157m | 3.9m/s | -49.7°C | 0.8% | 166.3hPa | 2.6V | 18:12:15 | 01:17:51 | 00:00:00 | |
| AA1-15 | 2026-09-01 23:37:13 | 53.97134 | 14.11445 | 101° | 46km/h | 13116m | 4.7m/s | -50°C | 0.8% | 167.3hPa | 2.6V | 18:12:15 | 01:17:41 | 00:00:00 | |
| AA1-15 | 2026-09-01 23:37:02 | 53.97152 | 14.11213 | 93° | 53km/h | 13070m | 5.1m/s | -49.7°C | 0.8% | 168.4hPa | 2.6V | 18:12:15 | 01:17:30 | 00:00:00 | |
| AA1-15 | 2026-09-01 23:36:52 | 53.97165 | 14.10982 | 97° | 58km/h | 13029m | 3.5m/s | -49.6°C | 0.8% | 169.5hPa | 2.7V | 18:12:15 | 01:17:20 | 00:00:00 | |
| AA1-15 | 2026-09-01 23:36:41 | 53.97173 | 14.10711 | 90° | 60km/h | 12985m | 3.6m/s | -49.4°C | 0.9% | 170.7hPa | 2.7V | 18:12:15 | 01:17:09 | 00:00:00 | |
| DB0DAN | 2026-09-01 23:36:40 | 53.97173 | 14.10686 | 91° | 55km/h | 12981m | 4.3m/s | -49.4°C | 1.6% | 170.75hPa | 2.7V | 00:00:00 | 00:00:00 | 00:00:00 | |
| AA1-15 | 2026-09-01 23:36:30 | 53.97174 | 14.10425 | 89° | 64km/h | 12942m | 4m/s | -49.2°C | 0.9% | 171.9hPa | 2.6V | 18:12:15 | 01:16:58 | 00:00:00 | |
| AA1-15 | 2026-09-01 23:36:19 | 53.97169 | 14.10133 | 89° | 60km/h | 12898m | 3.7m/s | -49.9°C | 1% | 173hPa | 2.6V | 18:12:15 | 01:16:47 | 00:00:00 | |
| AA1-15 | 2026-09-01 23:36:08 | 53.97156 | 14.09817 | 86° | 68km/h | 12855m | 3.8m/s | -50.2°C | 1.1% | 174.2hPa | 2.6V | 18:12:15 | 01:16:36 | 00:00:00 | |
| AA1-15 | 2026-09-01 23:35:57 | 53.97143 | 14.09498 | 83° | 64km/h | 12809m | 3.1m/s | -50.2°C | 1.2% | 175.3hPa | 2.7V | 18:12:15 | 01:16:25 | 00:00:00 | |
| AA1-15 | 2026-09-01 23:35:47 | 53.97124 | 14.09234 | 79° | 62km/h | 12770m | 3.4m/s | -50.1°C | 1.3% | 176.4hPa | 2.6V | 18:12:15 | 01:16:15 | 00:00:00 | |
| DO2SHX-10 | 2026-09-01 23:35:46 | 53.97121 | 14.09208 | 78° | 58km/h | 12766m | 3.9m/s | -50.1°C | 4.0% | 176.4hPa | 2.6V | 00:00:00 | 01:16:14 | 00:00:00 | |
| DO2SHX-10 | 2026-09-01 23:35:43 | 53.97113 | 14.09135 | 81° | 57km/h | 12755m | 4.1m/s | -50.1°C | 4.0% | 176.7hPa | 2.6V | 00:00:00 | 01:16:11 | 00:00:00 | |
| DG6HD-11 | 2026-09-01 23:35:42 | 53.97111 | 14.09111 | 81° | 55km/h | 12751m | 4.2m/s | -50.2°C | 4.0% | 176.8hPa | 2.6V | 00:00:00 | 00:00:00 | 00:00:00 | |
| DO2SHX-10 | 2026-09-01 23:35:40 | 53.97106 | 14.09063 | 83° | 55km/h | 12743m | 4.6m/s | -50.4°C | 4.0% | 177.0hPa | 2.6V | 00:00:00 | 01:16:08 | 00:00:00 | |
| AA1-15 | 2026-09-01 23:35:37 | 53.97091 | 14.08636 | 92° | 55km/h | 12670m | 3.2m/s | -50.9°C | 1.8% | 179.1hPa | 2.6V | 18:12:15 | 01:15:50 | 00:00:00 | |
| DO2SHX-10 | 2026-09-01 23:35:37 | 53.97101 | 14.08993 | 83° | 57km/h | 12731m | 4.7m/s | -50.5°C | 4.1% | 177.4hPa | 2.6V | 00:00:00 | 01:16:05 | 00:00:00 | |
| DO2SHX-10 | 2026-09-01 23:35:34 | 53.97095 | 14.08920 | 82° | 55km/h | 12720m | 4.4m/s | -50.7°C | 4.2% | 177.7hPa | 2.6V | 00:00:00 | 01:16:02 | 00:00:00 | |
| DO2SHX-10 | 2026-09-01 23:35:31 | 53.97090 | 14.08851 | 86° | 55km/h | 12707m | 4.9m/s | -50.6°C | 4.3% | 178.0hPa | 2.6V | 00:00:00 | 01:15:59 | 08:30:00 | |
| DO2SHX-10 | 2026-09-01 23:35:29 | 53.97089 | 14.08780 | 91° | 57km/h | 12694m | 4.5m/s | -50.7°C | 4.4% | 178.4hPa | 2.6V | 00:00:00 | 01:15:56 | 00:00:00 | |
| DB0DAN | 2026-09-01 23:35:25 | 53.97089 | 14.08707 | 90° | 55km/h | 12682m | 3.7m/s | -50.8°C | 2.1% | 178.78hPa | 2.6V | 00:00:00 | 00:00:00 | 00:00:00 | |
| AA1-15 | 2026-09-01 23:35:11 | 53.97092 | 14.08378 | 96° | 60km/h | 12627m | 3.2m/s | -50.9°C | 2% | 180.3hPa | 2.6V | 18:12:15 | 01:15:39 | 00:00:00 | |
| AA1-15 | 2026-09-01 23:35:00 | 53.97104 | 14.08097 | 93° | 62km/h | 12583m | 3.9m/s | -51.1°C | 2.2% | 181.5hPa | 2.6V | 18:12:15 | 01:15:28 | 00:00:00 | |
| AA1-15 | 2026-09-01 23:34:50 | 53.97115 | 14.07824 | 92° | 64km/h | 12544m | 3.5m/s | -51.2°C | 2.4% | 182.6hPa | 2.7V | 18:12:15 | 01:15:18 | 00:00:00 | |
| AA1-15 | 2026-09-01 23:34:40 | 53.97122 | 14.07500 | 90° | 69km/h | 12499m | 3.3m/s | -51.3°C | 2.5% | 183.9hPa | 2.7V | 18:12:15 | 01:15:07 | 00:00:00 | |
| AA1-15 | 2026-09-01 23:34:29 | 53.97117 | 14.07148 | 92° | 77km/h | 12454m | 3.6m/s | -51.1°C | 2.7% | 185.1hPa | 2.6V | 18:12:15 | 01:14:56 | 00:00:00 | |
| DO2SHX-10 | 2026-09-01 23:34:28 | 53.97117 | 14.07148 | 92° | 77km/h | 12454m | 3.6m/s | -51.1°C | 5.0% | 185.1hPa | 2.6V | 00:00:00 | 01:14:56 | 00:00:00 | |
| DB0DAN | 2026-09-01 23:34:25 | 53.97117 | 14.07051 | 89° | 69km/h | 12443m | 3.9m/s | -51°C | 2.7% | 185.42hPa | 2.7V | 00:00:00 | 00:00:00 | 00:00:00 | |
| AA1-15 | 2026-09-01 23:34:18 | 53.97111 | 14.06813 | 89° | 71km/h | 12408m | 4.9m/s | -51.3°C | 3% | 186.5hPa | 2.6V | 18:12:15 | 01:14:45 | 00:00:00 | |
| AA1-15 | 2026-09-01 23:34:07 | 53.97103 | 14.06511 | 85° | 68km/h | 12365m | 3m/s | -51.7°C | 3.3% | 187.7hPa | 2.7V | 18:12:15 | 01:14:35 | 00:00:00 | |
| AA1-15 | 2026-09-01 23:33:57 | 53.97088 | 14.06199 | 79° | 73km/h | 12325m | 4.4m/s | -51.6°C | 3.5% | 188.8hPa | 2.7V | 18:12:15 | 01:14:25 | 00:00:00 | |
| AA1-15 | 2026-09-01 23:33:46 | 53.97074 | 14.05892 | 90° | 64km/h | 12279m | 4.5m/s | -51.6°C | 3.6% | 190.2hPa | 2.6V | 18:12:15 | 01:14:14 | 00:00:00 | |
| AA1-15 | 2026-09-01 23:33:36 | 53.97069 | 14.05607 | 94° | 57km/h | 12232m | 3.6m/s | -51.4°C | 3.6% | 191.6hPa | 2.6V | 18:12:15 | 01:14:03 | 00:00:00 | |
| SP3WXH-11 | 2026-09-01 23:33:36 | 53.97068 | 14.05632 | 92° | 57km/h | 12236m | 4.5m/s | -51.4°C | 3.3% | 191.4hPa | 2.7V | 00:00:00 | 00:00:00 | 00:00:00 | |
| DO2SHX-10 | 2026-09-01 23:33:34 | 53.97070 | 14.05584 | 95° | 55km/h | 12228m | 4.7m/s | -51.3°C | 5.8% | 191.6hPa | 2.7V | 00:00:00 | 01:14:02 | 00:00:00 | |
| DO2SHX-10 | 2026-09-01 23:33:31 | 53.97073 | 14.05512 | 96° | 58km/h | 12215m | 4.6m/s | -51.4°C | 5.8% | 192.0hPa | 2.6V | 00:00:00 | 01:13:59 | 00:00:00 | |
| DO2SHX-10 | 2026-09-01 23:33:28 | 53.97075 | 14.05437 | 89° | 60km/h | 12202m | 4.2m/s | -51.5°C | 5.9% | 192.4hPa | 2.6V | 00:00:00 | 01:13:56 | 00:00:00 | |
| DB0DAN | 2026-09-01 23:33:25 | 53.97075 | 14.05360 | 92° | 57km/h | 12191m | 4.4m/s | -51.5°C | 3.4% | 192.76hPa | 2.6V | 00:00:00 | 00:00:00 | 00:00:00 | |
| AA1-15 | 2026-09-01 23:33:25 | 53.97076 | 14.05335 | 94° | 58km/h | 12187m | 4.3m/s | -51.5°C | 3.9% | 192.9hPa | 2.6V | 18:12:15 | 01:13:52 | 00:00:00 | |
| AA1-15 | 2026-09-01 23:33:14 | 53.97098 | 14.05048 | 94° | 60km/h | 12143m | 3.7m/s | -51.7°C | 4.4% | 194.2hPa | 2.6V | 18:12:15 | 01:13:41 | 00:00:00 | |
| AA1-15 | 2026-09-01 23:33:03 | 53.97105 | 14.04778 | 92° | 64km/h | 12105m | 3m/s | -51.9°C | 4.9% | 195.3hPa | 2.6V | 18:12:15 | 01:13:31 | 00:00:00 | |
| DO2SHX-10 | 2026-09-01 23:33:01 | 53.97107 | 14.04722 | 93° | 66km/h | 12098m | 3.6m/s | -51.9°C | 6.7% | 195.5hPa | 2.6V | 00:00:00 | 01:13:29 | 00:00:00 | |
| DO2SHX-10 | 2026-09-01 23:32:58 | 53.97107 | 14.04638 | 89° | 64km/h | 12087m | 3.3m/s | -52.0°C | 6.8% | 195.8hPa | 2.6V | 00:00:00 | 01:13:26 | 00:00:00 | |
| DB0DAN | 2026-09-01 23:32:55 | 53.97106 | 14.04557 | 89° | 60km/h | 12074m | 4.2m/s | -52.1°C | 4.2% | 196.2hPa | 2.6V | 00:00:00 | 00:00:00 | 00:00:00 | |
| AA1-15 | 2026-09-01 23:32:52 | 53.97107 | 14.04473 | 93° | 68km/h | 12064m | 4.2m/s | -52.1°C | 5.3% | 196.6hPa | 2.6V | 18:12:15 | 01:13:20 | 00:00:00 | |
| DK1YY | 2026-09-01 23:32:52 | 53.97108 | 14.04444 | 93° | 68km/h | 12060m | 2.9m/s | -52.2°C | 4.3% | 196.7hPa | 2.7V | 00:00:00 | 00:00:00 | 00:00:00 | |
| S3001 | 2026-09-01 23:32:50 | 53.97108 | 14.04414 | 92° | 68km/h | 12057m | 4.1m/s | -52.3°C | 4.3% | 196.8hPa | 2.7V | 00:00:00 | 00:00:00 | 00:00:00 | |
| AA1-15 | 2026-09-01 23:32:41 | 53.97105 | 14.04127 | 89° | 68km/h | 12020m | 4.5m/s | -52.5°C | 6.3% | 197.9hPa | 2.7V | 18:12:15 | 01:13:08 | 00:00:00 | |
| DB0DAN | 2026-09-01 23:32:40 | 53.97105 | 14.04127 | 89° | 64km/h | 12020m | 4.5m/s | -52.5°C | 4.9% | 197.92hPa | 2.7V | 00:00:00 | 00:00:00 | 00:00:00 | |
| AA1-15 | 2026-09-01 23:32:30 | 53.97099 | 14.03792 | 85° | 71km/h | 11978m | 3.5m/s | -53.1°C | 7% | 199.2hPa | 2.6V | 18:12:15 | 01:12:57 | 00:00:00 | |
| AA1-15 | 2026-09-01 23:32:19 | 53.97093 | 14.03515 | 88° | 64km/h | 11939m | 3.2m/s | -53.3°C | 7.8% | 200.4hPa | 2.7V | 18:12:15 | 01:12:47 | 00:00:00 | |
| DG6HD-11 | 2026-09-01 23:32:12 | 53.97081 | 14.03327 | 80° | 62km/h | 11913m | 3.9m/s | -53.4°C | 9.6% | 201.2hPa | 2.6V | 00:00:00 | 00:00:00 | 00:00:00 | |
| DB0DAN | 2026-09-01 23:32:10 | 53.97076 | 14.03276 | 81° | 57km/h | 11905m | 3.2m/s | -53.6°C | 6.7% | 201.45hPa | 2.6V | 00:00:00 | 00:00:00 | 00:00:00 | |
| AA1-15 | 2026-09-01 23:32:08 | 53.97072 | 14.03226 | 82° | 58km/h | 11898m | 4m/s | -53.7°C | 8.9% | 201.7hPa | 2.6V | 18:12:15 | 01:12:36 | 00:00:00 | |
| AA1-15 | 2026-09-01 23:31:57 | 53.97056 | 14.02947 | 84° | 62km/h | 11855m | 4.1m/s | -54°C | 9.4% | 203hPa | 2.7V | 18:12:15 | 01:12:25 | 00:00:00 | |
| AA1-15 | 2026-09-01 23:31:46 | 53.97054 | 14.02638 | 89° | 62km/h | 11813m | 2.9m/s | -53.8°C | 9.8% | 204.4hPa | 2.7V | 18:12:15 | 01:12:14 | 00:00:00 | |
| AA1-15 | 2026-09-01 23:31:35 | 53.97057 | 14.02344 | 91° | 62km/h | 11771m | 3.5m/s | -53.7°C | 10.4% | 205.7hPa | 2.7V | 18:12:15 | 01:12:03 | 00:00:00 | |
| AA1-15 | 2026-09-01 23:31:25 | 53.97063 | 14.02053 | 96° | 66km/h | 11727m | 5.6m/s | -53.6°C | 11.5% | 207.1hPa | 2.7V | 18:12:15 | 01:11:52 | 00:00:00 | |
| AA1-15 | 2026-09-01 23:31:13 | 53.97090 | 14.01755 | 100° | 66km/h | 11681m | 3.6m/s | -53.7°C | 12.9% | 208.6hPa | 2.7V | 18:12:15 | 01:11:41 | 00:00:00 | |
| DG6HD-11 | 2026-09-01 23:31:12 | 53.97092 | 14.01727 | 100° | 71km/h | 11677m | 4.5m/s | -53.6°C | 12.8% | 208.7hPa | 2.6V | 00:00:00 | 00:00:00 | 00:00:00 | |
| DB0DAN | 2026-09-01 23:31:10 | 53.97098 | 14.01673 | 101° | 64km/h | 11670m | 3.7m/s | -53.7°C | 9.6% | 208.96hPa | 2.6V | 00:00:00 | 00:00:00 | 00:00:00 | |
| AA1-15 | 2026-09-01 23:31:03 | 53.97127 | 14.01432 | 102° | 73km/h | 11638m | 3.7m/s | -54.2°C | 14.9% | 210.1hPa | 2.6V | 18:12:15 | 01:11:30 | 00:00:00 | |
| SP3WXH-11 | 2026-09-01 23:31:01 | 53.97134 | 14.01371 | 101° | 71km/h | 11630m | 3.0m/s | -54.3°C | 11.3% | 210.3hPa | 2.6V | 00:00:00 | 00:00:00 | 00:00:00 | |
| DB0DAN | 2026-09-01 23:30:55 | 53.97152 | 14.01215 | 101° | 71km/h | 11610m | 4.8m/s | -54.4°C | 11.6% | 210.92hPa | 2.6V | 00:00:00 | 00:00:00 | 00:00:00 | |
| AA1-15 | 2026-09-01 23:30:52 | 53.97164 | 14.01119 | 102° | 77km/h | 11598m | 3.1m/s | -54.5°C | 16.7% | 211.3hPa | 2.7V | 18:12:15 | 01:11:20 | 00:00:00 | |
| DK1YY | 2026-09-01 23:30:47 | 53.97183 | 14.00965 | 100° | 71km/h | 11579m | 3.4m/s | -54.8°C | 13.4% | 212.0hPa | 2.7V | 00:00:00 | 00:00:00 | 00:00:00 | |
| S3001 | 2026-09-01 23:30:46 | 53.97186 | 14.00935 | 100° | 69km/h | 11575m | 4.2m/s | -54.8°C | 13.5% | 212.1hPa | 2.7V | 00:00:00 | 00:00:00 | 00:00:00 | |
| AA1-15 | 2026-09-01 23:30:41 | 53.97201 | 14.00793 | 101° | 64km/h | 11555m | 5m/s | -55.6°C | 19.2% | 212.7hPa | 2.7V | 18:12:15 | 01:11:09 | 00:00:00 | |
| DB0DAN | 2026-09-01 23:30:40 | 53.97204 | 14.00766 | 101° | 60km/h | 11550m | 4.2m/s | -55.6°C | 14.5% | 212.9hPa | 2.7V | 00:00:00 | 00:00:00 | 00:00:00 | |
| AA1-15 | 2026-09-01 23:30:31 | 53.97225 | 14.00490 | 93° | 62km/h | 11510m | 4.1m/s | -55.6°C | 19.8% | 214.2hPa | 2.7V | 18:12:15 | 01:10:58 | 00:00:00 | |
| AA1-15 | 2026-09-01 23:30:19 | 53.97233 | 14.00206 | 91° | 58km/h | 11467m | 4.1m/s | -55.6°C | 20.8% | 215.7hPa | 2.7V | 18:12:15 | 01:10:47 | 00:00:00 | |
| AA1-15 | 2026-09-01 23:30:08 | 53.97238 | 13.99934 | 95° | 58km/h | 11419m | 5.6m/s | -55.3°C | 22.1% | 217.3hPa | 2.6V | 18:12:15 | 01:10:36 | 00:00:00 | |
| AA1-15 | 2026-09-01 23:29:57 | 53.97259 | 13.99659 | 98° | 55km/h | 11370m | 3.2m/s | -54.9°C | 24% | 219hPa | 2.7V | 18:12:15 | 01:10:25 | 00:00:00 | |
| DO2SHX-10 | 2026-09-01 23:29:57 | 53.97259 | 13.99659 | 99° | 55km/h | 11370m | 3.2m/s | -54.9°C | 22.6% | 219.0hPa | 2.7V | 00:00:00 | 01:10:25 | 00:00:00 | |
| AM1SDL-15 | 2026-09-01 23:29:55 | 53.97264 | 13.99612 | 103° | 60km/h | 11363m | 4.7m/s | -54.8°C | 23.0% | 219.2hPa | 2.7V | 00:00:00 | 01:10:23 | 00:00:00 | |
| DL1XH-15 | 2026-09-01 23:29:54 | 53.97276 | 13.99540 | 104° | 58km/h | 11350m | 4.6m/s | -54.9°C | 24% | 219.7hPa | 2.7V | 08:30:00 | 01:10:20 | 00:00:00 | |
| AA1-15 | 2026-09-01 23:29:46 | 53.97298 | 13.99381 | 101° | 66km/h | 11325m | 4.3m/s | -55.4°C | 27.9% | 220.6hPa | 2.6V | 18:12:15 | 01:10:14 | 00:00:00 | |
| AA1-15 | 2026-09-01 23:29:35 | 53.97338 | 13.99094 | 103° | 69km/h | 11281m | 4.1m/s | -56°C | 30.7% | 222.1hPa | 2.6V | 18:12:15 | 01:10:03 | 00:00:00 | |
| AA1-15 | 2026-09-01 23:29:24 | 53.97378 | 13.98768 | 101° | 68km/h | 11237m | 3.8m/s | -56.6°C | 32.9% | 223.7hPa | 2.6V | 18:12:15 | 01:09:52 | 00:00:00 | |
| AA1-15 | 2026-09-01 23:29:13 | 53.97403 | 13.98432 | 95° | 66km/h | 11192m | 5.2m/s | -56.5°C | 35% | 225.2hPa | 2.7V | 18:12:15 | 01:09:41 | 00:00:00 | |
| AA1-15 | 2026-09-01 23:29:02 | 53.97430 | 13.98111 | 101° | 69km/h | 11149m | 3.8m/s | -56.4°C | 37.4% | 226.7hPa | 2.8V | 18:12:15 | 01:09:30 | 00:00:00 | |
| SP3WXH-11 | 2026-09-01 23:28:57 | 53.97453 | 13.97946 | 104° | 64km/h | 11125m | 4.5m/s | -56.5°C | 32.4% | 227.7hPa | 2.6V | 00:00:00 | 00:00:00 | 00:00:00 | |
| AM1SDL-15 | 2026-09-01 23:28:55 | 53.97457 | 13.97919 | 105° | 64km/h | 11121m | 3.3m/s | -56.4°C | 38.7% | 227.7hPa | 2.6V | 00:00:00 | 01:09:23 | 00:00:00 | |
| DO2SHX-10 | 2026-09-01 23:28:54 | 53.97461 | 13.97891 | 103° | 66km/h | 11117m | 5.1m/s | -56.4°C | 38.8% | 227.9hPa | 2.6V | 00:00:00 | 01:09:22 | 00:00:00 | |
| DL1XH-15 | 2026-09-01 23:28:52 | 53.97488 | 13.97702 | 108° | 60km/h | 11089m | 4.3m/s | -56.7°C | 41.6% | 228.9hPa | 2.6V | 08:30:00 | 01:09:15 | 00:00:00 | |
| AA1-15 | 2026-09-01 23:28:51 | 53.97472 | 13.97807 | 103° | 68km/h | 11104m | 3.5m/s | -56.6°C | 41.1% | 228.4hPa | 2.8V | 18:12:15 | 01:09:19 | 00:00:00 | |
| DO2SHX-10 | 2026-09-01 23:28:51 | 53.97471 | 13.97807 | 103° | 66km/h | 11104m | 3.5m/s | -56.6°C | 40.7% | 228.3hPa | 2.6V | 00:00:00 | 01:09:19 | 00:00:00 | |
| DO2SHX-10 | 2026-09-01 23:28:48 | 53.97483 | 13.97727 | 107° | 60km/h | 11093m | 3.0m/s | -56.6°C | 41.6% | 228.8hPa | 2.6V | 00:00:00 | 01:09:16 | 00:00:00 | |
| DO2SHX-10 | 2026-09-01 23:28:45 | 53.97498 | 13.97653 | 111° | 58km/h | 11081m | 4.0m/s | -56.7°C | 42.7% | 229.1hPa | 2.6V | 00:00:00 | 01:09:13 | 00:00:00 | |
| AM1SDL-15 | 2026-09-01 23:28:43 | 53.97508 | 13.97606 | 111° | 64km/h | 11073m | 3.5m/s | -56.7°C | 43.6% | 229.5hPa | 2.6V | 00:00:00 | 01:09:11 | 00:00:00 | |
| S3001 | 2026-09-01 23:28:42 | 53.97519 | 13.97558 | 111° | 62km/h | 11064m | 3.9m/s | -56.8°C | 37.5% | 229.8hPa | 2.6V | 00:00:00 | 00:00:00 | 00:00:00 | |
| DL1XH-15 | 2026-09-01 23:28:41 | 53.97549 | 13.97425 | 110° | 71km/h | 11044m | 2.9m/s | -57°C | 47.2% | 230.5hPa | 2.6V | 08:30:00 | 01:09:04 | 00:00:00 | |
| AA1-15 | 2026-09-01 23:28:41 | 53.97519 | 13.97558 | 111° | 62km/h | 11064m | 3.9m/s | -56.8°C | 44.2% | 229.8hPa | 2.6V | 18:12:15 | 01:09:09 | 00:00:00 | |
| DO2SHX-10 | 2026-09-01 23:28:39 | 53.97530 | 13.97507 | 111° | 68km/h | 11056m | 3.9m/s | -56.8°C | 45.7% | 230.1hPa | 2.7V | 00:00:00 | 01:09:07 | 00:00:00 | |
| DO2SHX-10 | 2026-09-01 23:28:36 | 53.97549 | 13.97425 | 111° | 71km/h | 11044m | 2.9m/s | -56.9°C | 47.2% | 230.5hPa | 2.8V | 00:00:00 | 01:09:04 | 00:00:00 | |
| MECKS9 | 2026-09-01 23:28:34 | 53.97556 | 13.97395 | 111° | 71km/h | 11041m | 4.0m/s | -57.0°C | 40.3% | 230.6hPa | 2.8V | 00:00:00 | 00:00:00 | 00:00:00 | |
| DL1XH-15 | 2026-09-01 23:28:33 | 53.97606 | 13.97154 | 109° | 68km/h | 11006m | 4m/s | -56.9°C | 48.5% | 231.9hPa | 2.8V | 08:30:00 | 01:08:54 | 00:00:00 | |
| AA1-15 | 2026-09-01 23:28:30 | 53.97585 | 13.97260 | 110° | 64km/h | 11022m | 3.8m/s | -57°C | 46.9% | 231.3hPa | 2.6V | 18:12:15 | 01:08:58 | 00:00:00 | |
| DO2SHX-10 | 2026-09-01 23:28:30 | 53.97585 | 13.97260 | 110° | 64km/h | 11022m | 3.8m/s | -56.9°C | 47.8% | 231.3hPa | 2.6V | 00:00:00 | 01:08:58 | 08:30:00 | |
| DO2SHX-10 | 2026-09-01 23:28:27 | 53.97601 | 13.97181 | 110° | 68km/h | 11010m | 4.6m/s | -56.9°C | 48.3% | 231.7hPa | 2.6V | 00:00:00 | 01:08:55 | 00:00:00 | |
| SP3WXH-11 | 2026-09-01 23:28:26 | 53.97612 | 13.97126 | 109° | 69km/h | 11001m | 4.9m/s | -56.9°C | 41.7% | 232.1hPa | 2.6V | 00:00:00 | 00:00:00 | 00:00:00 | |
| DO2SHX-10 | 2026-09-01 23:28:24 | 53.97618 | 13.97097 | 110° | 73km/h | 10997m | 3.8m/s | -56.9°C | 49.5% | 232.2hPa | 2.6V | 00:00:00 | 01:08:52 | 00:00:00 | |
| DL1XH-15 | 2026-09-01 23:28:21 | 53.97668 | 13.96877 | 110° | 62km/h | 10967m | 3.7m/s | -56.9°C | 51.4% | 233.4hPa | 2.6V | 08:30:00 | 01:08:44 | 00:00:00 | |
| AA1-15 | 2026-09-01 23:28:19 | 53.97652 | 13.96955 | 110° | 68km/h | 10978m | 3.8m/s | -57°C | 48.7% | 233hPa | 2.8V | 18:12:15 | 01:08:47 | 00:00:00 | |
| AA1-15 | 2026-09-01 23:28:08 | 53.97715 | 13.96671 | 113° | 68km/h | 10935m | 3.7m/s | -56.8°C | 50.3% | 234.5hPa | 2.6V | 18:12:15 | 01:08:36 | 00:00:00 | |
| AA1-15 | 2026-09-01 23:27:57 | 53.97790 | 13.96387 | 115° | 68km/h | 10893m | 3.2m/s | -56.7°C | 50.5% | 236.1hPa | 2.8V | 18:12:15 | 01:08:25 | 00:00:00 | |
| DO2SHX-10 | 2026-09-01 23:27:57 | 53.97790 | 13.96386 | 116° | 66km/h | 10893m | 3.1m/s | -56.7°C | 52.4% | 236.1hPa | 2.6V | 00:00:00 | 01:08:25 | 00:00:00 | |
| DB0DAN | 2026-09-01 23:27:55 | 53.97804 | 13.96335 | 115° | 64km/h | 10886m | 4m/s | -56.7°C | 44.9% | 236.35hPa | 2.6V | 00:00:00 | 00:00:00 | 00:00:00 | |
| DL1XH-15 | 2026-09-01 23:27:54 | 53.97818 | 13.96284 | 116° | 68km/h | 10879m | 4.4m/s | -56.7°C | 51.9% | 236.6hPa | 2.8V | 08:30:00 | 01:08:21 | 00:00:00 | |
| AA1-15 | 2026-09-01 23:27:46 | 53.97872 | 13.96106 | 119° | 66km/h | 10853m | 3.3m/s | -56.5°C | 49.7% | 237.6hPa | 2.6V | 18:12:15 | 01:08:14 | 00:00:00 | |
| DO2SHX-10 | 2026-09-01 23:27:45 | 53.97880 | 13.96081 | 119° | 66km/h | 10849m | 4.4m/s | -56.4°C | 52.5% | 237.7hPa | 2.6V | 00:00:00 | 01:08:13 | 00:00:00 | |
| DL1XH-15 | 2026-09-01 23:27:44 | 53.97896 | 13.96031 | 119° | 66km/h | 10841m | 4.5m/s | -56.4°C | 52.5% | 238hPa | 2.8V | 08:30:00 | 01:08:11 | 00:00:00 | |
| AA1-15 | 2026-09-01 23:27:35 | 53.97957 | 13.95836 | 117° | 66km/h | 10809m | 3.6m/s | -56.3°C | 48.8% | 239.2hPa | 2.6V | 18:12:15 | 01:08:03 | 00:00:00 | |
| DL1XH-15 | 2026-09-01 23:27:34 | 53.97974 | 13.95786 | 121° | 68km/h | 10801m | 3.7m/s | -56.2°C | 51.5% | 239.5hPa | 2.6V | 08:30:00 | 01:08:01 | 00:00:00 | |
| DO2SHX-10 | 2026-09-01 23:27:33 | 53.97973 | 13.95786 | 122° | 69km/h | 10801m | 3.6m/s | -56.2°C | 51.5% | 239.5hPa | 2.6V | 00:00:00 | 01:08:01 | 00:00:00 | |
| DO2SHX-10 | 2026-09-01 23:27:30 | 53.98002 | 13.95712 | 124° | 68km/h | 10790m | 3.5m/s | -56.1°C | 51.0% | 239.9hPa | 2.6V | 00:00:00 | 01:07:58 | 00:00:00 | |
| KRY50SP | 2026-09-01 23:27:29 | 53.98002 | 13.95712 | 125° | 68km/h | 10790m | 3.5m/s | 0°C | 0% | 239.9hPa | 2.6V | 00:00:00 | 00:00:00 | 00:00:00 | |
| DO2SHX-10 | 2026-09-01 23:27:27 | 53.98031 | 13.95641 | 127° | 64km/h | 10778m | 4.1m/s | -56.0°C | 50.5% | 240.4hPa | 2.6V | 00:00:00 | 01:07:55 | 00:00:00 | |
| DL1XH-15 | 2026-09-01 23:27:24 | 53.98067 | 13.95552 | 123° | 64km/h | 10762m | 3.1m/s | -56°C | 49.7% | 241hPa | 2.6V | 08:30:00 | 01:07:51 | 00:00:00 | |
| AA1-15 | 2026-09-01 23:27:24 | 53.98059 | 13.95574 | 123° | 62km/h | 10766m | 4.5m/s | -56°C | 48% | 240.8hPa | 2.8V | 18:12:15 | 01:07:52 | 00:00:00 | |
| SP3WXH-11 | 2026-09-01 23:27:24 | 53.98067 | 13.95552 | 123° | 62km/h | 10762m | 3.1m/s | -56.0°C | 42.7% | 241.0hPa | 2.6V | 00:00:00 | 00:00:00 | 00:00:00 | |
| DO2SHX-10 | 2026-09-01 23:27:21 | 53.98085 | 13.95508 | 127° | 66km/h | 10755m | 3.7m/s | -55.8°C | 50.1% | 241.2hPa | 2.6V | 00:00:00 | 01:07:49 | 00:00:00 | |
| KRY50SP | 2026-09-01 23:27:19 | 53.98105 | 13.95463 | 128° | 68km/h | 10748m | 4.6m/s | 0°C | 0% | 0hPa | 2.6V | 00:00:00 | 00:00:00 | 00:00:00 | |
| DO2SHX-10 | 2026-09-01 23:27:18 | 53.98116 | 13.95439 | 128° | 71km/h | 10744m | 3.6m/s | -55.7°C | 48.9% | 241.6hPa | 2.6V | 00:00:00 | 01:07:46 | 00:00:00 | |
| DO2SHX-10 | 2026-09-01 23:27:15 | 53.98149 | 13.95368 | 130° | 71km/h | 10731m | 3.8m/s | -55.7°C | 48.6% | 242.2hPa | 2.8V | 00:00:00 | 01:07:43 | 00:00:00 | |
| DL1XH-15 | 2026-09-01 23:27:14 | 53.98172 | 13.95320 | 126° | 69km/h | 10723m | 4.1m/s | -55.7°C | 48.2% | 242.5hPa | 2.8V | 08:30:00 | 01:07:41 | 00:00:00 | |
| AA1-15 | 2026-09-01 23:27:13 | 53.98172 | 13.95320 | 127° | 69km/h | 10723m | 4.1m/s | -55.7°C | 46.5% | 242.5hPa | 2.8V | 18:12:15 | 01:07:41 | 00:00:00 | |
| DO2SHX-10 | 2026-09-01 23:27:12 | 53.98182 | 13.95296 | 126° | 68km/h | 10720m | 3.5m/s | -55.6°C | 48.0% | 242.6hPa | 2.6V | 00:00:00 | 01:07:40 | 00:00:00 | |
| DB0DAN | 2026-09-01 23:27:10 | 53.98202 | 13.95250 | 127° | 62km/h | 10711m | 3.6m/s | -55.6°C | 40.6% | 242.94hPa | 2.6V | 00:00:00 | 00:00:00 | 00:00:00 | |
| DO2SHX-10 | 2026-09-01 23:27:09 | 53.98212 | 13.95227 | 127° | 66km/h | 10708m | 3.5m/s | -55.5°C | 46.8% | 243.0hPa | 2.6V | 00:00:00 | 01:07:37 | 08:30:00 | |
| S3001 | 2026-09-01 23:27:08 | 53.98222 | 13.95204 | 125° | 66km/h | 10704m | 4.7m/s | -55.5°C | 40.0% | 243.2hPa | 2.6V | 00:00:00 | 00:00:00 | 00:00:00 | |
| KRY50SP | 2026-09-01 23:27:07 | 53.98222 | 13.95204 | 127° | 66km/h | 10704m | 4.7m/s | 0°C | 0% | 0hPa | 2.6V | 00:00:00 | 00:00:00 | 00:00:00 | |
| DO2SHX-10 | 2026-09-01 23:27:06 | 53.98241 | 13.95158 | 127° | 66km/h | 10696m | 3.8m/s | -55.4°C | 46.5% | 243.5hPa | 2.6V | 00:00:00 | 01:07:34 | 00:00:00 | |
| DL1XH-15 | 2026-09-01 23:27:04 | 53.98282 | 13.95068 | 126° | 68km/h | 10681m | 3.7m/s | -55.3°C | 46% | 244hPa | 2.6V | 08:30:00 | 01:07:30 | 00:00:00 | |
| AA1-15 | 2026-09-01 23:27:02 | 53.98282 | 13.95068 | 127° | 68km/h | 10681m | 3.7m/s | -55.3°C | 44.5% | 244hPa | 2.6V | 18:12:15 | 01:07:30 | 00:00:00 | |
| KRY50SP | 2026-09-01 23:27:02 | 53.98271 | 13.95091 | 128° | 68km/h | 10685m | 4.5m/s | 0°C | 0% | 0hPa | 2.7V | 00:00:00 | 00:00:00 | 00:00:00 | |
| SP3BTT-10 | 2026-09-01 23:27:01 | 53.98292 | 13.95045 | 128° | 77km/h | 10677m | 4.7m/s | 0°C | 0% | 0hPa | 2.7V | 00:00:00 | 00:00:00 | 00:00:00 | |
| DO2SHX-10 | 2026-09-01 23:27:00 | 53.98303 | 13.95022 | 129° | 69km/h | 10673m | 3.5m/s | -55.2°C | 46.0% | 244.4hPa | 2.7V | 00:00:00 | 01:07:28 | 00:00:00 | |
| DO2SHX-10 | 2026-09-01 23:26:57 | 53.98337 | 13.94951 | 131° | 69km/h | 10661m | 4.1m/s | -55.1°C | 45.4% | 244.8hPa | 2.8V | 00:00:00 | 01:07:25 | 00:00:00 | |
| KRY50SP | 2026-09-01 23:26:56 | 53.98337 | 13.94951 | 131° | 71km/h | 10661m | 4.2m/s | 0°C | 0% | 0hPa | 2.8V | 00:00:00 | 00:00:00 | 00:00:00 | |
| DL1XH-15 | 2026-09-01 23:26:54 | 53.98397 | 13.94838 | 131° | 73km/h | 10640m | 3.3m/s | -55°C | 45.9% | 245.7hPa | 2.8V | 08:30:00 | 01:07:20 | 00:00:00 | |
| AA1-15 | 2026-09-01 23:26:51 | 53.98409 | 13.94815 | 132° | 73km/h | 10637m | 4.6m/s | -54.9°C | 44.8% | 245.8hPa | 2.8V | 18:12:15 | 01:07:19 | 00:00:00 | |
| KRY50SP | 2026-09-01 23:26:51 | 53.98409 | 13.94815 | 133° | 73km/h | 10637m | 4.6m/s | 0°C | 0% | 0hPa | 2.6V | 00:00:00 | 00:00:00 | 00:00:00 | |
| DO2SHX-10 | 2026-09-01 23:26:48 | 53.98444 | 13.94745 | 129° | 71km/h | 10625m | 4.7m/s | -54.9°C | 46.1% | 246.3hPa | 2.6V | 00:00:00 | 01:07:16 | 00:00:00 | |
| DO2SHX-10 | 2026-09-01 23:26:45 | 53.98477 | 13.94672 | 129° | 71km/h | 10613m | 3.9m/s | -54.9°C | 46.3% | 246.6hPa | 2.6V | 00:00:00 | 01:07:13 | 00:00:00 | |
| DL1XH-15 | 2026-09-01 23:26:44 | 53.98511 | 13.94599 | 127° | 71km/h | 10601m | 3.6m/s | -54.9°C | 46.1% | 247.2hPa | 2.6V | 08:30:00 | 01:07:10 | 00:00:00 | |
| AA1-15 | 2026-09-01 23:26:40 | 53.98533 | 13.94551 | 130° | 71km/h | 10593m | 3.6m/s | -54.8°C | 44.7% | 247.5hPa | 2.8V | 18:12:15 | 01:07:08 | 00:00:00 | |
| DO2SHX-10 | 2026-09-01 23:26:39 | 53.98545 | 13.94527 | 131° | 71km/h | 10589m | 3.3m/s | -54.7°C | 45.8% | 247.6hPa | 2.6V | 00:00:00 | 01:07:07 | 00:00:00 | |
| S3001 | 2026-09-01 23:26:37 | 53.98568 | 13.94480 | 129° | 71km/h | 10581m | 3.4m/s | -54.7°C | 39.4% | 248.0hPa | 2.6V | 00:00:00 | 00:00:00 | 00:00:00 | |
| DO2SHX-10 | 2026-09-01 23:26:36 | 53.98580 | 13.94456 | 131° | 71km/h | 10577m | 4.8m/s | -54.7°C | 45.7% | 248.0hPa | 2.6V | 00:00:00 | 01:07:04 | 00:00:00 | |
| DL1XH-15 | 2026-09-01 23:26:34 | 53.98629 | 13.94361 | 130° | 75km/h | 10561m | 3.7m/s | -54.6°C | 46.2% | 248.7hPa | 2.6V | 08:30:00 | 01:07:00 | 00:00:00 | |
| AA1-15 | 2026-09-01 23:26:30 | 53.98654 | 13.94313 | 133° | 75km/h | 10553m | 4.4m/s | -54.5°C | 44.9% | 249.1hPa | 2.8V | 18:12:15 | 01:06:58 | 00:00:00 | |
| DO2SHX-10 | 2026-09-01 23:26:30 | 53.98654 | 13.94313 | 134° | 75km/h | 10553m | 4.3m/s | -54.5°C | 46.2% | 249.0hPa | 2.6V | 00:00:00 | 01:06:58 | 00:00:00 | |
| KRY50SP | 2026-09-01 23:26:28 | 53.98667 | 13.94290 | 133° | 75km/h | 10550m | 3.6m/s | 0°C | 0% | 0hPa | 2.6V | 00:00:00 | 00:00:00 | 00:00:00 | |
| DO2SHX-10 | 2026-09-01 23:26:27 | 53.98692 | 13.94241 | 130° | 77km/h | 10542m | 3.3m/s | -54.4°C | 47.2% | 249.4hPa | 2.6V | 00:00:00 | 01:06:55 | 00:00:00 | |
| DL1XH-15 | 2026-09-01 23:26:24 | 53.98754 | 13.94116 | 130° | 77km/h | 10522m | 3.9m/s | -54.4°C | 46.1% | 250.3hPa | 2.6V | 08:30:00 | 01:06:50 | 00:00:00 | |
| AA1-15 | 2026-09-01 23:26:19 | 53.98793 | 13.94042 | 133° | 78km/h | 10511m | 3.2m/s | -54.3°C | 43.7% | 250.7hPa | 2.8V | 18:12:15 | 01:06:47 | 00:00:00 | |
| KRY50SP | 2026-09-01 23:26:18 | 53.98806 | 13.94018 | 133° | 78km/h | 10507m | 4.9m/s | 0°C | 0% | 0hPa | 2.7V | 00:00:00 | 00:00:00 | 00:00:00 | |
| DO2SHX-10 | 2026-09-01 23:26:15 | 53.98845 | 13.93944 | 133° | 73km/h | 10495m | 4.6m/s | -54.1°C | 44.0% | 251.2hPa | 2.7V | 00:00:00 | 01:06:43 | 08:30:00 | |
| DL1XH-15 | 2026-09-01 23:26:14 | 53.98881 | 13.93874 | 128° | 73km/h | 10484m | 4m/s | -54.1°C | 43.3% | 251.7hPa | 2.6V | 08:30:00 | 01:06:40 | 00:00:00 | |
| AA1-15 | 2026-09-01 23:26:08 | 53.98929 | 13.93775 | 130° | 75km/h | 10468m | 3.3m/s | -53.9°C | 41.1% | 252.3hPa | 2.8V | 18:12:15 | 01:06:36 | 00:00:00 | |
| AA1-15 | 2026-09-01 23:25:57 | 53.99060 | 13.93508 | 128° | 75km/h | 10427m | 2.9m/s | -53.6°C | 39.8% | 253.9hPa | 2.6V | 18:12:15 | 01:06:25 | 00:00:00 | |
| DO2SHX-10 | 2026-09-01 23:25:57 | 53.99060 | 13.93508 | 129° | 75km/h | 10427m | 2.9m/s | -53.6°C | 40.7% | 253.8hPa | 2.6V | 00:00:00 | 01:06:25 | 00:00:00 | |
| DL1XH-15 | 2026-09-01 23:25:54 | 53.99120 | 13.93379 | 128° | 80km/h | 10408m | 3.5m/s | -53.5°C | 40.2% | 254.7hPa | 2.6V | 08:30:00 | 01:06:20 | 00:00:00 | |
| AA1-15 | 2026-09-01 23:25:46 | 53.99195 | 13.93221 | 128° | 78km/h | 10385m | 4.5m/s | -53.3°C | 38.8% | 255.6hPa | 2.6V | 18:12:15 | 01:06:14 | 00:00:00 | |
| DO2SHX-10 | 2026-09-01 23:25:45 | 53.99207 | 13.93195 | 129° | 78km/h | 10381m | 3.9m/s | -53.2°C | 39.3% | 255.7hPa | 2.8V | 00:00:00 | 01:06:13 | 00:00:00 | |
| DL1XH-15 | 2026-09-01 23:25:44 | 53.99244 | 13.93116 | 128° | 77km/h | 10370m | 2.4m/s | -53.1°C | 39.5% | 256.2hPa | 2.8V | 08:30:00 | 01:06:10 | 00:00:00 | |
| DO2SHX-10 | 2026-09-01 23:25:42 | 53.99243 | 13.93116 | 129° | 77km/h | 10370m | 2.4m/s | -53.1°C | 39.5% | 256.1hPa | 2.6V | 00:00:00 | 01:06:10 | 00:00:00 | |
| DB0DAN | 2026-09-01 23:25:40 | 53.99268 | 13.93065 | 130° | 73km/h | 10363m | 3.5m/s | -53.1°C | 33.4% | 256.45hPa | 2.6V | 00:00:00 | 00:00:00 | 00:00:00 | |
| AA1-15 | 2026-09-01 23:25:35 | 53.99328 | 13.92940 | 128° | 77km/h | 10345m | 3.4m/s | -52.9°C | 38% | 257.2hPa | 2.6V | 18:12:15 | 01:06:03 | 00:00:00 | |
| DL1XH-15 | 2026-09-01 23:25:34 | 53.99364 | 13.92859 | 126° | 78km/h | 10333m | 4.4m/s | -52.8°C | 37.7% | 257.6hPa | 2.8V | 08:30:00 | 01:06:00 | 00:00:00 | |
| DO2SHX-10 | 2026-09-01 23:25:33 | 53.99352 | 13.92886 | 126° | 78km/h | 10337m | 3.3m/s | -52.8°C | 37.9% | 257.4hPa | 2.8V | 00:00:00 | 01:06:01 | 00:00:00 | |
| MECKS9 | 2026-09-01 23:25:31 | 53.99364 | 13.92859 | 127° | 78km/h | 10333m | 4.4m/s | -52.8°C | 32.3% | 257.6hPa | 2.8V | 00:00:00 | 00:00:00 | 00:00:00 | |
| DL1XH-15 | 2026-09-01 23:25:24 | 53.99487 | 13.92592 | 128° | 80km/h | 10297m | 4.2m/s | -52.5°C | 37.6% | 259.1hPa | 2.8V | 08:30:00 | 01:05:50 | 00:00:00 | |
| AA1-15 | 2026-09-01 23:25:24 | 53.99461 | 13.92645 | 129° | 78km/h | 10304m | 3.8m/s | -52.6°C | 37.2% | 258.8hPa | 2.6V | 18:12:15 | 01:05:52 | 00:00:00 | |
| MECKS9 | 2026-09-01 23:25:20 | 53.99499 | 13.92564 | 129° | 82km/h | 10293m | 3.2m/s | -52.5°C | 32.3% | 259.2hPa | 2.6V | 00:00:00 | 00:00:00 | 00:00:00 | |
| SP3WXH-11 | 2026-09-01 23:25:19 | 53.99523 | 13.92508 | 124° | 78km/h | 10286m | 3.7m/s | -52.4°C | 32.6% | 259.6hPa | 2.6V | 00:00:00 | 00:00:00 | 00:00:00 | |
| DL1XH-15 | 2026-09-01 23:25:14 | 53.99607 | 13.92320 | 131° | 77km/h | 10262m | 4.5m/s | -52.2°C | 37.3% | 260.5hPa | 2.6V | 08:30:00 | 01:05:40 | 00:00:00 | |
| AA1-15 | 2026-09-01 23:25:13 | 53.99595 | 13.92345 | 129° | 77km/h | 10265m | 3.2m/s | -52.3°C | 37.3% | 260.4hPa | 2.6V | 18:12:15 | 01:05:41 | 00:00:00 | |
| DG6HD-11 | 2026-09-01 23:25:12 | 53.99607 | 13.92320 | 132° | 80km/h | 10262m | 4.4m/s | -52.2°C | 37.3% | 260.4hPa | 2.6V | 00:00:00 | 00:00:00 | 08:30:00 | |
| DK1YY | 2026-09-01 23:25:06 | 53.99685 | 13.92166 | 127° | 82km/h | 10239m | 3.6m/s | -52.1°C | 31.2% | 261.4hPa | 2.6V | 00:00:00 | 00:00:00 | 00:00:00 | |
| DL1XH-15 | 2026-09-01 23:25:04 | 53.99734 | 13.92052 | 126° | 82km/h | 10224m | 4m/s | -52°C | 36.4% | 262hPa | 2.6V | 08:30:00 | 01:05:30 | 00:00:00 | |
| AA1-15 | 2026-09-01 23:25:03 | 53.99722 | 13.92080 | 126° | 82km/h | 10228m | 3.2m/s | -52°C | 36.4% | 261.8hPa | 2.6V | 18:12:15 | 01:05:31 | 00:00:00 | |
| DL1XH-15 | 2026-09-01 23:24:54 | 53.99891 | 13.91733 | 127° | 82km/h | 10182m | 3.7m/s | -51.7°C | 38.2% | 263.7hPa | 2.6V | 08:30:00 | 01:05:18 | 00:00:00 | |
| AA1-15 | 2026-09-01 23:24:52 | 53.99865 | 13.91789 | 131° | 84km/h | 10188m | 3.7m/s | -51.7°C | 37.8% | 263.4hPa | 2.8V | 18:12:15 | 01:05:20 | 00:00:00 | |
| DO2SHX-10 | 2026-09-01 23:24:51 | 53.99878 | 13.91761 | 129° | 82km/h | 10185m | 2.9m/s | -51.7°C | 38.4% | 263.5hPa | 2.8V | 00:00:00 | 01:05:19 | 00:00:00 | |
| MECKS9 | 2026-09-01 23:24:50 | 53.99878 | 13.91761 | 130° | 84km/h | 10185m | 2.9m/s | -51.7°C | 33.1% | 263.6hPa | 2.8V | 00:00:00 | 00:00:00 | 00:00:00 | |
| DO2SHX-10 | 2026-09-01 23:24:48 | 53.99916 | 13.91678 | 127° | 82km/h | 10175m | 2.9m/s | -51.6°C | 37.6% | 263.9hPa | 2.8V | 00:00:00 | 01:05:16 | 00:00:00 | |
| DL1XH-15 | 2026-09-01 23:24:44 | 54.00018 | 13.91472 | 131° | 82km/h | 10147m | 3.7m/s | -51.4°C | 37.4% | 265.2hPa | 2.8V | 08:30:00 | 01:05:08 | 00:00:00 | |
| AA1-15 | 2026-09-01 23:24:42 | 53.99991 | 13.91524 | 131° | 80km/h | 10155m | 3.9m/s | -51.5°C | 37.6% | 264.8hPa | 2.8V | 18:12:15 | 01:05:10 | 00:00:00 | |
| DG6HD-11 | 2026-09-01 23:24:42 | 53.99991 | 13.91524 | 132° | 84km/h | 10155m | 3.8m/s | -51.4°C | 37.4% | 264.8hPa | 2.7V | 00:00:00 | 00:00:00 | 00:00:00 | |
| MECKS9 | 2026-09-01 23:24:39 | 54.00018 | 13.91472 | 132° | 82km/h | 10147m | 3.7m/s | -51.4°C | 32.2% | 265.2hPa | 2.7V | 00:00:00 | 00:00:00 | 00:00:00 | |
| DO2SHX-10 | 2026-09-01 23:24:35 | 54.00086 | 13.91334 | 130° | 86km/h | 10129m | 2.6m/s | -51.2°C | 38.0% | 265.9hPa | 2.7V | 00:00:00 | 01:05:03 | 08:30:00 | |
| DL1XH-15 | 2026-09-01 23:24:34 | 54.00155 | 13.91193 | 131° | 82km/h | 10111m | 2.8m/s | -51.1°C | 38.6% | 266.6hPa | 2.8V | 08:30:00 | 01:04:58 | 00:00:00 | |
| AA1-15 | 2026-09-01 23:24:31 | 54.00142 | 13.91220 | 131° | 84km/h | 10114m | 3.5m/s | -51.1°C | 38.4% | 266.4hPa | 2.7V | 18:12:15 | 01:04:59 | 00:00:00 | |
| DO2SHX-10 | 2026-09-01 23:24:29 | 54.00169 | 13.91166 | 131° | 80km/h | 10108m | 4.1m/s | -51.0°C | 38.7% | 266.7hPa | 2.6V | 00:00:00 | 01:04:57 | 00:00:00 | |
| DO2SHX-10 | 2026-09-01 23:24:26 | 54.00208 | 13.91086 | 131° | 86km/h | 10097m | 4.0m/s | -51.0°C | 39.4% | 267.1hPa | 2.6V | 00:00:00 | 01:04:54 | 00:00:00 | |
| DL1XH-15 | 2026-09-01 23:24:24 | 54.00293 | 13.90918 | 132° | 84km/h | 10076m | 4.3m/s | -51°C | 40.3% | 268hPa | 2.8V | 08:30:00 | 01:04:48 | 00:00:00 | |
| AA1-15 | 2026-09-01 23:24:20 | 54.00293 | 13.90918 | 132° | 84km/h | 10076m | 4.3m/s | -51°C | 40.3% | 268.1hPa | 2.8V | 18:12:15 | 01:04:48 | 00:00:00 | |
| DO2SHX-10 | 2026-09-01 23:24:20 | 54.00293 | 13.90918 | 133° | 84km/h | 10076m | 4.2m/s | -50.9°C | 40.3% | 268.0hPa | 2.7V | 00:00:00 | 01:04:48 | 00:00:00 | |
| SP3WXH-11 | 2026-09-01 23:24:17 | 54.00337 | 13.90837 | 131° | 86km/h | 10065m | 3.6m/s | -50.9°C | 35.7% | 268.4hPa | 2.7V | 00:00:00 | 00:00:00 | 00:00:00 | |
| DO2SHX-10 | 2026-09-01 23:24:15 | 54.00366 | 13.90780 | 132° | 88km/h | 10059m | 3.2m/s | -50.8°C | 41.6% | 268.7hPa | 2.7V | 00:00:00 | 01:04:43 | 00:00:00 | |
| DL1XH-15 | 2026-09-01 23:24:14 | 54.00438 | 13.90639 | 129° | 86km/h | 10041m | 3.6m/s | -50.8°C | 42.8% | 269.5hPa | 2.8V | 08:30:00 | 01:04:38 | 00:00:00 | |
| AA1-15 | 2026-09-01 23:24:09 | 54.00451 | 13.90611 | 130° | 84km/h | 10037m | 4.7m/s | -50.8°C | 42.2% | 269.6hPa | 2.8V | 18:12:15 | 01:04:37 | 00:00:00 | |
| DO2SHX-10 | 2026-09-01 23:24:07 | 54.00477 | 13.90556 | 129° | 80km/h | 10030m | 3.8m/s | -50.6°C | 42.7% | 269.9hPa | 2.7V | 00:00:00 | 01:04:35 | 00:00:00 | |
| AM1SDL-15 | 2026-09-01 23:24:05 | 54.00502 | 13.90502 | 127° | 77km/h | 10022m | 2.9m/s | -50.6°C | 42.7% | 270.2hPa | 2.7V | 00:00:00 | 01:04:33 | 00:00:00 | |
| DK1YY | 2026-09-01 23:24:04 | 54.00514 | 13.90474 | 125° | 78km/h | 10018m | 4.4m/s | -50.6°C | 37.2% | 270.4hPa | 2.7V | 00:00:00 | 00:00:00 | 00:00:00 | |
| DO2SHX-10 | 2026-09-01 23:24:03 | 54.00525 | 13.90447 | 127° | 80km/h | 10015m | 3.3m/s | -50.5°C | 43.0% | 270.5hPa | 2.7V | 00:00:00 | 01:04:31 | 08:30:00 | |
| S3001 | 2026-09-01 23:24:02 | 54.00537 | 13.90419 | 125° | 80km/h | 10011m | 4.3m/s | -50.5°C | 37.3% | 270.7hPa | 2.8V | 00:00:00 | 00:00:00 | 00:00:00 | |
| DL1XH-15 | 2026-09-01 23:24:01 | 54.00613 | 13.90251 | 128° | 82km/h | 9988m | 3.8m/s | -50.4°C | 42.1% | 271.6hPa | 2.8V | 08:30:00 | 01:04:24 | 00:00:00 | |
| AA1-15 | 2026-09-01 23:23:58 | 54.00587 | 13.90307 | 128° | 82km/h | 9997m | 3.4m/s | -50.4°C | 41.8% | 271.4hPa | 2.6V | 18:12:15 | 01:04:26 | 00:00:00 | |
| DO2SHX-10 | 2026-09-01 23:23:57 | 54.00600 | 13.90279 | 129° | 82km/h | 9993m | 4.8m/s | -50.3°C | 42.0% | 271.4hPa | 2.8V | 00:00:00 | 01:04:25 | 00:00:00 | |
| DB0DAN | 2026-09-01 23:23:55 | 54.00626 | 13.90224 | 129° | 78km/h | 9984m | 4.3m/s | -50.3°C | 36.6% | 271.79hPa | 2.8V | 00:00:00 | 00:00:00 | 00:00:00 | |
| DO2SHX-10 | 2026-09-01 23:23:54 | 54.00639 | 13.90197 | 131° | 80km/h | 9980m | 3.6m/s | -50.3°C | 42.4% | 271.9hPa | 2.7V | 00:00:00 | 01:04:22 | 00:00:00 | |
| DO2SHX-10 | 2026-09-01 23:23:51 | 54.00677 | 13.90116 | 127° | 82km/h | 9970m | 3.7m/s | -50.2°C | 42.1% | 272.4hPa | 2.8V | 00:00:00 | 01:04:19 | 00:00:00 | |
| DL1XH-15 | 2026-09-01 23:23:50 | 54.00737 | 13.89973 | 125° | 84km/h | 9951m | 3m/s | -50°C | 41.3% | 273.3hPa | 2.8V | 08:30:00 | 01:04:14 | 00:00:00 | |
| AA1-15 | 2026-09-01 23:23:47 | 54.00725 | 13.90002 | 125° | 84km/h | 9954m | 4.5m/s | -50.1°C | 40.8% | 273.1hPa | 2.8V | 18:12:15 | 01:04:15 | 00:00:00 | |
| SP3WXH-11 | 2026-09-01 23:23:46 | 54.00737 | 13.89973 | 125° | 84km/h | 9951m | 3.1m/s | -50.1°C | 36.0% | 273.3hPa | 2.7V | 00:00:00 | 00:00:00 | 00:00:00 | |
| DG6HD-11 | 2026-09-01 23:23:42 | 54.00786 | 13.89860 | 127° | 80km/h | 9936m | 4.6m/s | -49.9°C | 41.0% | 273.8hPa | 2.7V | 00:00:00 | 00:00:00 | 00:00:00 | |
| DL1XH-15 | 2026-09-01 23:23:39 | 54.00858 | 13.89695 | 124° | 80km/h | 9913m | 3.3m/s | -49.7°C | 40.7% | 274.8hPa | 2.6V | 08:30:00 | 01:04:04 | 00:00:00 | |
| AA1-15 | 2026-09-01 23:23:36 | 54.00858 | 13.89695 | 125° | 80km/h | 9913m | 3.3m/s | -49.7°C | 40.2% | 274.8hPa | 2.6V | 18:12:15 | 01:04:04 | 00:00:00 | |
| DK1YY | 2026-09-01 23:23:33 | 54.00905 | 13.89583 | 125° | 80km/h | 9898m | 3.8m/s | -49.6°C | 35.0% | 275.4hPa | 2.6V | 00:00:00 | 00:00:00 | 00:00:00 | |
| DO2SHX-10 | 2026-09-01 23:23:31 | 54.00918 | 13.89555 | 127° | 82km/h | 9895m | 4.0m/s | -49.5°C | 39.9% | 275.6hPa | 2.6V | 00:00:00 | 01:03:59 | 00:00:00 | |
| DL1XH-15 | 2026-09-01 23:23:29 | 54.00982 | 13.89416 | 128° | 84km/h | 9876m | 2.8m/s | -49.4°C | 40.1% | 276.4hPa | 2.8V | 08:30:00 | 01:03:54 | 00:00:00 | |
| DO2SHX-10 | 2026-09-01 23:23:28 | 54.00956 | 13.89472 | 129° | 82km/h | 9883m | 4.6m/s | -49.4°C | 39.9% | 276.0hPa | 2.8V | 00:00:00 | 01:03:56 | 00:00:00 | |
| DB0DAN | 2026-09-01 23:23:25 | 54.00995 | 13.89389 | 129° | 78km/h | 9872m | 4.1m/s | -49.4°C | 35% | 276.53hPa | 2.8V | 00:00:00 | 00:00:00 | 00:00:00 | |
| AA1-15 | 2026-09-01 23:23:25 | 54.00995 | 13.89389 | 129° | 82km/h | 9872m | 4.1m/s | -49.4°C | 39.6% | 276.5hPa | 2.8V | 18:12:15 | 01:03:53 | 00:00:00 | |
| DO2SHX-10 | 2026-09-01 23:23:24 | 54.01008 | 13.89361 | 129° | 80km/h | 9869m | 3.3m/s | -49.3°C | 40.2% | 276.6hPa | 2.6V | 00:00:00 | 01:03:52 | 00:00:00 | |
| DL1XH-15 | 2026-09-01 23:23:21 | 54.01099 | 13.89144 | 126° | 78km/h | 9838m | 3.3m/s | -49.1°C | 40.3% | 278hPa | 2.6V | 08:30:00 | 01:03:44 | 00:00:00 | |
| AA1-15 | 2026-09-01 23:23:14 | 54.01124 | 13.89089 | 130° | 84km/h | 9831m | 2.7m/s | -49°C | 40.1% | 278.3hPa | 2.8V | 18:12:15 | 01:03:42 | 00:00:00 | |
| DG6HD-11 | 2026-09-01 23:23:12 | 54.01152 | 13.89034 | 130° | 78km/h | 9824m | 4.3m/s | -48.9°C | 40.3% | 278.5hPa | 2.8V | 00:00:00 | 00:00:00 | 00:00:00 | |
| DL1XH-15 | 2026-09-01 23:23:11 | 54.01225 | 13.88869 | 125° | 77km/h | 9801m | 3.9m/s | -48.9°C | 41.5% | 279.6hPa | 2.8V | 08:30:00 | 01:03:34 | 00:00:00 | |
| AA1-15 | 2026-09-01 23:23:03 | 54.01257 | 13.88792 | 125° | 73km/h | 9790m | 4.4m/s | -48.8°C | 41.1% | 280hPa | 2.7V | 18:12:15 | 01:03:31 | 00:00:00 | |
| DO2SHX-10 | 2026-09-01 23:23:03 | 54.01256 | 13.88792 | 125° | 75km/h | 9790m | 4.3m/s | -48.8°C | 41.6% | 280.0hPa | 2.7V | 00:00:00 | 01:03:31 | 00:00:00 | |
| DK1YY | 2026-09-01 23:23:02 | 54.01278 | 13.88739 | 125° | 77km/h | 9783m | 3.4m/s | -48.8°C | 36.7% | 280.4hPa | 2.8V | 00:00:00 | 00:00:00 | 00:00:00 | |
| DL1XH-15 | 2026-09-01 23:23:00 | 54.01352 | 13.88576 | 129° | 80km/h | 9759m | 4.1m/s | -48.6°C | 41.2% | 281.3hPa | 2.8V | 08:30:00 | 01:03:23 | 00:00:00 | |
| AA1-15 | 2026-09-01 23:22:52 | 54.01390 | 13.88498 | 129° | 77km/h | 9747m | 3.4m/s | -48.5°C | 41.3% | 281.9hPa | 2.8V | 18:12:15 | 01:03:20 | 00:00:00 | |
| DO2SHX-10 | 2026-09-01 23:22:51 | 54.01402 | 13.88472 | 130° | 75km/h | 9743m | 4.5m/s | -48.5°C | 41.3% | 282.0hPa | 2.8V | 00:00:00 | 01:03:19 | 00:00:00 | |
| DL1XH-15 | 2026-09-01 23:22:50 | 54.01477 | 13.88325 | 130° | 75km/h | 9719m | 3.3m/s | -48.3°C | 41.4% | 283hPa | 2.8V | 08:30:00 | 01:03:13 | 00:00:00 | |
| SP3WXH-11 | 2026-09-01 23:22:44 | 54.01489 | 13.88300 | 130° | 75km/h | 9715m | 4.6m/s | -48.3°C | 36.3% | 283.2hPa | 2.6V | 00:00:00 | 00:00:00 | 00:00:00 | |
| AA1-15 | 2026-09-01 23:22:42 | 54.01513 | 13.88249 | 128° | 75km/h | 9708m | 4.3m/s | -48.2°C | 41.5% | 283.6hPa | 2.6V | 18:12:15 | 01:03:10 | 00:00:00 | |
| DO2SHX-10 | 2026-09-01 23:22:42 | 54.01513 | 13.88249 | 129° | 73km/h | 9708m | 4.3m/s | -48.2°C | 41.6% | 283.5hPa | 2.8V | 00:00:00 | 01:03:10 | 00:00:00 | |
| DL1XH-15 | 2026-09-01 23:22:41 | 54.01586 | 13.88072 | 124° | 71km/h | 9680m | 3.8m/s | -48°C | 40.9% | 284.7hPa | 2.8V | 08:30:00 | 01:03:03 | 00:00:00 | |
| DB0DAN | 2026-09-01 23:22:40 | 54.01535 | 13.88199 | 126° | 68km/h | 9699m | 3.4m/s | -48.2°C | 37.1% | 283.94hPa | 2.8V | 00:00:00 | 00:00:00 | 00:00:00 | |
| AA1-15 | 2026-09-01 23:22:31 | 54.01628 | 13.87972 | 128° | 71km/h | 9664m | 5m/s | -47.9°C | 40.3% | 285.4hPa | 2.7V | 18:12:15 | 01:02:59 | 00:00:00 | |
| DO2SHX-10 | 2026-09-01 23:22:30 | 54.01639 | 13.87948 | 130° | 73km/h | 9660m | 3.2m/s | -47.8°C | 40.5% | 285.6hPa | 2.7V | 00:00:00 | 01:02:58 | 00:00:00 | |
| AM1SDL-15 | 2026-09-01 23:22:29 | 54.01651 | 13.87924 | 130° | 73km/h | 9657m | 3.3m/s | -47.8°C | 40.2% | 285.7hPa | 2.7V | 00:00:00 | 01:02:57 | 00:00:00 | |
| DO2SHX-10 | 2026-09-01 23:22:27 | 54.01674 | 13.87873 | 128° | 77km/h | 9650m | 2.9m/s | -47.7°C | 40.0% | 286.0hPa | 2.7V | 00:00:00 | 01:02:55 | 08:30:00 | |
| DB0DAN | 2026-09-01 23:22:25 | 54.01697 | 13.87821 | 127° | 71km/h | 9643m | 3.9m/s | -47.7°C | 34.7% | 286.31hPa | 2.8V | 00:00:00 | 00:00:00 | 00:00:00 | |
| DO2SHX-10 | 2026-09-01 23:22:24 | 54.01708 | 13.87796 | 128° | 73km/h | 9639m | 3.8m/s | -47.7°C | 39.1% | 286.5hPa | 2.8V | 00:00:00 | 01:02:52 | 00:00:00 | |
| DO2SHX-10 | 2026-09-01 23:22:21 | 54.01741 | 13.87720 | 126° | 71km/h | 9628m | 3.2m/s | -47.6°C | 38.3% | 286.9hPa | 2.8V | 00:00:00 | 01:02:49 | 00:00:00 | |
| DL1XH-15 | 2026-09-01 23:22:20 | 54.01805 | 13.87568 | 124° | 73km/h | 9605m | 3.7m/s | -47.5°C | 37.3% | 288hPa | 2.8V | 08:30:00 | 01:02:43 | 00:00:00 | |
| AA1-15 | 2026-09-01 23:22:20 | 54.01752 | 13.87696 | 126° | 71km/h | 9624m | 4.9m/s | -47.6°C | 38.3% | 287.1hPa | 2.8V | 18:12:15 | 01:02:48 | 00:00:00 | |
| DO2SHX-10 | 2026-09-01 23:22:18 | 54.01773 | 13.87646 | 126° | 73km/h | 9616m | 4.1m/s | -47.5°C | 37.5% | 287.4hPa | 2.7V | 00:00:00 | 01:02:46 | 00:00:00 | |
| AM1SDL-15 | 2026-09-01 23:22:17 | 54.01784 | 13.87620 | 125° | 77km/h | 9612m | 3.8m/s | -47.5°C | 37.5% | 287.6hPa | 2.7V | 00:00:00 | 01:02:45 | 08:30:00 | |
| DO2SHX-10 | 2026-09-01 23:22:15 | 54.01805 | 13.87568 | 125° | 75km/h | 9605m | 3.7m/s | -47.4°C | 37.3% | 287.9hPa | 2.8V | 00:00:00 | 01:02:43 | 00:00:00 | |
| SP3WXH-11 | 2026-09-01 23:22:13 | 54.01826 | 13.87515 | 123° | 75km/h | 9598m | 4.4m/s | -47.4°C | 32.2% | 288.3hPa | 2.8V | 00:00:00 | 00:00:00 | 00:00:00 | |
| DO2SHX-10 | 2026-09-01 23:22:12 | 54.01837 | 13.87487 | 124° | 75km/h | 9594m | 3.4m/s | -47.3°C | 36.6% | 288.4hPa | 2.8V | 00:00:00 | 01:02:40 | 00:00:00 | |
| DB0DAN | 2026-09-01 23:22:10 | 54.01859 | 13.87434 | 127° | 71km/h | 9586m | 3.9m/s | -47.3°C | 31.8% | 288.8hPa | 2.8V | 00:00:00 | 00:00:00 | 00:00:00 | |
| DL1XH-15 | 2026-09-01 23:22:10 | 54.01914 | 13.87306 | 124° | 73km/h | 9567m | 4.4m/s | -47.2°C | 36.3% | 289.6hPa | 2.8V | 08:30:00 | 01:02:33 | 00:00:00 | |
| AA1-15 | 2026-09-01 23:22:09 | 54.01870 | 13.87409 | 127° | 75km/h | 9582m | 4m/s | -47.3°C | 36.9% | 289hPa | 2.8V | 18:12:15 | 01:02:37 | 00:00:00 | |
| DO2SHX-10 | 2026-09-01 23:22:09 | 54.01870 | 13.87409 | 128° | 75km/h | 9582m | 3.9m/s | -47.2°C | 36.3% | 288.9hPa | 2.7V | 00:00:00 | 01:02:37 | 00:00:00 | |
| DO2SHX-10 | 2026-09-01 23:22:06 | 54.01904 | 13.87332 | 126° | 73km/h | 9571m | 2.6m/s | -47.2°C | 36.7% | 289.3hPa | 2.8V | 00:00:00 | 01:02:34 | 00:00:00 | |
| DO2SHX-10 | 2026-09-01 23:22:03 | 54.01935 | 13.87254 | 125° | 75km/h | 9560m | 4.0m/s | -47.1°C | 36.2% | 289.8hPa | 2.8V | 00:00:00 | 01:02:31 | 00:00:00 | |
| MECKS9 | 2026-09-01 23:22:01 | 54.01946 | 13.87228 | 125° | 75km/h | 9556m | 3.4m/s | -47.2°C | 31.9% | 290.0hPa | 2.8V | 00:00:00 | 00:00:00 | 00:00:00 | |
| DL1XH-15 | 2026-09-01 23:22:00 | 54.02018 | 13.87042 | 122° | 73km/h | 9531m | 4.4m/s | -47°C | 36.4% | 291.2hPa | 2.8V | 08:30:00 | 01:02:23 | 00:00:00 | |
| DK1YY | 2026-09-01 23:22:00 | 54.01987 | 13.87121 | 123° | 73km/h | 9542m | 3.3m/s | -47.1°C | 31.5% | 290.7hPa | 2.7V | 00:00:00 | 00:00:00 | 00:00:00 | |
| S3001 | 2026-09-01 23:21:58 | 54.01987 | 13.87121 | 123° | 73km/h | 9542m | 3.3m/s | -47.1°C | 31.5% | 290.7hPa | 2.7V | 00:00:00 | 00:00:00 | 00:00:00 | |
| AA1-15 | 2026-09-01 23:21:58 | 54.01987 | 13.87121 | 123° | 73km/h | 9542m | 3.3m/s | -47.1°C | 36.4% | 290.7hPa | 2.8V | 18:12:15 | 01:02:26 | 00:00:00 | |
| DO2SHX-10 | 2026-09-01 23:21:57 | 54.01997 | 13.87095 | 124° | 73km/h | 9538m | 3.8m/s | -47.0°C | 36.2% | 290.8hPa | 2.7V | 00:00:00 | 01:02:25 | 00:00:00 | |
| DO2SHX-10 | 2026-09-01 23:21:54 | 54.02028 | 13.87016 | 123° | 75km/h | 9528m | 3.2m/s | -46.9°C | 36.6% | 291.3hPa | 2.7V | 00:00:00 | 01:02:22 | 00:00:00 | |
| DO2SHX-10 | 2026-09-01 23:21:51 | 54.02058 | 13.86935 | 122° | 75km/h | 9516m | 3.8m/s | -46.9°C | 37.4% | 291.8hPa | 2.7V | 00:00:00 | 01:02:19 | 00:00:00 | |
| MECKS9 | 2026-09-01 23:21:50 | 54.02058 | 13.86935 | 123° | 75km/h | 9516m | 3.8m/s | -46.9°C | 32.9% | 291.8hPa | 2.8V | 00:00:00 | 00:00:00 | 00:00:00 | |
| DL1XH-15 | 2026-09-01 23:21:49 | 54.02115 | 13.86767 | 119° | 75km/h | 9494m | 4m/s | -46.8°C | 37.3% | 292.8hPa | 2.8V | 08:30:00 | 01:02:13 | 00:00:00 | |
| AA1-15 | 2026-09-01 23:21:47 | 54.02096 | 13.86823 | 120° | 77km/h | 9502m | 3.7m/s | -46.8°C | 37.5% | 292.5hPa | 2.7V | 18:12:15 | 01:02:15 | 00:00:00 | |
| DO2SHX-10 | 2026-09-01 23:21:45 | 54.02115 | 13.86767 | 120° | 77km/h | 9495m | 3.9m/s | -46.7°C | 37.3% | 292.8hPa | 2.7V | 00:00:00 | 01:02:13 | 00:00:00 | |
| DO2SHX-10 | 2026-09-01 23:21:42 | 54.02144 | 13.86682 | 120° | 77km/h | 9483m | 3.4m/s | -46.6°C | 37.4% | 293.3hPa | 2.7V | 00:00:00 | 01:02:10 | 00:00:00 | |
| DL1XH-15 | 2026-09-01 23:21:40 | 54.02211 | 13.86482 | 118° | 77km/h | 9456m | 3.6m/s | -46.4°C | 37.5% | 294.5hPa | 2.8V | 08:30:00 | 01:02:03 | 00:00:00 | |
| AA1-15 | 2026-09-01 23:21:36 | 54.02202 | 13.86511 | 120° | 77km/h | 9460m | 4.4m/s | -46.5°C | 37.4% | 294.3hPa | 2.7V | 18:12:15 | 01:02:04 | 00:00:00 | |
| DO2SHX-10 | 2026-09-01 23:21:36 | 54.02202 | 13.86511 | 120° | 77km/h | 9460m | 4.3m/s | -46.4°C | 37.3% | 294.2hPa | 2.7V | 00:00:00 | 01:02:04 | 00:00:00 | |
| DO2SHX-10 | 2026-09-01 23:21:33 | 54.02230 | 13.86424 | 120° | 78km/h | 9448m | 4.3m/s | -46.3°C | 37.3% | 294.8hPa | 2.7V | 00:00:00 | 01:02:01 | 08:30:00 | |
| DL1XH-15 | 2026-09-01 23:21:30 | 54.02312 | 13.86192 | 122° | 77km/h | 9417m | 4.5m/s | -46.1°C | 37% | 296.2hPa | 2.8V | 08:30:00 | 01:01:53 | 00:00:00 | |
| DO2SHX-10 | 2026-09-01 23:21:30 | 54.02260 | 13.86335 | 120° | 78km/h | 9437m | 3.5m/s | -46.2°C | 37.5% | 295.3hPa | 2.7V | 00:00:00 | 01:01:58 | 00:00:00 | |
| DK1YY | 2026-09-01 23:21:29 | 54.02280 | 13.86277 | 121° | 78km/h | 9429m | 4.1m/s | -46.2°C | -1.0% | 295.7hPa | 2.7V | 00:00:00 | 00:00:00 | 00:00:00 | |
| DO2SHX-10 | 2026-09-01 23:21:27 | 54.02290 | 13.86248 | 124° | 77km/h | 9426m | 2.4m/s | -46.2°C | 37.5% | 295.8hPa | 2.7V | 00:00:00 | 01:01:55 | 00:00:00 | |
| AM1SDL-15 | 2026-09-01 23:21:26 | 54.02301 | 13.86220 | 123° | 78km/h | 9422m | 4.3m/s | -46.1°C | 37.0% | 295.9hPa | 2.7V | 00:00:00 | 01:01:54 | 00:00:00 | |
| AA1-15 | 2026-09-01 23:21:26 | 54.02301 | 13.86220 | 123° | 77km/h | 9422m | 4.3m/s | -46.2°C | 37.2% | 296hPa | 2.8V | 18:12:15 | 01:01:54 | 00:00:00 | |
| DO2SHX-10 | 2026-09-01 23:21:24 | 54.02322 | 13.86164 | 122° | 77km/h | 9414m | 3.6m/s | -46.1°C | 37.3% | 296.3hPa | 2.7V | 00:00:00 | 01:01:52 | 00:00:00 | |
| DO2SHX-10 | 2026-09-01 23:21:21 | 54.02353 | 13.86080 | 122° | 78km/h | 9402m | 3.5m/s | -46.0°C | 37.3% | 296.8hPa | 2.8V | 00:00:00 | 01:01:49 | 00:00:00 | |
| DO2SHX-10 | 2026-09-01 23:21:18 | 54.02383 | 13.85993 | 120° | 82km/h | 9391m | 4.6m/s | -45.9°C | 37.2% | 297.4hPa | 2.8V | 00:00:00 | 01:01:46 | 00:00:00 | |
| DL1XH-15 | 2026-09-01 23:21:16 | 54.02414 | 13.85903 | 121° | 80km/h | 9380m | 4.2m/s | -45.8°C | 37% | 297.9hPa | 2.8V | 08:30:00 | 01:01:43 | 00:00:00 | |
| AA1-15 | 2026-09-01 23:21:15 | 54.02414 | 13.85903 | 121° | 80km/h | 9380m | 4.2m/s | -45.8°C | 36.8% | 297.9hPa | 2.8V | 18:12:15 | 01:01:43 | 00:00:00 | |
| DO2SHX-10 | 2026-09-01 23:21:15 | 54.02414 | 13.85903 | 122° | 78km/h | 9380m | 4.2m/s | -45.8°C | 37.0% | 297.8hPa | 2.7V | 00:00:00 | 01:01:43 | 00:00:00 | |
| DG6HD-11 | 2026-09-01 23:21:12 | 54.02446 | 13.85817 | 125° | 80km/h | 9368m | 3.9m/s | -45.7°C | 36.8% | 298.4hPa | 2.8V | 00:00:00 | 00:00:00 | 00:00:00 | |
| SP3WXH-11 | 2026-09-01 23:21:11 | 54.02458 | 13.85789 | 124° | 78km/h | 9364m | 4.1m/s | -45.7°C | 32.5% | 298.6hPa | 2.8V | 00:00:00 | 00:00:00 | 00:00:00 | |
| DL1XH-15 | 2026-09-01 23:21:10 | 54.02525 | 13.85619 | 121° | 80km/h | 9340m | 3.6m/s | -45.5°C | 37% | 299.7hPa | 2.8V | 08:30:00 | 01:01:33 | 00:00:00 | |
| AA1-15 | 2026-09-01 23:21:04 | 54.02535 | 13.85589 | 121° | 82km/h | 9336m | 4.4m/s | -45.4°C | 36.9% | 299.9hPa | 2.7V | 18:12:15 | 01:01:32 | 00:00:00 | |
| DO2SHX-10 | 2026-09-01 23:21:03 | 54.02545 | 13.85558 | 121° | 82km/h | 9332m | 3.7m/s | -45.3°C | 37.1% | 300.0hPa | 2.7V | 00:00:00 | 01:01:31 | 00:00:00 | |
| DO2SHX-10 | 2026-09-01 23:21:00 | 54.02576 | 13.85469 | 122° | 80km/h | 9320m | 3.9m/s | -45.2°C | 36.9% | 300.5hPa | 2.7V | 00:00:00 | 01:01:28 | 00:00:00 | |
| DO2SHX-10 | 2026-09-01 23:20:57 | 54.02609 | 13.85383 | 125° | 78km/h | 9308m | 3.7m/s | -45.2°C | 36.7% | 301.1hPa | 2.7V | 00:00:00 | 01:01:25 | 00:00:00 | |
| DL1XH-15 | 2026-09-01 23:20:56 | 54.02631 | 13.85327 | 122° | 78km/h | 9300m | 3.7m/s | -45.1°C | 36.2% | 301.4hPa | 2.8V | 08:30:00 | 01:01:23 | 00:00:00 | |
| AA1-15 | 2026-09-01 23:20:54 | 54.02642 | 13.85299 | 123° | 78km/h | 9296m | 4.2m/s | -45.1°C | 36.2% | 301.6hPa | 2.8V | 18:12:15 | 01:01:22 | 00:00:00 | |
| SONDE2-11 | 2026-09-01 23:20:54 | 54.02653 | 13.85270 | 122° | 78km/h | 9292m | 3.3m/s | -45.1°C | 31.4% | 301.8hPa | 2.8V | 00:00:00 | 00:00:00 | 00:00:00 | |
| DO2SHX-10 | 2026-09-01 23:20:51 | 54.02673 | 13.85211 | 120° | 80km/h | 9285m | 2.9m/s | -44.9°C | 35.3% | 302.1hPa | 2.8V | 00:00:00 | 01:01:19 | 00:00:00 | |
| DL1XH-15 | 2026-09-01 23:20:50 | 54.02735 | 13.85031 | 121° | 80km/h | 9262m | 4.5m/s | -44.8°C | 34.4% | 303.2hPa | 2.8V | 08:30:00 | 01:01:13 | 00:00:00 | |
| AA1-15 | 2026-09-01 23:20:43 | 54.02757 | 13.84973 | 124° | 80km/h | 9254m | 3.5m/s | -44.7°C | 34.7% | 303.6hPa | 2.7V | 18:12:15 | 01:01:11 | 00:00:00 | |
| DO2SHX-10 | 2026-09-01 23:20:42 | 54.02768 | 13.84945 | 124° | 78km/h | 9251m | 4.0m/s | -44.6°C | 34.3% | 303.6hPa | 2.7V | 00:00:00 | 01:01:10 | 00:00:00 | |
| AM1SDL-15 | 2026-09-01 23:20:40 | 54.02790 | 13.84888 | 124° | 78km/h | 9243m | 4.7m/s | -44.6°C | 34.2% | 304.0hPa | 2.7V | 00:00:00 | 01:01:08 | 00:00:00 | |
| DO2SHX-10 | 2026-09-01 23:20:39 | 54.02801 | 13.84858 | 123° | 80km/h | 9239m | 3.5m/s | -44.5°C | 34.4% | 304.2hPa | 2.7V | 00:00:00 | 01:01:07 | 08:30:00 | |
| DL1XH-15 | 2026-09-01 23:20:36 | 54.02843 | 13.84742 | 122° | 78km/h | 9223m | 4.4m/s | -44.4°C | 35% | 304.9hPa | 2.8V | 08:30:00 | 01:01:03 | 00:00:00 | |
| AA1-15 | 2026-09-01 23:20:32 | 54.02875 | 13.84657 | 122° | 77km/h | 9212m | 4m/s | -44.3°C | 35% | 305.4hPa | 2.8V | 18:12:15 | 01:01:00 | 00:00:00 | |
| DL1XH-15 | 2026-09-01 23:20:30 | 54.02953 | 13.84458 | 124° | 82km/h | 9184m | 4m/s | -44.1°C | 35.6% | 306.6hPa | 2.8V | 08:30:00 | 01:00:53 | 00:00:00 | |
| AA1-15 | 2026-09-01 23:20:21 | 54.02997 | 13.84342 | 122° | 82km/h | 9168m | 4.9m/s | -44°C | 35.1% | 307.4hPa | 2.7V | 18:12:15 | 01:00:49 | 00:00:00 | |
| DO2SHX-10 | 2026-09-01 23:20:21 | 54.02997 | 13.84342 | 123° | 80km/h | 9168m | 4.8m/s | -43.9°C | 34.8% | 307.4hPa | 2.7V | 00:00:00 | 01:00:49 | 00:00:00 | |
| DO2SHX-10 | 2026-09-01 23:20:18 | 54.03029 | 13.84254 | 122° | 80km/h | 9155m | 3.9m/s | -43.8°C | 34.3% | 308.0hPa | 2.7V | 00:00:00 | 01:00:46 | 00:00:00 | |
| DL1XH-15 | 2026-09-01 23:20:16 | 54.03061 | 13.84164 | 120° | 80km/h | 9143m | 4.4m/s | -43.7°C | 33.9% | 308.6hPa | 2.7V | 08:30:00 | 01:00:43 | 00:00:00 | |
| AA1-15 | 2026-09-01 23:20:11 | 54.03104 | 13.84044 | 123° | 82km/h | 9129m | 3.5m/s | -43.6°C | 33.7% | 309.2hPa | 2.7V | 18:12:15 | 01:00:39 | 00:00:00 | |
| DL1XH-15 | 2026-09-01 23:20:10 | 54.03171 | 13.83878 | 125° | 73km/h | 9105m | 3.8m/s | -43.3°C | 32.7% | 310.3hPa | 2.7V | 08:30:00 | 01:00:33 | 00:00:00 | |
| AA1-15 | 2026-09-01 23:20:00 | 54.03224 | 13.83741 | 120° | 80km/h | 9086m | 3.1m/s | -43.2°C | 32.3% | 311.2hPa | 2.7V | 18:12:15 | 01:00:28 | 00:00:00 | |
| AA1-15 | 2026-09-01 23:19:50 | 54.03337 | 13.83464 | 126° | 75km/h | 9047m | 3.9m/s | -42.9°C | 30.9% | 313.1hPa | 2.8V | 18:12:15 | 01:00:18 | 00:00:00 | |
| AA1-15 | 2026-09-01 23:19:39 | 54.03454 | 13.83163 | 124° | 73km/h | 9003m | 4.6m/s | -42.5°C | 30.3% | 315hPa | 2.8V | 18:12:15 | 01:00:07 | 00:00:00 | |
| DO2SHX-10 | 2026-09-01 23:19:39 | 54.03454 | 13.83163 | 124° | 75km/h | 9003m | 4.6m/s | -42.5°C | 29.6% | 315.0hPa | 2.7V | 00:00:00 | 01:00:07 | 00:00:00 | |
| SP3WXH-11 | 2026-09-01 23:19:38 | 54.03465 | 13.83137 | 124° | 73km/h | 8999m | 3.3m/s | -42.5°C | 26.3% | 315.2hPa | 2.7V | 00:00:00 | 00:00:00 | 00:00:00 | |
| DO2SHX-10 | 2026-09-01 23:19:36 | 54.03486 | 13.83084 | 124° | 77km/h | 8992m | 4.0m/s | -42.4°C | 29.5% | 315.5hPa | 2.7V | 00:00:00 | 01:00:04 | 00:00:00 | |
| KRY50SP | 2026-09-01 23:19:35 | 54.03486 | 13.83084 | 125° | 75km/h | 8992m | 4.0m/s | 0°C | 0% | 0hPa | 2.8V | 00:00:00 | 00:00:00 | 00:00:00 | |
| AM1SDL-15 | 2026-09-01 23:19:34 | 54.03507 | 13.83030 | 125° | 75km/h | 8983m | 3.7m/s | -42.3°C | 29.6% | 315.9hPa | 2.8V | 00:00:00 | 01:00:02 | 00:00:00 | |
| DL1XH-15 | 2026-09-01 23:19:33 | 54.03562 | 13.82891 | 123° | 78km/h | 8964m | 4.2m/s | -42.3°C | 29.5% | 316.9hPa | 2.8V | 08:30:00 | 00:59:57 | 00:00:00 | |
| AA1-15 | 2026-09-01 23:19:29 | 54.03562 | 13.82891 | 124° | 78km/h | 8964m | 4.2m/s | -42.3°C | 29.9% | 316.9hPa | 2.8V | 18:12:15 | 00:59:57 | 00:00:00 | |
| DO2SHX-10 | 2026-09-01 23:19:27 | 54.03583 | 13.82836 | 124° | 71km/h | 8957m | 4.4m/s | -42.2°C | 29.3% | 317.1hPa | 2.7V | 00:00:00 | 00:59:55 | 00:00:00 | |
| DO2SHX-10 | 2026-09-01 23:19:24 | 54.03611 | 13.82757 | 119° | 73km/h | 8946m | 4.2m/s | -42.1°C | 29.5% | 317.7hPa | 2.8V | 00:00:00 | 00:59:52 | 00:00:00 | |
| DL1XH-15 | 2026-09-01 23:19:23 | 54.03660 | 13.82619 | 123° | 78km/h | 8927m | 3.8m/s | -41.9°C | 28.7% | 318.6hPa | 2.8V | 08:30:00 | 00:59:47 | 00:00:00 | |
| AA1-15 | 2026-09-01 23:19:19 | 54.03660 | 13.82618 | 124° | 78km/h | 8927m | 3.8m/s | -41.9°C | 29.3% | 318.6hPa | 2.8V | 18:12:15 | 00:59:47 | 00:00:00 | |
| DO2SHX-10 | 2026-09-01 23:19:18 | 54.03671 | 13.82590 | 124° | 78km/h | 8923m | 4.2m/s | -41.9°C | 28.8% | 318.8hPa | 2.7V | 00:00:00 | 00:59:46 | 08:30:00 | |
| DO2SHX-10 | 2026-09-01 23:19:15 | 54.03703 | 13.82506 | 121° | 75km/h | 8911m | 3.7m/s | -41.8°C | 28.8% | 319.3hPa | 2.7V | 00:00:00 | 00:59:43 | 00:00:00 | |
| DL1XH-15 | 2026-09-01 23:19:13 | 54.03754 | 13.82337 | 117° | 75km/h | 8889m | 4.2m/s | -41.6°C | 28.5% | 320.4hPa | 2.7V | 08:30:00 | 00:59:37 | 00:00:00 | |
| AA1-15 | 2026-09-01 23:19:08 | 54.03764 | 13.82308 | 118° | 77km/h | 8885m | 3.9m/s | -41.6°C | 28.9% | 320.6hPa | 2.8V | 18:12:15 | 00:59:36 | 00:00:00 | |
| SP3WXH-11 | 2026-09-01 23:19:07 | 54.03773 | 13.82279 | 118° | 77km/h | 8881m | 3.2m/s | -41.6°C | 25.3% | 320.8hPa | 2.7V | 00:00:00 | 00:00:00 | 00:00:00 | |
| DO2SHX-10 | 2026-09-01 23:19:06 | 54.03782 | 13.82250 | 120° | 77km/h | 8877m | 4.6m/s | -41.5°C | 28.3% | 320.9hPa | 2.7V | 00:00:00 | 00:59:34 | 00:00:00 | |
| DO2SHX-10 | 2026-09-01 23:19:03 | 54.03812 | 13.82164 | 121° | 77km/h | 8865m | 3.9m/s | -41.4°C | 28.1% | 321.5hPa | 2.7V | 00:00:00 | 00:59:31 | 00:00:00 | |
| DL1XH-15 | 2026-09-01 23:18:59 | 54.03851 | 13.82052 | 119° | 77km/h | 8849m | 4.4m/s | -41.3°C | 27.8% | 322.3hPa | 2.7V | 08:30:00 | 00:59:27 | 00:00:00 | |
| AA1-15 | 2026-09-01 23:18:58 | 54.03860 | 13.82023 | 119° | 78km/h | 8845m | 3.4m/s | -41.3°C | 28.2% | 322.5hPa | 2.7V | 18:12:15 | 00:59:26 | 00:00:00 | |
| DO2SHX-10 | 2026-09-01 23:18:57 | 54.03870 | 13.81994 | 119° | 77km/h | 8842m | 4.2m/s | -41.2°C | 27.5% | 322.6hPa | 2.8V | 00:00:00 | 00:59:25 | 00:00:00 | |
| KRY50SP | 2026-09-01 23:18:56 | 54.03869 | 13.81994 | 120° | 77km/h | 8842m | 4.3m/s | 0°C | 0% | 0hPa | 2.8V | 00:00:00 | 00:00:00 | 00:00:00 | |
| SP3BTT-10 | 2026-09-01 23:18:55 | 54.03888 | 13.81936 | 119° | 73km/h | 8833m | 4.3m/s | 0°C | 0% | 0hPa | 2.8V | 00:00:00 | 00:00:00 | 00:00:00 | |
| DO2SHX-10 | 2026-09-01 23:18:54 | 54.03898 | 13.81906 | 119° | 77km/h | 8829m | 4.0m/s | -41.1°C | 27.5% | 323.2hPa | 2.8V | 00:00:00 | 00:59:22 | 00:00:00 | |
| DL1XH-15 | 2026-09-01 23:18:52 | 54.03951 | 13.81731 | 116° | 77km/h | 8806m | 3.8m/s | -40.9°C | 26.9% | 324.3hPa | 2.8V | 08:30:00 | 00:59:16 | 00:00:00 | |
| AA1-15 | 2026-09-01 23:18:47 | 54.03960 | 13.81702 | 117° | 75km/h | 8803m | 4m/s | -40.9°C | 27.4% | 324.5hPa | 2.7V | 18:12:15 | 00:59:15 | 00:00:00 | |
| KRY50SP | 2026-09-01 23:18:46 | 54.03968 | 13.81673 | 118° | 75km/h | 8799m | 3.7m/s | 0°C | 0% | 0hPa | 2.7V | 00:00:00 | 00:00:00 | 00:00:00 | |
| DO2SHX-10 | 2026-09-01 23:18:45 | 54.03977 | 13.81644 | 117° | 77km/h | 8794m | 4.9m/s | -40.8°C | 26.4% | 324.8hPa | 2.7V | 00:00:00 | 00:59:13 | 00:00:00 | |
| AM1SDL-15 | 2026-09-01 23:18:44 | 54.03986 | 13.81615 | 117° | 78km/h | 8790m | 3.5m/s | -40.7°C | 26.5% | 325.0hPa | 2.7V | 00:00:00 | 00:59:12 | 00:00:00 | |
| DO2SHX-10 | 2026-09-01 23:18:42 | 54.04003 | 13.81556 | 117° | 78km/h | 8783m | 3.5m/s | -40.7°C | 26.4% | 325.4hPa | 2.7V | 00:00:00 | 00:59:10 | 00:00:00 | |
| DG6HD-11 | 2026-09-01 23:18:41 | 54.04012 | 13.81526 | 117° | 78km/h | 8779m | 3.5m/s | -40.6°C | 26.1% | 325.6hPa | 2.8V | 00:00:00 | 00:00:00 | 00:00:00 | |
| DL1XH-15 | 2026-09-01 23:18:38 | 54.04039 | 13.81433 | 116° | 80km/h | 8767m | 4.6m/s | -40.6°C | 25.5% | 326.2hPa | 2.8V | 08:30:00 | 00:59:06 | 00:00:00 | |
| AA1-15 | 2026-09-01 23:18:36 | 54.04056 | 13.81372 | 115° | 78km/h | 8759m | 4.4m/s | -40.5°C | 26.1% | 326.5hPa | 2.7V | 18:12:15 | 00:59:04 | 00:00:00 | |
| AA1-15 | 2026-09-01 23:18:25 | 54.04154 | 13.81051 | 116° | 75km/h | 8715m | 3.9m/s | -40.1°C | 25.8% | 328.6hPa | 2.8V | 18:12:15 | 00:58:53 | 00:00:00 | |
| DO2SHX-10 | 2026-09-01 23:18:24 | 54.04163 | 13.81022 | 118° | 77km/h | 8711m | 4.5m/s | -40.1°C | 25.8% | 328.7hPa | 2.7V | 00:00:00 | 00:58:52 | 08:30:00 | |
| DL1XH-15 | 2026-09-01 23:18:22 | 54.04189 | 13.80934 | 114° | 78km/h | 8699m | 4.3m/s | -40°C | 25.9% | 329.4hPa | 2.8V | 08:30:00 | 00:58:49 | 00:00:00 | |
| AA1-15 | 2026-09-01 23:18:14 | 54.04252 | 13.80713 | 118° | 78km/h | 8672m | 3.6m/s | -39.8°C | 26.3% | 330.8hPa | 2.8V | 18:12:15 | 00:58:42 | 00:00:00 | |
| DL1XH-15 | 2026-09-01 23:18:12 | 54.04278 | 13.80626 | 117° | 75km/h | 8660m | 3.8m/s | -39.7°C | 25.4% | 331.4hPa | 2.8V | 08:30:00 | 00:58:39 | 00:00:00 | |
| AA1-15 | 2026-09-01 23:18:03 | 54.04352 | 13.80382 | 116° | 82km/h | 8628m | 4.9m/s | -39.4°C | 25.1% | 332.9hPa | 2.8V | 18:12:15 | 00:58:31 | 00:00:00 | |
| DL1XH-15 | 2026-09-01 23:18:03 | 54.04370 | 13.80320 | 117° | 78km/h | 8620m | 4.2m/s | -39.3°C | 23.7% | 333.2hPa | 2.7V | 08:30:00 | 00:58:29 | 00:00:00 | |
| DO2SHX-10 | 2026-09-01 23:18:00 | 54.04380 | 13.80290 | 119° | 78km/h | 8616m | 4.2m/s | 0°C | 0% | 0hPa | 2.8V | 00:00:00 | 00:58:28 | 00:00:00 | |
| DO2SHX-10 | 2026-09-01 23:17:57 | 54.04408 | 13.80201 | 118° | 78km/h | 8604m | 3.7m/s | 0°C | 0% | 0hPa | 2.8V | 00:00:00 | 00:58:25 | 00:00:00 | |
| DO2SHX-10 | 2026-09-01 23:17:54 | 54.04436 | 13.80111 | 119° | 80km/h | 8593m | 3.7m/s | 0°C | 0% | 0hPa | 2.8V | 00:00:00 | 00:58:22 | 00:00:00 | |
| DL1XH-15 | 2026-09-01 23:17:53 | 54.04464 | 13.80019 | 116° | 82km/h | 8581m | 3.9m/s | -39°C | 22.5% | 335.1hPa | 2.8V | 08:30:00 | 00:58:19 | 00:00:00 | |
| AA1-15 | 2026-09-01 23:17:52 | 54.04455 | 13.80050 | 116° | 80km/h | 8584m | 3.3m/s | -39°C | 23.9% | 335hPa | 2.8V | 18:12:15 | 00:58:20 | 00:00:00 | |
| S3001 | 2026-09-01 23:17:50 | 54.04483 | 13.79956 | 117° | 82km/h | 8573m | 3.1m/s | -38.9°C | 19.4% | 335.5hPa | 2.8V | 00:00:00 | 00:00:00 | 00:00:00 | |
| SONDE2-11 | 2026-09-01 23:17:48 | 54.04501 | 13.79894 | 116° | 78km/h | 8565m | 4.1m/s | -38.9°C | 18.9% | 335.9hPa | 2.8V | 00:00:00 | 00:00:00 | 00:00:00 | |
| DO2SHX-10 | 2026-09-01 23:17:45 | 54.04520 | 13.79834 | 119° | 80km/h | 8558m | 4.4m/s | 0°C | 0% | 0hPa | 2.8V | 00:00:00 | 00:58:13 | 00:00:00 | |
| DL1XH-15 | 2026-09-01 23:17:42 | 54.04566 | 13.79682 | 117° | 80km/h | 8539m | 4.5m/s | -38.8°C | 20.7% | 337.2hPa | 2.8V | 08:30:00 | 00:58:08 | 00:00:00 | |
| AA1-15 | 2026-09-01 23:17:41 | 54.04557 | 13.79713 | 117° | 78km/h | 8543m | 3.3m/s | -38.8°C | 21.6% | 337.1hPa | 2.8V | 18:12:15 | 00:58:09 | 00:00:00 | |
| DG6HD-11 | 2026-09-01 23:17:41 | 54.04557 | 13.79712 | 117° | 77km/h | 8543m | 3.2m/s | -38.8°C | 20.9% | 337.0hPa | 2.7V | 00:00:00 | 00:58:09 | 00:00:00 | |
| DO2SHX-10 | 2026-09-01 23:17:39 | 54.04576 | 13.79651 | 119° | 82km/h | 8535m | 3.4m/s | 0°C | 0% | 0hPa | 2.8V | 00:00:00 | 00:58:07 | 00:00:00 | |
| DO2SHX-10 | 2026-09-01 23:17:36 | 54.04604 | 13.79559 | 118° | 80km/h | 8524m | 3.3m/s | 0°C | 0% | 0hPa | 2.8V | 00:00:00 | 00:58:04 | 00:00:00 | |
| SP3WXH-11 | 2026-09-01 23:17:34 | 54.04624 | 13.79498 | 119° | 78km/h | 8516m | 3.4m/s | -38.7°C | -1.0% | 338.4hPa | 2.8V | 00:00:00 | 00:00:00 | 00:00:00 | |
| DO2SHX-10 | 2026-09-01 23:17:33 | 54.04634 | 13.79468 | 119° | 78km/h | 8513m | 4.2m/s | 0°C | 0% | 0hPa | 2.8V | 00:00:00 | 00:58:01 | 00:00:00 | |
| DL1XH-15 | 2026-09-01 23:17:32 | 54.04670 | 13.79350 | 118° | 75km/h | 8497m | 3.2m/s | -38.5°C | 21.4% | 339.3hPa | 2.8V | 08:30:00 | 00:57:57 | 00:00:00 | |
| AA1-15 | 2026-09-01 23:17:30 | 54.04661 | 13.79379 | 118° | 77km/h | 8501m | 4.5m/s | -38.6°C | 22.2% | 339.1hPa | 2.7V | 18:12:15 | 00:57:58 | 00:00:00 | |
| DO2SHX-10 | 2026-09-01 23:17:30 | 54.04661 | 13.79379 | 119° | 75km/h | 8501m | 4.5m/s | 0°C | 0% | 0hPa | 2.7V | 00:00:00 | 00:57:58 | 00:00:00 | |
| DB0DAN | 2026-09-01 23:17:25 | 54.04705 | 13.79236 | 117° | 71km/h | 8481m | 4.5m/s | -38.4°C | 19.3% | 340.18hPa | 2.7V | 00:00:00 | 00:00:00 | 00:00:00 | |
| AA1-15 | 2026-09-01 23:17:20 | 54.04747 | 13.79091 | 116° | 75km/h | 8460m | 5.1m/s | -38.3°C | 23.2% | 341.1hPa | 2.8V | 18:12:15 | 00:57:48 | 00:00:00 | |
| AA1-15 | 2026-09-01 23:17:09 | 54.04829 | 13.78785 | 116° | 75km/h | 8413m | 4m/s | -38°C | 26% | 343.5hPa | 2.8V | 18:12:15 | 00:57:37 | 00:00:00 | |
| AA1-15 | 2026-09-01 23:16:58 | 54.04902 | 13.78485 | 112° | 68km/h | 8370m | 3.9m/s | -37.8°C | 31.5% | 345.6hPa | 2.8V | 18:12:15 | 00:57:26 | 00:00:00 | |
| AA1-15 | 2026-09-01 23:16:47 | 54.04971 | 13.78177 | 108° | 71km/h | 8327m | 5.2m/s | -37.4°C | 33.7% | 347.7hPa | 2.7V | 18:12:15 | 00:57:15 | 00:00:00 | |
| SONDE2-11 | 2026-09-01 23:16:45 | 54.04981 | 13.78121 | 107° | 66km/h | 8319m | 4.4m/s | -37.4°C | 30.9% | 348.1hPa | 2.7V | 00:00:00 | 00:00:00 | 00:00:00 | |
| AM1SDL-15 | 2026-09-01 23:16:42 | 54.04996 | 13.78041 | 110° | 66km/h | 8307m | 4.0m/s | -37.2°C | 35.0% | 348.7hPa | 2.7V | 00:00:00 | 00:57:10 | 00:00:00 | |
| DB0DAN | 2026-09-01 23:16:40 | 54.05006 | 13.77989 | 108° | 60km/h | 8300m | 4.4m/s | -37.2°C | 32.8% | 349.12hPa | 2.7V | 00:00:00 | 00:00:00 | 00:00:00 | |
| AA1-15 | 2026-09-01 23:16:36 | 54.05025 | 13.77881 | 107° | 69km/h | 8284m | 4.2m/s | -37.1°C | 35.9% | 349.9hPa | 2.8V | 18:12:15 | 00:57:04 | 00:00:00 | |
| AM1SDL-15 | 2026-09-01 23:16:30 | 54.05053 | 13.77713 | 107° | 68km/h | 8260m | 3.6m/s | -36.8°C | 36.6% | 351.1hPa | 2.8V | 00:00:00 | 00:56:58 | 00:00:00 | |
| DB0DAN | 2026-09-01 23:16:25 | 54.05078 | 13.77570 | 108° | 68km/h | 8239m | 4.7m/s | -36.7°C | 35.8% | 352.22hPa | 2.8V | 00:00:00 | 00:00:00 | 00:00:00 | |
| AA1-15 | 2026-09-01 23:16:25 | 54.05078 | 13.77570 | 108° | 69km/h | 8239m | 4.7m/s | -36.7°C | 39% | 352.2hPa | 2.8V | 18:12:15 | 00:56:53 | 00:00:00 | |
| AA1-15 | 2026-09-01 23:16:14 | 54.05123 | 13.77261 | 103° | 68km/h | 8190m | 5.1m/s | -36.3°C | 41.1% | 354.7hPa | 2.8V | 18:12:15 | 00:56:42 | 00:00:00 | |
| DB0DAN | 2026-09-01 23:16:10 | 54.05137 | 13.77145 | 100° | 66km/h | 8173m | 3.8m/s | -36.1°C | 38.3% | 355.57hPa | 2.8V | 00:00:00 | 00:00:00 | 00:00:00 | |
| AA1-15 | 2026-09-01 23:16:04 | 54.05162 | 13.76943 | 103° | 71km/h | 8145m | 3.6m/s | -35.9°C | 41.3% | 357hPa | 2.7V | 18:12:15 | 00:56:31 | 00:00:00 | |
| AA1-15 | 2026-09-01 23:15:52 | 54.05202 | 13.76612 | 103° | 75km/h | 8101m | 4.6m/s | -35.5°C | 41.6% | 359.2hPa | 2.8V | 18:12:15 | 00:56:20 | 00:00:00 | |
| S3001 | 2026-09-01 23:15:46 | 54.05222 | 13.76408 | 100° | 66km/h | 8073m | 4.5m/s | -35.4°C | 39.7% | 360.7hPa | 2.8V | 00:00:00 | 00:00:00 | 00:00:00 | |
| AA1-15 | 2026-09-01 23:15:41 | 54.05234 | 13.76295 | 101° | 69km/h | 8059m | 3.3m/s | -35.3°C | 42.7% | 361.4hPa | 2.8V | 18:12:15 | 00:56:09 | 00:00:00 | |
| DL1XH-15 | 2026-09-01 23:15:31 | 54.05275 | 13.75864 | 98° | 66km/h | 8003m | 3.9m/s | -34.7°C | 40.7% | 364.4hPa | 2.8V | 08:30:00 | 00:55:54 | 00:00:00 | |
| AA1-15 | 2026-09-01 23:15:30 | 54.05263 | 13.75978 | 99° | 68km/h | 8018m | 3.2m/s | -34.9°C | 41.4% | 363.6hPa | 2.7V | 18:12:15 | 00:55:58 | 00:00:00 | |
| AM1SDL-15 | 2026-09-01 23:15:30 | 54.05263 | 13.75978 | 100° | 66km/h | 8018m | 3.1m/s | -34.8°C | 41.0% | 363.5hPa | 2.7V | 00:00:00 | 00:55:58 | 08:30:00 | |
| DL1XH-15 | 2026-09-01 23:15:21 | 54.05299 | 13.75598 | 96° | 64km/h | 7967m | 3.7m/s | -34.4°C | 40.3% | 366.2hPa | 2.7V | 08:30:00 | 00:55:44 | 00:00:00 | |
| DL1XH-west | 2026-09-01 23:15:20 | 54.05289 | 13.75706 | 98° | 62km/h | 7982m | 3.2m/s | -34.5°C | 40.4% | 0hPa | 2.8V | 18:12:15 | 00:55:48 | 00:00:00 | |
| AA1-15 | 2026-09-01 23:15:19 | 54.05292 | 13.75679 | 99° | 64km/h | 7978m | 4.1m/s | -34.5°C | 40.4% | 365.6hPa | 2.8V | 18:12:15 | 00:55:47 | 00:00:00 | |
| AA1-15 | 2026-09-01 23:15:09 | 54.05314 | 13.75410 | 101° | 66km/h | 7940m | 3m/s | -34.2°C | 40% | 367.6hPa | 2.7V | 18:12:15 | 00:55:37 | 00:00:00 | |
| DL1XH-west | 2026-09-01 23:15:01 | 54.05335 | 13.75183 | 97° | 64km/h | 7910m | 4.2m/s | -33.9°C | 39% | 0hPa | 2.8V | 18:12:15 | 00:55:29 | 00:00:00 | |
| AA1-15 | 2026-09-01 23:14:58 | 54.05341 | 13.75103 | 99° | 60km/h | 7899m | 4.3m/s | -33.8°C | 38.5% | 369.8hPa | 2.8V | 18:12:15 | 00:55:26 | 00:00:00 | |
| DL1XH-west | 2026-09-01 23:14:50 | 54.05370 | 13.74896 | 102° | 66km/h | 7870m | 3.1m/s | 0°C | 0% | 0hPa | 2.8V | 18:12:15 | 00:55:18 | 00:00:00 | |
| AA1-15 | 2026-09-01 23:14:47 | 54.05378 | 13.74814 | 98° | 60km/h | 7859m | 3.4m/s | -33.4°C | 36% | 371.9hPa | 2.8V | 18:12:15 | 00:55:15 | 00:00:00 | |
| DL1XH-15 | 2026-09-01 23:14:46 | 54.05380 | 13.74788 | 96° | 60km/h | 7856m | 3.5m/s | -33.4°C | 34.5% | 372.1hPa | 2.8V | 08:30:00 | 00:55:14 | 00:00:00 | |
| S3001 | 2026-09-01 23:14:43 | 54.05384 | 13.74712 | 96° | 58km/h | 7843m | 4.5m/s | -33.3°C | 31.5% | 372.8hPa | 2.8V | 00:00:00 | 00:00:00 | 00:00:00 | |
| AM1SDL-15 | 2026-09-01 23:14:42 | 54.05386 | 13.74686 | 99° | 62km/h | 7840m | 3.3m/s | -33.2°C | 34.2% | 372.9hPa | 2.8V | 00:00:00 | 00:55:10 | 00:00:00 | |
| DL1XH-15 | 2026-09-01 23:14:41 | 54.05406 | 13.74529 | 103° | 62km/h | 7818m | 4.3m/s | -33.1°C | 34.7% | 374.1hPa | 2.8V | 08:30:00 | 00:55:04 | 00:00:00 | |
| DL1XH-west | 2026-09-01 23:14:40 | 54.05391 | 13.74635 | 101° | 64km/h | 7832m | 3.2m/s | 0°C | 0% | 0hPa | 2.8V | 18:12:15 | 00:55:08 | 00:00:00 | |
| AA1-15 | 2026-09-01 23:14:36 | 54.05406 | 13.74529 | 104° | 62km/h | 7818m | 4.3m/s | -33.1°C | 35.5% | 374.1hPa | 2.8V | 18:12:15 | 00:55:04 | 00:00:00 | |
| DL1XH-west | 2026-09-01 23:14:29 | 54.05425 | 13.74348 | 97° | 60km/h | 7791m | 3.9m/s | 0°C | 0% | 0hPa | 2.8V | 18:12:15 | 00:54:57 | 00:00:00 | |
| DL1XH-15 | 2026-09-01 23:14:26 | 54.05431 | 13.74274 | 99° | 58km/h | 7780m | 3.7m/s | -32.7°C | 32.7% | 376.1hPa | 2.8V | 08:30:00 | 00:54:54 | 00:00:00 | |
| AA1-15 | 2026-09-01 23:14:25 | 54.05434 | 13.74249 | 100° | 60km/h | 7776m | 4.4m/s | -32.7°C | 33% | 376.3hPa | 2.8V | 18:12:15 | 00:54:53 | 00:00:00 | |
| DL1XH-15 | 2026-09-01 23:14:21 | 54.05466 | 13.74013 | 101° | 62km/h | 7742m | 4.9m/s | -32.3°C | 29.3% | 378.1hPa | 2.8V | 08:30:00 | 00:54:44 | 00:00:00 | |
| DL1XH-west | 2026-09-01 23:14:18 | 54.05459 | 13.74066 | 105° | 64km/h | 7749m | 4m/s | 0°C | 0% | 0hPa | 2.8V | 18:12:15 | 00:54:46 | 00:00:00 | |
| AA1-15 | 2026-09-01 23:14:14 | 54.05471 | 13.73962 | 98° | 58km/h | 7734m | 2.9m/s | -32.3°C | 30.5% | 378.6hPa | 2.7V | 18:12:15 | 00:54:42 | 00:00:00 | |
| S3001 | 2026-09-01 23:14:12 | 54.05476 | 13.73913 | 101° | 55km/h | 7727m | 3.4m/s | -32.2°C | 26.9% | 379.0hPa | 2.7V | 00:00:00 | 00:00:00 | 00:00:00 | |
| DL1XH-15 | 2026-09-01 23:14:11 | 54.05497 | 13.73763 | 106° | 62km/h | 7705m | 3.8m/s | -32°C | 27.3% | 380.1hPa | 2.7V | 08:30:00 | 00:54:34 | 00:00:00 | |
| AA1-15 | 2026-09-01 23:14:03 | 54.05508 | 13.73685 | 102° | 64km/h | 7693m | 3.7m/s | -31.9°C | 26.4% | 380.8hPa | 2.8V | 18:12:15 | 00:54:31 | 00:00:00 | |
| DL1XH-west | 2026-09-01 23:14:02 | 54.05511 | 13.73658 | 101° | 64km/h | 7690m | 3.3m/s | 0°C | 0% | 0hPa | 2.8V | 18:12:15 | 00:54:30 | 00:00:00 | |
| AA1-15 | 2026-09-01 23:13:52 | 54.05542 | 13.73402 | 103° | 62km/h | 7653m | 3.3m/s | -31.5°C | 19.4% | 383hPa | 2.7V | 18:12:15 | 00:54:20 | 00:00:00 | |
| DG6HD-11 | 2026-09-01 23:13:50 | 54.05549 | 13.73350 | 105° | 62km/h | 7645m | 4.0m/s | -31.4°C | 18.0% | 383.3hPa | 2.8V | 00:00:00 | 00:00:00 | 00:00:00 | |
| DL1XH-15 | 2026-09-01 23:13:44 | 54.05583 | 13.73095 | 102° | 62km/h | 7608m | 3.3m/s | -31.1°C | 17.7% | 385.4hPa | 2.8V | 08:30:00 | 00:54:08 | 00:00:00 | |
| AA1-15 | 2026-09-01 23:13:41 | 54.05580 | 13.73121 | 102° | 60km/h | 7611m | 3.5m/s | -31.1°C | 19% | 385.2hPa | 2.8V | 18:12:15 | 00:54:09 | 00:00:00 | |
| DB0DAN | 2026-09-01 23:13:40 | 54.05583 | 13.73095 | 102° | 58km/h | 7608m | 3.3m/s | -31.1°C | 16% | 385.38hPa | 2.8V | 00:00:00 | 00:00:00 | 00:00:00 | |
| AA1-15 | 2026-09-01 23:13:30 | 54.05618 | 13.72837 | 103° | 60km/h | 7571m | 3.2m/s | -30.8°C | 19.3% | 387.4hPa | 2.7V | 18:12:15 | 00:53:58 | 00:00:00 | |
| AM1SDL-15 | 2026-09-01 23:13:29 | 54.05621 | 13.72812 | 103° | 62km/h | 7567m | 4.4m/s | -30.7°C | 17.9% | 387.5hPa | 2.8V | 00:00:00 | 00:53:57 | 00:00:00 | |
| DB0DAN | 2026-09-01 23:13:25 | 54.05636 | 13.72711 | 105° | 58km/h | 7552m | 3m/s | -30.6°C | 16.4% | 388.43hPa | 2.8V | 00:00:00 | 00:00:00 | 00:00:00 | |
| AA1-15 | 2026-09-01 23:13:19 | 54.05663 | 13.72554 | 106° | 64km/h | 7530m | 3m/s | -30.5°C | 19.3% | 389.6hPa | 2.8V | 18:12:15 | 00:53:47 | 00:00:00 | |
| AM1SDL-15 | 2026-09-01 23:13:17 | 54.05671 | 13.72501 | 104° | 62km/h | 7522m | 3.2m/s | -30.3°C | 18.1% | 390.1hPa | 2.8V | 00:00:00 | 00:53:45 | 00:00:00 | |
| SP3BTT-10 | 2026-09-01 23:13:12 | 54.05689 | 13.72372 | 105° | 64km/h | 7505m | 2.8m/s | 0°C | 0% | 0hPa | 2.8V | 00:00:00 | 00:00:00 | 00:00:00 | |
| DB0DAN | 2026-09-01 23:13:10 | 54.05698 | 13.72321 | 108° | 58km/h | 7497m | 3.4m/s | -30.2°C | 16.3% | 391.5hPa | 2.8V | 00:00:00 | 00:00:00 | 00:00:00 | |
| AA1-15 | 2026-09-01 23:13:09 | 54.05703 | 13.72296 | 108° | 62km/h | 7494m | 3.6m/s | -30.1°C | 19.1% | 391.6hPa | 2.8V | 18:12:15 | 00:53:37 | 00:00:00 | |
| AA1-15 | 2026-09-01 23:12:59 | 54.05739 | 13.72026 | 106° | 62km/h | 7458m | 4.2m/s | -29.8°C | 19.1% | 393.6hPa | 2.8V | 18:12:15 | 00:53:27 | 00:00:00 | |
| AA1-15 | 2026-09-01 23:12:48 | 54.05782 | 13.71734 | 102° | 68km/h | 7417m | 2.7m/s | -29.5°C | 20.1% | 395.8hPa | 2.8V | 18:12:15 | 00:53:16 | 00:00:00 | |
| DL1XH-15 | 2026-09-01 23:12:42 | 54.05826 | 13.71435 | 105° | 71km/h | 7375m | 2.5m/s | -29.1°C | 18.4% | 398.2hPa | 2.8V | 08:30:00 | 00:53:05 | 00:00:00 | |
| AA1-15 | 2026-09-01 23:12:38 | 54.05821 | 13.71464 | 105° | 69km/h | 7378m | 4.1m/s | -29.1°C | 20.2% | 398hPa | 2.8V | 18:12:15 | 00:53:06 | 00:00:00 | |
| AA1-15 | 2026-09-01 23:12:27 | 54.05861 | 13.71164 | 102° | 62km/h | 7338m | 2.5m/s | -28.8°C | 18.5% | 400.2hPa | 2.8V | 18:12:15 | 00:52:55 | 00:00:00 | |
| DL1XH-15 | 2026-09-01 23:12:27 | 54.05861 | 13.71164 | 101° | 62km/h | 7338m | 2.5m/s | -28.8°C | 17.3% | 400.2hPa | 2.8V | 08:30:00 | 00:52:55 | 00:00:00 | |
| DG6HD-15 | 2026-09-01 23:12:26 | 54.05861 | 13.71164 | 103° | 62km/h | 7339m | 2.5m/s | -28.8°C | 15.8% | 400.2hPa | 2.7V | 00:00:00 | 00:00:00 | 00:00:00 | |
| DL1XH-15 | 2026-09-01 23:12:22 | 54.05900 | 13.70890 | 104° | 68km/h | 7304m | 4.2m/s | -28.4°C | 16.9% | 402.1hPa | 2.7V | 08:30:00 | 00:52:45 | 00:00:00 | |
| AA1-15 | 2026-09-01 23:12:17 | 54.05900 | 13.70890 | 104° | 68km/h | 7304m | 4.2m/s | -28.4°C | 18.2% | 402.1hPa | 2.7V | 18:12:15 | 00:52:45 | 00:00:00 | |
| MECKS9 | 2026-09-01 23:12:15 | 54.05904 | 13.70862 | 106° | 66km/h | 7300m | 3.5m/s | -28.4°C | 15.4% | 402.4hPa | 2.8V | 00:00:00 | 00:00:00 | 00:00:00 | |
| DL1XH-15 | 2026-09-01 23:12:12 | 54.05943 | 13.70615 | 103° | 66km/h | 7266m | 3.4m/s | -28.1°C | 16.5% | 404.2hPa | 2.8V | 08:30:00 | 00:52:35 | 00:00:00 | |
| AA1-15 | 2026-09-01 23:12:07 | 54.05943 | 13.70615 | 104° | 66km/h | 7266m | 3.4m/s | -28.1°C | 17.8% | 404.2hPa | 2.8V | 18:12:15 | 00:52:35 | 00:00:00 | |
| AM1SDL-15 | 2026-09-01 23:12:05 | 54.05950 | 13.70561 | 103° | 66km/h | 7259m | 3.0m/s | -28.0°C | 16.9% | 404.7hPa | 2.8V | 00:00:00 | 00:52:33 | 00:00:00 | |
| DL1XH-15 | 2026-09-01 23:11:57 | 54.05982 | 13.70343 | 108° | 66km/h | 7230m | 3.7m/s | -27.8°C | 18.1% | 406.3hPa | 2.8V | 08:30:00 | 00:52:25 | 00:00:00 | |
| AA1-15 | 2026-09-01 23:11:57 | 54.05982 | 13.70343 | 108° | 66km/h | 7230m | 3.7m/s | -27.8°C | 19.6% | 406.3hPa | 2.8V | 18:12:15 | 00:52:25 | 00:00:00 | |
| AM1SDL-15 | 2026-09-01 23:11:53 | 54.06002 | 13.70233 | 105° | 66km/h | 7216m | 3.2m/s | -27.6°C | 18.3% | 407.0hPa | 2.7V | 00:00:00 | 00:52:21 | 08:30:00 | |
| DL1XH-15 | 2026-09-01 23:11:51 | 54.06023 | 13.70045 | 103° | 66km/h | 7194m | 3.7m/s | -27.5°C | 18.5% | 408.3hPa | 2.7V | 08:30:00 | 00:52:14 | 00:00:00 | |
| AA1-15 | 2026-09-01 23:11:46 | 54.06023 | 13.70045 | 104° | 66km/h | 7194m | 3.7m/s | -27.5°C | 19.9% | 408.3hPa | 2.7V | 18:12:15 | 00:52:14 | 00:00:00 | |
| AA1-15 | 2026-09-01 23:11:36 | 54.06063 | 13.69767 | 103° | 66km/h | 7158m | 3.2m/s | -27.2°C | 20% | 410.4hPa | 2.7V | 18:12:15 | 00:52:04 | 00:00:00 | |
| AA1-15 | 2026-09-01 23:11:25 | 54.06105 | 13.69467 | 102° | 64km/h | 7118m | 3.2m/s | -27°C | 24.3% | 412.6hPa | 2.9V | 18:12:15 | 00:51:53 | 00:00:00 | |
| AA1-15 | 2026-09-01 23:11:14 | 54.06147 | 13.69168 | 102° | 68km/h | 7082m | 2.5m/s | -26.7°C | 21.6% | 414.7hPa | 2.9V | 18:12:15 | 00:51:42 | 00:00:00 | |
| DB0DAN | 2026-09-01 23:11:10 | 54.06162 | 13.69057 | 104° | 62km/h | 7069m | 3.9m/s | -26.6°C | 18.4% | 415.44hPa | 2.9V | 00:00:00 | 00:00:00 | 00:00:00 | |
| AA1-15 | 2026-09-01 23:11:03 | 54.06186 | 13.68872 | 98° | 62km/h | 7045m | 2.7m/s | -26.4°C | 19.2% | 416.9hPa | 2.7V | 18:12:15 | 00:51:31 | 00:00:00 | |
| DB0DAN | 2026-09-01 23:10:55 | 54.06208 | 13.68666 | 105° | 58km/h | 7018m | 3.3m/s | -26.1°C | 16.8% | 418.41hPa | 2.7V | 00:00:00 | 00:00:00 | 00:00:00 | |
| AA1-15 | 2026-09-01 23:10:53 | 54.06215 | 13.68614 | 103° | 64km/h | 7011m | 4.4m/s | -26.1°C | 19.5% | 418.8hPa | 2.8V | 18:12:15 | 00:51:21 | 00:00:00 | |
| AA1-15 | 2026-09-01 23:10:42 | 54.06245 | 13.68320 | 101° | 62km/h | 6970m | 4.4m/s | -25.7°C | 20.1% | 421.2hPa | 2.9V | 18:12:15 | 00:51:10 | 00:00:00 | |
| AM1SDL-15 | 2026-09-01 23:10:41 | 54.06247 | 13.68294 | 102° | 60km/h | 6967m | 3.3m/s | -25.6°C | 19.0% | 421.4hPa | 2.7V | 00:00:00 | 00:51:09 | 00:00:00 | |
| DL1XH-15 | 2026-09-01 23:10:37 | 54.06280 | 13.68068 | 98° | 60km/h | 6935m | 5m/s | -25.4°C | 19.7% | 423.3hPa | 2.9V | 08:30:00 | 00:51:00 | 00:00:00 | |
| AA1-15 | 2026-09-01 23:10:31 | 54.06282 | 13.68042 | 96° | 60km/h | 6931m | 3.2m/s | -25.3°C | 21.2% | 423.5hPa | 2.9V | 18:12:15 | 00:50:59 | 00:00:00 | |
| AM1SDL-15 | 2026-09-01 23:10:29 | 54.06286 | 13.67988 | 97° | 62km/h | 6924m | 3.4m/s | -25.2°C | 19.8% | 423.9hPa | 2.7V | 00:00:00 | 00:50:57 | 00:00:00 | |
| DB0DAN | 2026-09-01 23:10:25 | 54.06295 | 13.67882 | 103° | 60km/h | 6910m | 4.7m/s | -25.2°C | 18.5% | 424.76hPa | 2.7V | 00:00:00 | 00:00:00 | 00:00:00 | |
| AA1-15 | 2026-09-01 23:10:20 | 54.06313 | 13.67756 | 102° | 60km/h | 6892m | 4.2m/s | -25°C | 20.8% | 425.8hPa | 2.9V | 18:12:15 | 00:50:48 | 00:00:00 | |
| DG6HD-11 | 2026-09-01 23:10:20 | 54.06313 | 13.67756 | 103° | 58km/h | 6892m | 4.2m/s | -25.0°C | 19.4% | 425.8hPa | 2.9V | 00:00:00 | 00:00:00 | 08:30:00 | |
| AM1SDL-15 | 2026-09-01 23:10:17 | 54.06321 | 13.67679 | 98° | 60km/h | 6881m | 4.0m/s | -24.9°C | 19.5% | 426.3hPa | 2.9V | 00:00:00 | 00:50:45 | 00:00:00 | |
| DL1XH-15 | 2026-09-01 23:10:14 | 54.06342 | 13.67476 | 104° | 60km/h | 6853m | 4m/s | -24.8°C | 21% | 428.1hPa | 2.9V | 08:30:00 | 00:50:37 | 00:00:00 | |
| AA1-15 | 2026-09-01 23:10:10 | 54.06338 | 13.67501 | 103° | 60km/h | 6856m | 3.5m/s | -24.8°C | 22.4% | 427.8hPa | 2.9V | 18:12:15 | 00:50:38 | 00:00:00 | |
| AM1SDL-15 | 2026-09-01 23:10:05 | 54.06356 | 13.67377 | 102° | 58km/h | 6839m | 3.7m/s | -24.6°C | 21.3% | 428.8hPa | 2.9V | 00:00:00 | 00:50:33 | 08:30:00 | |
| S3001 | 2026-09-01 23:10:04 | 54.06359 | 13.67352 | 101° | 58km/h | 6836m | 3.4m/s | -24.6°C | 20.0% | 429.1hPa | 2.7V | 00:00:00 | 00:00:00 | 00:00:00 | |
| SONDE2-11 | 2026-09-01 23:10:02 | 54.06381 | 13.67112 | 99° | 57km/h | 6799m | 3.4m/s | -24.3°C | 22.7% | 431.2hPa | 2.7V | 00:00:00 | 00:00:00 | 00:00:00 | |
| DL1XH-15 | 2026-09-01 23:09:59 | 54.06372 | 13.67205 | 98° | 55km/h | 6813m | 4.6m/s | -24.5°C | 23.5% | 430.4hPa | 2.7V | 08:30:00 | 00:50:26 | 00:00:00 | |
| AA1-15 | 2026-09-01 23:09:59 | 54.06370 | 13.67229 | 97° | 57km/h | 6817m | 3.1m/s | -24.5°C | 24.4% | 430.2hPa | 2.9V | 18:12:15 | 00:50:27 | 00:00:00 | |
| DL1XH-15 | 2026-09-01 23:09:53 | 54.06396 | 13.66970 | 98° | 55km/h | 6777m | 3.5m/s | -24.1°C | 23.4% | 432.5hPa | 2.7V | 08:30:00 | 00:50:16 | 00:00:00 | |
| AA1-15 | 2026-09-01 23:09:48 | 54.06397 | 13.66970 | 99° | 55km/h | 6777m | 3.5m/s | -24.1°C | 25.1% | 432.5hPa | 2.7V | 18:12:15 | 00:50:16 | 00:00:00 | |
| MECKS9 | 2026-09-01 23:09:43 | 54.06406 | 13.66875 | 99° | 57km/h | 6761m | 4.4m/s | -24.0°C | 23.4% | 433.5hPa | 2.9V | 00:00:00 | 00:00:00 | 00:00:00 | |
| DL1XH-15 | 2026-09-01 23:09:42 | 54.06424 | 13.66728 | 101° | 58km/h | 6740m | 3.5m/s | -23.9°C | 24.9% | 434.8hPa | 2.9V | 08:30:00 | 00:50:06 | 00:00:00 | |
| AA1-15 | 2026-09-01 23:09:37 | 54.06427 | 13.66704 | 102° | 57km/h | 6737m | 2.7m/s | -23.8°C | 25.9% | 434.9hPa | 2.9V | 18:12:15 | 00:50:05 | 00:00:00 | |
| S3001 | 2026-09-01 23:09:33 | 54.06438 | 13.66611 | 100° | 55km/h | 6724m | 4.3m/s | -23.7°C | 23.2% | 435.7hPa | 2.9V | 00:00:00 | 00:00:00 | 00:00:00 | |
| DL1XH-15 | 2026-09-01 23:09:32 | 54.06448 | 13.66490 | 100° | 57km/h | 6707m | 3.3m/s | -23.6°C | 24.4% | 436.7hPa | 2.9V | 08:30:00 | 00:49:56 | 00:00:00 | |
| AA1-15 | 2026-09-01 23:09:26 | 54.06454 | 13.66443 | 102° | 55km/h | 6700m | 3.4m/s | -23.5°C | 24.9% | 437.1hPa | 2.9V | 18:12:15 | 00:49:54 | 00:00:00 | |
| DL1XH-15 | 2026-09-01 23:09:22 | 54.06483 | 13.66256 | 105° | 53km/h | 6670m | 4.9m/s | -23.2°C | 21.9% | 438.9hPa | 2.9V | 08:30:00 | 00:49:46 | 00:00:00 | |
| AA1-15 | 2026-09-01 23:09:15 | 54.06491 | 13.66189 | 101° | 53km/h | 6658m | 3.2m/s | -23.1°C | 23.5% | 439.6hPa | 2.9V | 18:12:15 | 00:49:43 | 00:00:00 | |
| DL1XH-15 | 2026-09-01 23:09:12 | 54.06514 | 13.66027 | 105° | 58km/h | 6633m | 3.4m/s | -22.9°C | 22.5% | 441.2hPa | 2.9V | 08:30:00 | 00:49:36 | 00:00:00 | |
| AA1-15 | 2026-09-01 23:09:04 | 54.06530 | 13.65933 | 108° | 51km/h | 6618m | 3.3m/s | -22.8°C | 22.7% | 442.1hPa | 2.7V | 18:12:15 | 00:49:32 | 00:00:00 | |
| AA1-15 | 2026-09-01 23:08:53 | 54.06569 | 13.65687 | 107° | 53km/h | 6580m | 3.5m/s | -22.5°C | 23.2% | 444.4hPa | 2.9V | 18:12:15 | 00:49:21 | 00:00:00 | |
| DL1XH-15 | 2026-09-01 23:08:52 | 54.06588 | 13.65581 | 110° | 53km/h | 6563m | 3.5m/s | -22.4°C | 22.6% | 445.4hPa | 2.9V | 08:30:00 | 00:49:16 | 00:00:00 | |
| DG6HD-11 | 2026-09-01 23:08:50 | 54.06580 | 13.65623 | 107° | 51km/h | 6570m | 2.8m/s | -22.4°C | 22.4% | 444.9hPa | 2.7V | 00:00:00 | 00:00:00 | 00:00:00 | |
| DL1XH-15 | 2026-09-01 23:08:43 | 54.06631 | 13.65367 | 109° | 53km/h | 6528m | 2.8m/s | -22.1°C | 21.4% | 447.5hPa | 2.9V | 08:30:00 | 00:49:06 | 00:00:00 | |
| AA1-15 | 2026-09-01 23:08:42 | 54.06614 | 13.65453 | 108° | 53km/h | 6543m | 3.2m/s | -22.2°C | 23.1% | 446.6hPa | 2.9V | 18:12:15 | 00:49:10 | 00:00:00 | |
| AM1SDL-15 | 2026-09-01 23:08:41 | 54.06618 | 13.65432 | 108° | 53km/h | 6539m | 4.8m/s | -22.1°C | 21.6% | 446.7hPa | 2.9V | 00:00:00 | 00:49:09 | 00:00:00 | |
| DL1XH-15 | 2026-09-01 23:08:34 | 54.06673 | 13.65153 | 108° | 55km/h | 6492m | 3.9m/s | -21.7°C | 20.5% | 449.7hPa | 2.9V | 08:30:00 | 00:48:56 | 00:00:00 | |
| AA1-15 | 2026-09-01 23:08:31 | 54.06661 | 13.65220 | 105° | 53km/h | 6502m | 2.9m/s | -21.8°C | 22% | 449.1hPa | 2.7V | 18:12:15 | 00:48:59 | 00:00:00 | |
| AM1SDL-15 | 2026-09-01 23:08:29 | 54.06669 | 13.65175 | 108° | 51km/h | 6496m | 3.1m/s | -21.7°C | 20.7% | 449.5hPa | 2.9V | 00:00:00 | 00:48:57 | 00:00:00 | |
| SONDE2-11 | 2026-09-01 23:08:28 | 54.06673 | 13.65153 | 108° | 53km/h | 6492m | 3.9m/s | -21.7°C | 19.2% | 449.7hPa | 2.9V | 00:00:00 | 00:00:00 | 00:00:00 | |
| DB0DAN | 2026-09-01 23:08:25 | 54.06685 | 13.65090 | 110° | 47km/h | 6481m | 4.1m/s | -21.6°C | 18.8% | 450.34hPa | 2.9V | 00:00:00 | 00:00:00 | 00:00:00 | |
| AA1-15 | 2026-09-01 23:08:20 | 54.06708 | 13.64990 | 111° | 51km/h | 6463m | 4.1m/s | -21.4°C | 20.3% | 451.5hPa | 2.7V | 18:12:15 | 00:48:48 | 00:00:00 | |
| DG6HD-11 | 2026-09-01 23:08:20 | 54.06708 | 13.64990 | 111° | 51km/h | 6463m | 4.0m/s | -21.4°C | 19.2% | 451.5hPa | 2.9V | 00:00:00 | 00:00:00 | 00:00:00 | |
| DL1XH-15 | 2026-09-01 23:08:19 | 54.06717 | 13.64949 | 110° | 49km/h | 6455m | 5m/s | -21.4°C | 18.8% | 451.9hPa | 2.9V | 08:30:00 | 00:48:46 | 00:00:00 | |
| AM1SDL-15 | 2026-09-01 23:08:17 | 54.06721 | 13.64929 | 111° | 51km/h | 6451m | 3.1m/s | -21.3°C | 19.0% | 452.2hPa | 2.9V | 00:00:00 | 00:48:45 | 08:30:00 | |
| MECKS9 | 2026-09-01 23:08:12 | 54.06738 | 13.64845 | 108° | 51km/h | 6436m | 3.3m/s | -21.2°C | 18.1% | 453.1hPa | 2.7V | 00:00:00 | 00:00:00 | 00:00:00 | |
| DB0DAN | 2026-09-01 23:08:10 | 54.06750 | 13.64781 | 108° | 49km/h | 6426m | 2.8m/s | -21.2°C | 18.2% | 453.75hPa | 2.7V | 00:00:00 | 00:00:00 | 00:00:00 | |
| DL1XH-15 | 2026-09-01 23:08:09 | 54.06758 | 13.64739 | 107° | 49km/h | 6419m | 3.6m/s | -21.1°C | 19.2% | 454.2hPa | 2.9V | 08:30:00 | 00:48:36 | 00:00:00 | |
| AA1-15 | 2026-09-01 23:08:09 | 54.06754 | 13.64760 | 107° | 51km/h | 6423m | 4.3m/s | -21.1°C | 20.4% | 453.9hPa | 2.9V | 18:12:15 | 00:48:37 | 00:00:00 | |
| AM1SDL-15 | 2026-09-01 23:08:05 | 54.06769 | 13.64680 | 111° | 51km/h | 6408m | 3.1m/s | -21.0°C | 19.0% | 454.9hPa | 2.9V | 00:00:00 | 00:48:33 | 00:00:00 | |
| S3001 | 2026-09-01 23:08:00 | 54.06789 | 13.64581 | 105° | 51km/h | 6389m | 4.4m/s | -20.9°C | -1.0% | 456.0hPa | 2.9V | 00:00:00 | 00:00:00 | 00:00:00 | |
| DL1XH-15 | 2026-09-01 23:07:59 | 54.06796 | 13.64537 | 106° | 55km/h | 6382m | 4.2m/s | -20.8°C | 18.8% | 456.4hPa | 2.9V | 08:30:00 | 00:48:26 | 00:00:00 | |
| AA1-15 | 2026-09-01 23:07:59 | 54.06793 | 13.64559 | 105° | 53km/h | 6386m | 3m/s | -20.8°C | 20% | 456.3hPa | 2.9V | 18:12:15 | 00:48:27 | 00:00:00 | |
| SONDE2-11 | 2026-09-01 23:07:57 | 54.06801 | 13.64514 | 108° | 53km/h | 6378m | 3.1m/s | -20.8°C | 17.8% | 456.7hPa | 2.9V | 00:00:00 | 00:00:00 | 00:00:00 | |
| AM1SDL-15 | 2026-09-01 23:07:53 | 54.06819 | 13.64432 | 116° | 51km/h | 6365m | 3.8m/s | -20.6°C | 18.9% | 457.4hPa | 2.9V | 00:00:00 | 00:48:21 | 00:00:00 | |
| DG6HD-11 | 2026-09-01 23:07:50 | 54.06835 | 13.64374 | 113° | 51km/h | 6355m | 3.9m/s | -20.5°C | 19.2% | 458.1hPa | 2.9V | 00:00:00 | 00:00:00 | 00:00:00 | |
| DL1XH-15 | 2026-09-01 23:07:49 | 54.06844 | 13.64334 | 108° | 51km/h | 6348m | 3.8m/s | -20.5°C | 19.1% | 458.5hPa | 2.9V | 08:30:00 | 00:48:16 | 00:00:00 | |
| AA1-15 | 2026-09-01 23:07:48 | 54.06843 | 13.64334 | 108° | 51km/h | 6348m | 3.8m/s | -20.5°C | 20.2% | 458.5hPa | 2.9V | 18:12:15 | 00:48:16 | 00:00:00 | |
| AA1-15 | 2026-09-01 23:07:37 | 54.06896 | 13.64113 | 112° | 51km/h | 6308m | 3.3m/s | -20.2°C | 19.6% | 461.1hPa | 2.9V | 18:12:15 | 00:48:05 | 00:00:00 | |
| MECKS9 | 2026-09-01 23:07:35 | 54.06900 | 13.64092 | 110° | 51km/h | 6304m | 4.4m/s | -20.2°C | 17.6% | 461.4hPa | 2.9V | 00:00:00 | 00:00:00 | 00:00:00 | |
| DL1XH-15 | 2026-09-01 23:07:34 | 54.06928 | 13.63963 | 112° | 57km/h | 6282m | 2.6m/s | -20.1°C | 18.6% | 462.7hPa | 2.9V | 08:30:00 | 00:47:58 | 00:00:00 | |
| AA1-15 | 2026-09-01 23:07:26 | 54.06950 | 13.63873 | 114° | 55km/h | 6267m | 3.3m/s | -20°C | 19.3% | 463.6hPa | 2.9V | 18:12:15 | 00:47:54 | 00:00:00 | |
| DB0DAN | 2026-09-01 23:07:25 | 54.06955 | 13.63851 | 114° | 53km/h | 6263m | 4.3m/s | -20°C | 17.1% | 463.81hPa | 2.9V | 00:00:00 | 00:00:00 | 00:00:00 | |
| AA1-15 | 2026-09-01 23:07:15 | 54.07008 | 13.63666 | 120° | 49km/h | 6226m | 5.3m/s | -19.6°C | 19% | 466.2hPa | 2.9V | 18:12:15 | 00:47:43 | 00:00:00 | |
| DL1XH-15 | 2026-09-01 23:07:14 | 54.07039 | 13.63573 | 119° | 49km/h | 6206m | 2.3m/s | -19.4°C | 17.8% | 467.5hPa | 2.9V | 08:30:00 | 00:47:38 | 00:00:00 | |
| DL1XH-15 | 2026-09-01 23:07:04 | 54.07090 | 13.63384 | 117° | 44km/h | 6171m | 3.8m/s | -19.1°C | 17.1% | 469.7hPa | 2.9V | 08:30:00 | 00:47:28 | 00:00:00 | |
| AA1-15 | 2026-09-01 23:07:04 | 54.07071 | 13.63456 | 113° | 49km/h | 6185m | 4.1m/s | -19.3°C | 18.4% | 468.8hPa | 2.9V | 18:12:15 | 00:47:32 | 00:00:00 | |
| S3001 | 2026-09-01 23:06:58 | 54.07100 | 13.63351 | 117° | 42km/h | 6164m | 4.4m/s | 0°C | -1.0% | -1.0hPa | 2.9V | 00:00:00 | 00:00:00 | 00:00:00 | |
| SONDE2-11 | 2026-09-01 23:06:55 | 54.07121 | 13.63277 | 116° | 51km/h | 6149m | 3.1m/s | -19.0°C | -1.0% | 471.0hPa | 2.9V | 00:00:00 | 00:00:00 | 00:00:00 | |
| DB0DAN | 2026-09-01 23:06:55 | 54.07116 | 13.63297 | 117° | 47km/h | 6153m | 3.8m/s | -19°C | 14.3% | 470.77hPa | 2.9V | 00:00:00 | 00:00:00 | 00:00:00 | |
| DL1XH-15 | 2026-09-01 23:06:54 | 54.07143 | 13.63202 | 114° | 47km/h | 6134m | 4.7m/s | -18.8°C | 12.7% | 471.9hPa | 2.9V | 08:30:00 | 00:47:18 | 00:00:00 | |
| AA1-15 | 2026-09-01 23:06:53 | 54.07127 | 13.63258 | 117° | 51km/h | 6146m | 4.2m/s | -18.9°C | 15.4% | 471.2hPa | 2.7V | 18:12:15 | 00:47:21 | 00:00:00 | |
| DG6HD-11 | 2026-09-01 23:06:50 | 54.07143 | 13.63202 | 115° | 47km/h | 6134m | 4.7m/s | -18.8°C | 12.7% | 471.9hPa | 2.9V | 00:00:00 | 00:00:00 | 00:00:00 | |
| AM1SDL-15 | 2026-09-01 23:06:49 | 54.07147 | 13.63184 | 113° | 46km/h | 6130m | 3.4m/s | -18.7°C | 11.9% | 472.2hPa | 2.9V | 00:00:00 | 00:47:17 | 00:00:00 | |
| DL1XH-15 | 2026-09-01 23:06:44 | 54.07191 | 13.63028 | 113° | 49km/h | 6096m | 3.7m/s | -18.5°C | 10.2% | 474.4hPa | 2.9V | 08:30:00 | 00:47:08 | 00:00:00 | |
| AA1-15 | 2026-09-01 23:06:42 | 54.07182 | 13.63064 | 116° | 44km/h | 6103m | 3m/s | -18.6°C | 10.7% | 473.9hPa | 2.9V | 18:12:15 | 00:47:10 | 00:00:00 | |
| DB0DAN | 2026-09-01 23:06:40 | 54.07191 | 13.63028 | 114° | 46km/h | 6096m | 3.7m/s | -18.5°C | 9.5% | 474.39hPa | 2.9V | 00:00:00 | 00:00:00 | 00:00:00 | |
| AM1SDL-15 | 2026-09-01 23:06:37 | 54.07209 | 13.62968 | 121° | 49km/h | 6085m | 3.4m/s | -18.4°C | 10.0% | 475.0hPa | 2.7V | 00:00:00 | 00:47:05 | 00:00:00 | |
| DL1XH-15 | 2026-09-01 23:06:34 | 54.07253 | 13.62833 | 116° | 46km/h | 6059m | 4.6m/s | -18.4°C | 11.8% | 476.6hPa | 2.7V | 08:30:00 | 00:46:58 | 00:00:00 | |
| AA1-15 | 2026-09-01 23:06:31 | 54.07248 | 13.62851 | 118° | 47km/h | 6064m | 3.7m/s | -18.4°C | 11.8% | 476.4hPa | 2.7V | 18:12:15 | 00:46:59 | 00:00:00 | |
| AA1-15 | 2026-09-01 23:06:20 | 54.07309 | 13.62653 | 122° | 55km/h | 6022m | 3m/s | -18.3°C | 16.4% | 478.9hPa | 2.9V | 18:12:15 | 00:46:48 | 00:00:00 | |
| AA1-15 | 2026-09-01 23:06:09 | 54.07365 | 13.62451 | 123° | 37km/h | 5965m | 7m/s | -18.3°C | 25.4% | 482.5hPa | 2.9V | 18:12:15 | 00:46:37 | 00:00:00 | |
| AA1-15 | 2026-09-01 23:05:58 | 54.07422 | 13.62247 | 110° | 57km/h | 5885m | 5.8m/s | -18.3°C | 42.4% | 487.7hPa | 2.9V | 18:12:15 | 00:46:26 | 00:00:00 | |
| MECKS9 | 2026-09-01 23:05:56 | 54.07426 | 13.62224 | 106° | 57km/h | 5879m | 4.9m/s | -18.3°C | 41.0% | 488.0hPa | 2.9V | 00:00:00 | 00:00:00 | 00:00:00 | |
| DB0DAN | 2026-09-01 23:05:55 | 54.07433 | 13.62178 | 103° | 51km/h | 5870m | 5m/s | -18.2°C | 41% | 488.57hPa | 2.9V | 00:00:00 | 00:00:00 | 00:00:00 | |
| AA1-15 | 2026-09-01 23:05:48 | 54.07458 | 13.62017 | 106° | 51km/h | 5834m | 5.3m/s | -17.9°C | 42.6% | 491.4hPa | 2.9V | 18:12:15 | 00:46:16 | 00:00:00 | |
| AA1-15 | 2026-09-01 23:05:37 | 54.07500 | 13.61788 | 100° | 57km/h | 5775m | 4m/s | -17.4°C | 44.9% | 495.4hPa | 2.7V | 18:12:15 | 00:46:05 | 00:00:00 | |
| AA1-15 | 2026-09-01 23:05:26 | 54.07543 | 13.61551 | 104° | 49km/h | 5710m | 7.9m/s | -17.1°C | 47.9% | 499.6hPa | 2.9V | 18:12:15 | 00:45:54 | 00:00:00 | |
| AA1-15 | 2026-09-01 23:05:16 | 54.07572 | 13.61346 | 104° | 55km/h | 5656m | 3.7m/s | -16.7°C | 47.9% | 503.3hPa | 2.9V | 18:12:15 | 00:45:44 | 00:00:00 | |
| AA1-15 | 2026-09-01 23:05:05 | 54.07607 | 13.61128 | 105° | 49km/h | 5599m | 4.1m/s | -16.5°C | 50.4% | 507.2hPa | 2.9V | 18:12:15 | 00:45:33 | 00:00:00 | |
| MECKS9 | 2026-09-01 23:05:04 | 54.07607 | 13.61128 | 106° | 49km/h | 5599m | 4.1m/s | -16.5°C | 48.6% | 507.2hPa | 2.9V | 00:00:00 | 00:00:00 | 00:00:00 | |
| AM1SDL-15 | 2026-09-01 23:05:01 | 54.07622 | 13.61047 | 108° | 46km/h | 5580m | 5.6m/s | -16.3°C | 50.1% | 508.4hPa | 2.9V | 00:00:00 | 00:45:29 | 00:00:00 | |
| DB0DAN | 2026-09-01 23:04:55 | 54.07649 | 13.60937 | 112° | 38km/h | 5557m | 3.8m/s | -16.4°C | 47.8% | 510.24hPa | 2.9V | 00:00:00 | 00:00:00 | 00:00:00 | |
| AA1-15 | 2026-09-01 23:04:54 | 54.07652 | 13.60921 | 112° | 40km/h | 5554m | 4.5m/s | -16.3°C | 48.8% | 510.5hPa | 2.9V | 18:12:15 | 00:45:22 | 00:00:00 | |
| DL1XH-15 | 2026-09-01 23:04:54 | 54.07668 | 13.60845 | 107° | 53km/h | 5533m | 4.5m/s | -16.2°C | 49.8% | 511.9hPa | 2.9V | 08:30:00 | 00:45:18 | 00:00:00 | |
| DG6HD-11 | 2026-09-01 23:04:50 | 54.07667 | 13.60845 | 108° | 51km/h | 5533m | 4.5m/s | -16.2°C | 49.8% | 511.8hPa | 2.9V | 00:00:00 | 00:00:00 | 00:00:00 | |
| AM1SDL-15 | 2026-09-01 23:04:48 | 54.07675 | 13.60801 | 105° | 49km/h | 5521m | 6.7m/s | -16.1°C | 49.4% | 512.6hPa | 2.9V | 00:00:00 | 00:45:16 | 00:00:00 | |
| DL1XH-15 | 2026-09-01 23:04:44 | 54.07703 | 13.60646 | 106° | 46km/h | 5465m | 6.3m/s | -15.8°C | 49.4% | 516hPa | 2.9V | 08:30:00 | 00:45:08 | 00:00:00 | |
| AA1-15 | 2026-09-01 23:04:44 | 54.07693 | 13.60699 | 110° | 46km/h | 5486m | 7.1m/s | -15.9°C | 49.8% | 514.7hPa | 2.9V | 18:12:15 | 00:45:11 | 00:00:00 | |
| DB0DAN | 2026-09-01 23:04:40 | 54.07703 | 13.60646 | 106° | 44km/h | 5465m | 6.3m/s | -15.9°C | 47.6% | 516hPa | 2.9V | 00:00:00 | 00:00:00 | 00:00:00 | |
| AM1SDL-15 | 2026-09-01 23:04:36 | 54.07717 | 13.60560 | 106° | 53km/h | 5444m | 4.6m/s | -15.8°C | 49.9% | 517.3hPa | 2.9V | 00:00:00 | 00:45:04 | 08:30:00 | |
| DL1XH-15 | 2026-09-01 23:04:35 | 54.07747 | 13.60421 | 107° | 55km/h | 5416m | 5.3m/s | -15.7°C | 50.1% | 519.2hPa | 2.9V | 08:30:00 | 00:44:58 | 00:00:00 | |
| AA1-15 | 2026-09-01 23:04:34 | 54.07732 | 13.60492 | 113° | 58km/h | 5431m | 4.1m/s | -15.8°C | 49.6% | 518.4hPa | 2.9V | 18:12:15 | 00:45:01 | 00:00:00 | |
| AA1-15 | 2026-09-01 23:04:23 | 54.07771 | 13.60287 | 103° | 51km/h | 5377m | 4m/s | -15.5°C | 50.3% | 521.7hPa | 2.9V | 18:12:15 | 00:44:51 | 00:00:00 | |
| DG6HD-11 | 2026-09-01 23:04:20 | 54.07777 | 13.60220 | 98° | 53km/h | 5361m | 6.6m/s | -15.4°C | 50.0% | 522.8hPa | 2.9V | 00:00:00 | 00:00:00 | 00:00:00 | |
| DL1XH-15 | 2026-09-01 23:04:14 | 54.07803 | 13.60063 | 110° | 53km/h | 5320m | 5.3m/s | -15.2°C | 52.1% | 526.1hPa | 2.9V | 08:30:00 | 00:44:40 | 00:00:00 | |
| AA1-15 | 2026-09-01 23:04:13 | 54.07798 | 13.60084 | 111° | 51km/h | 5324m | 3.7m/s | -15.3°C | 52.3% | 525.8hPa | 2.9V | 18:12:15 | 00:44:41 | 00:00:00 | |
| AM1SDL-15 | 2026-09-01 23:04:12 | 54.07803 | 13.60063 | 111° | 53km/h | 5320m | 5.2m/s | -15.2°C | 52.1% | 526.1hPa | 2.8V | 00:00:00 | 00:44:40 | 00:00:00 | |
| DL1XH-15 | 2026-09-01 23:04:05 | 54.07838 | 13.59849 | 95° | 57km/h | 5270m | 5.2m/s | -15.1°C | 55% | 529.4hPa | 2.8V | 08:30:00 | 00:44:30 | 00:00:00 | |
| AA1-15 | 2026-09-01 23:04:03 | 54.07837 | 13.59873 | 96° | 55km/h | 5275m | 4.5m/s | -15.2°C | 55.7% | 529.1hPa | 2.9V | 18:12:15 | 00:44:31 | 00:00:00 | |
| AA1-15 | 2026-09-01 23:03:52 | 54.07864 | 13.59613 | 98° | 49km/h | 5229m | 4.6m/s | -15°C | 53.9% | 532.4hPa | 2.9V | 18:12:15 | 00:44:20 | 00:00:00 | |
| DG6HD-11 | 2026-09-01 23:03:50 | 54.07867 | 13.59572 | 95° | 51km/h | 5222m | 4.4m/s | -14.9°C | 54.5% | 532.8hPa | 2.9V | 00:00:00 | 00:00:00 | 00:00:00 | |
| AM1SDL-15 | 2026-09-01 23:03:48 | 54.07869 | 13.59528 | 96° | 51km/h | 5214m | 2.9m/s | -14.8°C | 54.8% | 533.4hPa | 2.9V | 00:00:00 | 00:44:16 | 00:00:00 | |
| DL1XH-15 | 2026-09-01 23:03:44 | 54.07883 | 13.59375 | 99° | 53km/h | 5188m | 3.6m/s | -14.7°C | 54.8% | 535.3hPa | 2.9V | 08:30:00 | 00:44:09 | 00:00:00 | |
| AA1-15 | 2026-09-01 23:03:41 | 54.07883 | 13.59375 | 100° | 53km/h | 5188m | 3.6m/s | -14.7°C | 54.2% | 535.3hPa | 2.9V | 18:12:15 | 00:44:09 | 00:00:00 | |
| AM1SDL-15 | 2026-09-01 23:03:36 | 54.07888 | 13.59266 | 92° | 49km/h | 5169m | 4.9m/s | -14.4°C | 53.7% | 536.6hPa | 2.9V | 00:00:00 | 00:44:04 | 00:00:00 | |
| DL1XH-15 | 2026-09-01 23:03:34 | 54.07891 | 13.59167 | 96° | 46km/h | 5149m | 3.4m/s | -14.4°C | 54.7% | 538hPa | 2.9V | 08:30:00 | 00:43:59 | 00:00:00 | |
| AA1-15 | 2026-09-01 23:03:30 | 54.07893 | 13.59147 | 101° | 47km/h | 5145m | 5.1m/s | -14.3°C | 53.8% | 538.3hPa | 2.9V | 18:12:15 | 00:43:58 | 00:00:00 | |
| DL1XH-15 | 2026-09-01 23:03:24 | 54.07914 | 13.58948 | 88° | 58km/h | 5107m | 4.5m/s | -14.1°C | 55.8% | 541hPa | 2.9V | 08:30:00 | 00:43:49 | 00:00:00 | |
| AA1-15 | 2026-09-01 23:03:19 | 54.07913 | 13.58897 | 90° | 58km/h | 5099m | 3.5m/s | -14°C | 54.3% | 541.4hPa | 2.9V | 18:12:15 | 00:43:47 | 00:00:00 | |
| MECKS9 | 2026-09-01 23:03:18 | 54.07913 | 13.58897 | 90° | 58km/h | 5099m | 3.5m/s | -14.0°C | 54.6% | 541.4hPa | 2.8V | 00:00:00 | 00:00:00 | 00:00:00 | |
| DL1XH-15 | 2026-09-01 23:03:14 | 54.07935 | 13.58728 | 100° | 49km/h | 5049m | 6.2m/s | -13.6°C | 56.4% | 545hPa | 2.8V | 08:30:00 | 00:43:39 | 00:00:00 | |
| AA1-15 | 2026-09-01 23:03:08 | 54.07941 | 13.58661 | 96° | 55km/h | 5030m | 4.8m/s | -13.5°C | 56.4% | 546.4hPa | 2.9V | 18:12:15 | 00:43:36 | 00:00:00 | |
| MECKS9 | 2026-09-01 23:03:07 | 54.07941 | 13.58661 | 97° | 55km/h | 5030m | 4.8m/s | -13.5°C | 54.2% | 546.4hPa | 2.9V | 00:00:00 | 00:00:00 | 00:00:00 | |
| DL1XH-15 | 2026-09-01 23:03:04 | 54.07954 | 13.58516 | 101° | 51km/h | 4994m | 4.7m/s | -13.2°C | 55% | 549.1hPa | 2.9V | 08:30:00 | 00:43:29 | 00:00:00 | |
| AM1SDL-15 | 2026-09-01 23:03:00 | 54.07957 | 13.58494 | 106° | 51km/h | 4990m | 4.6m/s | -13.1°C | 54.6% | 549.4hPa | 2.9V | 00:00:00 | 00:43:28 | 00:00:00 | |
| DL1XH-15 | 2026-09-01 23:02:58 | 54.07971 | 13.58403 | 101° | 51km/h | 4973m | 3.6m/s | -13°C | 55.2% | 550.6hPa | 2.9V | 08:30:00 | 00:43:24 | 00:00:00 | |
| AA1-15 | 2026-09-01 23:02:57 | 54.07968 | 13.58425 | 102° | 53km/h | 4976m | 3.8m/s | -13.1°C | 54.9% | 550.4hPa | 2.9V | 18:12:15 | 00:43:25 | 00:00:00 | |
| MECKS9 | 2026-09-01 23:02:56 | 54.07968 | 13.58425 | 103° | 53km/h | 4976m | 3.8m/s | -13.1°C | 53.4% | 550.4hPa | 2.9V | 00:00:00 | 00:00:00 | 00:00:00 | |
| DL1XH-15 | 2026-09-01 23:02:51 | 54.07985 | 13.58193 | 110° | 51km/h | 4937m | 4.3m/s | -12.9°C | 58.5% | 553.3hPa | 2.9V | 08:30:00 | 00:43:14 | 00:00:00 | |
| DG6HD-11 | 2026-09-01 23:02:50 | 54.07976 | 13.58277 | 91° | 53km/h | 4951m | 4.2m/s | -12.9°C | 56.5% | 552.2hPa | 2.9V | 00:00:00 | 00:00:00 | 00:00:00 | |
| AM1SDL-15 | 2026-09-01 23:02:48 | 54.07978 | 13.58235 | 102° | 47km/h | 4944m | 2.9m/s | -12.9°C | 58.4% | 552.7hPa | 2.9V | 00:00:00 | 00:43:16 | 08:30:00 | |
| DL1XH-15 | 2026-09-01 23:02:46 | 54.08009 | 13.58096 | 105° | 40km/h | 4917m | 5m/s | -12.8°C | 59.2% | 0hPa | 2.9V | 08:30:00 | 00:43:09 | 00:00:00 | |
| AA1-15 | 2026-09-01 23:02:46 | 54.07985 | 13.58193 | 111° | 51km/h | 4937m | 4.4m/s | -12.9°C | 56.8% | 553.4hPa | 2.9V | 18:12:15 | 00:43:14 | 00:00:00 | |
| DL1XH-15 | 2026-09-01 23:02:39 | 54.08019 | 13.57992 | 99° | 62km/h | 4886m | 6.2m/s | -12.5°C | 56.9% | 0hPa | 2.9V | 08:30:00 | 00:43:04 | 00:00:00 | |
| AA1-15 | 2026-09-01 23:02:35 | 54.08022 | 13.57965 | 102° | 64km/h | 4880m | 5.9m/s | -12.4°C | 57.4% | 557.4hPa | 2.9V | 18:12:15 | 00:43:03 | 00:00:00 | |
| DL1XH-15 | 2026-09-01 23:02:33 | 54.08039 | 13.57866 | 110° | 55km/h | 4859m | 5.7m/s | -12.3°C | 55.9% | 0hPa | 2.9V | 08:30:00 | 00:42:59 | 00:00:00 | |
| MECKS9 | 2026-09-01 23:02:27 | 54.08050 | 13.57804 | 104° | 47km/h | 4843m | 4.2m/s | -12.2°C | 53.8% | 560.2hPa | 2.9V | 00:00:00 | 00:00:00 | 00:00:00 | |
| DB0DAN | 2026-09-01 23:02:25 | 54.08058 | 13.57740 | 106° | 51km/h | 4828m | 3.6m/s | -12.1°C | 53.4% | 561.22hPa | 2.9V | 00:00:00 | 00:00:00 | 00:00:00 | |
| AA1-15 | 2026-09-01 23:02:24 | 54.08062 | 13.57718 | 109° | 55km/h | 4824m | 4.6m/s | -12°C | 54.3% | 561.5hPa | 2.9V | 18:12:15 | 00:42:52 | 00:00:00 | |
| DL1XH-15 | 2026-09-01 23:02:21 | 54.08077 | 13.57656 | 113° | 53km/h | 4813m | 4.2m/s | -11.9°C | 53.9% | 0hPa | 2.9V | 08:30:00 | 00:42:49 | 00:00:00 | |
| DL1XH-15 | 2026-09-01 23:02:21 | 54.08102 | 13.57538 | 105° | 55km/h | 4787m | 6.1m/s | -11.7°C | 53.4% | 0hPa | 2.9V | 08:30:00 | 00:42:44 | 00:00:00 | |
| DG6HD-11 | 2026-09-01 23:02:20 | 54.08083 | 13.57634 | 114° | 53km/h | 4808m | 5.8m/s | -11.8°C | 53.5% | 563.0hPa | 2.9V | 00:00:00 | 00:00:00 | 00:00:00 | |
| MECKS9 | 2026-09-01 23:02:17 | 54.08093 | 13.57586 | 110° | 60km/h | 4799m | 4.5m/s | -11.8°C | 51.8% | 563.6hPa | 2.9V | 00:00:00 | 00:00:00 | 00:00:00 | |
| DL1XH-15 | 2026-09-01 23:02:16 | 54.08115 | 13.57441 | 106° | 47km/h | 4762m | 6.2m/s | -11.5°C | 53.7% | 0hPa | 2.9V | 08:30:00 | 00:42:39 | 00:00:00 | |
| AA1-15 | 2026-09-01 23:02:14 | 54.08110 | 13.57478 | 101° | 44km/h | 4774m | 6m/s | -11.6°C | 54.1% | 565.6hPa | 2.8V | 18:12:15 | 00:42:41 | 00:00:00 | |
| AA1-15 | 2026-09-01 23:02:03 | 54.08157 | 13.57250 | 105° | 55km/h | 4716m | 5m/s | -11.2°C | 52.9% | 569.6hPa | 2.9V | 18:12:15 | 00:42:30 | 00:00:00 | |
| AA1-15 | 2026-09-01 23:01:52 | 54.08183 | 13.57032 | 96° | 58km/h | 4664m | 7.3m/s | -10.7°C | 53.5% | 573.7hPa | 2.8V | 18:12:15 | 00:42:20 | 00:00:00 | |
| AA1-15 | 2026-09-01 23:01:41 | 54.08210 | 13.56776 | 94° | 55km/h | 4598m | 4.4m/s | -10.3°C | 55.3% | 578.4hPa | 2.8V | 18:12:15 | 00:42:09 | 00:00:00 | |
| AA1-15 | 2026-09-01 23:01:30 | 54.08232 | 13.56525 | 91° | 55km/h | 4550m | 5.7m/s | -10°C | 60.9% | 582.1hPa | 2.8V | 18:12:15 | 00:41:58 | 00:00:00 | |
| AA1-15 | 2026-09-01 23:01:20 | 54.08247 | 13.56302 | 101° | 55km/h | 4486m | 5.1m/s | -9.6°C | 62.1% | 586.5hPa | 2.9V | 18:12:15 | 00:41:48 | 00:00:00 | |
| DG6HD-11 | 2026-09-01 23:01:20 | 54.08247 | 13.56302 | 101° | 47km/h | 4486m | 5.1m/s | -9.5°C | 62.8% | 586.4hPa | 2.9V | 00:00:00 | 00:00:00 | 08:30:00 | |
| MECKS9 | 2026-09-01 23:01:14 | 54.08257 | 13.56181 | 93° | 60km/h | 4465m | 3.8m/s | -9.4°C | 61.3% | 588.2hPa | 2.9V | 00:00:00 | 00:00:00 | 00:00:00 | |
| DB0DAN | 2026-09-01 23:01:10 | 54.08263 | 13.56054 | 98° | 53km/h | 4441m | 6m/s | -9.2°C | 62.2% | 589.87hPa | 2.9V | 00:00:00 | 00:00:00 | 00:00:00 | |
| AA1-15 | 2026-09-01 23:01:09 | 54.08265 | 13.56031 | 98° | 53km/h | 4435m | 5.8m/s | -9.2°C | 65% | 590.4hPa | 2.9V | 18:12:15 | 00:41:37 | 00:00:00 | |
| AA1-15 | 2026-09-01 23:00:58 | 54.08287 | 13.55803 | 99° | 46km/h | 4389m | 3.8m/s | -8.8°C | 63.5% | 594.2hPa | 2.9V | 18:12:15 | 00:41:26 | 00:00:00 | |
| DB0DAN | 2026-09-01 23:00:55 | 54.08295 | 13.55741 | 101° | 49km/h | 4376m | 4.2m/s | -8.7°C | 59.9% | 595hPa | 2.8V | 00:00:00 | 00:00:00 | 00:00:00 | |
| AA1-15 | 2026-09-01 23:00:47 | 54.08312 | 13.55575 | 96° | 44km/h | 4347m | 3.5m/s | -8.5°C | 60.8% | 597.3hPa | 2.9V | 18:12:15 | 00:41:15 | 00:00:00 | |
| MECKS9 | 2026-09-01 23:00:45 | 54.08313 | 13.55557 | 100° | 44km/h | 4344m | 3.7m/s | -8.5°C | 60.6% | 597.4hPa | 2.9V | 00:00:00 | 00:00:00 | 00:00:00 | |
| DL1XH-15 | 2026-09-01 23:00:42 | 54.08321 | 13.55469 | 104° | 38km/h | 4325m | 3.2m/s | -8.4°C | 62.1% | 0hPa | 2.9V | 08:30:00 | 00:41:09 | 00:00:00 | |
| DL1XH-15 | 2026-09-01 23:00:36 | 54.08331 | 13.55383 | 94° | 49km/h | 4307m | 3.9m/s | -8.2°C | 61.4% | 0hPa | 2.9V | 08:30:00 | 00:41:04 | 00:00:00 | |
| AA1-15 | 2026-09-01 23:00:36 | 54.08330 | 13.55383 | 94° | 49km/h | 4307m | 3.9m/s | -8.2°C | 63.5% | 600.4hPa | 2.9V | 18:12:15 | 00:41:04 | 00:00:00 | |
| MECKS9 | 2026-09-01 23:00:34 | 54.08331 | 13.55361 | 94° | 53km/h | 4303m | 4.5m/s | -8.2°C | 59.6% | 600.8hPa | 2.8V | 00:00:00 | 00:00:00 | 00:00:00 | |
| DG6HD-11 | 2026-09-01 23:00:32 | 54.08336 | 13.55295 | 102° | 46km/h | 4289m | 3.2m/s | -8.0°C | 60.9% | 601.8hPa | 2.8V | 00:00:00 | 00:00:00 | 00:00:00 | |
| DL1XH-15 | 2026-09-01 23:00:31 | 54.08341 | 13.55255 | 100° | 46km/h | 4281m | 3.8m/s | -8°C | 60.6% | 0hPa | 2.8V | 08:30:00 | 00:40:58 | 00:00:00 | |
| DL1XH-15 | 2026-09-01 23:00:26 | 54.08350 | 13.55157 | 104° | 49km/h | 4266m | 4m/s | -7.9°C | 62.6% | 0hPa | 2.9V | 08:30:00 | 00:40:53 | 00:00:00 | |
| AA1-15 | 2026-09-01 23:00:26 | 54.08347 | 13.55178 | 101° | 49km/h | 4269m | 3.4m/s | -7.9°C | 61.3% | 603.5hPa | 2.9V | 18:12:15 | 00:40:54 | 00:00:00 | |
| DL1XH-15 | 2026-09-01 23:00:20 | 54.08389 | 13.54977 | 93° | 40km/h | 4229m | 5.9m/s | -7.7°C | 59.4% | 0hPa | 2.9V | 08:30:00 | 00:40:43 | 00:00:00 | |
| AA1-15 | 2026-09-01 23:00:16 | 54.08389 | 13.54977 | 93° | 40km/h | 4229m | 5.9m/s | -7.7°C | 60.8% | 606.7hPa | 2.9V | 18:12:15 | 00:40:43 | 00:00:00 | |
| DB0DAN | 2026-09-01 23:00:10 | 54.08398 | 13.54891 | 111° | 44km/h | 4199m | 5.4m/s | -7.5°C | 57.1% | 609.18hPa | 2.9V | 00:00:00 | 00:00:00 | 00:00:00 | |
| AA1-15 | 2026-09-01 23:00:04 | 54.08422 | 13.54776 | 103° | 47km/h | 4162m | 5.6m/s | -7.2°C | 59.3% | 611.8hPa | 2.9V | 18:12:15 | 00:40:32 | 00:00:00 | |
| DG6HD-11 | 2026-09-01 23:00:02 | 54.08427 | 13.54736 | 106° | 46km/h | 4153m | 4.9m/s | -7.1°C | 57.7% | 612.4hPa | 2.9V | 00:00:00 | 00:00:00 | 00:00:00 | |
| DL1XH-15 | 2026-09-01 23:00:00 | 54.08444 | 13.54638 | 98° | 46km/h | 4133m | 2.8m/s | -7°C | 57.6% | 0hPa | 2.9V | 08:30:00 | 00:40:25 | 00:00:00 | |
| AA1-15 | 2026-09-01 22:59:53 | 54.08452 | 13.54563 | 106° | 46km/h | 4121m | 4.1m/s | -6.8°C | 57.9% | 615hPa | 2.9V | 18:12:15 | 00:40:21 | 00:00:00 | |
| AA1-15 | 2026-09-01 22:59:42 | 54.08482 | 13.54350 | 94° | 42km/h | 4080m | 4m/s | -6.5°C | 56.9% | 618.4hPa | 2.9V | 18:12:15 | 00:40:10 | 00:00:00 | |
| AA1-15 | 2026-09-01 22:59:31 | 54.08509 | 13.54139 | 95° | 53km/h | 4037m | 4.2m/s | -6.4°C | 59.1% | 621.7hPa | 2.9V | 18:12:15 | 00:39:59 | 00:00:00 | |
| DL1XH-15 | 2026-09-01 22:59:25 | 54.08536 | 13.53945 | 103° | 55km/h | 4005m | 4.5m/s | -6.3°C | 60.3% | 0hPa | 2.9V | 08:30:00 | 00:39:50 | 00:00:00 | |
| AA1-15 | 2026-09-01 22:59:20 | 54.08539 | 13.53903 | 92° | 46km/h | 3997m | 5.1m/s | -6.2°C | 61.6% | 624.7hPa | 2.9V | 18:12:15 | 00:39:48 | 00:00:00 | |
| AA1-15 | 2026-09-01 22:59:09 | 54.08553 | 13.53691 | 94° | 33km/h | 3944m | 6m/s | -6°C | 65.1% | 628.9hPa | 2.9V | 18:12:15 | 00:39:37 | 00:00:00 | |
| AA1-15 | 2026-09-01 22:58:58 | 54.08563 | 13.53511 | 91° | 35km/h | 3894m | 3.1m/s | -5.7°C | 64.8% | 633.1hPa | 2.9V | 18:12:15 | 00:39:26 | 00:00:00 | |
| DB0DAN | 2026-09-01 22:58:55 | 54.08564 | 13.53462 | 92° | 38km/h | 3884m | 3.8m/s | -5.7°C | 62.7% | 633.85hPa | 2.9V | 00:00:00 | 00:00:00 | 00:00:00 | |
| AA1-15 | 2026-09-01 22:58:47 | 54.08567 | 13.53321 | 94° | 42km/h | 3853m | 5m/s | -5.5°C | 64.2% | 636.3hPa | 2.9V | 18:12:15 | 00:39:15 | 00:00:00 | |
| DL1XH-15 | 2026-09-01 22:58:45 | 54.08573 | 13.53222 | 96° | 38km/h | 3830m | 4m/s | -5.4°C | 63.8% | 0hPa | 2.9V | 08:30:00 | 00:39:09 | 00:00:00 | |
| AA1-15 | 2026-09-01 22:58:36 | 54.08571 | 13.53139 | 89° | 38km/h | 3813m | 3.1m/s | -5.4°C | 66.9% | 639.7hPa | 2.9V | 18:12:15 | 00:39:04 | 00:00:00 | |
| DL1XH-15 | 2026-09-01 22:58:35 | 54.08571 | 13.53123 | 90° | 38km/h | 3810m | 3.4m/s | -5.4°C | 65.6% | 0hPa | 2.9V | 00:00:00 | 00:39:03 | 00:00:00 | |
| AA1-15 | 2026-09-01 22:58:26 | 54.08580 | 13.52966 | 100° | 38km/h | 3780m | 4.5m/s | -5.3°C | 67.1% | 642.4hPa | 2.8V | 18:12:15 | 00:38:54 | 00:00:00 | |
| AA1-15 | 2026-09-01 22:58:15 | 54.08602 | 13.52777 | 114° | 38km/h | 3734m | 4.4m/s | -5.3°C | 72.1% | 646hPa | 2.9V | 18:12:15 | 00:38:43 | 00:00:00 | |
| DL1XH-15 | 2026-09-01 22:58:11 | 54.08616 | 13.52713 | 99° | 44km/h | 3720m | 4.2m/s | -5.2°C | 72.7% | 0hPa | 2.9V | 00:00:00 | 00:38:39 | 00:00:00 | |
| DL1XH-15 | 2026-09-01 22:58:11 | 54.08622 | 13.52614 | 100° | 46km/h | 3695m | 5.3m/s | -5.1°C | 0% | 0hPa | 2.8V | 00:00:00 | 00:38:34 | 00:00:00 | |
| AM1SDL-15 | 2026-09-01 22:58:06 | 54.08622 | 13.52614 | 101° | 46km/h | 3695m | 5.3m/s | -5.1°C | 72.2% | 649.2hPa | 2.9V | 00:00:00 | 00:38:34 | 00:00:00 | |
| DL1XH-15 | 2026-09-01 22:58:05 | 54.08632 | 13.52526 | 101° | 42km/h | 3671m | 3.3m/s | -4.9°C | 0% | 0hPa | 2.9V | 00:00:00 | 00:38:29 | 00:00:00 | |
| AA1-15 | 2026-09-01 22:58:04 | 54.08626 | 13.52578 | 99° | 40km/h | 3684m | 4.3m/s | -5°C | 70.1% | 650.1hPa | 2.9V | 18:12:15 | 00:38:32 | 00:00:00 | |
| DG6HD-11 | 2026-09-01 22:58:02 | 54.08629 | 13.52543 | 102° | 44km/h | 3676m | 5.4m/s | 0°C | 0% | 0hPa | 2.9V | 00:00:00 | 00:00:00 | 00:00:00 | |
| DL1XH-15 | 2026-09-01 22:57:59 | 54.08638 | 13.52439 | 95° | 40km/h | 3651m | 4.4m/s | -4.8°C | 0% | 0hPa | 2.9V | 00:00:00 | 00:38:24 | 00:00:00 | |
| MECKS9 | 2026-09-01 22:57:58 | 54.08635 | 13.52491 | 99° | 42km/h | 3663m | 4.9m/s | -4.8°C | 65.6% | 652.0hPa | 2.9V | 00:00:00 | 00:00:00 | 00:00:00 | |
| DL1XH-15 | 2026-09-01 22:57:53 | 54.08641 | 13.52341 | 91° | 49km/h | 3632m | 3.6m/s | 0°C | 0% | 0hPa | 2.9V | 00:00:00 | 00:38:19 | 00:00:00 | |
| AA1-15 | 2026-09-01 22:57:53 | 54.08640 | 13.52382 | 92° | 47km/h | 3640m | 5.1m/s | -4.7°C | 68.5% | 653.9hPa | 2.9V | 18:12:15 | 00:38:21 | 00:00:00 | |
| AM1SDL-15 | 2026-09-01 22:57:48 | 54.08643 | 13.52282 | 97° | 46km/h | 3623m | 4.0m/s | -4.5°C | 68.7% | 655.2hPa | 2.9V | 00:00:00 | 00:38:16 | 00:00:00 | |
| DL1XH-15 | 2026-09-01 22:57:47 | 54.08645 | 13.52247 | 93° | 40km/h | 3616m | 3.1m/s | 0°C | 0% | 0hPa | 2.9V | 00:00:00 | 00:38:14 | 00:00:00 | |
| AA1-15 | 2026-09-01 22:57:42 | 54.08650 | 13.52173 | 96° | 44km/h | 3602m | 4m/s | -4.5°C | 72.9% | 657hPa | 2.9V | 18:12:15 | 00:38:10 | 00:00:00 | |
| DL1XH-15 | 2026-09-01 22:57:41 | 54.08651 | 13.52155 | 96° | 42km/h | 3598m | 3.7m/s | 0°C | 0% | 0hPa | 2.9V | 00:00:00 | 00:38:09 | 00:00:00 | |
| AA1-15 | 2026-09-01 22:57:31 | 54.08650 | 13.51949 | 92° | 46km/h | 3563m | 3.3m/s | -4.2°C | 72.1% | 660.4hPa | 2.9V | 18:12:15 | 00:37:59 | 00:00:00 | |
| DB0DAN | 2026-09-01 22:57:25 | 54.08656 | 13.51817 | 89° | 57km/h | 3535m | 3.9m/s | -4.1°C | 71.9% | 662.6hPa | 2.9V | 00:00:00 | 00:00:00 | 00:00:00 | |
| AA1-15 | 2026-09-01 22:57:20 | 54.08653 | 13.51708 | 88° | 40km/h | 3518m | 6.4m/s | -3.9°C | 74.1% | 663.9hPa | 2.9V | 18:12:15 | 00:37:48 | 00:00:00 | |
| DB0DAN | 2026-09-01 22:57:10 | 54.08655 | 13.51551 | 84° | 42km/h | 3461m | 6.2m/s | -3.5°C | 71.6% | 669.02hPa | 2.9V | 00:00:00 | 00:00:00 | 00:00:00 | |
| AA1-15 | 2026-09-01 22:57:09 | 54.08654 | 13.51533 | 87° | 40km/h | 3455m | 5.7m/s | -3.5°C | 73.3% | 669.4hPa | 2.9V | 18:12:15 | 00:37:37 | 00:00:00 | |
| AA1-15 | 2026-09-01 22:56:58 | 54.08681 | 13.51309 | 111° | 47km/h | 3410m | 4.6m/s | -3.3°C | 76.1% | 673.2hPa | 2.9V | 18:12:15 | 00:37:26 | 00:00:00 | |
| DB0DAN | 2026-09-01 22:56:55 | 54.08693 | 13.51253 | 107° | 42km/h | 3394m | 4.7m/s | -3.3°C | 75.7% | 674.73hPa | 2.9V | 00:00:00 | 00:00:00 | 00:00:00 | |
| AA1-15 | 2026-09-01 22:56:47 | 54.08698 | 13.51133 | 91° | 44km/h | 3364m | 4m/s | -3.2°C | 76.1% | 677.1hPa | 2.9V | 18:12:15 | 00:37:15 | 00:00:00 | |
| AA1-15 | 2026-09-01 22:56:37 | 54.08719 | 13.50943 | 109° | 44km/h | 3303m | 4.1m/s | -2.6°C | 73.3% | 682.5hPa | 2.9V | 18:12:15 | 00:37:04 | 00:00:00 | |
| AM1SDL-15 | 2026-09-01 22:56:32 | 54.08732 | 13.50863 | 96° | 38km/h | 3288m | 3.0m/s | 0°C | 0% | 0hPa | 2.9V | 00:00:00 | 00:37:00 | 00:00:00 | |
| MECKS9 | 2026-09-01 22:56:30 | 54.08733 | 13.50842 | 92° | 46km/h | 3285m | 4.4m/s | -2.5°C | 60.9% | 684.2hPa | 2.9V | 00:00:00 | 00:00:00 | 00:00:00 | |
| DB0DAN | 2026-09-01 22:56:25 | 54.08735 | 13.50742 | 100° | 37km/h | 3249m | 6.4m/s | -2.3°C | 60.9% | 687.25hPa | 2.9V | 00:00:00 | 00:00:00 | 00:00:00 | |
| AA1-15 | 2026-09-01 22:56:25 | 54.08735 | 13.50742 | 100° | 38km/h | 3249m | 6.4m/s | -2.3°C | 63% | 687.2hPa | 2.9V | 18:12:15 | 00:36:53 | 00:00:00 | |
| AA1-15 | 2026-09-01 22:56:15 | 54.08744 | 13.50594 | 88° | 37km/h | 3202m | 6.2m/s | -2°C | 61.8% | 691.1hPa | 2.9V | 18:12:15 | 00:36:43 | 00:00:00 | |
| DB0DAN | 2026-09-01 22:56:10 | 54.08749 | 13.50515 | 98° | 37km/h | 3176m | 4.8m/s | -1.8°C | 57.2% | 693.4hPa | 2.8V | 00:00:00 | 00:00:00 | 00:00:00 | |
| AA1-15 | 2026-09-01 22:56:04 | 54.08749 | 13.50409 | 87° | 46km/h | 3153m | 4m/s | -1.6°C | 59.5% | 695.3hPa | 2.9V | 18:12:15 | 00:36:32 | 00:00:00 | |
| MECKS9 | 2026-09-01 22:55:59 | 54.08749 | 13.50332 | 95° | 44km/h | 3139m | 3.3m/s | -1.6°C | 56.9% | 696.6hPa | 2.9V | 00:00:00 | 00:00:00 | 00:00:00 | |
| DL1XH-15 | 2026-09-01 22:55:57 | 54.08751 | 13.50204 | 81° | 37km/h | 3113m | 3m/s | 0°C | 0% | 0hPa | 2.9V | 00:00:00 | 00:36:20 | 00:00:00 | |
| AA1-15 | 2026-09-01 22:55:53 | 54.08753 | 13.50219 | 82° | 33km/h | 3116m | 2.7m/s | -1.4°C | 58.4% | 698.7hPa | 2.9V | 18:12:15 | 00:36:21 | 00:00:00 | |
| AA1-15 | 2026-09-01 22:55:42 | 54.08760 | 13.50030 | 100° | 42km/h | 3065m | 4.8m/s | -1°C | 58.8% | 703hPa | 2.9V | 18:12:15 | 00:36:10 | 00:00:00 | |
| AA1-15 | 2026-09-01 22:55:31 | 54.08758 | 13.49838 | 95° | 37km/h | 3015m | 6.5m/s | -0.6°C | 58.6% | 707.5hPa | 2.9V | 18:12:15 | 00:35:59 | 00:00:00 | |
| AM1SDL-15 | 2026-09-01 22:55:30 | 54.08758 | 13.49806 | 89° | 42km/h | 3006m | 4.1m/s | 0°C | 0% | 0hPa | 2.9V | 00:00:00 | 00:35:57 | 00:00:00 | |
| MECKS9 | 2026-09-01 22:55:26 | 54.08758 | 13.49769 | 94° | 46km/h | 2997m | 3.8m/s | -0.5°C | 54.7% | 709.0hPa | 2.9V | 00:00:00 | 00:00:00 | 00:00:00 | |
| DB0DAN | 2026-09-01 22:55:25 | 54.08761 | 13.49729 | 101° | 47km/h | 2988m | 3.8m/s | -0.4°C | 54.5% | 709.91hPa | 2.9V | 00:00:00 | 00:00:00 | 00:00:00 | |
| AA1-15 | 2026-09-01 22:55:20 | 54.08771 | 13.49634 | 94° | 40km/h | 2971m | 4.4m/s | -0.4°C | 57.8% | 711.3hPa | 2.9V | 18:12:15 | 00:35:48 | 00:00:00 | |
| AM1SDL-15 | 2026-09-01 22:55:18 | 54.08774 | 13.49588 | 106° | 38km/h | 2957m | 3.7m/s | 0°C | 0% | 0hPa | 2.9V | 00:00:00 | 00:35:45 | 00:00:00 | |
| MECKS9 | 2026-09-01 22:55:17 | 54.08775 | 13.49589 | 106° | 31km/h | 2957m | 3.8m/s | -0.4°C | 55.5% | 712.5hPa | 2.9V | 00:00:00 | 00:00:00 | 00:00:00 | |
| DB0DAN | 2026-09-01 22:55:10 | 54.08791 | 13.49474 | 103° | 42km/h | 2928m | 8.1m/s | -0.2°C | 55.8% | 714.93hPa | 2.9V | 00:00:00 | 00:00:00 | 00:00:00 | |
| AA1-15 | 2026-09-01 22:55:09 | 54.08794 | 13.49456 | 108° | 42km/h | 2921m | 7.7m/s | -0.1°C | 59.6% | 715.7hPa | 2.9V | 18:12:15 | 00:35:37 | 00:00:00 | |
| DL1XH-15 | 2026-09-01 22:55:05 | 54.08803 | 13.49317 | 98° | 37km/h | 2870m | 5.2m/s | 0°C | 0% | 0hPa | 2.9V | 00:00:00 | 00:35:28 | 00:00:00 | |
| AM1SDL-15 | 2026-09-01 22:55:03 | 54.08802 | 13.49362 | 83° | 38km/h | 2886m | 6.9m/s | 0°C | 0% | 0hPa | 2.9V | 00:00:00 | 00:35:31 | 00:00:00 | |
| DL1XH-15 | 2026-09-01 22:54:59 | 54.08813 | 13.49212 | 95° | 40km/h | 2840m | 3.9m/s | 0°C | 0% | 0hPa | 2.9V | 00:00:00 | 00:35:22 | 00:00:00 | |
| AA1-15 | 2026-09-01 22:54:58 | 54.08806 | 13.49283 | 102° | 42km/h | 2859m | 5.6m/s | 0.3°C | 58.8% | 721.3hPa | 2.9V | 18:12:15 | 00:35:26 | 00:00:00 | |
| DL1XH-15 | 2026-09-01 22:54:49 | 54.08823 | 13.49116 | 98° | 49km/h | 2819m | 3.2m/s | 0°C | 0% | 0hPa | 2.9V | 00:00:00 | 00:35:17 | 00:00:00 | |
| DL1XH-15 | 2026-09-01 22:54:49 | 54.08829 | 13.49019 | 93° | 42km/h | 2799m | 5.1m/s | 0°C | 0% | 0hPa | 2.9V | 00:00:00 | 00:35:12 | 00:00:00 | |
| AA1-15 | 2026-09-01 22:54:48 | 54.08826 | 13.49075 | 98° | 46km/h | 2811m | 4.9m/s | 0.5°C | 59.5% | 725.5hPa | 2.9V | 18:12:15 | 00:35:15 | 00:00:00 | |
| DB0DAN | 2026-09-01 22:54:40 | 54.08831 | 13.48949 | 97° | 37km/h | 2783m | 3.1m/s | 0.5°C | 57.4% | 728.11hPa | 2.9V | 00:00:00 | 00:00:00 | 00:00:00 | |
| AA1-15 | 2026-09-01 22:54:36 | 54.08835 | 13.48876 | 92° | 47km/h | 2767m | 4m/s | 0.5°C | 64.3% | 729.6hPa | 2.9V | 18:12:15 | 00:35:04 | 00:00:00 | |
| AA1-15 | 2026-09-01 22:54:28 | 54.08834 | 13.48672 | 98° | 35km/h | 2718m | 5.6m/s | 0.8°C | 63.5% | 734.2hPa | 2.9V | 18:12:15 | 00:34:53 | 00:00:00 | |
| AA1-15 | 2026-09-01 22:54:15 | 54.08844 | 13.48485 | 101° | 44km/h | 2675m | 3.1m/s | 0.9°C | 64% | 738.1hPa | 2.9V | 18:12:15 | 00:34:42 | 00:00:00 | |
| DB0DAN | 2026-09-01 22:54:10 | 54.08850 | 13.48416 | 93° | 37km/h | 2661m | 3.6m/s | 1°C | 60.4% | 739.41hPa | 2.9V | 00:00:00 | 00:00:00 | 00:00:00 | |
| AA1-15 | 2026-09-01 22:54:04 | 54.08856 | 13.48316 | 100° | 42km/h | 2640m | 4.3m/s | 1.1°C | 61.8% | 741.3hPa | 2.9V | 18:12:15 | 00:34:32 | 00:00:00 | |
| DB0DAN | 2026-09-01 22:53:55 | 54.08867 | 13.48175 | 82° | 29km/h | 2608m | 3.3m/s | 1.2°C | 61.6% | 744.47hPa | 2.9V | 00:00:00 | 00:00:00 | 00:00:00 | |
| AA1-15 | 2026-09-01 22:53:54 | 54.08866 | 13.48149 | 93° | 31km/h | 2602m | 3.5m/s | 1.2°C | 63.4% | 744.9hPa | 2.9V | 18:12:15 | 00:34:21 | 00:00:00 | |
| AA1-15 | 2026-09-01 22:53:42 | 54.08890 | 13.47986 | 108° | 37km/h | 2539m | 5m/s | 1.7°C | 64.9% | 750.8hPa | 2.9V | 18:12:15 | 00:34:10 | 00:00:00 | |
| DB0DAN | 2026-09-01 22:53:40 | 54.08895 | 13.47956 | 106° | 35km/h | 2531m | 4.3m/s | 1.8°C | 63.9% | 751.64hPa | 2.9V | 00:00:00 | 00:00:00 | 00:00:00 | |
| AA1-15 | 2026-09-01 22:53:31 | 54.08916 | 13.47812 | 95° | 46km/h | 2491m | 4.4m/s | 2.1°C | 67.8% | 755.2hPa | 2.9V | 18:12:15 | 00:33:59 | 00:00:00 | |
| DB0DAN | 2026-09-01 22:53:25 | 54.08918 | 13.47702 | 84° | 35km/h | 2455m | 4.3m/s | 2.3°C | 64.1% | 758.58hPa | 2.9V | 00:00:00 | 00:00:00 | 00:00:00 | |
| AA1-15 | 2026-09-01 22:53:22 | 54.08917 | 13.47632 | 91° | 37km/h | 2431m | 3.9m/s | 2.4°C | 68.3% | 760.9hPa | 2.9V | 18:12:15 | 00:33:48 | 00:00:00 | |
| MECKS9 | 2026-09-01 22:53:14 | 54.08920 | 13.47562 | 98° | 26km/h | 2414m | 3.5m/s | 2.5°C | 0% | 762.6hPa | 2.9V | 00:00:00 | 00:00:00 | 00:00:00 | |
| DB0DAN | 2026-09-01 22:53:10 | 54.08923 | 13.47499 | 91° | 31km/h | 2396m | 4.3m/s | 2.6°C | 64.3% | 764.14hPa | 2.9V | 00:00:00 | 00:00:00 | 00:00:00 | |
| AA1-15 | 2026-09-01 22:53:09 | 54.08923 | 13.47485 | 92° | 33km/h | 2391m | 4.2m/s | 2.6°C | 65.8% | 764.7hPa | 2.9V | 18:12:15 | 00:33:37 | 00:00:00 | |
| AA1-15 | 2026-09-01 22:52:58 | 54.08916 | 13.47307 | 82° | 37km/h | 2339m | 8.6m/s | 2.8°C | 70.4% | 769.5hPa | 2.9V | 18:12:15 | 00:33:26 | 00:00:00 | |
| DB0DAN | 2026-09-01 22:52:55 | 54.08914 | 13.47262 | 89° | 31km/h | 2316m | 7.1m/s | 2.8°C | 67.2% | 771.86hPa | 2.9V | 00:00:00 | 00:00:00 | 00:00:00 | |
| AA1-15 | 2026-09-01 22:52:49 | 54.08922 | 13.47173 | 100° | 35km/h | 2279m | 5.1m/s | 3.1°C | 70.1% | 775.4hPa | 2.9V | 18:12:15 | 00:33:15 | 00:00:00 | |
| DB0DAN | 2026-09-01 22:52:40 | 54.08916 | 13.47084 | 95° | 29km/h | 2232m | 6.5m/s | 2.9°C | 69.3% | 779.83hPa | 2.9V | 00:00:00 | 00:00:00 | 00:00:00 | |
| AA1-15 | 2026-09-01 22:52:36 | 54.08925 | 13.47032 | 109° | 29km/h | 2211m | 4.8m/s | 2.7°C | 72.7% | 781.9hPa | 2.9V | 18:12:15 | 00:33:04 | 00:00:00 | |
| AA1-15 | 2026-09-01 22:52:25 | 54.08947 | 13.46901 | 82° | 35km/h | 2160m | 5.5m/s | 2.9°C | 73.1% | 786.6hPa | 2.9V | 18:12:15 | 00:32:53 | 00:00:00 | |
| DB0DAN | 2026-09-01 22:52:25 | 54.08947 | 13.46901 | 81° | 35km/h | 2160m | 5.5m/s | 2.9°C | 70.8% | 786.65hPa | 2.9V | 00:00:00 | 00:00:00 | 00:00:00 | |
| AA1-15 | 2026-09-01 22:52:14 | 54.08943 | 13.46755 | 88° | 35km/h | 2104m | 3.4m/s | 3.1°C | 72.4% | 792.1hPa | 2.9V | 18:12:15 | 00:32:42 | 00:00:00 | |
| DB0DAN | 2026-09-01 22:52:10 | 54.08935 | 13.46704 | 74° | 22km/h | 2084m | 6.7m/s | 3.3°C | 71.1% | 793.93hPa | 2.9V | 00:00:00 | 00:00:00 | 00:00:00 | |
| AA1-15 | 2026-09-01 22:52:03 | 54.08932 | 13.46613 | 84° | 38km/h | 2046m | 3.6m/s | 3.6°C | 72% | 797.9hPa | 2.9V | 18:12:15 | 00:32:31 | 00:00:00 | |
| DB0DAN | 2026-09-01 22:51:55 | 54.08927 | 13.46516 | 99° | 29km/h | 2009m | 6.2m/s | 3.9°C | 68.9% | 801.37hPa | 2.9V | 00:00:00 | 00:00:00 | 00:00:00 | |
| AA1-15 | 2026-09-01 22:51:53 | 54.08929 | 13.46486 | 96° | 37km/h | 1999m | 4.6m/s | 4°C | 70.5% | 802.3hPa | 2.9V | 18:12:15 | 00:32:21 | 00:00:00 | |
| AA1-15 | 2026-09-01 22:51:51 | 54.08931 | 13.46456 | 97° | 33km/h | 1991m | 3.3m/s | 4.1°C | 69.5% | 803.2hPa | 2.9V | 18:12:15 | 00:32:19 | 00:00:00 | |
| AA1-15 | 2026-09-01 22:51:50 | 54.08932 | 13.46443 | 100° | 29km/h | 1987m | 4.8m/s | 4.1°C | 70% | 803.7hPa | 2.9V | 18:12:15 | 00:32:18 | 00:00:00 | |
| AA1-15 | 2026-09-01 22:51:48 | 54.08934 | 13.46422 | 100° | 22km/h | 1978m | 5.2m/s | 4.2°C | 71.1% | 804.4hPa | 2.9V | 18:12:15 | 00:32:16 | 00:00:00 | |
| AA1-15 | 2026-09-01 22:51:47 | 54.08935 | 13.46412 | 99° | 24km/h | 1972m | 6.1m/s | 4.2°C | 71.2% | 805hPa | 2.9V | 18:12:15 | 00:32:15 | 00:00:00 | |
| AA1-15 | 2026-09-01 22:51:46 | 54.08936 | 13.46402 | 99° | 27km/h | 1966m | 7.3m/s | 4.2°C | 71.3% | 805.6hPa | 2.9V | 18:12:15 | 00:32:14 | 00:00:00 | |
| AA1-15 | 2026-09-01 22:51:44 | 54.08939 | 13.46374 | 102° | 37km/h | 1955m | 4.6m/s | 4.3°C | 70.9% | 806.7hPa | 2.9V | 18:12:15 | 00:32:12 | 00:00:00 | |
| AA1-15 | 2026-09-01 22:51:43 | 54.08941 | 13.46359 | 104° | 37km/h | 1950m | 4.4m/s | 4.3°C | 70.4% | 807.2hPa | 2.9V | 18:12:15 | 00:32:11 | 00:00:00 | |
| AA1-15 | 2026-09-01 22:51:42 | 54.08944 | 13.46345 | 108° | 35km/h | 1946m | 4.7m/s | 4.3°C | 70% | 807.7hPa | 2.9V | 18:12:15 | 00:32:10 | 00:00:00 | |
| AA1-15 | 2026-09-01 22:51:41 | 54.08950 | 13.46310 | 105° | 27km/h | 1934m | 6.1m/s | 4.4°C | 70.5% | 808.9hPa | 2.9V | 18:12:15 | 00:32:07 | 00:00:00 | |
| DB0DAN | 2026-09-01 22:51:40 | 54.08949 | 13.46321 | 107° | 26km/h | 1939m | 4.2m/s | 4.4°C | 67.1% | 808.41hPa | 2.9V | 00:00:00 | 00:00:00 | 00:00:00 | |
| AA1-15 | 2026-09-01 22:51:39 | 54.08952 | 13.46298 | 100° | 27km/h | 1928m | 5.2m/s | 4.4°C | 69.7% | 809.5hPa | 2.9V | 18:12:15 | 00:32:06 | 00:00:00 | |
| AA1-15 | 2026-09-01 22:51:36 | 54.08954 | 13.46274 | 99° | 27km/h | 1920m | 4.1m/s | 4.5°C | 69% | 810.3hPa | 2.9V | 18:12:15 | 00:32:04 | 00:00:00 | |
| AA1-15 | 2026-09-01 22:51:35 | 54.08955 | 13.46263 | 104° | 26km/h | 1915m | 4.9m/s | 4.5°C | 68.6% | 810.8hPa | 2.9V | 18:12:15 | 00:32:03 | 00:00:00 | |
| AA1-15 | 2026-09-01 22:51:33 | 54.08958 | 13.46242 | 102° | 24km/h | 1907m | 4.5m/s | 4.6°C | 67.6% | 811.6hPa | 2.9V | 18:12:15 | 00:32:01 | 00:00:00 | |
| AA1-15 | 2026-09-01 22:51:33 | 54.08959 | 13.46232 | 102° | 26km/h | 1903m | 4m/s | 4.6°C | 67.1% | 812.1hPa | 2.9V | 18:12:15 | 00:32:00 | 00:00:00 | |
| AA1-15 | 2026-09-01 22:51:31 | 54.08961 | 13.46221 | 105° | 26km/h | 1900m | 3.3m/s | 4.6°C | 66.9% | 812.5hPa | 2.9V | 18:12:15 | 00:31:59 | 00:00:00 | |
| AA1-15 | 2026-09-01 22:51:29 | 54.08965 | 13.46199 | 112° | 27km/h | 1893m | 3m/s | 4.7°C | 65.2% | 813hPa | 2.9V | 18:12:15 | 00:31:57 | 00:00:00 | |
| AA1-15 | 2026-09-01 22:51:28 | 54.08968 | 13.46188 | 111° | 27km/h | 1890m | 2.9m/s | 4.7°C | 64.7% | 813.4hPa | 2.9V | 18:12:15 | 00:31:56 | 00:00:00 | |
| AA1-15 | 2026-09-01 22:51:27 | 54.08970 | 13.46177 | 103° | 27km/h | 1887m | 3.7m/s | 4.7°C | 63.4% | 813.7hPa | 2.9V | 18:12:15 | 00:31:55 | 00:00:00 | |
| DB0DAN | 2026-09-01 22:51:25 | 54.08971 | 13.46153 | 88° | 26km/h | 1879m | 3.9m/s | 4.7°C | 59.8% | 814.42hPa | 2.9V | 00:00:00 | 00:00:00 | 00:00:00 | |
| AA1-15 | 2026-09-01 22:51:25 | 54.08971 | 13.46153 | 88° | 26km/h | 1879m | 3.9m/s | 4.7°C | 61.3% | 814.4hPa | 2.9V | 18:12:15 | 00:31:53 | 00:00:00 | |
| AA1-15 | 2026-09-01 22:51:24 | 54.08970 | 13.46141 | 83° | 27km/h | 1875m | 4.3m/s | 4.7°C | 60.3% | 814.9hPa | 2.9V | 18:12:15 | 00:31:52 | 00:00:00 | |
| AA1-15 | 2026-09-01 22:51:23 | 54.08969 | 13.46129 | 79° | 27km/h | 1871m | 3m/s | 4.8°C | 59.5% | 815.3hPa | 2.9V | 18:12:15 | 00:31:51 | 00:00:00 | |
| AA1-15 | 2026-09-01 22:51:21 | 54.08967 | 13.46104 | 83° | 31km/h | 1864m | 3.2m/s | 4.8°C | 58.3% | 816.1hPa | 2.9V | 18:12:15 | 00:31:49 | 00:00:00 | |
| AA1-15 | 2026-09-01 22:51:20 | 54.08966 | 13.46089 | 87° | 35km/h | 1861m | 3.3m/s | 4.8°C | 56.9% | 816.2hPa | 2.9V | 18:12:15 | 00:31:48 | 00:00:00 | |
| AA1-15 | 2026-09-01 22:51:18 | 54.08967 | 13.46057 | 94° | 38km/h | 1854m | 3.9m/s | 4.8°C | 57.5% | 816.8hPa | 2.9V | 18:12:15 | 00:31:46 | 00:00:00 | |
| AA1-15 | 2026-09-01 22:51:17 | 54.08968 | 13.46041 | 96° | 37km/h | 1850m | 5m/s | 4.9°C | 57.4% | 817.4hPa | 2.9V | 18:12:15 | 00:31:45 | 00:00:00 | |
| AA1-15 | 2026-09-01 22:51:16 | 54.08969 | 13.46026 | 94° | 33km/h | 1845m | 4.7m/s | 4.9°C | 57.7% | 817.9hPa | 2.9V | 18:12:15 | 00:31:44 | 00:00:00 | |
| AA1-15 | 2026-09-01 22:51:14 | 54.08969 | 13.46001 | 81° | 26km/h | 1834m | 5.7m/s | 5°C | 59.4% | 819hPa | 2.9V | 18:12:15 | 00:31:42 | 00:00:00 | |
| AA1-15 | 2026-09-01 22:51:13 | 54.08967 | 13.45990 | 78° | 24km/h | 1829m | 4.7m/s | 5°C | 60.2% | 819.6hPa | 2.9V | 18:12:15 | 00:31:41 | 00:00:00 | |
| AA1-15 | 2026-09-01 22:51:12 | 54.08966 | 13.45981 | 74° | 24km/h | 1823m | 7.7m/s | 5.1°C | 59.8% | 820hPa | 2.9V | 18:12:15 | 00:31:40 | 00:00:00 | |
| DB0DAN | 2026-09-01 22:51:10 | 54.08964 | 13.45960 | 90° | 24km/h | 1809m | 5.8m/s | 5.1°C | 56.9% | 821.53hPa | 2.9V | 00:00:00 | 00:00:00 | 00:00:00 | |
| AA1-15 | 2026-09-01 22:51:10 | 54.08964 | 13.45960 | 90° | 24km/h | 1809m | 5.8m/s | 5.1°C | 60.7% | 821.5hPa | 2.9V | 18:12:15 | 00:31:38 | 00:00:00 | |
| AA1-15 | 2026-09-01 22:51:09 | 54.08965 | 13.45950 | 92° | 22km/h | 1803m | 6.9m/s | 5.2°C | 61.1% | 822.1hPa | 2.9V | 18:12:15 | 00:31:37 | 00:00:00 | |
| AA1-15 | 2026-09-01 22:51:08 | 54.08965 | 13.45941 | 94° | 18km/h | 1796m | 7m/s | 5.2°C | 61.2% | 822.8hPa | 2.9V | 18:12:15 | 00:31:36 | 00:00:00 | |
| AA1-15 | 2026-09-01 22:51:07 | 54.08973 | 13.45899 | 111° | 33km/h | 1774m | 4.9m/s | 5.3°C | 62.1% | 825hPa | 2.9V | 18:12:15 | 00:31:31 | 00:00:00 | |
| AA1-15 | 2026-09-01 22:51:03 | 54.08975 | 13.45885 | 106° | 35km/h | 1769m | 3.9m/s | 5.4°C | 62.3% | 825.4hPa | 2.9V | 18:12:15 | 00:31:30 | 00:00:00 | |
| AA1-15 | 2026-09-01 22:51:01 | 54.08977 | 13.45871 | 101° | 35km/h | 1765m | 5.1m/s | 5.4°C | 63.5% | 825.9hPa | 2.9V | 18:12:15 | 00:31:29 | 00:00:00 | |
| AA1-15 | 2026-09-01 22:50:59 | 54.08979 | 13.45847 | 96° | 22km/h | 1753m | 6.2m/s | 5.5°C | 64.4% | 827.2hPa | 2.9V | 18:12:15 | 00:31:27 | 00:00:00 | |
| AA1-15 | 2026-09-01 22:50:58 | 54.08980 | 13.45838 | 94° | 18km/h | 1747m | 4.3m/s | 5.4°C | 66.1% | 827.7hPa | 2.9V | 18:12:15 | 00:31:26 | 00:00:00 | |
| AA1-15 | 2026-09-01 22:50:57 | 54.08981 | 13.45832 | 112° | 15km/h | 1743m | 5.7m/s | 5.3°C | 70.3% | 828.3hPa | 2.9V | 18:12:15 | 00:31:25 | 00:00:00 | |
| AA1-15 | 2026-09-01 22:50:55 | 54.08985 | 13.45820 | 123° | 20km/h | 1734m | 3.6m/s | 5.3°C | 73.9% | 829hPa | 2.9V | 18:12:15 | 00:31:23 | 00:00:00 | |
| DB0DAN | 2026-09-01 22:50:55 | 54.08985 | 13.45820 | 123° | 18km/h | 1734m | 3.6m/s | 5.3°C | 0% | 828.95hPa | 2.9V | 00:00:00 | 00:00:00 | 00:00:00 | |
| AA1-15 | 2026-09-01 22:50:54 | 54.08987 | 13.45812 | 119° | 24km/h | 1731m | 3m/s | 5.3°C | 75.8% | 829.5hPa | 2.9V | 18:12:15 | 00:31:22 | 00:00:00 | |
| AA1-15 | 2026-09-01 22:50:53 | 54.08990 | 13.45802 | 113° | 27km/h | 1727m | 5m/s | 5.3°C | 76.4% | 829.8hPa | 2.9V | 18:12:15 | 00:31:21 | 00:00:00 | |
| AA1-15 | 2026-09-01 22:50:51 | 54.08994 | 13.45776 | 97° | 33km/h | 1717m | 4.3m/s | 5.3°C | 78.4% | 830.9hPa | 2.9V | 18:12:15 | 00:31:19 | 00:00:00 | |
| AA1-15 | 2026-09-01 22:50:50 | 54.08995 | 13.45762 | 89° | 33km/h | 1713m | 4.6m/s | 5.4°C | 79.2% | 831.2hPa | 2.9V | 18:12:15 | 00:31:18 | 00:00:00 | |
| AA1-15 | 2026-09-01 22:50:48 | 54.08994 | 13.45736 | 86° | 24km/h | 1701m | 6.4m/s | 5.5°C | 78.3% | 832.5hPa | 2.9V | 18:12:15 | 00:31:16 | 00:00:00 | |
| AA1-15 | 2026-09-01 22:50:47 | 54.08994 | 13.45727 | 96° | 20km/h | 1696m | 4.8m/s | 5.5°C | 78% | 833.1hPa | 2.9V | 18:12:15 | 00:31:15 | 00:00:00 | |
| AA1-15 | 2026-09-01 22:50:46 | 54.08995 | 13.45719 | 108° | 18km/h | 1690m | 6.8m/s | 5.6°C | 77.9% | 833.5hPa | 2.9V | 18:12:15 | 00:31:14 | 00:00:00 | |
| AA1-15 | 2026-09-01 22:50:44 | 54.08999 | 13.45702 | 116° | 26km/h | 1677m | 5.4m/s | 5.7°C | 75.6% | 834.9hPa | 2.9V | 18:12:15 | 00:31:12 | 00:00:00 | |
| AA1-15 | 2026-09-01 22:50:43 | 54.09002 | 13.45691 | 108° | 27km/h | 1672m | 3.7m/s | 5.7°C | 75.5% | 835.2hPa | 2.9V | 18:12:15 | 00:31:11 | 00:00:00 | |
| AA1-15 | 2026-09-01 22:50:42 | 54.09004 | 13.45679 | 102° | 31km/h | 1668m | 4.9m/s | 5.7°C | 76.3% | 835.8hPa | 2.9V | 18:12:15 | 00:31:10 | 00:00:00 | |
| DB0DAN | 2026-09-01 22:50:40 | 54.09005 | 13.45653 | 87° | 26km/h | 1657m | 5.1m/s | 5.8°C | 0% | 0hPa | 2.9V | 00:00:00 | 00:00:00 | 00:00:00 | |
| AA1-15 | 2026-09-01 22:50:40 | 54.09005 | 13.45653 | 87° | 27km/h | 1657m | 5.1m/s | 5.8°C | 78.6% | 836.9hPa | 2.9V | 18:12:15 | 00:31:08 | 00:00:00 | |
| AA1-15 | 2026-09-01 22:50:39 | 54.09004 | 13.45641 | 80° | 27km/h | 1652m | 5.2m/s | 5.8°C | 78% | 837.4hPa | 2.9V | 18:12:15 | 00:31:07 | 00:00:00 | |
| AA1-15 | 2026-09-01 22:50:38 | 54.09003 | 13.45630 | 83° | 27km/h | 1647m | 4.5m/s | 5.9°C | 76.7% | 837.9hPa | 2.9V | 18:12:15 | 00:31:06 | 00:00:00 | |
| AA1-15 | 2026-09-01 22:50:36 | 54.09002 | 13.45604 | 98° | 33km/h | 1640m | 3.5m/s | 5.9°C | 78.7% | 838.7hPa | 2.9V | 18:12:15 | 00:31:04 | 00:00:00 | |
| AA1-15 | 2026-09-01 22:50:34 | 54.09007 | 13.45575 | 112° | 38km/h | 1632m | 4.3m/s | 6°C | 75.9% | 839.5hPa | 2.9V | 18:12:15 | 00:31:02 | 00:00:00 | |
| AA1-15 | 2026-09-01 22:50:34 | 54.09011 | 13.45560 | 120° | 38km/h | 1627m | 6.2m/s | 6.1°C | 75.4% | 839.9hPa | 2.9V | 18:12:15 | 00:31:01 | 00:00:00 | |
| AA1-15 | 2026-09-01 22:50:32 | 54.09025 | 13.45524 | 121° | 27km/h | 1612m | 5.1m/s | 6.2°C | 75.3% | 841.4hPa | 2.9V | 18:12:15 | 00:30:58 | 00:00:00 | |
| AA1-15 | 2026-09-01 22:50:31 | 54.09028 | 13.45514 | 112° | 26km/h | 1607m | 6.1m/s | 6.3°C | 74.8% | 842hPa | 2.9V | 18:12:15 | 00:30:57 | 00:00:00 | |
| AA1-15 | 2026-09-01 22:50:28 | 54.09029 | 13.45503 | 97° | 27km/h | 1601m | 6.3m/s | 6.3°C | 74.1% | 842.6hPa | 2.9V | 18:12:15 | 00:30:56 | 00:00:00 | |
| AA1-15 | 2026-09-01 22:50:27 | 54.09029 | 13.45490 | 85° | 31km/h | 1594m | 6.9m/s | 6.4°C | 69.9% | 843.2hPa | 2.9V | 18:12:15 | 00:30:55 | 00:00:00 | |
| AA1-15 | 2026-09-01 22:50:25 | 54.09028 | 13.45461 | 86° | 35km/h | 1584m | 4.8m/s | 6.6°C | 60.2% | 844.3hPa | 2.9V | 18:12:15 | 00:30:53 | 00:00:00 | |
| DB0DAN | 2026-09-01 22:50:25 | 54.09028 | 13.45461 | 86° | 33km/h | 1584m | 4.8m/s | 6.6°C | 0% | 0hPa | 2.9V | 00:00:00 | 00:00:00 | 00:00:00 | |
| AA1-15 | 2026-09-01 22:50:24 | 54.09028 | 13.45446 | 93° | 33km/h | 1579m | 3.3m/s | 6.6°C | 59.4% | 844.9hPa | 2.9V | 18:12:15 | 00:30:52 | 00:00:00 | |
| AA1-15 | 2026-09-01 22:50:22 | 54.09032 | 13.45420 | 114° | 29km/h | 1572m | 4.8m/s | 6.6°C | 61.7% | 845.5hPa | 2.9V | 18:12:15 | 00:30:50 | 00:00:00 | |
| AA1-15 | 2026-09-01 22:50:21 | 54.09035 | 13.45409 | 121° | 29km/h | 1567m | 5m/s | 6.7°C | 63% | 846.1hPa | 2.9V | 18:12:15 | 00:30:49 | 00:00:00 | |
| AA1-15 | 2026-09-01 22:50:20 | 54.09039 | 13.45398 | 127° | 31km/h | 1561m | 6.6m/s | 6.7°C | 62.3% | 846.5hPa | 2.9V | 18:12:15 | 00:30:48 | 00:00:00 | |
| AA1-15 | 2026-09-01 22:50:18 | 54.09050 | 13.45374 | 122° | 37km/h | 1550m | 3.2m/s | 6.8°C | 61.4% | 847.8hPa | 2.9V | 18:12:15 | 00:30:46 | 00:00:00 | |
| AA1-15 | 2026-09-01 22:50:17 | 54.09054 | 13.45361 | 124° | 33km/h | 1547m | 3.4m/s | 6.8°C | 60.7% | 848.2hPa | 2.9V | 18:12:15 | 00:30:45 | 00:00:00 | |
| AA1-15 | 2026-09-01 22:50:16 | 54.09059 | 13.45349 | 118° | 33km/h | 1543m | 3.6m/s | 6.9°C | 58.6% | 848.3hPa | 2.9V | 18:12:15 | 00:30:44 | 00:00:00 | |
| AA1-15 | 2026-09-01 22:50:14 | 54.09065 | 13.45325 | 105° | 29km/h | 1534m | 4.2m/s | 7°C | 52.7% | 849.4hPa | 2.9V | 18:12:15 | 00:30:42 | 00:00:00 | |
| AA1-15 | 2026-09-01 22:50:13 | 54.09066 | 13.45312 | 100° | 31km/h | 1529m | 6m/s | 7°C | 52.5% | 849.8hPa | 2.9V | 18:12:15 | 00:30:41 | 00:00:00 | |
| AA1-15 | 2026-09-01 22:50:12 | 54.09067 | 13.45298 | 98° | 33km/h | 1523m | 7.5m/s | 7.1°C | 52% | 850.6hPa | 2.9V | 18:12:15 | 00:30:40 | 00:00:00 | |
| AA1-15 | 2026-09-01 22:50:10 | 54.09069 | 13.45270 | 91° | 29km/h | 1512m | 4.5m/s | 7.1°C | 59.7% | 851.8hPa | 2.9V | 18:12:15 | 00:30:38 | 00:00:00 | |
| AA1-15 | 2026-09-01 22:50:09 | 54.09069 | 13.45258 | 98° | 26km/h | 1507m | 4.5m/s | 7.1°C | 58.1% | 852.1hPa | 2.9V | 18:12:15 | 00:30:37 | 00:00:00 | |
| AA1-15 | 2026-09-01 22:50:07 | 54.09070 | 13.45240 | 96° | 18km/h | 1501m | 3.4m/s | 7.1°C | 61.2% | 852.8hPa | 2.9V | 18:12:15 | 00:30:35 | 00:00:00 | |
| AA1-15 | 2026-09-01 22:50:06 | 54.09071 | 13.45233 | 104° | 18km/h | 1497m | 3.9m/s | 7.1°C | 65.2% | 853.2hPa | 2.9V | 18:12:15 | 00:30:34 | 00:00:00 | |
| AA1-15 | 2026-09-01 22:50:05 | 54.09072 | 13.45225 | 103° | 18km/h | 1494m | 3m/s | 7.1°C | 65.1% | 853.7hPa | 2.9V | 18:12:15 | 00:30:33 | 00:00:00 | |
| AA1-15 | 2026-09-01 22:50:03 | 54.09076 | 13.45209 | 112° | 20km/h | 1487m | 3.8m/s | 7.2°C | 64.8% | 854.4hPa | 2.9V | 18:12:15 | 00:30:31 | 00:00:00 | |
| AA1-15 | 2026-09-01 22:50:02 | 54.09078 | 13.45201 | 122° | 24km/h | 1482m | 5.9m/s | 7.2°C | 65.5% | 854.7hPa | 2.9V | 18:12:15 | 00:30:30 | 00:00:00 | |
| AA1-15 | 2026-09-01 22:50:01 | 54.09082 | 13.45192 | 126° | 27km/h | 1476m | 5.8m/s | 7.3°C | 64.2% | 855.3hPa | 2.9V | 18:12:15 | 00:30:29 | 00:00:00 | |
| AA1-15 | 2026-09-01 22:50:00 | 54.09086 | 13.45182 | 125° | 29km/h | 1471m | 4.2m/s | 7.3°C | 66.4% | 855.8hPa | 2.9V | 18:12:15 | 00:30:28 | 00:00:00 | |
| AA1-15 | 2026-09-01 22:49:58 | 54.09096 | 13.45128 | 92° | 35km/h | 1452m | 3.8m/s | 7.4°C | 64.7% | 857.9hPa | 2.9V | 18:12:15 | 00:30:24 | 00:00:00 | |
| AA1-15 | 2026-09-01 22:49:58 | 54.09096 | 13.45113 | 86° | 37km/h | 1449m | 3.9m/s | 7.5°C | 65.2% | 858.1hPa | 2.9V | 18:12:15 | 00:30:23 | 00:00:00 | |
| AA1-15 | 2026-09-01 22:49:54 | 54.09095 | 13.45098 | 85° | 35km/h | 1445m | 4.1m/s | 7.5°C | 64.9% | 858.8hPa | 2.9V | 18:12:15 | 00:30:22 | 00:00:00 | |
| AA1-15 | 2026-09-01 22:49:53 | 54.09094 | 13.45083 | 88° | 33km/h | 1440m | 5.4m/s | 7.6°C | 64.6% | 859.2hPa | 2.9V | 18:12:15 | 00:30:21 | 00:00:00 | |
| AA1-15 | 2026-09-01 22:49:51 | 54.09096 | 13.45056 | 107° | 37km/h | 1430m | 5.4m/s | 7.6°C | 67.4% | 860.2hPa | 2.9V | 18:12:15 | 00:30:19 | 00:00:00 | |
| AA1-15 | 2026-09-01 22:49:50 | 54.09100 | 13.45041 | 117° | 38km/h | 1424m | 5.5m/s | 7.7°C | 67.1% | 860.7hPa | 2.9V | 18:12:15 | 00:30:18 | 00:00:00 | |
| AA1-15 | 2026-09-01 22:49:48 | 54.09109 | 13.45011 | 121° | 40km/h | 1415m | 5.3m/s | 7.7°C | 66.5% | 861.9hPa | 2.9V | 18:12:15 | 00:30:16 | 00:00:00 | |
| AA1-15 | 2026-09-01 22:49:47 | 54.09114 | 13.44996 | 114° | 40km/h | 1411m | 3.1m/s | 7.8°C | 67.1% | 862.4hPa | 2.9V | 18:12:15 | 00:30:15 | 00:00:00 | |
| AA1-15 | 2026-09-01 22:49:46 | 54.09118 | 13.44980 | 111° | 38km/h | 1407m | 4.3m/s | 7.8°C | 66.9% | 862.7hPa | 2.9V | 18:12:15 | 00:30:14 | 00:00:00 | |
| AA1-15 | 2026-09-01 22:49:44 | 54.09122 | 13.44952 | 99° | 31km/h | 1399m | 4.8m/s | 7.9°C | 65.9% | 863.6hPa | 2.9V | 18:12:15 | 00:30:12 | 00:00:00 | |
| AA1-15 | 2026-09-01 22:49:43 | 54.09123 | 13.44940 | 92° | 26km/h | 1394m | 4.7m/s | 7.9°C | 66.6% | 864.2hPa | 2.9V | 18:12:15 | 00:30:11 | 00:00:00 | |
| AA1-15 | 2026-09-01 22:49:42 | 54.09123 | 13.44929 | 86° | 24km/h | 1389m | 4.7m/s | 7.9°C | 65.8% | 864.7hPa | 2.9V | 18:12:15 | 00:30:10 | 00:00:00 | |
| AA1-15 | 2026-09-01 22:49:40 | 54.09121 | 13.44910 | 83° | 22km/h | 1382m | 3.2m/s | 8°C | 61.7% | 865.4hPa | 2.9V | 18:12:15 | 00:30:08 | 00:00:00 | |
| AA1-15 | 2026-09-01 22:49:39 | 54.09121 | 13.44901 | 90° | 22km/h | 1379m | 3.1m/s | 8.1°C | 59.8% | 865.7hPa | 2.9V | 18:12:15 | 00:30:07 | 00:00:00 | |
| AA1-15 | 2026-09-01 22:49:37 | 54.09123 | 13.44882 | 112° | 22km/h | 1372m | 4.3m/s | 8.1°C | 59.6% | 866.6hPa | 2.9V | 18:12:15 | 00:30:05 | 00:00:00 | |
| AA1-15 | 2026-09-01 22:49:36 | 54.09125 | 13.44873 | 116° | 26km/h | 1367m | 4.3m/s | 8.1°C | 57.1% | 866.9hPa | 2.9V | 18:12:15 | 00:30:04 | 00:00:00 | |
| AA1-15 | 2026-09-01 22:49:35 | 54.09128 | 13.44863 | 113° | 27km/h | 1362m | 6m/s | 8.1°C | 58.2% | 867.5hPa | 2.9V | 18:12:15 | 00:30:03 | 00:00:00 | |
| AA1-15 | 2026-09-01 22:49:33 | 54.09131 | 13.44839 | 94° | 29km/h | 1351m | 5.3m/s | 8.1°C | 62.2% | 868.7hPa | 2.9V | 18:12:15 | 00:30:01 | 00:00:00 | |
| AA1-15 | 2026-09-01 22:49:32 | 54.09132 | 13.44826 | 88° | 31km/h | 1345m | 5.1m/s | 8.1°C | 64% | 869.2hPa | 2.9V | 18:12:15 | 00:30:00 | 00:00:00 | |
| AA1-15 | 2026-09-01 22:49:31 | 54.09131 | 13.44813 | 86° | 29km/h | 1339m | 6.3m/s | 8.2°C | 64.7% | 869.8hPa | 2.9V | 18:12:15 | 00:29:59 | 00:00:00 | |
| AA1-15 | 2026-09-01 22:49:30 | 54.09131 | 13.44802 | 92° | 26km/h | 1334m | 5.6m/s | 8.2°C | 65% | 870.5hPa | 2.9V | 18:12:15 | 00:29:58 | 00:00:00 | |
| AA1-15 | 2026-09-01 22:49:29 | 54.09134 | 13.44783 | 112° | 24km/h | 1325m | 4.2m/s | 8.2°C | 68.6% | 871.5hPa | 2.9V | 18:12:15 | 00:29:56 | 00:00:00 | |
| AA1-15 | 2026-09-01 22:49:28 | 54.09136 | 13.44773 | 113° | 26km/h | 1320m | 5.8m/s | 8.2°C | 68.6% | 872hPa | 2.9V | 18:12:15 | 00:29:55 | 00:00:00 | |
| AA1-15 | 2026-09-01 22:49:25 | 54.09140 | 13.44750 | 98° | 31km/h | 1308m | 5.7m/s | 8.4°C | 62.3% | 873.2hPa | 2.9V | 18:12:15 | 00:29:53 | 00:00:00 | |
| AA1-15 | 2026-09-01 22:49:24 | 54.09141 | 13.44736 | 94° | 33km/h | 1304m | 3.2m/s | 8.4°C | 0% | 873.8hPa | 2.9V | 18:12:15 | 00:29:52 | 00:00:00 | |
| AA1-15 | 2026-09-01 22:49:23 | 54.09141 | 13.44722 | 93° | 33km/h | 1298m | 7.3m/s | 0°C | 0% | 874.2hPa | 2.9V | 18:12:15 | 00:29:51 | 00:00:00 | |
| AA1-15 | 2026-09-01 22:49:21 | 54.09142 | 13.44697 | 99° | 26km/h | 1285m | 5.3m/s | 0°C | 0% | 875.6hPa | 2.9V | 18:12:15 | 00:29:49 | 00:00:00 | |
| AA1-15 | 2026-09-01 22:49:21 | 54.09144 | 13.44687 | 107° | 26km/h | 1280m | 4.9m/s | 0°C | 0% | 876.2hPa | 2.9V | 18:12:15 | 00:29:48 | 00:00:00 | |
| AA1-15 | 2026-09-01 22:49:18 | 54.09147 | 13.44666 | 106° | 26km/h | 1269m | 5.4m/s | 0°C | 0% | 877.1hPa | 2.9V | 18:12:15 | 00:29:46 | 00:00:00 | |
| AA1-15 | 2026-09-01 22:49:17 | 54.09149 | 13.44656 | 106° | 24km/h | 1264m | 3.8m/s | 0°C | 0% | 877.9hPa | 2.9V | 18:12:15 | 00:29:45 | 00:00:00 | |
| AA1-15 | 2026-09-01 22:49:16 | 54.09151 | 13.44646 | 106° | 22km/h | 1261m | 3.3m/s | 0°C | 0% | 878.1hPa | 2.9V | 18:12:15 | 00:29:44 | 00:00:00 | |
| AA1-15 | 2026-09-01 22:49:14 | 54.09153 | 13.44630 | 105° | 22km/h | 1254m | 2.2m/s | 0°C | 0% | 879hPa | 2.9V | 18:12:15 | 00:29:42 | 00:00:00 | |
| AA1-15 | 2026-09-01 22:49:13 | 54.09154 | 13.44621 | 98° | 22km/h | 1251m | 3m/s | 0°C | 0% | 879.2hPa | 2.9V | 18:12:15 | 00:29:41 | 00:00:00 | |
| AA1-15 | 2026-09-01 22:49:12 | 54.09155 | 13.44612 | 96° | 22km/h | 1248m | 3.5m/s | 0°C | 0% | 879.6hPa | 2.9V | 18:12:15 | 00:29:40 | 00:00:00 | |
| AA1-15 | 2026-09-01 22:49:10 | 54.09156 | 13.44587 | 90° | 35km/h | 1242m | 3.8m/s | 0°C | 0% | 880.3hPa | 2.9V | 18:12:15 | 00:29:38 | 00:00:00 | |
| AA1-15 | 2026-09-01 22:49:09 | 54.09156 | 13.44572 | 96° | 38km/h | 1237m | 5.1m/s | 0°C | 0% | 880.8hPa | 2.9V | 18:12:15 | 00:29:37 | 00:00:00 | |
| AA1-15 | 2026-09-01 22:49:07 | 54.09161 | 13.44537 | 112° | 42km/h | 1227m | 6m/s | 0°C | 0% | 0hPa | 2.9V | 18:12:15 | 00:29:35 | 00:00:00 | |
| AA1-15 | 2026-09-01 22:49:06 | 54.09166 | 13.44522 | 121° | 38km/h | 1221m | 5.3m/s | 0°C | 0% | 0hPa | 2.9V | 18:12:15 | 00:29:34 | 00:00:00 | |
| AA1-15 | 2026-09-01 22:49:05 | 54.09171 | 13.44509 | 125° | 35km/h | 1216m | 4.2m/s | 0°C | 0% | 0hPa | 2.9V | 18:12:15 | 00:29:33 | 00:00:00 | |
| AA1-15 | 2026-09-01 22:49:03 | 54.09182 | 13.44484 | 131° | 37km/h | 1207m | 3.9m/s | 0°C | 0% | 0hPa | 2.9V | 18:12:15 | 00:29:31 | 00:00:00 | |
| AA1-15 | 2026-09-01 22:49:02 | 54.09188 | 13.44473 | 131° | 33km/h | 1203m | 3.5m/s | 0°C | 0% | 0hPa | 2.9V | 18:12:15 | 00:29:30 | 00:00:00 | |
| AA1-15 | 2026-09-01 22:49:01 | 54.09194 | 13.44461 | 124° | 37km/h | 1200m | 3.2m/s | 0°C | 0% | 0hPa | 2.9V | 18:12:15 | 00:29:29 | 00:00:00 | |
| AA1-15 | 2026-09-01 22:48:59 | 54.09202 | 13.44432 | 110° | 40km/h | 1193m | 4.6m/s | 0°C | 0% | 0hPa | 2.9V | 18:12:15 | 00:29:27 | 00:00:00 | |
| AA1-15 | 2026-09-01 22:48:58 | 54.09205 | 13.44415 | 103° | 40km/h | 1188m | 4.5m/s | 0°C | 0% | 0hPa | 2.9V | 18:12:15 | 00:29:26 | 00:00:00 | |
| AA1-15 | 2026-09-01 22:48:57 | 54.09207 | 13.44399 | 93° | 38km/h | 1183m | 5m/s | 0°C | 0% | 0hPa | 2.9V | 18:12:15 | 00:29:25 | 00:00:00 | |
| AA1-15 | 2026-09-01 22:48:55 | 54.09208 | 13.44367 | 92° | 35km/h | 1174m | 4.5m/s | 0°C | 0% | 0hPa | 2.9V | 18:12:15 | 00:29:23 | 00:00:00 | |
| AA1-15 | 2026-09-01 22:48:54 | 54.09209 | 13.44353 | 99° | 31km/h | 1171m | 2.6m/s | 0°C | 0% | 0hPa | 2.9V | 18:12:15 | 00:29:22 | 00:00:00 | |
| AA1-15 | 2026-09-01 22:48:52 | 54.09212 | 13.44329 | 113° | 27km/h | 1163m | 3.4m/s | 0°C | 0% | 0hPa | 2.9V | 18:12:15 | 00:29:20 | 00:00:00 | |
| AA1-15 | 2026-09-01 22:48:51 | 54.09216 | 13.44318 | 118° | 29km/h | 1159m | 4.3m/s | 0°C | 0% | 0hPa | 2.9V | 18:12:15 | 00:29:19 | 00:00:00 | |
| AA1-15 | 2026-09-01 22:48:49 | 54.09225 | 13.44275 | 102° | 42km/h | 1143m | 5.8m/s | 0°C | 0% | 0hPa | 2.9V | 18:12:15 | 00:29:16 | 00:00:00 | |
| AA1-15 | 2026-09-01 22:48:48 | 54.09227 | 13.44257 | 97° | 42km/h | 1137m | 7.2m/s | 0°C | 0% | 0hPa | 2.9V | 18:12:15 | 00:29:15 | 00:00:00 | |
| AA1-15 | 2026-09-01 22:48:44 | 54.09231 | 13.44203 | 104° | 44km/h | 1119m | 5.3m/s | 0°C | 0% | 0hPa | 2.9V | 18:12:15 | 00:29:12 | 00:00:00 | |
| AA1-15 | 2026-09-01 22:48:42 | 54.09239 | 13.44168 | 117° | 44km/h | 1110m | 3.4m/s | 0°C | 0% | 0hPa | 2.9V | 18:12:15 | 00:29:10 | 00:00:00 | |
| AA1-15 | 2026-09-01 22:48:41 | 54.09244 | 13.44151 | 120° | 44km/h | 1106m | 6m/s | 0°C | 0% | 0hPa | 2.9V | 18:12:15 | 00:29:09 | 00:00:00 | |
| MECKS9 | 2026-09-01 22:48:40 | 54.09244 | 13.44151 | 121° | 44km/h | 1106m | 6.0m/s | 0°C | 0% | 0hPa | 2.9V | 00:00:00 | 00:00:00 | 00:00:00 | |
| AA1-15 | 2026-09-01 22:48:22 | 54.09315 | 13.43841 | 116° | 40km/h | 1021m | 3.9m/s | 0°C | 0% | 0hPa | 2.9V | 18:12:15 | 00:28:50 | 00:00:00 | |
| AA1-15 | 2026-09-01 22:48:21 | 54.09319 | 13.43827 | 117° | 35km/h | 1017m | 3.2m/s | 0°C | 0% | 0hPa | 2.9V | 18:12:15 | 00:28:49 | 00:00:00 | |
| AA1-15 | 2026-09-01 22:48:20 | 54.09324 | 13.43814 | 119° | 35km/h | 1013m | 3.5m/s | 0°C | 0% | 0hPa | 2.9V | 18:12:15 | 00:28:48 | 00:00:00 | |
| AA1-15 | 2026-09-01 22:48:18 | 54.09333 | 13.43787 | 120° | 38km/h | 1003m | 6.1m/s | 0°C | 0% | 0hPa | 2.9V | 18:12:15 | 00:28:46 | 00:00:00 | |
| AA1-15 | 2026-09-01 22:48:16 | 54.09342 | 13.43755 | 113° | 40km/h | 993m | 5.2m/s | 0°C | 0% | 0hPa | 2.9V | 18:12:15 | 00:28:44 | 00:00:00 | |
| AA1-15 | 2026-09-01 22:48:10 | 54.09355 | 13.43664 | 98° | 42km/h | 969m | 3.4m/s | 0°C | 0% | 0hPa | 2.9V | 18:12:15 | 00:28:38 | 00:00:00 | |
| AA1-15 | 2026-09-01 22:48:07 | 54.09362 | 13.43602 | 102° | 55km/h | 956m | 7.3m/s | 0°C | 0% | 0hPa | 2.9V | 18:12:15 | 00:28:35 | 00:00:00 |